<?xml version="1.0" encoding="UTF-8" standalone="no" ?>
<gpx xmlns="http://www.topografix.com/GPX/1/1" xmlns:xsi="http://www.w3.org/2001/XMLSchema-instance" xsi:schemaLocation="http://www.topografix.com/GPX/1/1 http://www.topografix.com/GPX/1/1/gpx.xsd" version="1.1" creator="VisuGPX - https://www.visugpx.com">
  <metadata>
    <name>Montée Schneeberg avec notre David international 🤙</name>
  </metadata>
  <trk>
    <name><![CDATA[Montée Schneeberg avec notre David international 🤙_1]]></name>
    <trkseg>
      <trkpt lat="48.63056" lon="7.26033">
        <ele>691.6</ele>
        <time>2024-03-05T14:56:47Z</time>
      </trkpt>
      <trkpt lat="48.63053" lon="7.26034">
        <ele>691.7</ele>
        <time>2024-03-05T14:56:49Z</time>
      </trkpt>
      <trkpt lat="48.6305" lon="7.26033">
        <ele>691.8</ele>
        <time>2024-03-05T14:56:50Z</time>
      </trkpt>
      <trkpt lat="48.63047" lon="7.26032">
        <ele>691.9</ele>
        <time>2024-03-05T14:56:51Z</time>
      </trkpt>
      <trkpt lat="48.63045" lon="7.26031">
        <ele>691.9</ele>
        <time>2024-03-05T14:56:52Z</time>
      </trkpt>
      <trkpt lat="48.63042" lon="7.26029">
        <ele>692.1</ele>
        <time>2024-03-05T14:56:53Z</time>
      </trkpt>
      <trkpt lat="48.63041" lon="7.26028">
        <ele>692.1</ele>
        <time>2024-03-05T14:56:54Z</time>
      </trkpt>
      <trkpt lat="48.63039" lon="7.26026">
        <ele>692.2</ele>
        <time>2024-03-05T14:56:55Z</time>
      </trkpt>
      <trkpt lat="48.63036" lon="7.26023">
        <ele>692.3</ele>
        <time>2024-03-05T14:56:56Z</time>
      </trkpt>
      <trkpt lat="48.63033" lon="7.2602">
        <ele>692.5</ele>
        <time>2024-03-05T14:56:57Z</time>
      </trkpt>
      <trkpt lat="48.63032" lon="7.26019">
        <ele>692.5</ele>
        <time>2024-03-05T14:56:58Z</time>
      </trkpt>
      <trkpt lat="48.6303" lon="7.26016">
        <ele>692.7</ele>
        <time>2024-03-05T14:56:59Z</time>
      </trkpt>
      <trkpt lat="48.63029" lon="7.26016">
        <ele>692.7</ele>
        <time>2024-03-05T14:57:00Z</time>
      </trkpt>
      <trkpt lat="48.63026" lon="7.26013">
        <ele>692.9</ele>
        <time>2024-03-05T14:57:01Z</time>
      </trkpt>
      <trkpt lat="48.63023" lon="7.26011">
        <ele>693.1</ele>
        <time>2024-03-05T14:57:02Z</time>
      </trkpt>
      <trkpt lat="48.63022" lon="7.2601">
        <ele>693.1</ele>
        <time>2024-03-05T14:57:03Z</time>
      </trkpt>
      <trkpt lat="48.63019" lon="7.26008">
        <ele>693.3</ele>
        <time>2024-03-05T14:57:04Z</time>
      </trkpt>
      <trkpt lat="48.63017" lon="7.26007">
        <ele>693.5</ele>
        <time>2024-03-05T14:57:05Z</time>
      </trkpt>
      <trkpt lat="48.63015" lon="7.26006">
        <ele>693.7</ele>
        <time>2024-03-05T14:57:06Z</time>
      </trkpt>
      <trkpt lat="48.63011" lon="7.26004">
        <ele>694</ele>
        <time>2024-03-05T14:57:07Z</time>
      </trkpt>
      <trkpt lat="48.6301" lon="7.26004">
        <ele>694.1</ele>
        <time>2024-03-05T14:57:08Z</time>
      </trkpt>
      <trkpt lat="48.63007" lon="7.26001">
        <ele>694.5</ele>
        <time>2024-03-05T14:57:09Z</time>
      </trkpt>
      <trkpt lat="48.63007" lon="7.26001">
        <ele>694.5</ele>
        <time>2024-03-05T14:57:10Z</time>
      </trkpt>
      <trkpt lat="48.63004" lon="7.25999">
        <ele>694.8</ele>
        <time>2024-03-05T14:57:11Z</time>
      </trkpt>
      <trkpt lat="48.63001" lon="7.25998">
        <ele>695.2</ele>
        <time>2024-03-05T14:57:12Z</time>
      </trkpt>
      <trkpt lat="48.63" lon="7.25997">
        <ele>695.3</ele>
        <time>2024-03-05T14:57:13Z</time>
      </trkpt>
      <trkpt lat="48.62997" lon="7.25994">
        <ele>695.6</ele>
        <time>2024-03-05T14:57:14Z</time>
      </trkpt>
      <trkpt lat="48.62996" lon="7.25993">
        <ele>695.7</ele>
        <time>2024-03-05T14:57:15Z</time>
      </trkpt>
      <trkpt lat="48.62993" lon="7.25991">
        <ele>696</ele>
        <time>2024-03-05T14:57:16Z</time>
      </trkpt>
      <trkpt lat="48.62992" lon="7.2599">
        <ele>696.1</ele>
        <time>2024-03-05T14:57:17Z</time>
      </trkpt>
      <trkpt lat="48.62991" lon="7.25988">
        <ele>696.3</ele>
        <time>2024-03-05T14:57:18Z</time>
      </trkpt>
      <trkpt lat="48.6299" lon="7.25987">
        <ele>696.4</ele>
        <time>2024-03-05T14:57:19Z</time>
      </trkpt>
      <trkpt lat="48.62987" lon="7.25985">
        <ele>696.7</ele>
        <time>2024-03-05T14:57:20Z</time>
      </trkpt>
      <trkpt lat="48.62986" lon="7.25984">
        <ele>696.8</ele>
        <time>2024-03-05T14:57:21Z</time>
      </trkpt>
      <trkpt lat="48.62985" lon="7.25981">
        <ele>697</ele>
        <time>2024-03-05T14:57:22Z</time>
      </trkpt>
      <trkpt lat="48.62984" lon="7.25979">
        <ele>697.1</ele>
        <time>2024-03-05T14:57:23Z</time>
      </trkpt>
      <trkpt lat="48.62983" lon="7.25975">
        <ele>697.4</ele>
        <time>2024-03-05T14:57:24Z</time>
      </trkpt>
      <trkpt lat="48.62982" lon="7.25974">
        <ele>697.5</ele>
        <time>2024-03-05T14:57:25Z</time>
      </trkpt>
      <trkpt lat="48.6298" lon="7.25971">
        <ele>697.7</ele>
        <time>2024-03-05T14:57:26Z</time>
      </trkpt>
      <trkpt lat="48.62979" lon="7.2597">
        <ele>697.8</ele>
        <time>2024-03-05T14:57:27Z</time>
      </trkpt>
      <trkpt lat="48.62978" lon="7.25966">
        <ele>698.1</ele>
        <time>2024-03-05T14:57:28Z</time>
      </trkpt>
      <trkpt lat="48.62977" lon="7.25965">
        <ele>698.2</ele>
        <time>2024-03-05T14:57:29Z</time>
      </trkpt>
      <trkpt lat="48.62975" lon="7.25962">
        <ele>698.5</ele>
        <time>2024-03-05T14:57:30Z</time>
      </trkpt>
      <trkpt lat="48.62975" lon="7.25961">
        <ele>698.5</ele>
        <time>2024-03-05T14:57:31Z</time>
      </trkpt>
      <trkpt lat="48.62972" lon="7.25957">
        <ele>698.8</ele>
        <time>2024-03-05T14:57:32Z</time>
      </trkpt>
      <trkpt lat="48.62972" lon="7.25956">
        <ele>698.9</ele>
        <time>2024-03-05T14:57:33Z</time>
      </trkpt>
      <trkpt lat="48.62971" lon="7.25952">
        <ele>699.2</ele>
        <time>2024-03-05T14:57:34Z</time>
      </trkpt>
      <trkpt lat="48.6297" lon="7.25951">
        <ele>699.2</ele>
        <time>2024-03-05T14:57:35Z</time>
      </trkpt>
      <trkpt lat="48.62968" lon="7.25947">
        <ele>699.5</ele>
        <time>2024-03-05T14:57:36Z</time>
      </trkpt>
      <trkpt lat="48.62967" lon="7.25946">
        <ele>699.6</ele>
        <time>2024-03-05T14:57:37Z</time>
      </trkpt>
      <trkpt lat="48.62965" lon="7.25942">
        <ele>699.9</ele>
        <time>2024-03-05T14:57:38Z</time>
      </trkpt>
      <trkpt lat="48.62965" lon="7.25941">
        <ele>700</ele>
        <time>2024-03-05T14:57:39Z</time>
      </trkpt>
      <trkpt lat="48.62963" lon="7.25937">
        <ele>700.3</ele>
        <time>2024-03-05T14:57:40Z</time>
      </trkpt>
      <trkpt lat="48.62962" lon="7.25936">
        <ele>700.4</ele>
        <time>2024-03-05T14:57:41Z</time>
      </trkpt>
      <trkpt lat="48.6296" lon="7.25932">
        <ele>700.6</ele>
        <time>2024-03-05T14:57:42Z</time>
      </trkpt>
      <trkpt lat="48.62959" lon="7.25931">
        <ele>700.7</ele>
        <time>2024-03-05T14:57:43Z</time>
      </trkpt>
      <trkpt lat="48.62958" lon="7.25927">
        <ele>701</ele>
        <time>2024-03-05T14:57:44Z</time>
      </trkpt>
      <trkpt lat="48.62957" lon="7.25926">
        <ele>701.1</ele>
        <time>2024-03-05T14:57:45Z</time>
      </trkpt>
      <trkpt lat="48.62955" lon="7.25922">
        <ele>701.3</ele>
        <time>2024-03-05T14:57:46Z</time>
      </trkpt>
      <trkpt lat="48.62955" lon="7.2592">
        <ele>701.4</ele>
        <time>2024-03-05T14:57:47Z</time>
      </trkpt>
      <trkpt lat="48.62953" lon="7.25916">
        <ele>701.7</ele>
        <time>2024-03-05T14:57:48Z</time>
      </trkpt>
      <trkpt lat="48.62952" lon="7.25914">
        <ele>701.8</ele>
        <time>2024-03-05T14:57:49Z</time>
      </trkpt>
      <trkpt lat="48.62951" lon="7.25911">
        <ele>702.1</ele>
        <time>2024-03-05T14:57:50Z</time>
      </trkpt>
      <trkpt lat="48.6295" lon="7.25909">
        <ele>702.2</ele>
        <time>2024-03-05T14:57:51Z</time>
      </trkpt>
      <trkpt lat="48.62949" lon="7.25905">
        <ele>702.5</ele>
        <time>2024-03-05T14:57:52Z</time>
      </trkpt>
      <trkpt lat="48.62948" lon="7.25904">
        <ele>702.6</ele>
        <time>2024-03-05T14:57:53Z</time>
      </trkpt>
      <trkpt lat="48.62946" lon="7.259">
        <ele>702.9</ele>
        <time>2024-03-05T14:57:54Z</time>
      </trkpt>
      <trkpt lat="48.62946" lon="7.25899">
        <ele>703</ele>
        <time>2024-03-05T14:57:55Z</time>
      </trkpt>
      <trkpt lat="48.62943" lon="7.25896">
        <ele>703.4</ele>
        <time>2024-03-05T14:57:56Z</time>
      </trkpt>
      <trkpt lat="48.62943" lon="7.25894">
        <ele>703.5</ele>
        <time>2024-03-05T14:57:57Z</time>
      </trkpt>
      <trkpt lat="48.62941" lon="7.25891">
        <ele>703.9</ele>
        <time>2024-03-05T14:57:58Z</time>
      </trkpt>
      <trkpt lat="48.6294" lon="7.2589">
        <ele>704</ele>
        <time>2024-03-05T14:57:59Z</time>
      </trkpt>
      <trkpt lat="48.62938" lon="7.25887">
        <ele>704.4</ele>
        <time>2024-03-05T14:58:00Z</time>
      </trkpt>
      <trkpt lat="48.62937" lon="7.25886">
        <ele>704.5</ele>
        <time>2024-03-05T14:58:01Z</time>
      </trkpt>
      <trkpt lat="48.62935" lon="7.25882">
        <ele>704.9</ele>
        <time>2024-03-05T14:58:02Z</time>
      </trkpt>
      <trkpt lat="48.62934" lon="7.25881">
        <ele>705</ele>
        <time>2024-03-05T14:58:03Z</time>
      </trkpt>
      <trkpt lat="48.62932" lon="7.25877">
        <ele>705.4</ele>
        <time>2024-03-05T14:58:04Z</time>
      </trkpt>
      <trkpt lat="48.62932" lon="7.25876">
        <ele>705.5</ele>
        <time>2024-03-05T14:58:05Z</time>
      </trkpt>
      <trkpt lat="48.6293" lon="7.25872">
        <ele>705.8</ele>
        <time>2024-03-05T14:58:06Z</time>
      </trkpt>
      <trkpt lat="48.6293" lon="7.25871">
        <ele>705.9</ele>
        <time>2024-03-05T14:58:07Z</time>
      </trkpt>
      <trkpt lat="48.62929" lon="7.25869">
        <ele>706.1</ele>
        <time>2024-03-05T14:58:08Z</time>
      </trkpt>
      <trkpt lat="48.62928" lon="7.25867">
        <ele>706.3</ele>
        <time>2024-03-05T14:58:09Z</time>
      </trkpt>
      <trkpt lat="48.62927" lon="7.25861">
        <ele>706.7</ele>
        <time>2024-03-05T14:58:10Z</time>
      </trkpt>
      <trkpt lat="48.62926" lon="7.2586">
        <ele>706.8</ele>
        <time>2024-03-05T14:58:11Z</time>
      </trkpt>
      <trkpt lat="48.62926" lon="7.25854">
        <ele>707.1</ele>
        <time>2024-03-05T14:58:12Z</time>
      </trkpt>
      <trkpt lat="48.62925" lon="7.25853">
        <ele>707.3</ele>
        <time>2024-03-05T14:58:13Z</time>
      </trkpt>
      <trkpt lat="48.62923" lon="7.25849">
        <ele>707.6</ele>
        <time>2024-03-05T14:58:14Z</time>
      </trkpt>
      <trkpt lat="48.62921" lon="7.25844">
        <ele>708</ele>
        <time>2024-03-05T14:58:15Z</time>
      </trkpt>
      <trkpt lat="48.62921" lon="7.25843">
        <ele>708.1</ele>
        <time>2024-03-05T14:58:16Z</time>
      </trkpt>
      <trkpt lat="48.62919" lon="7.25839">
        <ele>708.4</ele>
        <time>2024-03-05T14:58:17Z</time>
      </trkpt>
      <trkpt lat="48.62919" lon="7.25837">
        <ele>708.5</ele>
        <time>2024-03-05T14:58:18Z</time>
      </trkpt>
      <trkpt lat="48.62919" lon="7.25835">
        <ele>708.7</ele>
        <time>2024-03-05T14:58:19Z</time>
      </trkpt>
      <trkpt lat="48.62919" lon="7.25832">
        <ele>708.9</ele>
        <time>2024-03-05T14:58:20Z</time>
      </trkpt>
      <trkpt lat="48.62917" lon="7.25828">
        <ele>709.2</ele>
        <time>2024-03-05T14:58:21Z</time>
      </trkpt>
      <trkpt lat="48.62917" lon="7.25827">
        <ele>709.3</ele>
        <time>2024-03-05T14:58:22Z</time>
      </trkpt>
      <trkpt lat="48.62914" lon="7.25823">
        <ele>709.7</ele>
        <time>2024-03-05T14:58:23Z</time>
      </trkpt>
      <trkpt lat="48.62914" lon="7.25821">
        <ele>709.8</ele>
        <time>2024-03-05T14:58:24Z</time>
      </trkpt>
      <trkpt lat="48.62911" lon="7.25817">
        <ele>710.2</ele>
        <time>2024-03-05T14:58:25Z</time>
      </trkpt>
      <trkpt lat="48.62911" lon="7.25816">
        <ele>710.3</ele>
        <time>2024-03-05T14:58:26Z</time>
      </trkpt>
      <trkpt lat="48.62909" lon="7.25812">
        <ele>710.7</ele>
        <time>2024-03-05T14:58:27Z</time>
      </trkpt>
      <trkpt lat="48.62909" lon="7.2581">
        <ele>710.8</ele>
        <time>2024-03-05T14:58:28Z</time>
      </trkpt>
      <trkpt lat="48.62907" lon="7.25806">
        <ele>711.2</ele>
        <time>2024-03-05T14:58:29Z</time>
      </trkpt>
      <trkpt lat="48.62906" lon="7.25805">
        <ele>711.3</ele>
        <time>2024-03-05T14:58:30Z</time>
      </trkpt>
      <trkpt lat="48.62905" lon="7.258">
        <ele>711.7</ele>
        <time>2024-03-05T14:58:31Z</time>
      </trkpt>
      <trkpt lat="48.62904" lon="7.25799">
        <ele>711.9</ele>
        <time>2024-03-05T14:58:32Z</time>
      </trkpt>
      <trkpt lat="48.62903" lon="7.25795">
        <ele>712.3</ele>
        <time>2024-03-05T14:58:33Z</time>
      </trkpt>
      <trkpt lat="48.62903" lon="7.25793">
        <ele>712.4</ele>
        <time>2024-03-05T14:58:34Z</time>
      </trkpt>
      <trkpt lat="48.62901" lon="7.25789">
        <ele>712.8</ele>
        <time>2024-03-05T14:58:35Z</time>
      </trkpt>
      <trkpt lat="48.629" lon="7.25787">
        <ele>712.9</ele>
        <time>2024-03-05T14:58:36Z</time>
      </trkpt>
      <trkpt lat="48.62899" lon="7.25783">
        <ele>713.3</ele>
        <time>2024-03-05T14:58:37Z</time>
      </trkpt>
      <trkpt lat="48.62898" lon="7.25782">
        <ele>713.4</ele>
        <time>2024-03-05T14:58:38Z</time>
      </trkpt>
      <trkpt lat="48.62897" lon="7.25777">
        <ele>713.7</ele>
        <time>2024-03-05T14:58:39Z</time>
      </trkpt>
      <trkpt lat="48.62897" lon="7.25776">
        <ele>713.9</ele>
        <time>2024-03-05T14:58:40Z</time>
      </trkpt>
      <trkpt lat="48.62897" lon="7.25771">
        <ele>714.2</ele>
        <time>2024-03-05T14:58:41Z</time>
      </trkpt>
      <trkpt lat="48.62897" lon="7.25769">
        <ele>714.3</ele>
        <time>2024-03-05T14:58:42Z</time>
      </trkpt>
      <trkpt lat="48.62897" lon="7.25764">
        <ele>714.6</ele>
        <time>2024-03-05T14:58:43Z</time>
      </trkpt>
      <trkpt lat="48.62896" lon="7.25762">
        <ele>714.7</ele>
        <time>2024-03-05T14:58:44Z</time>
      </trkpt>
      <trkpt lat="48.62895" lon="7.25758">
        <ele>715</ele>
        <time>2024-03-05T14:58:45Z</time>
      </trkpt>
      <trkpt lat="48.62895" lon="7.25756">
        <ele>715.1</ele>
        <time>2024-03-05T14:58:46Z</time>
      </trkpt>
      <trkpt lat="48.62895" lon="7.25751">
        <ele>715.4</ele>
        <time>2024-03-05T14:58:47Z</time>
      </trkpt>
      <trkpt lat="48.62895" lon="7.25749">
        <ele>715.5</ele>
        <time>2024-03-05T14:58:48Z</time>
      </trkpt>
      <trkpt lat="48.62893" lon="7.25745">
        <ele>715.8</ele>
        <time>2024-03-05T14:58:49Z</time>
      </trkpt>
      <trkpt lat="48.62892" lon="7.25744">
        <ele>715.9</ele>
        <time>2024-03-05T14:58:50Z</time>
      </trkpt>
      <trkpt lat="48.62892" lon="7.2574">
        <ele>716.2</ele>
        <time>2024-03-05T14:58:51Z</time>
      </trkpt>
      <trkpt lat="48.62892" lon="7.25735">
        <ele>716.5</ele>
        <time>2024-03-05T14:58:52Z</time>
      </trkpt>
      <trkpt lat="48.62892" lon="7.25733">
        <ele>716.6</ele>
        <time>2024-03-05T14:58:53Z</time>
      </trkpt>
      <trkpt lat="48.6289" lon="7.25728">
        <ele>717</ele>
        <time>2024-03-05T14:58:54Z</time>
      </trkpt>
      <trkpt lat="48.62889" lon="7.25727">
        <ele>717.2</ele>
        <time>2024-03-05T14:58:55Z</time>
      </trkpt>
      <trkpt lat="48.62886" lon="7.25725">
        <ele>717.5</ele>
        <time>2024-03-05T14:58:56Z</time>
      </trkpt>
      <trkpt lat="48.62885" lon="7.25721">
        <ele>717.8</ele>
        <time>2024-03-05T14:58:57Z</time>
      </trkpt>
      <trkpt lat="48.62885" lon="7.2572">
        <ele>717.9</ele>
        <time>2024-03-05T14:58:58Z</time>
      </trkpt>
      <trkpt lat="48.62885" lon="7.25715">
        <ele>718.3</ele>
        <time>2024-03-05T14:58:59Z</time>
      </trkpt>
      <trkpt lat="48.62885" lon="7.25713">
        <ele>718.4</ele>
        <time>2024-03-05T14:59:00Z</time>
      </trkpt>
      <trkpt lat="48.62884" lon="7.25709">
        <ele>718.8</ele>
        <time>2024-03-05T14:59:01Z</time>
      </trkpt>
      <trkpt lat="48.62884" lon="7.25707">
        <ele>718.9</ele>
        <time>2024-03-05T14:59:02Z</time>
      </trkpt>
      <trkpt lat="48.62882" lon="7.25702">
        <ele>719.2</ele>
        <time>2024-03-05T14:59:03Z</time>
      </trkpt>
      <trkpt lat="48.62882" lon="7.25701">
        <ele>719.4</ele>
        <time>2024-03-05T14:59:04Z</time>
      </trkpt>
      <trkpt lat="48.62881" lon="7.25697">
        <ele>719.7</ele>
        <time>2024-03-05T14:59:05Z</time>
      </trkpt>
      <trkpt lat="48.6288" lon="7.25695">
        <ele>719.8</ele>
        <time>2024-03-05T14:59:06Z</time>
      </trkpt>
      <trkpt lat="48.6288" lon="7.25693">
        <ele>720</ele>
        <time>2024-03-05T14:59:07Z</time>
      </trkpt>
      <trkpt lat="48.62879" lon="7.2569">
        <ele>720.3</ele>
        <time>2024-03-05T14:59:08Z</time>
      </trkpt>
      <trkpt lat="48.62878" lon="7.25686">
        <ele>720.6</ele>
        <time>2024-03-05T14:59:09Z</time>
      </trkpt>
      <trkpt lat="48.62878" lon="7.25684">
        <ele>720.8</ele>
        <time>2024-03-05T14:59:10Z</time>
      </trkpt>
      <trkpt lat="48.62877" lon="7.2568">
        <ele>721.2</ele>
        <time>2024-03-05T14:59:11Z</time>
      </trkpt>
      <trkpt lat="48.62876" lon="7.25678">
        <ele>721.3</ele>
        <time>2024-03-05T14:59:12Z</time>
      </trkpt>
      <trkpt lat="48.62876" lon="7.25674">
        <ele>721.7</ele>
        <time>2024-03-05T14:59:13Z</time>
      </trkpt>
      <trkpt lat="48.62875" lon="7.25672">
        <ele>721.9</ele>
        <time>2024-03-05T14:59:14Z</time>
      </trkpt>
      <trkpt lat="48.62874" lon="7.25669">
        <ele>722.3</ele>
        <time>2024-03-05T14:59:15Z</time>
      </trkpt>
      <trkpt lat="48.62874" lon="7.25667">
        <ele>722.4</ele>
        <time>2024-03-05T14:59:16Z</time>
      </trkpt>
      <trkpt lat="48.62873" lon="7.25663">
        <ele>722.8</ele>
        <time>2024-03-05T14:59:17Z</time>
      </trkpt>
      <trkpt lat="48.62872" lon="7.25661">
        <ele>723</ele>
        <time>2024-03-05T14:59:18Z</time>
      </trkpt>
      <trkpt lat="48.6287" lon="7.25658">
        <ele>723.4</ele>
        <time>2024-03-05T14:59:19Z</time>
      </trkpt>
      <trkpt lat="48.6287" lon="7.25657">
        <ele>723.5</ele>
        <time>2024-03-05T14:59:20Z</time>
      </trkpt>
      <trkpt lat="48.62869" lon="7.25654">
        <ele>723.8</ele>
        <time>2024-03-05T14:59:21Z</time>
      </trkpt>
      <trkpt lat="48.62868" lon="7.25652">
        <ele>724.1</ele>
        <time>2024-03-05T14:59:22Z</time>
      </trkpt>
      <trkpt lat="48.62867" lon="7.25647">
        <ele>724.6</ele>
        <time>2024-03-05T14:59:23Z</time>
      </trkpt>
      <trkpt lat="48.62867" lon="7.25646">
        <ele>724.7</ele>
        <time>2024-03-05T14:59:24Z</time>
      </trkpt>
      <trkpt lat="48.62866" lon="7.25641">
        <ele>725.2</ele>
        <time>2024-03-05T14:59:25Z</time>
      </trkpt>
      <trkpt lat="48.62866" lon="7.2564">
        <ele>725.4</ele>
        <time>2024-03-05T14:59:26Z</time>
      </trkpt>
      <trkpt lat="48.62865" lon="7.25638">
        <ele>725.6</ele>
        <time>2024-03-05T14:59:27Z</time>
      </trkpt>
      <trkpt lat="48.62865" lon="7.25634">
        <ele>726</ele>
        <time>2024-03-05T14:59:28Z</time>
      </trkpt>
      <trkpt lat="48.62863" lon="7.25631">
        <ele>726.5</ele>
        <time>2024-03-05T14:59:29Z</time>
      </trkpt>
      <trkpt lat="48.62863" lon="7.25629">
        <ele>726.6</ele>
        <time>2024-03-05T14:59:30Z</time>
      </trkpt>
      <trkpt lat="48.62861" lon="7.25628">
        <ele>727</ele>
        <time>2024-03-05T14:59:31Z</time>
      </trkpt>
      <trkpt lat="48.6286" lon="7.25627">
        <ele>727.1</ele>
        <time>2024-03-05T14:59:32Z</time>
      </trkpt>
      <trkpt lat="48.6286" lon="7.25627">
        <ele>727.3</ele>
        <time>2024-03-05T14:59:33Z</time>
      </trkpt>
      <trkpt lat="48.62858" lon="7.25625">
        <ele>727.6</ele>
        <time>2024-03-05T14:59:34Z</time>
      </trkpt>
      <trkpt lat="48.62857" lon="7.25624">
        <ele>727.9</ele>
        <time>2024-03-05T14:59:35Z</time>
      </trkpt>
      <trkpt lat="48.62856" lon="7.25621">
        <ele>728.2</ele>
        <time>2024-03-05T14:59:36Z</time>
      </trkpt>
      <trkpt lat="48.62855" lon="7.2562">
        <ele>728.5</ele>
        <time>2024-03-05T14:59:37Z</time>
      </trkpt>
      <trkpt lat="48.62853" lon="7.25617">
        <ele>729</ele>
        <time>2024-03-05T14:59:38Z</time>
      </trkpt>
      <trkpt lat="48.62852" lon="7.25616">
        <ele>729.2</ele>
        <time>2024-03-05T14:59:39Z</time>
      </trkpt>
      <trkpt lat="48.62851" lon="7.25615">
        <ele>729.4</ele>
        <time>2024-03-05T14:59:40Z</time>
      </trkpt>
      <trkpt lat="48.62849" lon="7.25614">
        <ele>729.8</ele>
        <time>2024-03-05T14:59:41Z</time>
      </trkpt>
      <trkpt lat="48.62846" lon="7.25612">
        <ele>730.3</ele>
        <time>2024-03-05T14:59:42Z</time>
      </trkpt>
      <trkpt lat="48.62845" lon="7.25611">
        <ele>730.5</ele>
        <time>2024-03-05T14:59:43Z</time>
      </trkpt>
      <trkpt lat="48.62843" lon="7.25609">
        <ele>731</ele>
        <time>2024-03-05T14:59:44Z</time>
      </trkpt>
      <trkpt lat="48.62842" lon="7.25608">
        <ele>731.1</ele>
        <time>2024-03-05T14:59:45Z</time>
      </trkpt>
      <trkpt lat="48.62841" lon="7.25607">
        <ele>731.4</ele>
        <time>2024-03-05T14:59:46Z</time>
      </trkpt>
      <trkpt lat="48.62839" lon="7.25606">
        <ele>731.7</ele>
        <time>2024-03-05T14:59:47Z</time>
      </trkpt>
      <trkpt lat="48.62838" lon="7.25606">
        <ele>731.9</ele>
        <time>2024-03-05T14:59:48Z</time>
      </trkpt>
      <trkpt lat="48.62836" lon="7.25604">
        <ele>732.3</ele>
        <time>2024-03-05T14:59:49Z</time>
      </trkpt>
      <trkpt lat="48.62834" lon="7.25603">
        <ele>732.6</ele>
        <time>2024-03-05T14:59:50Z</time>
      </trkpt>
      <trkpt lat="48.62833" lon="7.25603">
        <ele>732.9</ele>
        <time>2024-03-05T14:59:51Z</time>
      </trkpt>
      <trkpt lat="48.62831" lon="7.25602">
        <ele>733.2</ele>
        <time>2024-03-05T14:59:52Z</time>
      </trkpt>
      <trkpt lat="48.62829" lon="7.25602">
        <ele>733.4</ele>
        <time>2024-03-05T14:59:53Z</time>
      </trkpt>
      <trkpt lat="48.62826" lon="7.25601">
        <ele>733.9</ele>
        <time>2024-03-05T14:59:54Z</time>
      </trkpt>
      <trkpt lat="48.62825" lon="7.25601">
        <ele>734.1</ele>
        <time>2024-03-05T14:59:55Z</time>
      </trkpt>
      <trkpt lat="48.62824" lon="7.25601">
        <ele>734.2</ele>
        <time>2024-03-05T14:59:56Z</time>
      </trkpt>
      <trkpt lat="48.62822" lon="7.25601">
        <ele>734.5</ele>
        <time>2024-03-05T14:59:57Z</time>
      </trkpt>
      <trkpt lat="48.6282" lon="7.25601">
        <ele>734.9</ele>
        <time>2024-03-05T14:59:58Z</time>
      </trkpt>
      <trkpt lat="48.62819" lon="7.25601">
        <ele>734.9</ele>
        <time>2024-03-05T14:59:59Z</time>
      </trkpt>
      <trkpt lat="48.62816" lon="7.25602">
        <ele>734.9</ele>
        <time>2024-03-05T15:00:00Z</time>
      </trkpt>
      <trkpt lat="48.62815" lon="7.25602">
        <ele>734.9</ele>
        <time>2024-03-05T15:00:01Z</time>
      </trkpt>
      <trkpt lat="48.62812" lon="7.25604">
        <ele>735.3</ele>
        <time>2024-03-05T15:00:02Z</time>
      </trkpt>
      <trkpt lat="48.62811" lon="7.25604">
        <ele>735.4</ele>
        <time>2024-03-05T15:00:03Z</time>
      </trkpt>
      <trkpt lat="48.62808" lon="7.25606">
        <ele>735.6</ele>
        <time>2024-03-05T15:00:04Z</time>
      </trkpt>
      <trkpt lat="48.62807" lon="7.25607">
        <ele>735.8</ele>
        <time>2024-03-05T15:00:05Z</time>
      </trkpt>
      <trkpt lat="48.62804" lon="7.25609">
        <ele>736</ele>
        <time>2024-03-05T15:00:06Z</time>
      </trkpt>
      <trkpt lat="48.62803" lon="7.25609">
        <ele>736.1</ele>
        <time>2024-03-05T15:00:07Z</time>
      </trkpt>
      <trkpt lat="48.62801" lon="7.25611">
        <ele>736.4</ele>
        <time>2024-03-05T15:00:08Z</time>
      </trkpt>
      <trkpt lat="48.628" lon="7.25612">
        <ele>736.5</ele>
        <time>2024-03-05T15:00:09Z</time>
      </trkpt>
      <trkpt lat="48.62797" lon="7.25615">
        <ele>736.9</ele>
        <time>2024-03-05T15:00:10Z</time>
      </trkpt>
      <trkpt lat="48.62797" lon="7.25615">
        <ele>737</ele>
        <time>2024-03-05T15:00:11Z</time>
      </trkpt>
      <trkpt lat="48.62794" lon="7.25617">
        <ele>737.4</ele>
        <time>2024-03-05T15:00:12Z</time>
      </trkpt>
      <trkpt lat="48.62793" lon="7.25617">
        <ele>737.5</ele>
        <time>2024-03-05T15:00:13Z</time>
      </trkpt>
      <trkpt lat="48.62791" lon="7.2562">
        <ele>737.9</ele>
        <time>2024-03-05T15:00:14Z</time>
      </trkpt>
      <trkpt lat="48.6279" lon="7.25621">
        <ele>738</ele>
        <time>2024-03-05T15:00:15Z</time>
      </trkpt>
      <trkpt lat="48.62788" lon="7.25624">
        <ele>738.4</ele>
        <time>2024-03-05T15:00:16Z</time>
      </trkpt>
      <trkpt lat="48.62788" lon="7.25625">
        <ele>738.6</ele>
        <time>2024-03-05T15:00:17Z</time>
      </trkpt>
      <trkpt lat="48.62787" lon="7.25627">
        <ele>738.8</ele>
        <time>2024-03-05T15:00:18Z</time>
      </trkpt>
      <trkpt lat="48.62787" lon="7.25629">
        <ele>739</ele>
        <time>2024-03-05T15:00:19Z</time>
      </trkpt>
      <trkpt lat="48.62786" lon="7.25631">
        <ele>739.3</ele>
        <time>2024-03-05T15:00:20Z</time>
      </trkpt>
      <trkpt lat="48.62785" lon="7.25633">
        <ele>739.6</ele>
        <time>2024-03-05T15:00:21Z</time>
      </trkpt>
      <trkpt lat="48.62784" lon="7.25635">
        <ele>739.9</ele>
        <time>2024-03-05T15:00:22Z</time>
      </trkpt>
      <trkpt lat="48.62783" lon="7.25637">
        <ele>740.2</ele>
        <time>2024-03-05T15:00:23Z</time>
      </trkpt>
      <trkpt lat="48.62781" lon="7.25639">
        <ele>740.6</ele>
        <time>2024-03-05T15:00:24Z</time>
      </trkpt>
      <trkpt lat="48.6278" lon="7.2564">
        <ele>740.8</ele>
        <time>2024-03-05T15:00:25Z</time>
      </trkpt>
      <trkpt lat="48.62779" lon="7.25643">
        <ele>741.2</ele>
        <time>2024-03-05T15:00:26Z</time>
      </trkpt>
      <trkpt lat="48.62779" lon="7.25645">
        <ele>741.5</ele>
        <time>2024-03-05T15:00:27Z</time>
      </trkpt>
      <trkpt lat="48.62779" lon="7.25648">
        <ele>741.9</ele>
        <time>2024-03-05T15:00:28Z</time>
      </trkpt>
      <trkpt lat="48.62778" lon="7.2565">
        <ele>742.1</ele>
        <time>2024-03-05T15:00:29Z</time>
      </trkpt>
      <trkpt lat="48.62778" lon="7.25654">
        <ele>742.7</ele>
        <time>2024-03-05T15:00:30Z</time>
      </trkpt>
      <trkpt lat="48.62778" lon="7.25656">
        <ele>742.8</ele>
        <time>2024-03-05T15:00:31Z</time>
      </trkpt>
      <trkpt lat="48.62777" lon="7.2566">
        <ele>743.4</ele>
        <time>2024-03-05T15:00:32Z</time>
      </trkpt>
      <trkpt lat="48.62776" lon="7.25662">
        <ele>743.6</ele>
        <time>2024-03-05T15:00:33Z</time>
      </trkpt>
      <trkpt lat="48.62776" lon="7.25667">
        <ele>744.2</ele>
        <time>2024-03-05T15:00:34Z</time>
      </trkpt>
      <trkpt lat="48.62776" lon="7.25669">
        <ele>744.3</ele>
        <time>2024-03-05T15:00:35Z</time>
      </trkpt>
      <trkpt lat="48.62775" lon="7.25673">
        <ele>744.8</ele>
        <time>2024-03-05T15:00:36Z</time>
      </trkpt>
      <trkpt lat="48.62775" lon="7.25675">
        <ele>745</ele>
        <time>2024-03-05T15:00:37Z</time>
      </trkpt>
      <trkpt lat="48.62775" lon="7.25679">
        <ele>745.4</ele>
        <time>2024-03-05T15:00:38Z</time>
      </trkpt>
      <trkpt lat="48.62775" lon="7.25681">
        <ele>745.6</ele>
        <time>2024-03-05T15:00:39Z</time>
      </trkpt>
      <trkpt lat="48.62775" lon="7.25686">
        <ele>746.1</ele>
        <time>2024-03-05T15:00:40Z</time>
      </trkpt>
      <trkpt lat="48.62775" lon="7.25688">
        <ele>746.2</ele>
        <time>2024-03-05T15:00:41Z</time>
      </trkpt>
      <trkpt lat="48.62774" lon="7.25692">
        <ele>746.6</ele>
        <time>2024-03-05T15:00:42Z</time>
      </trkpt>
      <trkpt lat="48.62774" lon="7.25693">
        <ele>746.7</ele>
        <time>2024-03-05T15:00:43Z</time>
      </trkpt>
      <trkpt lat="48.62775" lon="7.25698">
        <ele>747.1</ele>
        <time>2024-03-05T15:00:44Z</time>
      </trkpt>
      <trkpt lat="48.62775" lon="7.257">
        <ele>747.2</ele>
        <time>2024-03-05T15:00:45Z</time>
      </trkpt>
      <trkpt lat="48.62774" lon="7.25705">
        <ele>747.7</ele>
        <time>2024-03-05T15:00:46Z</time>
      </trkpt>
      <trkpt lat="48.62774" lon="7.25707">
        <ele>747.8</ele>
        <time>2024-03-05T15:00:47Z</time>
      </trkpt>
      <trkpt lat="48.62775" lon="7.25712">
        <ele>748.3</ele>
        <time>2024-03-05T15:00:48Z</time>
      </trkpt>
      <trkpt lat="48.62775" lon="7.25713">
        <ele>748.4</ele>
        <time>2024-03-05T15:00:49Z</time>
      </trkpt>
      <trkpt lat="48.62774" lon="7.25718">
        <ele>748.8</ele>
        <time>2024-03-05T15:00:50Z</time>
      </trkpt>
      <trkpt lat="48.62774" lon="7.25719">
        <ele>749</ele>
        <time>2024-03-05T15:00:51Z</time>
      </trkpt>
      <trkpt lat="48.62773" lon="7.25724">
        <ele>749.4</ele>
        <time>2024-03-05T15:00:52Z</time>
      </trkpt>
      <trkpt lat="48.62772" lon="7.25726">
        <ele>749.5</ele>
        <time>2024-03-05T15:00:53Z</time>
      </trkpt>
      <trkpt lat="48.62771" lon="7.2573">
        <ele>749.9</ele>
        <time>2024-03-05T15:00:54Z</time>
      </trkpt>
      <trkpt lat="48.62771" lon="7.25731">
        <ele>750</ele>
        <time>2024-03-05T15:00:55Z</time>
      </trkpt>
      <trkpt lat="48.6277" lon="7.25735">
        <ele>750.4</ele>
        <time>2024-03-05T15:00:56Z</time>
      </trkpt>
      <trkpt lat="48.6277" lon="7.25736">
        <ele>750.5</ele>
        <time>2024-03-05T15:00:57Z</time>
      </trkpt>
      <trkpt lat="48.62769" lon="7.25741">
        <ele>750.9</ele>
        <time>2024-03-05T15:00:58Z</time>
      </trkpt>
      <trkpt lat="48.62769" lon="7.25743">
        <ele>751</ele>
        <time>2024-03-05T15:00:59Z</time>
      </trkpt>
      <trkpt lat="48.62768" lon="7.25747">
        <ele>751.4</ele>
        <time>2024-03-05T15:01:00Z</time>
      </trkpt>
      <trkpt lat="48.62768" lon="7.25749">
        <ele>751.5</ele>
        <time>2024-03-05T15:01:01Z</time>
      </trkpt>
      <trkpt lat="48.62767" lon="7.25753">
        <ele>751.9</ele>
        <time>2024-03-05T15:01:02Z</time>
      </trkpt>
      <trkpt lat="48.62766" lon="7.25754">
        <ele>752</ele>
        <time>2024-03-05T15:01:03Z</time>
      </trkpt>
      <trkpt lat="48.62766" lon="7.25759">
        <ele>752.3</ele>
        <time>2024-03-05T15:01:04Z</time>
      </trkpt>
      <trkpt lat="48.62766" lon="7.2576">
        <ele>752.4</ele>
        <time>2024-03-05T15:01:05Z</time>
      </trkpt>
      <trkpt lat="48.62765" lon="7.25764">
        <ele>752.7</ele>
        <time>2024-03-05T15:01:06Z</time>
      </trkpt>
      <trkpt lat="48.62765" lon="7.25765">
        <ele>752.9</ele>
        <time>2024-03-05T15:01:07Z</time>
      </trkpt>
      <trkpt lat="48.62765" lon="7.2577">
        <ele>753.2</ele>
        <time>2024-03-05T15:01:08Z</time>
      </trkpt>
      <trkpt lat="48.62765" lon="7.25772">
        <ele>753.3</ele>
        <time>2024-03-05T15:01:09Z</time>
      </trkpt>
      <trkpt lat="48.62765" lon="7.25777">
        <ele>753.6</ele>
        <time>2024-03-05T15:01:10Z</time>
      </trkpt>
      <trkpt lat="48.62765" lon="7.25779">
        <ele>753.7</ele>
        <time>2024-03-05T15:01:11Z</time>
      </trkpt>
      <trkpt lat="48.62764" lon="7.25784">
        <ele>754</ele>
        <time>2024-03-05T15:01:12Z</time>
      </trkpt>
      <trkpt lat="48.62763" lon="7.25786">
        <ele>754.1</ele>
        <time>2024-03-05T15:01:13Z</time>
      </trkpt>
      <trkpt lat="48.62763" lon="7.2579">
        <ele>754.4</ele>
        <time>2024-03-05T15:01:14Z</time>
      </trkpt>
      <trkpt lat="48.62763" lon="7.25792">
        <ele>754.4</ele>
        <time>2024-03-05T15:01:15Z</time>
      </trkpt>
      <trkpt lat="48.62762" lon="7.25796">
        <ele>754.6</ele>
        <time>2024-03-05T15:01:16Z</time>
      </trkpt>
      <trkpt lat="48.62762" lon="7.25797">
        <ele>754.7</ele>
        <time>2024-03-05T15:01:17Z</time>
      </trkpt>
      <trkpt lat="48.62762" lon="7.25802">
        <ele>754.8</ele>
        <time>2024-03-05T15:01:18Z</time>
      </trkpt>
      <trkpt lat="48.62761" lon="7.25806">
        <ele>755</ele>
        <time>2024-03-05T15:01:19Z</time>
      </trkpt>
      <trkpt lat="48.62761" lon="7.25812">
        <ele>755.1</ele>
        <time>2024-03-05T15:01:20Z</time>
      </trkpt>
      <trkpt lat="48.62761" lon="7.25814">
        <ele>755.2</ele>
        <time>2024-03-05T15:01:21Z</time>
      </trkpt>
      <trkpt lat="48.62761" lon="7.25819">
        <ele>755.4</ele>
        <time>2024-03-05T15:01:22Z</time>
      </trkpt>
      <trkpt lat="48.6276" lon="7.25821">
        <ele>755.4</ele>
        <time>2024-03-05T15:01:23Z</time>
      </trkpt>
      <trkpt lat="48.6276" lon="7.25824">
        <ele>755.5</ele>
        <time>2024-03-05T15:01:24Z</time>
      </trkpt>
      <trkpt lat="48.6276" lon="7.25826">
        <ele>755.6</ele>
        <time>2024-03-05T15:01:25Z</time>
      </trkpt>
      <trkpt lat="48.6276" lon="7.25828">
        <ele>755.6</ele>
        <time>2024-03-05T15:01:26Z</time>
      </trkpt>
      <trkpt lat="48.62759" lon="7.2583">
        <ele>755.7</ele>
        <time>2024-03-05T15:01:27Z</time>
      </trkpt>
      <trkpt lat="48.62758" lon="7.25835">
        <ele>755.9</ele>
        <time>2024-03-05T15:01:28Z</time>
      </trkpt>
      <trkpt lat="48.62758" lon="7.25837">
        <ele>755.9</ele>
        <time>2024-03-05T15:01:29Z</time>
      </trkpt>
      <trkpt lat="48.62757" lon="7.25841">
        <ele>756.1</ele>
        <time>2024-03-05T15:01:30Z</time>
      </trkpt>
      <trkpt lat="48.62756" lon="7.25846">
        <ele>756.2</ele>
        <time>2024-03-05T15:01:31Z</time>
      </trkpt>
      <trkpt lat="48.62756" lon="7.25848">
        <ele>756.3</ele>
        <time>2024-03-05T15:01:32Z</time>
      </trkpt>
      <trkpt lat="48.62755" lon="7.25853">
        <ele>756.5</ele>
        <time>2024-03-05T15:01:33Z</time>
      </trkpt>
      <trkpt lat="48.62754" lon="7.25855">
        <ele>756.5</ele>
        <time>2024-03-05T15:01:34Z</time>
      </trkpt>
      <trkpt lat="48.62754" lon="7.25859">
        <ele>756.7</ele>
        <time>2024-03-05T15:01:35Z</time>
      </trkpt>
      <trkpt lat="48.62752" lon="7.25864">
        <ele>756.9</ele>
        <time>2024-03-05T15:01:36Z</time>
      </trkpt>
      <trkpt lat="48.62752" lon="7.25866">
        <ele>757</ele>
        <time>2024-03-05T15:01:37Z</time>
      </trkpt>
      <trkpt lat="48.62752" lon="7.25872">
        <ele>757.2</ele>
        <time>2024-03-05T15:01:38Z</time>
      </trkpt>
      <trkpt lat="48.62752" lon="7.25874">
        <ele>757.3</ele>
        <time>2024-03-05T15:01:39Z</time>
      </trkpt>
      <trkpt lat="48.62751" lon="7.25879">
        <ele>757.5</ele>
        <time>2024-03-05T15:01:40Z</time>
      </trkpt>
      <trkpt lat="48.62751" lon="7.2588">
        <ele>757.5</ele>
        <time>2024-03-05T15:01:41Z</time>
      </trkpt>
      <trkpt lat="48.6275" lon="7.25882">
        <ele>757.6</ele>
        <time>2024-03-05T15:01:42Z</time>
      </trkpt>
      <trkpt lat="48.62749" lon="7.25885">
        <ele>757.7</ele>
        <time>2024-03-05T15:01:43Z</time>
      </trkpt>
      <trkpt lat="48.62746" lon="7.25887">
        <ele>757.9</ele>
        <time>2024-03-05T15:01:44Z</time>
      </trkpt>
      <trkpt lat="48.62745" lon="7.25889">
        <ele>758</ele>
        <time>2024-03-05T15:01:45Z</time>
      </trkpt>
      <trkpt lat="48.62744" lon="7.25894">
        <ele>758.2</ele>
        <time>2024-03-05T15:01:46Z</time>
      </trkpt>
      <trkpt lat="48.62743" lon="7.25895">
        <ele>758.3</ele>
        <time>2024-03-05T15:01:47Z</time>
      </trkpt>
      <trkpt lat="48.62741" lon="7.25898">
        <ele>758.4</ele>
        <time>2024-03-05T15:01:48Z</time>
      </trkpt>
      <trkpt lat="48.62739" lon="7.25901">
        <ele>758.6</ele>
        <time>2024-03-05T15:01:49Z</time>
      </trkpt>
      <trkpt lat="48.62736" lon="7.25905">
        <ele>758.8</ele>
        <time>2024-03-05T15:01:50Z</time>
      </trkpt>
      <trkpt lat="48.62735" lon="7.25907">
        <ele>758.9</ele>
        <time>2024-03-05T15:01:51Z</time>
      </trkpt>
      <trkpt lat="48.62733" lon="7.25911">
        <ele>759.1</ele>
        <time>2024-03-05T15:01:52Z</time>
      </trkpt>
      <trkpt lat="48.62732" lon="7.25913">
        <ele>759.2</ele>
        <time>2024-03-05T15:01:53Z</time>
      </trkpt>
      <trkpt lat="48.62729" lon="7.25917">
        <ele>759.4</ele>
        <time>2024-03-05T15:01:54Z</time>
      </trkpt>
      <trkpt lat="48.62728" lon="7.25918">
        <ele>759.4</ele>
        <time>2024-03-05T15:01:55Z</time>
      </trkpt>
      <trkpt lat="48.62727" lon="7.25923">
        <ele>759.6</ele>
        <time>2024-03-05T15:01:56Z</time>
      </trkpt>
      <trkpt lat="48.62726" lon="7.25924">
        <ele>759.7</ele>
        <time>2024-03-05T15:01:57Z</time>
      </trkpt>
      <trkpt lat="48.62723" lon="7.25927">
        <ele>759.9</ele>
        <time>2024-03-05T15:01:58Z</time>
      </trkpt>
      <trkpt lat="48.62723" lon="7.25929">
        <ele>760</ele>
        <time>2024-03-05T15:01:59Z</time>
      </trkpt>
      <trkpt lat="48.62721" lon="7.25935">
        <ele>760.3</ele>
        <time>2024-03-05T15:02:00Z</time>
      </trkpt>
      <trkpt lat="48.62719" lon="7.25938">
        <ele>760.5</ele>
        <time>2024-03-05T15:02:01Z</time>
      </trkpt>
      <trkpt lat="48.62717" lon="7.25942">
        <ele>760.7</ele>
        <time>2024-03-05T15:02:02Z</time>
      </trkpt>
      <trkpt lat="48.62716" lon="7.25944">
        <ele>760.8</ele>
        <time>2024-03-05T15:02:03Z</time>
      </trkpt>
      <trkpt lat="48.62714" lon="7.25947">
        <ele>761</ele>
        <time>2024-03-05T15:02:04Z</time>
      </trkpt>
      <trkpt lat="48.6271" lon="7.25949">
        <ele>761.3</ele>
        <time>2024-03-05T15:02:05Z</time>
      </trkpt>
      <trkpt lat="48.62709" lon="7.2595">
        <ele>761.4</ele>
        <time>2024-03-05T15:02:06Z</time>
      </trkpt>
      <trkpt lat="48.62706" lon="7.25952">
        <ele>761.6</ele>
        <time>2024-03-05T15:02:07Z</time>
      </trkpt>
      <trkpt lat="48.62705" lon="7.25953">
        <ele>761.7</ele>
        <time>2024-03-05T15:02:08Z</time>
      </trkpt>
      <trkpt lat="48.62702" lon="7.25954">
        <ele>762</ele>
        <time>2024-03-05T15:02:09Z</time>
      </trkpt>
      <trkpt lat="48.62701" lon="7.25954">
        <ele>762.1</ele>
        <time>2024-03-05T15:02:10Z</time>
      </trkpt>
      <trkpt lat="48.62697" lon="7.25955">
        <ele>762.4</ele>
        <time>2024-03-05T15:02:11Z</time>
      </trkpt>
      <trkpt lat="48.62696" lon="7.25955">
        <ele>762.5</ele>
        <time>2024-03-05T15:02:12Z</time>
      </trkpt>
      <trkpt lat="48.62693" lon="7.25957">
        <ele>762.8</ele>
        <time>2024-03-05T15:02:13Z</time>
      </trkpt>
      <trkpt lat="48.62692" lon="7.25958">
        <ele>762.9</ele>
        <time>2024-03-05T15:02:14Z</time>
      </trkpt>
      <trkpt lat="48.62688" lon="7.25961">
        <ele>763.2</ele>
        <time>2024-03-05T15:02:15Z</time>
      </trkpt>
      <trkpt lat="48.62687" lon="7.25962">
        <ele>763.3</ele>
        <time>2024-03-05T15:02:16Z</time>
      </trkpt>
      <trkpt lat="48.62684" lon="7.25965">
        <ele>763.6</ele>
        <time>2024-03-05T15:02:17Z</time>
      </trkpt>
      <trkpt lat="48.62684" lon="7.25966">
        <ele>763.7</ele>
        <time>2024-03-05T15:02:18Z</time>
      </trkpt>
      <trkpt lat="48.62681" lon="7.2597">
        <ele>764</ele>
        <time>2024-03-05T15:02:19Z</time>
      </trkpt>
      <trkpt lat="48.6268" lon="7.25972">
        <ele>764.1</ele>
        <time>2024-03-05T15:02:20Z</time>
      </trkpt>
      <trkpt lat="48.62678" lon="7.25976">
        <ele>764.4</ele>
        <time>2024-03-05T15:02:21Z</time>
      </trkpt>
      <trkpt lat="48.62677" lon="7.25977">
        <ele>764.4</ele>
        <time>2024-03-05T15:02:22Z</time>
      </trkpt>
      <trkpt lat="48.62675" lon="7.25981">
        <ele>764.6</ele>
        <time>2024-03-05T15:02:23Z</time>
      </trkpt>
      <trkpt lat="48.62675" lon="7.25982">
        <ele>764.7</ele>
        <time>2024-03-05T15:02:24Z</time>
      </trkpt>
      <trkpt lat="48.62673" lon="7.25986">
        <ele>764.9</ele>
        <time>2024-03-05T15:02:25Z</time>
      </trkpt>
      <trkpt lat="48.62672" lon="7.25991">
        <ele>765.1</ele>
        <time>2024-03-05T15:02:26Z</time>
      </trkpt>
      <trkpt lat="48.62671" lon="7.25992">
        <ele>765.2</ele>
        <time>2024-03-05T15:02:27Z</time>
      </trkpt>
      <trkpt lat="48.62671" lon="7.25997">
        <ele>765.5</ele>
        <time>2024-03-05T15:02:28Z</time>
      </trkpt>
      <trkpt lat="48.62671" lon="7.25998">
        <ele>765.5</ele>
        <time>2024-03-05T15:02:29Z</time>
      </trkpt>
      <trkpt lat="48.62669" lon="7.26002">
        <ele>765.7</ele>
        <time>2024-03-05T15:02:30Z</time>
      </trkpt>
      <trkpt lat="48.62667" lon="7.26006">
        <ele>766</ele>
        <time>2024-03-05T15:02:31Z</time>
      </trkpt>
      <trkpt lat="48.62667" lon="7.26007">
        <ele>766</ele>
        <time>2024-03-05T15:02:32Z</time>
      </trkpt>
      <trkpt lat="48.62665" lon="7.2601">
        <ele>766.2</ele>
        <time>2024-03-05T15:02:33Z</time>
      </trkpt>
      <trkpt lat="48.62664" lon="7.26011">
        <ele>766.3</ele>
        <time>2024-03-05T15:02:34Z</time>
      </trkpt>
      <trkpt lat="48.62663" lon="7.26016">
        <ele>766.6</ele>
        <time>2024-03-05T15:02:35Z</time>
      </trkpt>
      <trkpt lat="48.62662" lon="7.26018">
        <ele>766.7</ele>
        <time>2024-03-05T15:02:36Z</time>
      </trkpt>
      <trkpt lat="48.62662" lon="7.26022">
        <ele>766.9</ele>
        <time>2024-03-05T15:02:37Z</time>
      </trkpt>
      <trkpt lat="48.62662" lon="7.26024">
        <ele>767</ele>
        <time>2024-03-05T15:02:38Z</time>
      </trkpt>
      <trkpt lat="48.62661" lon="7.26028">
        <ele>767.2</ele>
        <time>2024-03-05T15:02:39Z</time>
      </trkpt>
      <trkpt lat="48.6266" lon="7.2603">
        <ele>767.3</ele>
        <time>2024-03-05T15:02:40Z</time>
      </trkpt>
      <trkpt lat="48.62658" lon="7.26034">
        <ele>767.5</ele>
        <time>2024-03-05T15:02:41Z</time>
      </trkpt>
      <trkpt lat="48.62657" lon="7.26035">
        <ele>767.6</ele>
        <time>2024-03-05T15:02:42Z</time>
      </trkpt>
      <trkpt lat="48.62656" lon="7.26039">
        <ele>767.8</ele>
        <time>2024-03-05T15:02:43Z</time>
      </trkpt>
      <trkpt lat="48.62655" lon="7.2604">
        <ele>767.8</ele>
        <time>2024-03-05T15:02:44Z</time>
      </trkpt>
      <trkpt lat="48.62653" lon="7.26045">
        <ele>768.1</ele>
        <time>2024-03-05T15:02:45Z</time>
      </trkpt>
      <trkpt lat="48.62653" lon="7.26047">
        <ele>768.2</ele>
        <time>2024-03-05T15:02:46Z</time>
      </trkpt>
      <trkpt lat="48.62651" lon="7.26051">
        <ele>768.4</ele>
        <time>2024-03-05T15:02:47Z</time>
      </trkpt>
      <trkpt lat="48.6265" lon="7.26052">
        <ele>768.5</ele>
        <time>2024-03-05T15:02:48Z</time>
      </trkpt>
      <trkpt lat="48.62648" lon="7.26055">
        <ele>768.7</ele>
        <time>2024-03-05T15:02:49Z</time>
      </trkpt>
      <trkpt lat="48.62648" lon="7.26056">
        <ele>768.7</ele>
        <time>2024-03-05T15:02:50Z</time>
      </trkpt>
      <trkpt lat="48.62645" lon="7.2606">
        <ele>769</ele>
        <time>2024-03-05T15:02:51Z</time>
      </trkpt>
      <trkpt lat="48.62645" lon="7.26061">
        <ele>769.1</ele>
        <time>2024-03-05T15:02:52Z</time>
      </trkpt>
      <trkpt lat="48.62643" lon="7.26065">
        <ele>769.3</ele>
        <time>2024-03-05T15:02:53Z</time>
      </trkpt>
      <trkpt lat="48.62643" lon="7.26066">
        <ele>769.4</ele>
        <time>2024-03-05T15:02:54Z</time>
      </trkpt>
      <trkpt lat="48.6264" lon="7.26069">
        <ele>769.7</ele>
        <time>2024-03-05T15:02:55Z</time>
      </trkpt>
      <trkpt lat="48.6264" lon="7.26071">
        <ele>769.8</ele>
        <time>2024-03-05T15:02:56Z</time>
      </trkpt>
      <trkpt lat="48.62637" lon="7.26073">
        <ele>770.1</ele>
        <time>2024-03-05T15:02:57Z</time>
      </trkpt>
      <trkpt lat="48.62636" lon="7.26074">
        <ele>770.2</ele>
        <time>2024-03-05T15:02:58Z</time>
      </trkpt>
      <trkpt lat="48.62634" lon="7.26077">
        <ele>770.5</ele>
        <time>2024-03-05T15:02:59Z</time>
      </trkpt>
      <trkpt lat="48.62633" lon="7.26078">
        <ele>770.6</ele>
        <time>2024-03-05T15:03:00Z</time>
      </trkpt>
      <trkpt lat="48.62631" lon="7.26081">
        <ele>770.9</ele>
        <time>2024-03-05T15:03:01Z</time>
      </trkpt>
      <trkpt lat="48.6263" lon="7.26082">
        <ele>771</ele>
        <time>2024-03-05T15:03:02Z</time>
      </trkpt>
      <trkpt lat="48.62627" lon="7.26086">
        <ele>771.3</ele>
        <time>2024-03-05T15:03:03Z</time>
      </trkpt>
      <trkpt lat="48.62627" lon="7.26087">
        <ele>771.5</ele>
        <time>2024-03-05T15:03:04Z</time>
      </trkpt>
      <trkpt lat="48.62625" lon="7.26091">
        <ele>771.8</ele>
        <time>2024-03-05T15:03:05Z</time>
      </trkpt>
      <trkpt lat="48.62624" lon="7.26092">
        <ele>771.9</ele>
        <time>2024-03-05T15:03:06Z</time>
      </trkpt>
      <trkpt lat="48.62622" lon="7.26096">
        <ele>772.2</ele>
        <time>2024-03-05T15:03:07Z</time>
      </trkpt>
      <trkpt lat="48.62621" lon="7.26097">
        <ele>772.3</ele>
        <time>2024-03-05T15:03:08Z</time>
      </trkpt>
      <trkpt lat="48.62618" lon="7.261">
        <ele>772.5</ele>
        <time>2024-03-05T15:03:09Z</time>
      </trkpt>
      <trkpt lat="48.62617" lon="7.26102">
        <ele>772.6</ele>
        <time>2024-03-05T15:03:10Z</time>
      </trkpt>
      <trkpt lat="48.62615" lon="7.26104">
        <ele>772.8</ele>
        <time>2024-03-05T15:03:11Z</time>
      </trkpt>
      <trkpt lat="48.62612" lon="7.26108">
        <ele>773.1</ele>
        <time>2024-03-05T15:03:12Z</time>
      </trkpt>
      <trkpt lat="48.62611" lon="7.26109">
        <ele>773.2</ele>
        <time>2024-03-05T15:03:13Z</time>
      </trkpt>
      <trkpt lat="48.62609" lon="7.26112">
        <ele>773.4</ele>
        <time>2024-03-05T15:03:14Z</time>
      </trkpt>
      <trkpt lat="48.62608" lon="7.26113">
        <ele>773.5</ele>
        <time>2024-03-05T15:03:15Z</time>
      </trkpt>
      <trkpt lat="48.62606" lon="7.26116">
        <ele>773.7</ele>
        <time>2024-03-05T15:03:16Z</time>
      </trkpt>
      <trkpt lat="48.62605" lon="7.26118">
        <ele>773.8</ele>
        <time>2024-03-05T15:03:17Z</time>
      </trkpt>
      <trkpt lat="48.62602" lon="7.26122">
        <ele>774</ele>
        <time>2024-03-05T15:03:18Z</time>
      </trkpt>
      <trkpt lat="48.62602" lon="7.26123">
        <ele>774.1</ele>
        <time>2024-03-05T15:03:19Z</time>
      </trkpt>
      <trkpt lat="48.62599" lon="7.26126">
        <ele>774.3</ele>
        <time>2024-03-05T15:03:20Z</time>
      </trkpt>
      <trkpt lat="48.62598" lon="7.26127">
        <ele>774.4</ele>
        <time>2024-03-05T15:03:21Z</time>
      </trkpt>
      <trkpt lat="48.62595" lon="7.2613">
        <ele>774.6</ele>
        <time>2024-03-05T15:03:22Z</time>
      </trkpt>
      <trkpt lat="48.62594" lon="7.26131">
        <ele>774.7</ele>
        <time>2024-03-05T15:03:23Z</time>
      </trkpt>
      <trkpt lat="48.62591" lon="7.26134">
        <ele>775</ele>
        <time>2024-03-05T15:03:24Z</time>
      </trkpt>
      <trkpt lat="48.6259" lon="7.26135">
        <ele>775</ele>
        <time>2024-03-05T15:03:25Z</time>
      </trkpt>
      <trkpt lat="48.62587" lon="7.26138">
        <ele>775.3</ele>
        <time>2024-03-05T15:03:26Z</time>
      </trkpt>
      <trkpt lat="48.62586" lon="7.26139">
        <ele>775.4</ele>
        <time>2024-03-05T15:03:27Z</time>
      </trkpt>
      <trkpt lat="48.62583" lon="7.26142">
        <ele>775.5</ele>
        <time>2024-03-05T15:03:28Z</time>
      </trkpt>
      <trkpt lat="48.62581" lon="7.26143">
        <ele>775.7</ele>
        <time>2024-03-05T15:03:29Z</time>
      </trkpt>
      <trkpt lat="48.62578" lon="7.26145">
        <ele>775.9</ele>
        <time>2024-03-05T15:03:30Z</time>
      </trkpt>
      <trkpt lat="48.62576" lon="7.26147">
        <ele>776.1</ele>
        <time>2024-03-05T15:03:31Z</time>
      </trkpt>
      <trkpt lat="48.62572" lon="7.26149">
        <ele>776.3</ele>
        <time>2024-03-05T15:03:32Z</time>
      </trkpt>
      <trkpt lat="48.62571" lon="7.2615">
        <ele>776.3</ele>
        <time>2024-03-05T15:03:33Z</time>
      </trkpt>
      <trkpt lat="48.62568" lon="7.26152">
        <ele>776.5</ele>
        <time>2024-03-05T15:03:34Z</time>
      </trkpt>
      <trkpt lat="48.62567" lon="7.26152">
        <ele>776.6</ele>
        <time>2024-03-05T15:03:35Z</time>
      </trkpt>
      <trkpt lat="48.62564" lon="7.26154">
        <ele>776.8</ele>
        <time>2024-03-05T15:03:36Z</time>
      </trkpt>
      <trkpt lat="48.62563" lon="7.26154">
        <ele>776.8</ele>
        <time>2024-03-05T15:03:37Z</time>
      </trkpt>
      <trkpt lat="48.6256" lon="7.26155">
        <ele>777</ele>
        <time>2024-03-05T15:03:38Z</time>
      </trkpt>
      <trkpt lat="48.62559" lon="7.26156">
        <ele>777.1</ele>
        <time>2024-03-05T15:03:39Z</time>
      </trkpt>
      <trkpt lat="48.62556" lon="7.26157">
        <ele>777.2</ele>
        <time>2024-03-05T15:03:40Z</time>
      </trkpt>
      <trkpt lat="48.62553" lon="7.26159">
        <ele>777.5</ele>
        <time>2024-03-05T15:03:41Z</time>
      </trkpt>
      <trkpt lat="48.62552" lon="7.2616">
        <ele>777.5</ele>
        <time>2024-03-05T15:03:42Z</time>
      </trkpt>
      <trkpt lat="48.62549" lon="7.26163">
        <ele>777.8</ele>
        <time>2024-03-05T15:03:43Z</time>
      </trkpt>
      <trkpt lat="48.62548" lon="7.26164">
        <ele>777.8</ele>
        <time>2024-03-05T15:03:44Z</time>
      </trkpt>
      <trkpt lat="48.62545" lon="7.26167">
        <ele>778.1</ele>
        <time>2024-03-05T15:03:45Z</time>
      </trkpt>
      <trkpt lat="48.62545" lon="7.26169">
        <ele>778.1</ele>
        <time>2024-03-05T15:03:46Z</time>
      </trkpt>
      <trkpt lat="48.62541" lon="7.26171">
        <ele>778.4</ele>
        <time>2024-03-05T15:03:47Z</time>
      </trkpt>
      <trkpt lat="48.6254" lon="7.26172">
        <ele>778.4</ele>
        <time>2024-03-05T15:03:48Z</time>
      </trkpt>
      <trkpt lat="48.62537" lon="7.26174">
        <ele>778.7</ele>
        <time>2024-03-05T15:03:49Z</time>
      </trkpt>
      <trkpt lat="48.62536" lon="7.26175">
        <ele>778.8</ele>
        <time>2024-03-05T15:03:50Z</time>
      </trkpt>
      <trkpt lat="48.62532" lon="7.26177">
        <ele>779</ele>
        <time>2024-03-05T15:03:51Z</time>
      </trkpt>
      <trkpt lat="48.62531" lon="7.26177">
        <ele>779.1</ele>
        <time>2024-03-05T15:03:52Z</time>
      </trkpt>
      <trkpt lat="48.62528" lon="7.2618">
        <ele>779.3</ele>
        <time>2024-03-05T15:03:53Z</time>
      </trkpt>
      <trkpt lat="48.62527" lon="7.26181">
        <ele>779.4</ele>
        <time>2024-03-05T15:03:54Z</time>
      </trkpt>
      <trkpt lat="48.62524" lon="7.26182">
        <ele>779.6</ele>
        <time>2024-03-05T15:03:55Z</time>
      </trkpt>
      <trkpt lat="48.6252" lon="7.26183">
        <ele>779.8</ele>
        <time>2024-03-05T15:03:56Z</time>
      </trkpt>
      <trkpt lat="48.62519" lon="7.26184">
        <ele>779.9</ele>
        <time>2024-03-05T15:03:57Z</time>
      </trkpt>
      <trkpt lat="48.62516" lon="7.26186">
        <ele>780.1</ele>
        <time>2024-03-05T15:03:58Z</time>
      </trkpt>
      <trkpt lat="48.62515" lon="7.26187">
        <ele>780.2</ele>
        <time>2024-03-05T15:03:59Z</time>
      </trkpt>
      <trkpt lat="48.62511" lon="7.26189">
        <ele>780.4</ele>
        <time>2024-03-05T15:04:00Z</time>
      </trkpt>
      <trkpt lat="48.6251" lon="7.2619">
        <ele>780.4</ele>
        <time>2024-03-05T15:04:01Z</time>
      </trkpt>
      <trkpt lat="48.62507" lon="7.26192">
        <ele>780.6</ele>
        <time>2024-03-05T15:04:02Z</time>
      </trkpt>
      <trkpt lat="48.62505" lon="7.26192">
        <ele>780.7</ele>
        <time>2024-03-05T15:04:03Z</time>
      </trkpt>
      <trkpt lat="48.62502" lon="7.26194">
        <ele>780.9</ele>
        <time>2024-03-05T15:04:04Z</time>
      </trkpt>
      <trkpt lat="48.625" lon="7.26194">
        <ele>781</ele>
        <time>2024-03-05T15:04:05Z</time>
      </trkpt>
      <trkpt lat="48.62497" lon="7.26196">
        <ele>781.2</ele>
        <time>2024-03-05T15:04:06Z</time>
      </trkpt>
      <trkpt lat="48.62496" lon="7.26197">
        <ele>781.3</ele>
        <time>2024-03-05T15:04:07Z</time>
      </trkpt>
      <trkpt lat="48.62493" lon="7.26199">
        <ele>781.4</ele>
        <time>2024-03-05T15:04:08Z</time>
      </trkpt>
      <trkpt lat="48.62492" lon="7.262">
        <ele>781.5</ele>
        <time>2024-03-05T15:04:09Z</time>
      </trkpt>
      <trkpt lat="48.62489" lon="7.26201">
        <ele>781.7</ele>
        <time>2024-03-05T15:04:10Z</time>
      </trkpt>
      <trkpt lat="48.62486" lon="7.26203">
        <ele>781.9</ele>
        <time>2024-03-05T15:04:11Z</time>
      </trkpt>
      <trkpt lat="48.62485" lon="7.26204">
        <ele>781.9</ele>
        <time>2024-03-05T15:04:12Z</time>
      </trkpt>
      <trkpt lat="48.62484" lon="7.26206">
        <ele>782</ele>
        <time>2024-03-05T15:04:13Z</time>
      </trkpt>
      <trkpt lat="48.62483" lon="7.26207">
        <ele>782.1</ele>
        <time>2024-03-05T15:04:14Z</time>
      </trkpt>
      <trkpt lat="48.62481" lon="7.26208">
        <ele>782.2</ele>
        <time>2024-03-05T15:04:15Z</time>
      </trkpt>
      <trkpt lat="48.6248" lon="7.26209">
        <ele>782.3</ele>
        <time>2024-03-05T15:04:16Z</time>
      </trkpt>
      <trkpt lat="48.62478" lon="7.26211">
        <ele>782.4</ele>
        <time>2024-03-05T15:04:17Z</time>
      </trkpt>
      <trkpt lat="48.62477" lon="7.26211">
        <ele>782.5</ele>
        <time>2024-03-05T15:04:18Z</time>
      </trkpt>
      <trkpt lat="48.62473" lon="7.26213">
        <ele>782.7</ele>
        <time>2024-03-05T15:04:19Z</time>
      </trkpt>
      <trkpt lat="48.62472" lon="7.26214">
        <ele>782.8</ele>
        <time>2024-03-05T15:04:20Z</time>
      </trkpt>
      <trkpt lat="48.62469" lon="7.26216">
        <ele>783</ele>
        <time>2024-03-05T15:04:21Z</time>
      </trkpt>
      <trkpt lat="48.62468" lon="7.26217">
        <ele>783.1</ele>
        <time>2024-03-05T15:04:22Z</time>
      </trkpt>
      <trkpt lat="48.62464" lon="7.2622">
        <ele>783.3</ele>
        <time>2024-03-05T15:04:23Z</time>
      </trkpt>
      <trkpt lat="48.62462" lon="7.26222">
        <ele>783.5</ele>
        <time>2024-03-05T15:04:24Z</time>
      </trkpt>
      <trkpt lat="48.62459" lon="7.26224">
        <ele>783.7</ele>
        <time>2024-03-05T15:04:25Z</time>
      </trkpt>
      <trkpt lat="48.62456" lon="7.26228">
        <ele>784</ele>
        <time>2024-03-05T15:04:26Z</time>
      </trkpt>
      <trkpt lat="48.62454" lon="7.26229">
        <ele>784.1</ele>
        <time>2024-03-05T15:04:27Z</time>
      </trkpt>
      <trkpt lat="48.62452" lon="7.26232">
        <ele>784.3</ele>
        <time>2024-03-05T15:04:28Z</time>
      </trkpt>
      <trkpt lat="48.6245" lon="7.26235">
        <ele>784.5</ele>
        <time>2024-03-05T15:04:29Z</time>
      </trkpt>
      <trkpt lat="48.62448" lon="7.26238">
        <ele>784.7</ele>
        <time>2024-03-05T15:04:30Z</time>
      </trkpt>
      <trkpt lat="48.62445" lon="7.26242">
        <ele>785</ele>
        <time>2024-03-05T15:04:31Z</time>
      </trkpt>
      <trkpt lat="48.62444" lon="7.26243">
        <ele>785.1</ele>
        <time>2024-03-05T15:04:32Z</time>
      </trkpt>
      <trkpt lat="48.62443" lon="7.26244">
        <ele>785.2</ele>
        <time>2024-03-05T15:04:33Z</time>
      </trkpt>
      <trkpt lat="48.62441" lon="7.26247">
        <ele>785.4</ele>
        <time>2024-03-05T15:04:34Z</time>
      </trkpt>
      <trkpt lat="48.62439" lon="7.26252">
        <ele>786</ele>
        <time>2024-03-05T15:04:35Z</time>
      </trkpt>
      <trkpt lat="48.62438" lon="7.26254">
        <ele>786.2</ele>
        <time>2024-03-05T15:04:36Z</time>
      </trkpt>
      <trkpt lat="48.62435" lon="7.26256">
        <ele>786.5</ele>
        <time>2024-03-05T15:04:37Z</time>
      </trkpt>
      <trkpt lat="48.62433" lon="7.2626">
        <ele>786.9</ele>
        <time>2024-03-05T15:04:38Z</time>
      </trkpt>
      <trkpt lat="48.62432" lon="7.26261">
        <ele>787</ele>
        <time>2024-03-05T15:04:39Z</time>
      </trkpt>
      <trkpt lat="48.62429" lon="7.26265">
        <ele>787.4</ele>
        <time>2024-03-05T15:04:40Z</time>
      </trkpt>
      <trkpt lat="48.62428" lon="7.26266">
        <ele>787.5</ele>
        <time>2024-03-05T15:04:41Z</time>
      </trkpt>
      <trkpt lat="48.62425" lon="7.26269">
        <ele>787.8</ele>
        <time>2024-03-05T15:04:42Z</time>
      </trkpt>
      <trkpt lat="48.62424" lon="7.2627">
        <ele>787.9</ele>
        <time>2024-03-05T15:04:43Z</time>
      </trkpt>
      <trkpt lat="48.62422" lon="7.26273">
        <ele>788.2</ele>
        <time>2024-03-05T15:04:44Z</time>
      </trkpt>
      <trkpt lat="48.62419" lon="7.26277">
        <ele>788.5</ele>
        <time>2024-03-05T15:04:45Z</time>
      </trkpt>
      <trkpt lat="48.62419" lon="7.26278">
        <ele>788.6</ele>
        <time>2024-03-05T15:04:46Z</time>
      </trkpt>
      <trkpt lat="48.62416" lon="7.26282">
        <ele>789</ele>
        <time>2024-03-05T15:04:47Z</time>
      </trkpt>
      <trkpt lat="48.62415" lon="7.26283">
        <ele>789.2</ele>
        <time>2024-03-05T15:04:48Z</time>
      </trkpt>
      <trkpt lat="48.62412" lon="7.26286">
        <ele>789.4</ele>
        <time>2024-03-05T15:04:49Z</time>
      </trkpt>
      <trkpt lat="48.6241" lon="7.2629">
        <ele>789.8</ele>
        <time>2024-03-05T15:04:50Z</time>
      </trkpt>
      <trkpt lat="48.62409" lon="7.26292">
        <ele>789.9</ele>
        <time>2024-03-05T15:04:51Z</time>
      </trkpt>
      <trkpt lat="48.62406" lon="7.26295">
        <ele>790.2</ele>
        <time>2024-03-05T15:04:52Z</time>
      </trkpt>
      <trkpt lat="48.62405" lon="7.26297">
        <ele>790.3</ele>
        <time>2024-03-05T15:04:53Z</time>
      </trkpt>
      <trkpt lat="48.62401" lon="7.263">
        <ele>790.6</ele>
        <time>2024-03-05T15:04:54Z</time>
      </trkpt>
      <trkpt lat="48.624" lon="7.26301">
        <ele>790.7</ele>
        <time>2024-03-05T15:04:55Z</time>
      </trkpt>
      <trkpt lat="48.62397" lon="7.26303">
        <ele>791</ele>
        <time>2024-03-05T15:04:56Z</time>
      </trkpt>
      <trkpt lat="48.62396" lon="7.26304">
        <ele>791.1</ele>
        <time>2024-03-05T15:04:57Z</time>
      </trkpt>
      <trkpt lat="48.62393" lon="7.26306">
        <ele>791.4</ele>
        <time>2024-03-05T15:04:58Z</time>
      </trkpt>
      <trkpt lat="48.62391" lon="7.26306">
        <ele>791.5</ele>
        <time>2024-03-05T15:04:59Z</time>
      </trkpt>
      <trkpt lat="48.62388" lon="7.26306">
        <ele>791.9</ele>
        <time>2024-03-05T15:05:00Z</time>
      </trkpt>
      <trkpt lat="48.62387" lon="7.26306">
        <ele>792</ele>
        <time>2024-03-05T15:05:01Z</time>
      </trkpt>
      <trkpt lat="48.62384" lon="7.26306">
        <ele>792.3</ele>
        <time>2024-03-05T15:05:02Z</time>
      </trkpt>
      <trkpt lat="48.62382" lon="7.26305">
        <ele>792.4</ele>
        <time>2024-03-05T15:05:03Z</time>
      </trkpt>
      <trkpt lat="48.62381" lon="7.26304">
        <ele>792.5</ele>
        <time>2024-03-05T15:05:04Z</time>
      </trkpt>
      <trkpt lat="48.62378" lon="7.26302">
        <ele>792.8</ele>
        <time>2024-03-05T15:05:05Z</time>
      </trkpt>
      <trkpt lat="48.62377" lon="7.26302">
        <ele>792.9</ele>
        <time>2024-03-05T15:05:06Z</time>
      </trkpt>
      <trkpt lat="48.62374" lon="7.26302">
        <ele>793.1</ele>
        <time>2024-03-05T15:05:07Z</time>
      </trkpt>
      <trkpt lat="48.62372" lon="7.26302">
        <ele>793.2</ele>
        <time>2024-03-05T15:05:08Z</time>
      </trkpt>
      <trkpt lat="48.62369" lon="7.26302">
        <ele>793.4</ele>
        <time>2024-03-05T15:05:09Z</time>
      </trkpt>
      <trkpt lat="48.62368" lon="7.26301">
        <ele>793.5</ele>
        <time>2024-03-05T15:05:10Z</time>
      </trkpt>
      <trkpt lat="48.62367" lon="7.263">
        <ele>793.6</ele>
        <time>2024-03-05T15:05:11Z</time>
      </trkpt>
      <trkpt lat="48.62366" lon="7.26299">
        <ele>793.6</ele>
        <time>2024-03-05T15:05:12Z</time>
      </trkpt>
      <trkpt lat="48.62363" lon="7.26296">
        <ele>793.8</ele>
        <time>2024-03-05T15:05:13Z</time>
      </trkpt>
      <trkpt lat="48.62362" lon="7.26295">
        <ele>793.9</ele>
        <time>2024-03-05T15:05:14Z</time>
      </trkpt>
      <trkpt lat="48.62359" lon="7.26292">
        <ele>794</ele>
        <time>2024-03-05T15:05:15Z</time>
      </trkpt>
      <trkpt lat="48.62358" lon="7.26291">
        <ele>794.1</ele>
        <time>2024-03-05T15:05:16Z</time>
      </trkpt>
      <trkpt lat="48.62355" lon="7.26289">
        <ele>794.3</ele>
        <time>2024-03-05T15:05:17Z</time>
      </trkpt>
      <trkpt lat="48.62354" lon="7.26288">
        <ele>794.3</ele>
        <time>2024-03-05T15:05:18Z</time>
      </trkpt>
      <trkpt lat="48.62351" lon="7.26286">
        <ele>794.5</ele>
        <time>2024-03-05T15:05:19Z</time>
      </trkpt>
      <trkpt lat="48.62348" lon="7.26283">
        <ele>794.6</ele>
        <time>2024-03-05T15:05:20Z</time>
      </trkpt>
      <trkpt lat="48.62347" lon="7.26282">
        <ele>794.7</ele>
        <time>2024-03-05T15:05:21Z</time>
      </trkpt>
      <trkpt lat="48.62344" lon="7.2628">
        <ele>794.8</ele>
        <time>2024-03-05T15:05:22Z</time>
      </trkpt>
      <trkpt lat="48.62343" lon="7.26279">
        <ele>794.9</ele>
        <time>2024-03-05T15:05:23Z</time>
      </trkpt>
      <trkpt lat="48.62339" lon="7.26277">
        <ele>795</ele>
        <time>2024-03-05T15:05:24Z</time>
      </trkpt>
      <trkpt lat="48.62338" lon="7.26277">
        <ele>795.1</ele>
        <time>2024-03-05T15:05:25Z</time>
      </trkpt>
      <trkpt lat="48.62335" lon="7.26276">
        <ele>795.2</ele>
        <time>2024-03-05T15:05:26Z</time>
      </trkpt>
      <trkpt lat="48.62331" lon="7.26275">
        <ele>795.3</ele>
        <time>2024-03-05T15:05:27Z</time>
      </trkpt>
      <trkpt lat="48.62328" lon="7.26273">
        <ele>795.4</ele>
        <time>2024-03-05T15:05:28Z</time>
      </trkpt>
      <trkpt lat="48.62326" lon="7.26271">
        <ele>795.5</ele>
        <time>2024-03-05T15:05:29Z</time>
      </trkpt>
      <trkpt lat="48.62322" lon="7.26269">
        <ele>795.6</ele>
        <time>2024-03-05T15:05:30Z</time>
      </trkpt>
      <trkpt lat="48.62321" lon="7.26268">
        <ele>795.7</ele>
        <time>2024-03-05T15:05:31Z</time>
      </trkpt>
      <trkpt lat="48.62318" lon="7.26266">
        <ele>795.8</ele>
        <time>2024-03-05T15:05:32Z</time>
      </trkpt>
      <trkpt lat="48.62317" lon="7.26266">
        <ele>795.8</ele>
        <time>2024-03-05T15:05:33Z</time>
      </trkpt>
      <trkpt lat="48.62314" lon="7.26265">
        <ele>796</ele>
        <time>2024-03-05T15:05:34Z</time>
      </trkpt>
      <trkpt lat="48.6231" lon="7.26265">
        <ele>796.1</ele>
        <time>2024-03-05T15:05:35Z</time>
      </trkpt>
      <trkpt lat="48.62306" lon="7.26265">
        <ele>796.2</ele>
        <time>2024-03-05T15:05:36Z</time>
      </trkpt>
      <trkpt lat="48.62303" lon="7.26264">
        <ele>796.4</ele>
        <time>2024-03-05T15:05:37Z</time>
      </trkpt>
      <trkpt lat="48.62298" lon="7.26263">
        <ele>796.5</ele>
        <time>2024-03-05T15:05:38Z</time>
      </trkpt>
      <trkpt lat="48.62295" lon="7.26262">
        <ele>796.6</ele>
        <time>2024-03-05T15:05:39Z</time>
      </trkpt>
      <trkpt lat="48.6229" lon="7.26261">
        <ele>796.8</ele>
        <time>2024-03-05T15:05:40Z</time>
      </trkpt>
      <trkpt lat="48.62287" lon="7.26261">
        <ele>796.8</ele>
        <time>2024-03-05T15:05:41Z</time>
      </trkpt>
      <trkpt lat="48.62283" lon="7.2626">
        <ele>796.9</ele>
        <time>2024-03-05T15:05:42Z</time>
      </trkpt>
      <trkpt lat="48.62279" lon="7.26259">
        <ele>797</ele>
        <time>2024-03-05T15:05:43Z</time>
      </trkpt>
      <trkpt lat="48.62276" lon="7.26259">
        <ele>797.1</ele>
        <time>2024-03-05T15:05:44Z</time>
      </trkpt>
      <trkpt lat="48.62273" lon="7.26259">
        <ele>797.2</ele>
        <time>2024-03-05T15:05:45Z</time>
      </trkpt>
      <trkpt lat="48.6227" lon="7.26259">
        <ele>797.3</ele>
        <time>2024-03-05T15:05:46Z</time>
      </trkpt>
      <trkpt lat="48.62269" lon="7.26259">
        <ele>797.3</ele>
        <time>2024-03-05T15:05:47Z</time>
      </trkpt>
      <trkpt lat="48.62269" lon="7.26259">
        <ele>797.3</ele>
        <time>2024-03-05T15:05:48Z</time>
      </trkpt>
      <trkpt lat="48.62268" lon="7.26259">
        <ele>797.4</ele>
        <time>2024-03-05T15:05:49Z</time>
      </trkpt>
      <trkpt lat="48.62267" lon="7.26259">
        <ele>797.4</ele>
        <time>2024-03-05T15:05:50Z</time>
      </trkpt>
      <trkpt lat="48.62266" lon="7.26259">
        <ele>797.5</ele>
        <time>2024-03-05T15:05:51Z</time>
      </trkpt>
      <trkpt lat="48.62264" lon="7.26259">
        <ele>797.6</ele>
        <time>2024-03-05T15:05:52Z</time>
      </trkpt>
      <trkpt lat="48.62263" lon="7.26259">
        <ele>797.6</ele>
        <time>2024-03-05T15:05:53Z</time>
      </trkpt>
      <trkpt lat="48.62261" lon="7.2626">
        <ele>797.6</ele>
        <time>2024-03-05T15:05:54Z</time>
      </trkpt>
      <trkpt lat="48.62258" lon="7.26259">
        <ele>797.8</ele>
        <time>2024-03-05T15:05:55Z</time>
      </trkpt>
      <trkpt lat="48.62257" lon="7.26259">
        <ele>797.8</ele>
        <time>2024-03-05T15:05:56Z</time>
      </trkpt>
      <trkpt lat="48.62255" lon="7.26261">
        <ele>797.9</ele>
        <time>2024-03-05T15:05:57Z</time>
      </trkpt>
      <trkpt lat="48.62254" lon="7.26261">
        <ele>798</ele>
        <time>2024-03-05T15:05:58Z</time>
      </trkpt>
      <trkpt lat="48.62251" lon="7.26262">
        <ele>798.1</ele>
        <time>2024-03-05T15:05:59Z</time>
      </trkpt>
      <trkpt lat="48.6225" lon="7.26263">
        <ele>798.1</ele>
        <time>2024-03-05T15:06:00Z</time>
      </trkpt>
      <trkpt lat="48.62248" lon="7.26263">
        <ele>798.2</ele>
        <time>2024-03-05T15:06:01Z</time>
      </trkpt>
      <trkpt lat="48.62246" lon="7.26263">
        <ele>798.3</ele>
        <time>2024-03-05T15:06:02Z</time>
      </trkpt>
      <trkpt lat="48.62245" lon="7.26264">
        <ele>798.4</ele>
        <time>2024-03-05T15:06:03Z</time>
      </trkpt>
      <trkpt lat="48.62243" lon="7.26265">
        <ele>798.5</ele>
        <time>2024-03-05T15:06:04Z</time>
      </trkpt>
      <trkpt lat="48.6224" lon="7.26268">
        <ele>798.7</ele>
        <time>2024-03-05T15:06:05Z</time>
      </trkpt>
      <trkpt lat="48.62239" lon="7.26269">
        <ele>798.8</ele>
        <time>2024-03-05T15:06:06Z</time>
      </trkpt>
      <trkpt lat="48.62235" lon="7.26271">
        <ele>798.9</ele>
        <time>2024-03-05T15:06:07Z</time>
      </trkpt>
      <trkpt lat="48.62234" lon="7.26271">
        <ele>799</ele>
        <time>2024-03-05T15:06:08Z</time>
      </trkpt>
      <trkpt lat="48.6223" lon="7.26271">
        <ele>799.2</ele>
        <time>2024-03-05T15:06:09Z</time>
      </trkpt>
      <trkpt lat="48.62228" lon="7.26271">
        <ele>799.3</ele>
        <time>2024-03-05T15:06:10Z</time>
      </trkpt>
      <trkpt lat="48.62225" lon="7.26271">
        <ele>799.4</ele>
        <time>2024-03-05T15:06:11Z</time>
      </trkpt>
      <trkpt lat="48.62223" lon="7.26272">
        <ele>799.6</ele>
        <time>2024-03-05T15:06:12Z</time>
      </trkpt>
      <trkpt lat="48.6222" lon="7.26273">
        <ele>799.7</ele>
        <time>2024-03-05T15:06:13Z</time>
      </trkpt>
      <trkpt lat="48.62216" lon="7.26275">
        <ele>799.9</ele>
        <time>2024-03-05T15:06:14Z</time>
      </trkpt>
      <trkpt lat="48.62213" lon="7.26276">
        <ele>800</ele>
        <time>2024-03-05T15:06:15Z</time>
      </trkpt>
      <trkpt lat="48.62209" lon="7.26278">
        <ele>800.2</ele>
        <time>2024-03-05T15:06:16Z</time>
      </trkpt>
      <trkpt lat="48.62205" lon="7.26279">
        <ele>800.4</ele>
        <time>2024-03-05T15:06:17Z</time>
      </trkpt>
      <trkpt lat="48.62201" lon="7.2628">
        <ele>800.5</ele>
        <time>2024-03-05T15:06:18Z</time>
      </trkpt>
      <trkpt lat="48.62197" lon="7.26281">
        <ele>800.7</ele>
        <time>2024-03-05T15:06:19Z</time>
      </trkpt>
      <trkpt lat="48.62193" lon="7.26282">
        <ele>800.9</ele>
        <time>2024-03-05T15:06:20Z</time>
      </trkpt>
      <trkpt lat="48.62192" lon="7.26282">
        <ele>800.9</ele>
        <time>2024-03-05T15:06:21Z</time>
      </trkpt>
      <trkpt lat="48.62188" lon="7.26283">
        <ele>801.1</ele>
        <time>2024-03-05T15:06:22Z</time>
      </trkpt>
      <trkpt lat="48.62187" lon="7.26283">
        <ele>801.1</ele>
        <time>2024-03-05T15:06:23Z</time>
      </trkpt>
      <trkpt lat="48.62184" lon="7.26285">
        <ele>801.3</ele>
        <time>2024-03-05T15:06:24Z</time>
      </trkpt>
      <trkpt lat="48.62183" lon="7.26285">
        <ele>801.3</ele>
        <time>2024-03-05T15:06:25Z</time>
      </trkpt>
      <trkpt lat="48.62181" lon="7.26288">
        <ele>801.4</ele>
        <time>2024-03-05T15:06:26Z</time>
      </trkpt>
      <trkpt lat="48.62178" lon="7.2629">
        <ele>801.6</ele>
        <time>2024-03-05T15:06:27Z</time>
      </trkpt>
      <trkpt lat="48.62175" lon="7.26293">
        <ele>801.7</ele>
        <time>2024-03-05T15:06:28Z</time>
      </trkpt>
      <trkpt lat="48.62172" lon="7.26296">
        <ele>801.8</ele>
        <time>2024-03-05T15:06:29Z</time>
      </trkpt>
      <trkpt lat="48.62171" lon="7.26297">
        <ele>801.8</ele>
        <time>2024-03-05T15:06:30Z</time>
      </trkpt>
      <trkpt lat="48.62168" lon="7.26299">
        <ele>802</ele>
        <time>2024-03-05T15:06:31Z</time>
      </trkpt>
      <trkpt lat="48.62167" lon="7.263">
        <ele>802</ele>
        <time>2024-03-05T15:06:32Z</time>
      </trkpt>
      <trkpt lat="48.62164" lon="7.26302">
        <ele>802.2</ele>
        <time>2024-03-05T15:06:33Z</time>
      </trkpt>
      <trkpt lat="48.62162" lon="7.26305">
        <ele>802.3</ele>
        <time>2024-03-05T15:06:34Z</time>
      </trkpt>
      <trkpt lat="48.62159" lon="7.26307">
        <ele>802.4</ele>
        <time>2024-03-05T15:06:35Z</time>
      </trkpt>
      <trkpt lat="48.62156" lon="7.26311">
        <ele>802.5</ele>
        <time>2024-03-05T15:06:36Z</time>
      </trkpt>
      <trkpt lat="48.62155" lon="7.26312">
        <ele>802.6</ele>
        <time>2024-03-05T15:06:37Z</time>
      </trkpt>
      <trkpt lat="48.62153" lon="7.26317">
        <ele>802.8</ele>
        <time>2024-03-05T15:06:39Z</time>
      </trkpt>
      <trkpt lat="48.62152" lon="7.26317">
        <ele>802.8</ele>
        <time>2024-03-05T15:06:40Z</time>
      </trkpt>
      <trkpt lat="48.6215" lon="7.26316">
        <ele>802.9</ele>
        <time>2024-03-05T15:06:41Z</time>
      </trkpt>
      <trkpt lat="48.62147" lon="7.26319">
        <ele>803.1</ele>
        <time>2024-03-05T15:06:42Z</time>
      </trkpt>
      <trkpt lat="48.62144" lon="7.26322">
        <ele>803.3</ele>
        <time>2024-03-05T15:06:43Z</time>
      </trkpt>
      <trkpt lat="48.62138" lon="7.26324">
        <ele>803.5</ele>
        <time>2024-03-05T15:06:44Z</time>
      </trkpt>
      <trkpt lat="48.62135" lon="7.26328">
        <ele>803.6</ele>
        <time>2024-03-05T15:06:45Z</time>
      </trkpt>
      <trkpt lat="48.62132" lon="7.26328">
        <ele>803.7</ele>
        <time>2024-03-05T15:06:46Z</time>
      </trkpt>
      <trkpt lat="48.62129" lon="7.26329">
        <ele>803.8</ele>
        <time>2024-03-05T15:06:47Z</time>
      </trkpt>
      <trkpt lat="48.62125" lon="7.26328">
        <ele>803.9</ele>
        <time>2024-03-05T15:06:48Z</time>
      </trkpt>
      <trkpt lat="48.62122" lon="7.26328">
        <ele>803.9</ele>
        <time>2024-03-05T15:06:49Z</time>
      </trkpt>
      <trkpt lat="48.62117" lon="7.26329">
        <ele>803.9</ele>
        <time>2024-03-05T15:06:50Z</time>
      </trkpt>
      <trkpt lat="48.62112" lon="7.2633">
        <ele>803.9</ele>
        <time>2024-03-05T15:06:51Z</time>
      </trkpt>
      <trkpt lat="48.62111" lon="7.2633">
        <ele>803.8</ele>
        <time>2024-03-05T15:06:52Z</time>
      </trkpt>
      <trkpt lat="48.62107" lon="7.26331">
        <ele>803.8</ele>
        <time>2024-03-05T15:06:53Z</time>
      </trkpt>
      <trkpt lat="48.62102" lon="7.26331">
        <ele>803.8</ele>
        <time>2024-03-05T15:06:54Z</time>
      </trkpt>
      <trkpt lat="48.62099" lon="7.26331">
        <ele>803.8</ele>
        <time>2024-03-05T15:06:55Z</time>
      </trkpt>
      <trkpt lat="48.62095" lon="7.2633">
        <ele>803.7</ele>
        <time>2024-03-05T15:06:56Z</time>
      </trkpt>
      <trkpt lat="48.62094" lon="7.26329">
        <ele>803.7</ele>
        <time>2024-03-05T15:06:57Z</time>
      </trkpt>
      <trkpt lat="48.62091" lon="7.26328">
        <ele>803.6</ele>
        <time>2024-03-05T15:06:58Z</time>
      </trkpt>
      <trkpt lat="48.62087" lon="7.26327">
        <ele>803.5</ele>
        <time>2024-03-05T15:06:59Z</time>
      </trkpt>
      <trkpt lat="48.62086" lon="7.26327">
        <ele>803.4</ele>
        <time>2024-03-05T15:07:00Z</time>
      </trkpt>
      <trkpt lat="48.62082" lon="7.26327">
        <ele>803.2</ele>
        <time>2024-03-05T15:07:01Z</time>
      </trkpt>
      <trkpt lat="48.6208" lon="7.26327">
        <ele>803.1</ele>
        <time>2024-03-05T15:07:02Z</time>
      </trkpt>
      <trkpt lat="48.62075" lon="7.26327">
        <ele>802.8</ele>
        <time>2024-03-05T15:07:03Z</time>
      </trkpt>
      <trkpt lat="48.62073" lon="7.26326">
        <ele>802.6</ele>
        <time>2024-03-05T15:07:04Z</time>
      </trkpt>
      <trkpt lat="48.62069" lon="7.26325">
        <ele>802.4</ele>
        <time>2024-03-05T15:07:05Z</time>
      </trkpt>
      <trkpt lat="48.62066" lon="7.26325">
        <ele>802.2</ele>
        <time>2024-03-05T15:07:06Z</time>
      </trkpt>
      <trkpt lat="48.62063" lon="7.26324">
        <ele>802</ele>
        <time>2024-03-05T15:07:07Z</time>
      </trkpt>
      <trkpt lat="48.6206" lon="7.26324">
        <ele>801.8</ele>
        <time>2024-03-05T15:07:08Z</time>
      </trkpt>
      <trkpt lat="48.62057" lon="7.26323">
        <ele>801.6</ele>
        <time>2024-03-05T15:07:09Z</time>
      </trkpt>
      <trkpt lat="48.62055" lon="7.26321">
        <ele>801.5</ele>
        <time>2024-03-05T15:07:10Z</time>
      </trkpt>
      <trkpt lat="48.62052" lon="7.26319">
        <ele>801.3</ele>
        <time>2024-03-05T15:07:11Z</time>
      </trkpt>
      <trkpt lat="48.6205" lon="7.26317">
        <ele>801.1</ele>
        <time>2024-03-05T15:07:12Z</time>
      </trkpt>
      <trkpt lat="48.62046" lon="7.26316">
        <ele>801</ele>
        <time>2024-03-05T15:07:13Z</time>
      </trkpt>
      <trkpt lat="48.62043" lon="7.26315">
        <ele>801</ele>
        <time>2024-03-05T15:07:14Z</time>
      </trkpt>
      <trkpt lat="48.6204" lon="7.26314">
        <ele>801</ele>
        <time>2024-03-05T15:07:15Z</time>
      </trkpt>
      <trkpt lat="48.62037" lon="7.26313">
        <ele>801</ele>
        <time>2024-03-05T15:07:16Z</time>
      </trkpt>
      <trkpt lat="48.62034" lon="7.26311">
        <ele>801</ele>
        <time>2024-03-05T15:07:17Z</time>
      </trkpt>
      <trkpt lat="48.62031" lon="7.26309">
        <ele>801</ele>
        <time>2024-03-05T15:07:18Z</time>
      </trkpt>
      <trkpt lat="48.62028" lon="7.26307">
        <ele>800.9</ele>
        <time>2024-03-05T15:07:19Z</time>
      </trkpt>
      <trkpt lat="48.62025" lon="7.26305">
        <ele>800.9</ele>
        <time>2024-03-05T15:07:20Z</time>
      </trkpt>
      <trkpt lat="48.62022" lon="7.26304">
        <ele>800.9</ele>
        <time>2024-03-05T15:07:21Z</time>
      </trkpt>
      <trkpt lat="48.62018" lon="7.26301">
        <ele>800.8</ele>
        <time>2024-03-05T15:07:22Z</time>
      </trkpt>
      <trkpt lat="48.62017" lon="7.263">
        <ele>800.7</ele>
        <time>2024-03-05T15:07:23Z</time>
      </trkpt>
      <trkpt lat="48.62014" lon="7.26296">
        <ele>800.6</ele>
        <time>2024-03-05T15:07:24Z</time>
      </trkpt>
      <trkpt lat="48.62012" lon="7.26295">
        <ele>800.6</ele>
        <time>2024-03-05T15:07:25Z</time>
      </trkpt>
      <trkpt lat="48.6201" lon="7.26292">
        <ele>800.5</ele>
        <time>2024-03-05T15:07:26Z</time>
      </trkpt>
      <trkpt lat="48.62007" lon="7.26289">
        <ele>800.2</ele>
        <time>2024-03-05T15:07:27Z</time>
      </trkpt>
      <trkpt lat="48.62005" lon="7.26285">
        <ele>800</ele>
        <time>2024-03-05T15:07:28Z</time>
      </trkpt>
      <trkpt lat="48.62002" lon="7.26281">
        <ele>799.7</ele>
        <time>2024-03-05T15:07:29Z</time>
      </trkpt>
      <trkpt lat="48.61999" lon="7.26278">
        <ele>799.5</ele>
        <time>2024-03-05T15:07:30Z</time>
      </trkpt>
      <trkpt lat="48.61995" lon="7.26275">
        <ele>799.2</ele>
        <time>2024-03-05T15:07:31Z</time>
      </trkpt>
      <trkpt lat="48.61994" lon="7.26274">
        <ele>799</ele>
        <time>2024-03-05T15:07:32Z</time>
      </trkpt>
      <trkpt lat="48.6199" lon="7.26272">
        <ele>798.8</ele>
        <time>2024-03-05T15:07:33Z</time>
      </trkpt>
      <trkpt lat="48.61989" lon="7.26271">
        <ele>798.7</ele>
        <time>2024-03-05T15:07:34Z</time>
      </trkpt>
      <trkpt lat="48.61987" lon="7.26269">
        <ele>798.5</ele>
        <time>2024-03-05T15:07:35Z</time>
      </trkpt>
      <trkpt lat="48.61983" lon="7.26267">
        <ele>798.1</ele>
        <time>2024-03-05T15:07:36Z</time>
      </trkpt>
      <trkpt lat="48.61981" lon="7.26266">
        <ele>797.9</ele>
        <time>2024-03-05T15:07:37Z</time>
      </trkpt>
      <trkpt lat="48.61978" lon="7.26265">
        <ele>797.5</ele>
        <time>2024-03-05T15:07:38Z</time>
      </trkpt>
      <trkpt lat="48.61974" lon="7.26263">
        <ele>797</ele>
        <time>2024-03-05T15:07:39Z</time>
      </trkpt>
      <trkpt lat="48.61968" lon="7.2626">
        <ele>796.2</ele>
        <time>2024-03-05T15:07:40Z</time>
      </trkpt>
      <trkpt lat="48.61964" lon="7.26258">
        <ele>795.5</ele>
        <time>2024-03-05T15:07:41Z</time>
      </trkpt>
      <trkpt lat="48.61961" lon="7.26256">
        <ele>795</ele>
        <time>2024-03-05T15:07:42Z</time>
      </trkpt>
      <trkpt lat="48.61957" lon="7.26254">
        <ele>794.4</ele>
        <time>2024-03-05T15:07:43Z</time>
      </trkpt>
      <trkpt lat="48.61952" lon="7.26252">
        <ele>793.6</ele>
        <time>2024-03-05T15:07:44Z</time>
      </trkpt>
      <trkpt lat="48.61948" lon="7.26249">
        <ele>792.8</ele>
        <time>2024-03-05T15:07:45Z</time>
      </trkpt>
      <trkpt lat="48.61944" lon="7.26246">
        <ele>791.9</ele>
        <time>2024-03-05T15:07:46Z</time>
      </trkpt>
      <trkpt lat="48.6194" lon="7.26244">
        <ele>791.1</ele>
        <time>2024-03-05T15:07:47Z</time>
      </trkpt>
      <trkpt lat="48.61937" lon="7.26242">
        <ele>790.3</ele>
        <time>2024-03-05T15:07:48Z</time>
      </trkpt>
      <trkpt lat="48.61934" lon="7.26238">
        <ele>789.6</ele>
        <time>2024-03-05T15:07:49Z</time>
      </trkpt>
      <trkpt lat="48.61932" lon="7.26235">
        <ele>789.1</ele>
        <time>2024-03-05T15:07:50Z</time>
      </trkpt>
      <trkpt lat="48.61929" lon="7.26233">
        <ele>788.6</ele>
        <time>2024-03-05T15:07:51Z</time>
      </trkpt>
      <trkpt lat="48.61925" lon="7.2623">
        <ele>787.8</ele>
        <time>2024-03-05T15:07:52Z</time>
      </trkpt>
      <trkpt lat="48.61922" lon="7.26228">
        <ele>787.2</ele>
        <time>2024-03-05T15:07:53Z</time>
      </trkpt>
      <trkpt lat="48.61919" lon="7.26226">
        <ele>786.5</ele>
        <time>2024-03-05T15:07:54Z</time>
      </trkpt>
      <trkpt lat="48.61916" lon="7.26224">
        <ele>785.9</ele>
        <time>2024-03-05T15:07:55Z</time>
      </trkpt>
      <trkpt lat="48.61913" lon="7.2622">
        <ele>785.1</ele>
        <time>2024-03-05T15:07:56Z</time>
      </trkpt>
      <trkpt lat="48.6191" lon="7.26215">
        <ele>784.4</ele>
        <time>2024-03-05T15:07:57Z</time>
      </trkpt>
      <trkpt lat="48.61908" lon="7.26211">
        <ele>783.6</ele>
        <time>2024-03-05T15:07:58Z</time>
      </trkpt>
      <trkpt lat="48.61905" lon="7.26207">
        <ele>782.6</ele>
        <time>2024-03-05T15:07:59Z</time>
      </trkpt>
      <trkpt lat="48.61903" lon="7.26202">
        <ele>781.9</ele>
        <time>2024-03-05T15:08:00Z</time>
      </trkpt>
      <trkpt lat="48.61902" lon="7.26199">
        <ele>781.2</ele>
        <time>2024-03-05T15:08:01Z</time>
      </trkpt>
      <trkpt lat="48.619" lon="7.26195">
        <ele>780.4</ele>
        <time>2024-03-05T15:08:02Z</time>
      </trkpt>
      <trkpt lat="48.61898" lon="7.26192">
        <ele>779.7</ele>
        <time>2024-03-05T15:08:03Z</time>
      </trkpt>
      <trkpt lat="48.61895" lon="7.26189">
        <ele>778.8</ele>
        <time>2024-03-05T15:08:04Z</time>
      </trkpt>
      <trkpt lat="48.61892" lon="7.26186">
        <ele>777.9</ele>
        <time>2024-03-05T15:08:05Z</time>
      </trkpt>
      <trkpt lat="48.6189" lon="7.26182">
        <ele>777.1</ele>
        <time>2024-03-05T15:08:06Z</time>
      </trkpt>
      <trkpt lat="48.61887" lon="7.2618">
        <ele>776.3</ele>
        <time>2024-03-05T15:08:07Z</time>
      </trkpt>
      <trkpt lat="48.61885" lon="7.2618">
        <ele>775.6</ele>
        <time>2024-03-05T15:08:08Z</time>
      </trkpt>
      <trkpt lat="48.61884" lon="7.26181">
        <ele>775.4</ele>
        <time>2024-03-05T15:08:09Z</time>
      </trkpt>
      <trkpt lat="48.61884" lon="7.26182">
        <ele>775.2</ele>
        <time>2024-03-05T15:08:10Z</time>
      </trkpt>
      <trkpt lat="48.61882" lon="7.26182">
        <ele>774.5</ele>
        <time>2024-03-05T15:08:11Z</time>
      </trkpt>
      <trkpt lat="48.6188" lon="7.26181">
        <ele>774.1</ele>
        <time>2024-03-05T15:08:12Z</time>
      </trkpt>
      <trkpt lat="48.61879" lon="7.26182">
        <ele>773.6</ele>
        <time>2024-03-05T15:08:13Z</time>
      </trkpt>
      <trkpt lat="48.61877" lon="7.26183">
        <ele>773.1</ele>
        <time>2024-03-05T15:08:14Z</time>
      </trkpt>
      <trkpt lat="48.61874" lon="7.26185">
        <ele>772</ele>
        <time>2024-03-05T15:08:15Z</time>
      </trkpt>
      <trkpt lat="48.61873" lon="7.26186">
        <ele>771.6</ele>
        <time>2024-03-05T15:08:16Z</time>
      </trkpt>
      <trkpt lat="48.61872" lon="7.26191">
        <ele>770.5</ele>
        <time>2024-03-05T15:08:17Z</time>
      </trkpt>
      <trkpt lat="48.61872" lon="7.26193">
        <ele>770.1</ele>
        <time>2024-03-05T15:08:18Z</time>
      </trkpt>
      <trkpt lat="48.61871" lon="7.26195">
        <ele>769.6</ele>
        <time>2024-03-05T15:08:19Z</time>
      </trkpt>
      <trkpt lat="48.6187" lon="7.26197">
        <ele>769.1</ele>
        <time>2024-03-05T15:08:20Z</time>
      </trkpt>
      <trkpt lat="48.61869" lon="7.262">
        <ele>768.4</ele>
        <time>2024-03-05T15:08:21Z</time>
      </trkpt>
      <trkpt lat="48.61868" lon="7.26202">
        <ele>768.1</ele>
        <time>2024-03-05T15:08:22Z</time>
      </trkpt>
      <trkpt lat="48.61867" lon="7.26207">
        <ele>767.1</ele>
        <time>2024-03-05T15:08:23Z</time>
      </trkpt>
      <trkpt lat="48.61866" lon="7.26208">
        <ele>766.8</ele>
        <time>2024-03-05T15:08:24Z</time>
      </trkpt>
      <trkpt lat="48.61862" lon="7.26208">
        <ele>765.8</ele>
        <time>2024-03-05T15:08:25Z</time>
      </trkpt>
      <trkpt lat="48.61861" lon="7.26208">
        <ele>765.5</ele>
        <time>2024-03-05T15:08:26Z</time>
      </trkpt>
      <trkpt lat="48.61859" lon="7.26206">
        <ele>765</ele>
        <time>2024-03-05T15:08:27Z</time>
      </trkpt>
      <trkpt lat="48.61858" lon="7.26206">
        <ele>764.7</ele>
        <time>2024-03-05T15:08:28Z</time>
      </trkpt>
      <trkpt lat="48.61857" lon="7.26206">
        <ele>764.3</ele>
        <time>2024-03-05T15:08:29Z</time>
      </trkpt>
      <trkpt lat="48.61855" lon="7.26206">
        <ele>763.9</ele>
        <time>2024-03-05T15:08:30Z</time>
      </trkpt>
      <trkpt lat="48.61853" lon="7.26204">
        <ele>763.3</ele>
        <time>2024-03-05T15:08:31Z</time>
      </trkpt>
      <trkpt lat="48.61852" lon="7.26203">
        <ele>763</ele>
        <time>2024-03-05T15:08:32Z</time>
      </trkpt>
      <trkpt lat="48.61851" lon="7.26202">
        <ele>762.8</ele>
        <time>2024-03-05T15:08:33Z</time>
      </trkpt>
      <trkpt lat="48.61849" lon="7.26201">
        <ele>762</ele>
        <time>2024-03-05T15:08:34Z</time>
      </trkpt>
      <trkpt lat="48.61848" lon="7.26201">
        <ele>761.7</ele>
        <time>2024-03-05T15:08:35Z</time>
      </trkpt>
      <trkpt lat="48.61844" lon="7.26202">
        <ele>760.6</ele>
        <time>2024-03-05T15:08:36Z</time>
      </trkpt>
      <trkpt lat="48.61843" lon="7.26202">
        <ele>760.2</ele>
        <time>2024-03-05T15:08:37Z</time>
      </trkpt>
      <trkpt lat="48.6184" lon="7.26201">
        <ele>759.4</ele>
        <time>2024-03-05T15:08:38Z</time>
      </trkpt>
      <trkpt lat="48.61837" lon="7.262">
        <ele>758.4</ele>
        <time>2024-03-05T15:08:39Z</time>
      </trkpt>
      <trkpt lat="48.61832" lon="7.26199">
        <ele>757.1</ele>
        <time>2024-03-05T15:08:40Z</time>
      </trkpt>
      <trkpt lat="48.61829" lon="7.26198">
        <ele>756.1</ele>
        <time>2024-03-05T15:08:41Z</time>
      </trkpt>
      <trkpt lat="48.61824" lon="7.26197">
        <ele>754.9</ele>
        <time>2024-03-05T15:08:42Z</time>
      </trkpt>
      <trkpt lat="48.61821" lon="7.26195">
        <ele>753.9</ele>
        <time>2024-03-05T15:08:43Z</time>
      </trkpt>
      <trkpt lat="48.61817" lon="7.26194">
        <ele>753.1</ele>
        <time>2024-03-05T15:08:44Z</time>
      </trkpt>
      <trkpt lat="48.61814" lon="7.26193">
        <ele>752.4</ele>
        <time>2024-03-05T15:08:45Z</time>
      </trkpt>
      <trkpt lat="48.61811" lon="7.26192">
        <ele>751.6</ele>
        <time>2024-03-05T15:08:46Z</time>
      </trkpt>
      <trkpt lat="48.61807" lon="7.26192">
        <ele>750.9</ele>
        <time>2024-03-05T15:08:47Z</time>
      </trkpt>
      <trkpt lat="48.61804" lon="7.26193">
        <ele>750.1</ele>
        <time>2024-03-05T15:08:48Z</time>
      </trkpt>
      <trkpt lat="48.618" lon="7.26192">
        <ele>749.4</ele>
        <time>2024-03-05T15:08:49Z</time>
      </trkpt>
      <trkpt lat="48.61796" lon="7.2619">
        <ele>748.5</ele>
        <time>2024-03-05T15:08:50Z</time>
      </trkpt>
      <trkpt lat="48.61793" lon="7.26188">
        <ele>747.7</ele>
        <time>2024-03-05T15:08:51Z</time>
      </trkpt>
      <trkpt lat="48.6179" lon="7.26185">
        <ele>747</ele>
        <time>2024-03-05T15:08:52Z</time>
      </trkpt>
      <trkpt lat="48.61787" lon="7.26182">
        <ele>746.2</ele>
        <time>2024-03-05T15:08:53Z</time>
      </trkpt>
      <trkpt lat="48.61784" lon="7.2618">
        <ele>745.6</ele>
        <time>2024-03-05T15:08:54Z</time>
      </trkpt>
      <trkpt lat="48.6178" lon="7.26178">
        <ele>745</ele>
        <time>2024-03-05T15:08:55Z</time>
      </trkpt>
      <trkpt lat="48.61778" lon="7.26177">
        <ele>744.5</ele>
        <time>2024-03-05T15:08:56Z</time>
      </trkpt>
      <trkpt lat="48.61774" lon="7.26174">
        <ele>743.9</ele>
        <time>2024-03-05T15:08:57Z</time>
      </trkpt>
      <trkpt lat="48.61771" lon="7.26172">
        <ele>743.4</ele>
        <time>2024-03-05T15:08:58Z</time>
      </trkpt>
      <trkpt lat="48.61768" lon="7.26168">
        <ele>742.8</ele>
        <time>2024-03-05T15:08:59Z</time>
      </trkpt>
      <trkpt lat="48.61765" lon="7.26163">
        <ele>742.3</ele>
        <time>2024-03-05T15:09:00Z</time>
      </trkpt>
      <trkpt lat="48.61762" lon="7.26159">
        <ele>741.9</ele>
        <time>2024-03-05T15:09:01Z</time>
      </trkpt>
      <trkpt lat="48.6176" lon="7.26156">
        <ele>741.5</ele>
        <time>2024-03-05T15:09:02Z</time>
      </trkpt>
      <trkpt lat="48.61757" lon="7.26151">
        <ele>741</ele>
        <time>2024-03-05T15:09:03Z</time>
      </trkpt>
      <trkpt lat="48.61755" lon="7.26148">
        <ele>740.6</ele>
        <time>2024-03-05T15:09:04Z</time>
      </trkpt>
      <trkpt lat="48.61752" lon="7.26144">
        <ele>740.2</ele>
        <time>2024-03-05T15:09:05Z</time>
      </trkpt>
      <trkpt lat="48.61749" lon="7.26141">
        <ele>739.9</ele>
        <time>2024-03-05T15:09:06Z</time>
      </trkpt>
      <trkpt lat="48.61747" lon="7.26138">
        <ele>739.6</ele>
        <time>2024-03-05T15:09:07Z</time>
      </trkpt>
      <trkpt lat="48.61745" lon="7.26135">
        <ele>739.2</ele>
        <time>2024-03-05T15:09:08Z</time>
      </trkpt>
      <trkpt lat="48.61743" lon="7.26131">
        <ele>738.9</ele>
        <time>2024-03-05T15:09:09Z</time>
      </trkpt>
      <trkpt lat="48.6174" lon="7.26126">
        <ele>738.6</ele>
        <time>2024-03-05T15:09:10Z</time>
      </trkpt>
      <trkpt lat="48.61739" lon="7.26125">
        <ele>738.4</ele>
        <time>2024-03-05T15:09:11Z</time>
      </trkpt>
      <trkpt lat="48.61736" lon="7.26121">
        <ele>738.2</ele>
        <time>2024-03-05T15:09:12Z</time>
      </trkpt>
      <trkpt lat="48.61734" lon="7.26118">
        <ele>738</ele>
        <time>2024-03-05T15:09:13Z</time>
      </trkpt>
      <trkpt lat="48.61731" lon="7.26114">
        <ele>737.7</ele>
        <time>2024-03-05T15:09:14Z</time>
      </trkpt>
      <trkpt lat="48.61729" lon="7.2611">
        <ele>737.5</ele>
        <time>2024-03-05T15:09:15Z</time>
      </trkpt>
      <trkpt lat="48.61727" lon="7.26106">
        <ele>737.4</ele>
        <time>2024-03-05T15:09:16Z</time>
      </trkpt>
      <trkpt lat="48.61725" lon="7.26102">
        <ele>737.2</ele>
        <time>2024-03-05T15:09:17Z</time>
      </trkpt>
      <trkpt lat="48.61723" lon="7.26098">
        <ele>737</ele>
        <time>2024-03-05T15:09:18Z</time>
      </trkpt>
      <trkpt lat="48.6172" lon="7.26094">
        <ele>736.8</ele>
        <time>2024-03-05T15:09:19Z</time>
      </trkpt>
      <trkpt lat="48.61718" lon="7.2609">
        <ele>736.7</ele>
        <time>2024-03-05T15:09:20Z</time>
      </trkpt>
      <trkpt lat="48.61716" lon="7.26088">
        <ele>736.6</ele>
        <time>2024-03-05T15:09:21Z</time>
      </trkpt>
      <trkpt lat="48.61714" lon="7.26085">
        <ele>736.5</ele>
        <time>2024-03-05T15:09:22Z</time>
      </trkpt>
      <trkpt lat="48.61711" lon="7.26082">
        <ele>736.4</ele>
        <time>2024-03-05T15:09:23Z</time>
      </trkpt>
      <trkpt lat="48.61709" lon="7.26078">
        <ele>736.4</ele>
        <time>2024-03-05T15:09:24Z</time>
      </trkpt>
      <trkpt lat="48.61708" lon="7.26074">
        <ele>736.3</ele>
        <time>2024-03-05T15:09:25Z</time>
      </trkpt>
      <trkpt lat="48.61705" lon="7.2607">
        <ele>736.3</ele>
        <time>2024-03-05T15:09:26Z</time>
      </trkpt>
      <trkpt lat="48.61705" lon="7.26069">
        <ele>736.3</ele>
        <time>2024-03-05T15:09:27Z</time>
      </trkpt>
      <trkpt lat="48.61702" lon="7.26065">
        <ele>736.2</ele>
        <time>2024-03-05T15:09:28Z</time>
      </trkpt>
      <trkpt lat="48.61701" lon="7.26064">
        <ele>736.2</ele>
        <time>2024-03-05T15:09:29Z</time>
      </trkpt>
      <trkpt lat="48.61698" lon="7.2606">
        <ele>736.2</ele>
        <time>2024-03-05T15:09:30Z</time>
      </trkpt>
      <trkpt lat="48.61697" lon="7.26058">
        <ele>736.2</ele>
        <time>2024-03-05T15:09:31Z</time>
      </trkpt>
      <trkpt lat="48.61695" lon="7.26055">
        <ele>736.2</ele>
        <time>2024-03-05T15:09:32Z</time>
      </trkpt>
      <trkpt lat="48.61692" lon="7.26051">
        <ele>736.2</ele>
        <time>2024-03-05T15:09:33Z</time>
      </trkpt>
      <trkpt lat="48.61691" lon="7.26049">
        <ele>736.3</ele>
        <time>2024-03-05T15:09:34Z</time>
      </trkpt>
      <trkpt lat="48.61688" lon="7.26045">
        <ele>736.3</ele>
        <time>2024-03-05T15:09:35Z</time>
      </trkpt>
      <trkpt lat="48.61687" lon="7.26043">
        <ele>736.3</ele>
        <time>2024-03-05T15:09:36Z</time>
      </trkpt>
      <trkpt lat="48.61685" lon="7.26039">
        <ele>736.4</ele>
        <time>2024-03-05T15:09:37Z</time>
      </trkpt>
      <trkpt lat="48.61683" lon="7.26035">
        <ele>736.4</ele>
        <time>2024-03-05T15:09:38Z</time>
      </trkpt>
      <trkpt lat="48.61681" lon="7.26032">
        <ele>736.4</ele>
        <time>2024-03-05T15:09:39Z</time>
      </trkpt>
      <trkpt lat="48.61678" lon="7.26028">
        <ele>736.5</ele>
        <time>2024-03-05T15:09:40Z</time>
      </trkpt>
      <trkpt lat="48.61675" lon="7.26025">
        <ele>736.5</ele>
        <time>2024-03-05T15:09:41Z</time>
      </trkpt>
      <trkpt lat="48.61673" lon="7.26024">
        <ele>736.5</ele>
        <time>2024-03-05T15:09:42Z</time>
      </trkpt>
      <trkpt lat="48.6167" lon="7.2602">
        <ele>736.6</ele>
        <time>2024-03-05T15:09:43Z</time>
      </trkpt>
      <trkpt lat="48.61669" lon="7.26018">
        <ele>736.6</ele>
        <time>2024-03-05T15:09:44Z</time>
      </trkpt>
      <trkpt lat="48.61665" lon="7.26015">
        <ele>736.6</ele>
        <time>2024-03-05T15:09:45Z</time>
      </trkpt>
      <trkpt lat="48.61664" lon="7.26013">
        <ele>736.6</ele>
        <time>2024-03-05T15:09:46Z</time>
      </trkpt>
      <trkpt lat="48.61661" lon="7.26011">
        <ele>736.7</ele>
        <time>2024-03-05T15:09:47Z</time>
      </trkpt>
      <trkpt lat="48.61658" lon="7.26008">
        <ele>736.7</ele>
        <time>2024-03-05T15:09:48Z</time>
      </trkpt>
      <trkpt lat="48.61657" lon="7.26007">
        <ele>736.7</ele>
        <time>2024-03-05T15:09:49Z</time>
      </trkpt>
      <trkpt lat="48.61655" lon="7.26005">
        <ele>736.7</ele>
        <time>2024-03-05T15:09:50Z</time>
      </trkpt>
      <trkpt lat="48.61652" lon="7.26002">
        <ele>736.7</ele>
        <time>2024-03-05T15:09:51Z</time>
      </trkpt>
      <trkpt lat="48.61649" lon="7.25999">
        <ele>736.8</ele>
        <time>2024-03-05T15:09:52Z</time>
      </trkpt>
      <trkpt lat="48.61648" lon="7.25998">
        <ele>736.8</ele>
        <time>2024-03-05T15:09:53Z</time>
      </trkpt>
      <trkpt lat="48.61645" lon="7.25996">
        <ele>736.8</ele>
        <time>2024-03-05T15:09:54Z</time>
      </trkpt>
      <trkpt lat="48.61643" lon="7.25994">
        <ele>736.9</ele>
        <time>2024-03-05T15:09:55Z</time>
      </trkpt>
      <trkpt lat="48.6164" lon="7.25992">
        <ele>736.9</ele>
        <time>2024-03-05T15:09:56Z</time>
      </trkpt>
      <trkpt lat="48.61638" lon="7.2599">
        <ele>737</ele>
        <time>2024-03-05T15:09:57Z</time>
      </trkpt>
      <trkpt lat="48.61634" lon="7.25986">
        <ele>737</ele>
        <time>2024-03-05T15:09:58Z</time>
      </trkpt>
      <trkpt lat="48.61633" lon="7.25985">
        <ele>737</ele>
        <time>2024-03-05T15:09:59Z</time>
      </trkpt>
      <trkpt lat="48.6163" lon="7.25983">
        <ele>737.1</ele>
        <time>2024-03-05T15:10:00Z</time>
      </trkpt>
      <trkpt lat="48.61628" lon="7.25982">
        <ele>737.1</ele>
        <time>2024-03-05T15:10:01Z</time>
      </trkpt>
      <trkpt lat="48.61624" lon="7.25979">
        <ele>737.1</ele>
        <time>2024-03-05T15:10:02Z</time>
      </trkpt>
      <trkpt lat="48.61622" lon="7.25978">
        <ele>737.1</ele>
        <time>2024-03-05T15:10:03Z</time>
      </trkpt>
      <trkpt lat="48.61618" lon="7.25976">
        <ele>737</ele>
        <time>2024-03-05T15:10:04Z</time>
      </trkpt>
      <trkpt lat="48.61617" lon="7.25975">
        <ele>737</ele>
        <time>2024-03-05T15:10:05Z</time>
      </trkpt>
      <trkpt lat="48.61614" lon="7.25973">
        <ele>736.9</ele>
        <time>2024-03-05T15:10:06Z</time>
      </trkpt>
      <trkpt lat="48.61611" lon="7.25972">
        <ele>736.8</ele>
        <time>2024-03-05T15:10:07Z</time>
      </trkpt>
      <trkpt lat="48.61608" lon="7.25972">
        <ele>736.6</ele>
        <time>2024-03-05T15:10:08Z</time>
      </trkpt>
      <trkpt lat="48.61605" lon="7.25971">
        <ele>736.5</ele>
        <time>2024-03-05T15:10:09Z</time>
      </trkpt>
      <trkpt lat="48.61602" lon="7.25969">
        <ele>736.4</ele>
        <time>2024-03-05T15:10:10Z</time>
      </trkpt>
      <trkpt lat="48.61599" lon="7.25967">
        <ele>736.2</ele>
        <time>2024-03-05T15:10:11Z</time>
      </trkpt>
      <trkpt lat="48.61596" lon="7.25966">
        <ele>736</ele>
        <time>2024-03-05T15:10:12Z</time>
      </trkpt>
      <trkpt lat="48.61592" lon="7.25962">
        <ele>735.8</ele>
        <time>2024-03-05T15:10:13Z</time>
      </trkpt>
      <trkpt lat="48.6159" lon="7.25961">
        <ele>735.7</ele>
        <time>2024-03-05T15:10:14Z</time>
      </trkpt>
      <trkpt lat="48.61587" lon="7.2596">
        <ele>735.5</ele>
        <time>2024-03-05T15:10:15Z</time>
      </trkpt>
      <trkpt lat="48.61584" lon="7.25957">
        <ele>735.4</ele>
        <time>2024-03-05T15:10:16Z</time>
      </trkpt>
      <trkpt lat="48.61581" lon="7.25956">
        <ele>735.2</ele>
        <time>2024-03-05T15:10:17Z</time>
      </trkpt>
      <trkpt lat="48.61578" lon="7.25953">
        <ele>735.1</ele>
        <time>2024-03-05T15:10:18Z</time>
      </trkpt>
      <trkpt lat="48.61575" lon="7.2595">
        <ele>735</ele>
        <time>2024-03-05T15:10:19Z</time>
      </trkpt>
      <trkpt lat="48.61572" lon="7.25949">
        <ele>734.9</ele>
        <time>2024-03-05T15:10:20Z</time>
      </trkpt>
      <trkpt lat="48.61569" lon="7.25948">
        <ele>734.9</ele>
        <time>2024-03-05T15:10:21Z</time>
      </trkpt>
      <trkpt lat="48.61566" lon="7.25947">
        <ele>734.8</ele>
        <time>2024-03-05T15:10:22Z</time>
      </trkpt>
      <trkpt lat="48.61563" lon="7.25946">
        <ele>734.8</ele>
        <time>2024-03-05T15:10:23Z</time>
      </trkpt>
      <trkpt lat="48.6156" lon="7.25944">
        <ele>734.7</ele>
        <time>2024-03-05T15:10:24Z</time>
      </trkpt>
      <trkpt lat="48.61557" lon="7.25942">
        <ele>734.7</ele>
        <time>2024-03-05T15:10:25Z</time>
      </trkpt>
      <trkpt lat="48.61555" lon="7.25939">
        <ele>734.7</ele>
        <time>2024-03-05T15:10:26Z</time>
      </trkpt>
      <trkpt lat="48.61553" lon="7.25936">
        <ele>734.6</ele>
        <time>2024-03-05T15:10:27Z</time>
      </trkpt>
      <trkpt lat="48.61551" lon="7.25933">
        <ele>734.6</ele>
        <time>2024-03-05T15:10:28Z</time>
      </trkpt>
      <trkpt lat="48.61547" lon="7.2593">
        <ele>734.6</ele>
        <time>2024-03-05T15:10:29Z</time>
      </trkpt>
      <trkpt lat="48.61545" lon="7.25928">
        <ele>734.6</ele>
        <time>2024-03-05T15:10:30Z</time>
      </trkpt>
      <trkpt lat="48.61542" lon="7.25925">
        <ele>734.7</ele>
        <time>2024-03-05T15:10:31Z</time>
      </trkpt>
      <trkpt lat="48.61539" lon="7.25921">
        <ele>734.7</ele>
        <time>2024-03-05T15:10:32Z</time>
      </trkpt>
      <trkpt lat="48.61536" lon="7.25919">
        <ele>734.7</ele>
        <time>2024-03-05T15:10:33Z</time>
      </trkpt>
      <trkpt lat="48.61533" lon="7.25918">
        <ele>734.8</ele>
        <time>2024-03-05T15:10:34Z</time>
      </trkpt>
      <trkpt lat="48.61529" lon="7.25916">
        <ele>734.8</ele>
        <time>2024-03-05T15:10:35Z</time>
      </trkpt>
      <trkpt lat="48.61526" lon="7.25915">
        <ele>734.9</ele>
        <time>2024-03-05T15:10:36Z</time>
      </trkpt>
      <trkpt lat="48.61523" lon="7.25914">
        <ele>734.9</ele>
        <time>2024-03-05T15:10:37Z</time>
      </trkpt>
      <trkpt lat="48.61519" lon="7.25912">
        <ele>734.9</ele>
        <time>2024-03-05T15:10:38Z</time>
      </trkpt>
      <trkpt lat="48.61517" lon="7.25911">
        <ele>735</ele>
        <time>2024-03-05T15:10:39Z</time>
      </trkpt>
      <trkpt lat="48.61513" lon="7.25908">
        <ele>735</ele>
        <time>2024-03-05T15:10:40Z</time>
      </trkpt>
      <trkpt lat="48.61511" lon="7.25907">
        <ele>735</ele>
        <time>2024-03-05T15:10:41Z</time>
      </trkpt>
      <trkpt lat="48.61507" lon="7.25904">
        <ele>735.1</ele>
        <time>2024-03-05T15:10:42Z</time>
      </trkpt>
      <trkpt lat="48.61505" lon="7.25903">
        <ele>735.1</ele>
        <time>2024-03-05T15:10:43Z</time>
      </trkpt>
      <trkpt lat="48.61502" lon="7.25902">
        <ele>735.1</ele>
        <time>2024-03-05T15:10:44Z</time>
      </trkpt>
      <trkpt lat="48.61499" lon="7.25901">
        <ele>735.1</ele>
        <time>2024-03-05T15:10:45Z</time>
      </trkpt>
      <trkpt lat="48.61497" lon="7.25902">
        <ele>735.1</ele>
        <time>2024-03-05T15:10:46Z</time>
      </trkpt>
      <trkpt lat="48.61493" lon="7.25901">
        <ele>735.1</ele>
        <time>2024-03-05T15:10:47Z</time>
      </trkpt>
      <trkpt lat="48.61491" lon="7.259">
        <ele>735.1</ele>
        <time>2024-03-05T15:10:48Z</time>
      </trkpt>
      <trkpt lat="48.61487" lon="7.25899">
        <ele>735.1</ele>
        <time>2024-03-05T15:10:49Z</time>
      </trkpt>
      <trkpt lat="48.61484" lon="7.25898">
        <ele>735.1</ele>
        <time>2024-03-05T15:10:50Z</time>
      </trkpt>
      <trkpt lat="48.61481" lon="7.25897">
        <ele>735.1</ele>
        <time>2024-03-05T15:10:51Z</time>
      </trkpt>
      <trkpt lat="48.61479" lon="7.25896">
        <ele>735.1</ele>
        <time>2024-03-05T15:10:52Z</time>
      </trkpt>
      <trkpt lat="48.61475" lon="7.25895">
        <ele>735.1</ele>
        <time>2024-03-05T15:10:53Z</time>
      </trkpt>
      <trkpt lat="48.61474" lon="7.25895">
        <ele>735.1</ele>
        <time>2024-03-05T15:10:54Z</time>
      </trkpt>
      <trkpt lat="48.61471" lon="7.25893">
        <ele>735.1</ele>
        <time>2024-03-05T15:10:55Z</time>
      </trkpt>
      <trkpt lat="48.61467" lon="7.25891">
        <ele>735.1</ele>
        <time>2024-03-05T15:10:56Z</time>
      </trkpt>
      <trkpt lat="48.61466" lon="7.2589">
        <ele>735.1</ele>
        <time>2024-03-05T15:10:57Z</time>
      </trkpt>
      <trkpt lat="48.61463" lon="7.25889">
        <ele>735.1</ele>
        <time>2024-03-05T15:10:58Z</time>
      </trkpt>
      <trkpt lat="48.6146" lon="7.25889">
        <ele>735.1</ele>
        <time>2024-03-05T15:10:59Z</time>
      </trkpt>
      <trkpt lat="48.61458" lon="7.25889">
        <ele>734.7</ele>
        <time>2024-03-05T15:11:00Z</time>
      </trkpt>
      <trkpt lat="48.61457" lon="7.2589">
        <ele>734.4</ele>
        <time>2024-03-05T15:11:01Z</time>
      </trkpt>
      <trkpt lat="48.61455" lon="7.25892">
        <ele>734.2</ele>
        <time>2024-03-05T15:11:02Z</time>
      </trkpt>
      <trkpt lat="48.61455" lon="7.25895">
        <ele>734</ele>
        <time>2024-03-05T15:11:03Z</time>
      </trkpt>
      <trkpt lat="48.61455" lon="7.25899">
        <ele>733.7</ele>
        <time>2024-03-05T15:11:04Z</time>
      </trkpt>
      <trkpt lat="48.61456" lon="7.25904">
        <ele>733.2</ele>
        <time>2024-03-05T15:11:05Z</time>
      </trkpt>
      <trkpt lat="48.61457" lon="7.25906">
        <ele>733.1</ele>
        <time>2024-03-05T15:11:06Z</time>
      </trkpt>
      <trkpt lat="48.61457" lon="7.25908">
        <ele>732.9</ele>
        <time>2024-03-05T15:11:07Z</time>
      </trkpt>
      <trkpt lat="48.61457" lon="7.25911">
        <ele>732.6</ele>
        <time>2024-03-05T15:11:08Z</time>
      </trkpt>
      <trkpt lat="48.61457" lon="7.25913">
        <ele>732.5</ele>
        <time>2024-03-05T15:11:09Z</time>
      </trkpt>
      <trkpt lat="48.61457" lon="7.25914">
        <ele>732.3</ele>
        <time>2024-03-05T15:11:10Z</time>
      </trkpt>
      <trkpt lat="48.61458" lon="7.25916">
        <ele>732.2</ele>
        <time>2024-03-05T15:11:11Z</time>
      </trkpt>
      <trkpt lat="48.61458" lon="7.2592">
        <ele>731.8</ele>
        <time>2024-03-05T15:11:12Z</time>
      </trkpt>
      <trkpt lat="48.61458" lon="7.25922">
        <ele>731.7</ele>
        <time>2024-03-05T15:11:13Z</time>
      </trkpt>
      <trkpt lat="48.61458" lon="7.25926">
        <ele>731.3</ele>
        <time>2024-03-05T15:11:14Z</time>
      </trkpt>
      <trkpt lat="48.61458" lon="7.25928">
        <ele>731.1</ele>
        <time>2024-03-05T15:11:15Z</time>
      </trkpt>
      <trkpt lat="48.61457" lon="7.25933">
        <ele>730.6</ele>
        <time>2024-03-05T15:11:16Z</time>
      </trkpt>
      <trkpt lat="48.61457" lon="7.25935">
        <ele>730.4</ele>
        <time>2024-03-05T15:11:17Z</time>
      </trkpt>
      <trkpt lat="48.61456" lon="7.2594">
        <ele>730</ele>
        <time>2024-03-05T15:11:18Z</time>
      </trkpt>
      <trkpt lat="48.61455" lon="7.25946">
        <ele>729.4</ele>
        <time>2024-03-05T15:11:19Z</time>
      </trkpt>
      <trkpt lat="48.61455" lon="7.25948">
        <ele>729.2</ele>
        <time>2024-03-05T15:11:20Z</time>
      </trkpt>
      <trkpt lat="48.61454" lon="7.25952">
        <ele>728.9</ele>
        <time>2024-03-05T15:11:21Z</time>
      </trkpt>
      <trkpt lat="48.61452" lon="7.25958">
        <ele>728.3</ele>
        <time>2024-03-05T15:11:22Z</time>
      </trkpt>
      <trkpt lat="48.6145" lon="7.25962">
        <ele>727.8</ele>
        <time>2024-03-05T15:11:23Z</time>
      </trkpt>
      <trkpt lat="48.61447" lon="7.25966">
        <ele>727.4</ele>
        <time>2024-03-05T15:11:24Z</time>
      </trkpt>
      <trkpt lat="48.61445" lon="7.25971">
        <ele>727</ele>
        <time>2024-03-05T15:11:25Z</time>
      </trkpt>
      <trkpt lat="48.61443" lon="7.25975">
        <ele>726.5</ele>
        <time>2024-03-05T15:11:26Z</time>
      </trkpt>
      <trkpt lat="48.61441" lon="7.25979">
        <ele>726.2</ele>
        <time>2024-03-05T15:11:27Z</time>
      </trkpt>
      <trkpt lat="48.61439" lon="7.25984">
        <ele>725.8</ele>
        <time>2024-03-05T15:11:28Z</time>
      </trkpt>
      <trkpt lat="48.61438" lon="7.25988">
        <ele>725.4</ele>
        <time>2024-03-05T15:11:29Z</time>
      </trkpt>
      <trkpt lat="48.61436" lon="7.25992">
        <ele>725</ele>
        <time>2024-03-05T15:11:30Z</time>
      </trkpt>
      <trkpt lat="48.61433" lon="7.25996">
        <ele>724.6</ele>
        <time>2024-03-05T15:11:31Z</time>
      </trkpt>
      <trkpt lat="48.61432" lon="7.26">
        <ele>724.1</ele>
        <time>2024-03-05T15:11:32Z</time>
      </trkpt>
      <trkpt lat="48.61429" lon="7.26004">
        <ele>723.6</ele>
        <time>2024-03-05T15:11:33Z</time>
      </trkpt>
      <trkpt lat="48.61428" lon="7.26008">
        <ele>723.1</ele>
        <time>2024-03-05T15:11:34Z</time>
      </trkpt>
      <trkpt lat="48.61426" lon="7.26012">
        <ele>722.6</ele>
        <time>2024-03-05T15:11:35Z</time>
      </trkpt>
      <trkpt lat="48.61424" lon="7.26015">
        <ele>722.1</ele>
        <time>2024-03-05T15:11:36Z</time>
      </trkpt>
      <trkpt lat="48.61422" lon="7.2602">
        <ele>721.4</ele>
        <time>2024-03-05T15:11:37Z</time>
      </trkpt>
      <trkpt lat="48.61421" lon="7.26022">
        <ele>721.2</ele>
        <time>2024-03-05T15:11:38Z</time>
      </trkpt>
      <trkpt lat="48.61419" lon="7.26028">
        <ele>720.5</ele>
        <time>2024-03-05T15:11:39Z</time>
      </trkpt>
      <trkpt lat="48.61418" lon="7.26029">
        <ele>720.3</ele>
        <time>2024-03-05T15:11:40Z</time>
      </trkpt>
      <trkpt lat="48.61417" lon="7.26035">
        <ele>719.6</ele>
        <time>2024-03-05T15:11:41Z</time>
      </trkpt>
      <trkpt lat="48.61416" lon="7.26037">
        <ele>719.3</ele>
        <time>2024-03-05T15:11:42Z</time>
      </trkpt>
      <trkpt lat="48.61415" lon="7.26042">
        <ele>718.8</ele>
        <time>2024-03-05T15:11:43Z</time>
      </trkpt>
      <trkpt lat="48.61413" lon="7.26047">
        <ele>718.1</ele>
        <time>2024-03-05T15:11:44Z</time>
      </trkpt>
      <trkpt lat="48.61412" lon="7.26049">
        <ele>717.9</ele>
        <time>2024-03-05T15:11:45Z</time>
      </trkpt>
      <trkpt lat="48.6141" lon="7.26054">
        <ele>717.4</ele>
        <time>2024-03-05T15:11:46Z</time>
      </trkpt>
      <trkpt lat="48.61409" lon="7.26058">
        <ele>716.9</ele>
        <time>2024-03-05T15:11:47Z</time>
      </trkpt>
      <trkpt lat="48.61408" lon="7.26062">
        <ele>716.5</ele>
        <time>2024-03-05T15:11:48Z</time>
      </trkpt>
      <trkpt lat="48.61407" lon="7.26066">
        <ele>716.1</ele>
        <time>2024-03-05T15:11:49Z</time>
      </trkpt>
      <trkpt lat="48.61407" lon="7.26071">
        <ele>715.6</ele>
        <time>2024-03-05T15:11:50Z</time>
      </trkpt>
      <trkpt lat="48.61408" lon="7.26075">
        <ele>715.2</ele>
        <time>2024-03-05T15:11:51Z</time>
      </trkpt>
      <trkpt lat="48.61408" lon="7.2608">
        <ele>714.8</ele>
        <time>2024-03-05T15:11:52Z</time>
      </trkpt>
      <trkpt lat="48.61408" lon="7.26082">
        <ele>714.7</ele>
        <time>2024-03-05T15:11:53Z</time>
      </trkpt>
      <trkpt lat="48.61407" lon="7.26086">
        <ele>714.3</ele>
        <time>2024-03-05T15:11:54Z</time>
      </trkpt>
      <trkpt lat="48.61407" lon="7.26087">
        <ele>714.2</ele>
        <time>2024-03-05T15:11:55Z</time>
      </trkpt>
      <trkpt lat="48.61406" lon="7.26089">
        <ele>714</ele>
        <time>2024-03-05T15:11:56Z</time>
      </trkpt>
      <trkpt lat="48.61405" lon="7.2609">
        <ele>713.8</ele>
        <time>2024-03-05T15:11:57Z</time>
      </trkpt>
      <trkpt lat="48.61405" lon="7.26094">
        <ele>713.5</ele>
        <time>2024-03-05T15:11:58Z</time>
      </trkpt>
      <trkpt lat="48.61405" lon="7.26099">
        <ele>713.1</ele>
        <time>2024-03-05T15:11:59Z</time>
      </trkpt>
      <trkpt lat="48.61404" lon="7.26106">
        <ele>712.6</ele>
        <time>2024-03-05T15:12:00Z</time>
      </trkpt>
      <trkpt lat="48.61404" lon="7.26112">
        <ele>712.1</ele>
        <time>2024-03-05T15:12:01Z</time>
      </trkpt>
      <trkpt lat="48.61404" lon="7.26116">
        <ele>711.7</ele>
        <time>2024-03-05T15:12:02Z</time>
      </trkpt>
      <trkpt lat="48.61405" lon="7.26122">
        <ele>711.2</ele>
        <time>2024-03-05T15:12:04Z</time>
      </trkpt>
      <trkpt lat="48.61405" lon="7.26126">
        <ele>710.8</ele>
        <time>2024-03-05T15:12:05Z</time>
      </trkpt>
      <trkpt lat="48.61405" lon="7.26132">
        <ele>710.3</ele>
        <time>2024-03-05T15:12:06Z</time>
      </trkpt>
      <trkpt lat="48.61405" lon="7.26137">
        <ele>709.8</ele>
        <time>2024-03-05T15:12:07Z</time>
      </trkpt>
      <trkpt lat="48.61404" lon="7.26145">
        <ele>709</ele>
        <time>2024-03-05T15:12:08Z</time>
      </trkpt>
      <trkpt lat="48.61404" lon="7.2615">
        <ele>708.5</ele>
        <time>2024-03-05T15:12:09Z</time>
      </trkpt>
      <trkpt lat="48.61404" lon="7.26155">
        <ele>708</ele>
        <time>2024-03-05T15:12:10Z</time>
      </trkpt>
      <trkpt lat="48.61405" lon="7.26164">
        <ele>707.1</ele>
        <time>2024-03-05T15:12:11Z</time>
      </trkpt>
      <trkpt lat="48.61406" lon="7.26172">
        <ele>706.4</ele>
        <time>2024-03-05T15:12:12Z</time>
      </trkpt>
      <trkpt lat="48.61408" lon="7.26181">
        <ele>705.4</ele>
        <time>2024-03-05T15:12:14Z</time>
      </trkpt>
      <trkpt lat="48.61411" lon="7.26188">
        <ele>704.6</ele>
        <time>2024-03-05T15:12:15Z</time>
      </trkpt>
      <trkpt lat="48.61413" lon="7.26192">
        <ele>703.9</ele>
        <time>2024-03-05T15:12:16Z</time>
      </trkpt>
      <trkpt lat="48.61416" lon="7.26197">
        <ele>703.2</ele>
        <time>2024-03-05T15:12:17Z</time>
      </trkpt>
      <trkpt lat="48.61419" lon="7.26202">
        <ele>702.4</ele>
        <time>2024-03-05T15:12:18Z</time>
      </trkpt>
      <trkpt lat="48.61421" lon="7.26205">
        <ele>701.8</ele>
        <time>2024-03-05T15:12:19Z</time>
      </trkpt>
      <trkpt lat="48.61423" lon="7.26211">
        <ele>701</ele>
        <time>2024-03-05T15:12:20Z</time>
      </trkpt>
      <trkpt lat="48.61425" lon="7.26217">
        <ele>700.2</ele>
        <time>2024-03-05T15:12:21Z</time>
      </trkpt>
      <trkpt lat="48.61427" lon="7.26222">
        <ele>699.5</ele>
        <time>2024-03-05T15:12:22Z</time>
      </trkpt>
      <trkpt lat="48.61431" lon="7.26228">
        <ele>698.7</ele>
        <time>2024-03-05T15:12:24Z</time>
      </trkpt>
      <trkpt lat="48.61434" lon="7.26231">
        <ele>698.2</ele>
        <time>2024-03-05T15:12:25Z</time>
      </trkpt>
      <trkpt lat="48.61437" lon="7.26233">
        <ele>697.9</ele>
        <time>2024-03-05T15:12:26Z</time>
      </trkpt>
      <trkpt lat="48.61441" lon="7.26229">
        <ele>697.4</ele>
        <time>2024-03-05T15:12:27Z</time>
      </trkpt>
      <trkpt lat="48.61442" lon="7.26226">
        <ele>697.2</ele>
        <time>2024-03-05T15:12:28Z</time>
      </trkpt>
      <trkpt lat="48.61445" lon="7.26223">
        <ele>697</ele>
        <time>2024-03-05T15:12:29Z</time>
      </trkpt>
      <trkpt lat="48.61445" lon="7.26222">
        <ele>696.9</ele>
        <time>2024-03-05T15:12:30Z</time>
      </trkpt>
      <trkpt lat="48.61448" lon="7.2622">
        <ele>696.7</ele>
        <time>2024-03-05T15:12:31Z</time>
      </trkpt>
      <trkpt lat="48.61449" lon="7.26219">
        <ele>696.6</ele>
        <time>2024-03-05T15:12:32Z</time>
      </trkpt>
      <trkpt lat="48.61451" lon="7.26216">
        <ele>696.5</ele>
        <time>2024-03-05T15:12:33Z</time>
      </trkpt>
      <trkpt lat="48.61452" lon="7.26215">
        <ele>696.4</ele>
        <time>2024-03-05T15:12:34Z</time>
      </trkpt>
      <trkpt lat="48.61454" lon="7.26212">
        <ele>696.2</ele>
        <time>2024-03-05T15:12:35Z</time>
      </trkpt>
      <trkpt lat="48.61455" lon="7.26208">
        <ele>696</ele>
        <time>2024-03-05T15:12:36Z</time>
      </trkpt>
      <trkpt lat="48.61456" lon="7.26204">
        <ele>695.7</ele>
        <time>2024-03-05T15:12:37Z</time>
      </trkpt>
      <trkpt lat="48.61457" lon="7.26203">
        <ele>695.6</ele>
        <time>2024-03-05T15:12:38Z</time>
      </trkpt>
      <trkpt lat="48.61458" lon="7.26201">
        <ele>695.4</ele>
        <time>2024-03-05T15:12:39Z</time>
      </trkpt>
      <trkpt lat="48.6146" lon="7.26203">
        <ele>695.2</ele>
        <time>2024-03-05T15:12:40Z</time>
      </trkpt>
      <trkpt lat="48.61463" lon="7.26203">
        <ele>694.9</ele>
        <time>2024-03-05T15:12:41Z</time>
      </trkpt>
      <trkpt lat="48.61464" lon="7.26204">
        <ele>694.8</ele>
        <time>2024-03-05T15:12:42Z</time>
      </trkpt>
      <trkpt lat="48.61467" lon="7.26207">
        <ele>694.4</ele>
        <time>2024-03-05T15:12:43Z</time>
      </trkpt>
      <trkpt lat="48.61469" lon="7.26209">
        <ele>694</ele>
        <time>2024-03-05T15:12:44Z</time>
      </trkpt>
      <trkpt lat="48.6147" lon="7.26211">
        <ele>693.8</ele>
        <time>2024-03-05T15:12:45Z</time>
      </trkpt>
      <trkpt lat="48.61473" lon="7.26213">
        <ele>693.4</ele>
        <time>2024-03-05T15:12:46Z</time>
      </trkpt>
      <trkpt lat="48.61474" lon="7.26214">
        <ele>693.3</ele>
        <time>2024-03-05T15:12:47Z</time>
      </trkpt>
      <trkpt lat="48.61477" lon="7.26216">
        <ele>692.9</ele>
        <time>2024-03-05T15:12:48Z</time>
      </trkpt>
      <trkpt lat="48.6148" lon="7.26218">
        <ele>692.5</ele>
        <time>2024-03-05T15:12:49Z</time>
      </trkpt>
      <trkpt lat="48.61483" lon="7.26219">
        <ele>692</ele>
        <time>2024-03-05T15:12:50Z</time>
      </trkpt>
      <trkpt lat="48.61486" lon="7.26224">
        <ele>691.4</ele>
        <time>2024-03-05T15:12:51Z</time>
      </trkpt>
      <trkpt lat="48.61489" lon="7.26232">
        <ele>690.2</ele>
        <time>2024-03-05T15:12:53Z</time>
      </trkpt>
      <trkpt lat="48.61487" lon="7.26237">
        <ele>690.2</ele>
        <time>2024-03-05T15:12:54Z</time>
      </trkpt>
      <trkpt lat="48.61486" lon="7.26242">
        <ele>690.1</ele>
        <time>2024-03-05T15:12:55Z</time>
      </trkpt>
      <trkpt lat="48.61484" lon="7.26246">
        <ele>690.1</ele>
        <time>2024-03-05T15:12:56Z</time>
      </trkpt>
      <trkpt lat="48.61483" lon="7.26251">
        <ele>690</ele>
        <time>2024-03-05T15:12:57Z</time>
      </trkpt>
      <trkpt lat="48.61483" lon="7.26256">
        <ele>689.9</ele>
        <time>2024-03-05T15:12:58Z</time>
      </trkpt>
      <trkpt lat="48.61482" lon="7.26263">
        <ele>689.9</ele>
        <time>2024-03-05T15:12:59Z</time>
      </trkpt>
      <trkpt lat="48.61483" lon="7.26267">
        <ele>689.8</ele>
        <time>2024-03-05T15:13:00Z</time>
      </trkpt>
      <trkpt lat="48.61483" lon="7.26273">
        <ele>689.7</ele>
        <time>2024-03-05T15:13:01Z</time>
      </trkpt>
      <trkpt lat="48.61483" lon="7.26275">
        <ele>689.7</ele>
        <time>2024-03-05T15:13:02Z</time>
      </trkpt>
      <trkpt lat="48.61482" lon="7.2628">
        <ele>689.6</ele>
        <time>2024-03-05T15:13:03Z</time>
      </trkpt>
      <trkpt lat="48.61482" lon="7.26282">
        <ele>689.6</ele>
        <time>2024-03-05T15:13:04Z</time>
      </trkpt>
      <trkpt lat="48.61481" lon="7.26288">
        <ele>689.5</ele>
        <time>2024-03-05T15:13:05Z</time>
      </trkpt>
      <trkpt lat="48.61481" lon="7.2629">
        <ele>689.4</ele>
        <time>2024-03-05T15:13:06Z</time>
      </trkpt>
      <trkpt lat="48.6148" lon="7.26295">
        <ele>689.3</ele>
        <time>2024-03-05T15:13:07Z</time>
      </trkpt>
      <trkpt lat="48.6148" lon="7.26297">
        <ele>689.3</ele>
        <time>2024-03-05T15:13:08Z</time>
      </trkpt>
      <trkpt lat="48.6148" lon="7.26303">
        <ele>689.2</ele>
        <time>2024-03-05T15:13:09Z</time>
      </trkpt>
      <trkpt lat="48.61479" lon="7.26305">
        <ele>689.2</ele>
        <time>2024-03-05T15:13:10Z</time>
      </trkpt>
      <trkpt lat="48.61479" lon="7.26311">
        <ele>689.1</ele>
        <time>2024-03-05T15:13:11Z</time>
      </trkpt>
      <trkpt lat="48.61478" lon="7.26318">
        <ele>689</ele>
        <time>2024-03-05T15:13:12Z</time>
      </trkpt>
      <trkpt lat="48.61479" lon="7.26324">
        <ele>688.8</ele>
        <time>2024-03-05T15:13:14Z</time>
      </trkpt>
      <trkpt lat="48.61479" lon="7.26328">
        <ele>688.8</ele>
        <time>2024-03-05T15:13:15Z</time>
      </trkpt>
      <trkpt lat="48.6148" lon="7.26335">
        <ele>688.7</ele>
        <time>2024-03-05T15:13:17Z</time>
      </trkpt>
      <trkpt lat="48.61481" lon="7.26339">
        <ele>688.6</ele>
        <time>2024-03-05T15:13:18Z</time>
      </trkpt>
      <trkpt lat="48.61482" lon="7.2634">
        <ele>688.5</ele>
        <time>2024-03-05T15:13:19Z</time>
      </trkpt>
      <trkpt lat="48.61482" lon="7.26347">
        <ele>688.4</ele>
        <time>2024-03-05T15:13:20Z</time>
      </trkpt>
      <trkpt lat="48.61482" lon="7.26349">
        <ele>688.4</ele>
        <time>2024-03-05T15:13:21Z</time>
      </trkpt>
      <trkpt lat="48.61482" lon="7.26357">
        <ele>688.3</ele>
        <time>2024-03-05T15:13:23Z</time>
      </trkpt>
      <trkpt lat="48.61481" lon="7.26361">
        <ele>688.2</ele>
        <time>2024-03-05T15:13:24Z</time>
      </trkpt>
      <trkpt lat="48.61481" lon="7.26365">
        <ele>688.1</ele>
        <time>2024-03-05T15:13:25Z</time>
      </trkpt>
      <trkpt lat="48.61481" lon="7.2637">
        <ele>688.1</ele>
        <time>2024-03-05T15:13:26Z</time>
      </trkpt>
      <trkpt lat="48.61481" lon="7.26376">
        <ele>687.9</ele>
        <time>2024-03-05T15:13:27Z</time>
      </trkpt>
      <trkpt lat="48.61482" lon="7.2638">
        <ele>687.8</ele>
        <time>2024-03-05T15:13:28Z</time>
      </trkpt>
      <trkpt lat="48.61483" lon="7.26386">
        <ele>687.6</ele>
        <time>2024-03-05T15:13:29Z</time>
      </trkpt>
      <trkpt lat="48.61483" lon="7.26391">
        <ele>687.5</ele>
        <time>2024-03-05T15:13:30Z</time>
      </trkpt>
      <trkpt lat="48.61484" lon="7.26397">
        <ele>687.3</ele>
        <time>2024-03-05T15:13:31Z</time>
      </trkpt>
      <trkpt lat="48.61484" lon="7.26403">
        <ele>687.1</ele>
        <time>2024-03-05T15:13:32Z</time>
      </trkpt>
      <trkpt lat="48.61485" lon="7.26411">
        <ele>686.9</ele>
        <time>2024-03-05T15:13:34Z</time>
      </trkpt>
      <trkpt lat="48.61485" lon="7.26416">
        <ele>686.8</ele>
        <time>2024-03-05T15:13:35Z</time>
      </trkpt>
      <trkpt lat="48.61485" lon="7.26421">
        <ele>686.7</ele>
        <time>2024-03-05T15:13:36Z</time>
      </trkpt>
      <trkpt lat="48.61486" lon="7.26426">
        <ele>686.5</ele>
        <time>2024-03-05T15:13:37Z</time>
      </trkpt>
      <trkpt lat="48.61486" lon="7.2643">
        <ele>686.4</ele>
        <time>2024-03-05T15:13:38Z</time>
      </trkpt>
      <trkpt lat="48.61486" lon="7.26435">
        <ele>686.3</ele>
        <time>2024-03-05T15:13:39Z</time>
      </trkpt>
      <trkpt lat="48.61487" lon="7.26438">
        <ele>686.2</ele>
        <time>2024-03-05T15:13:40Z</time>
      </trkpt>
      <trkpt lat="48.61487" lon="7.26442">
        <ele>686.1</ele>
        <time>2024-03-05T15:13:41Z</time>
      </trkpt>
      <trkpt lat="48.61488" lon="7.26447">
        <ele>686</ele>
        <time>2024-03-05T15:13:42Z</time>
      </trkpt>
      <trkpt lat="48.61487" lon="7.26453">
        <ele>685.9</ele>
        <time>2024-03-05T15:13:43Z</time>
      </trkpt>
      <trkpt lat="48.61488" lon="7.26459">
        <ele>685.7</ele>
        <time>2024-03-05T15:13:44Z</time>
      </trkpt>
      <trkpt lat="48.61488" lon="7.26462">
        <ele>685.7</ele>
        <time>2024-03-05T15:13:45Z</time>
      </trkpt>
      <trkpt lat="48.61489" lon="7.26472">
        <ele>685.4</ele>
        <time>2024-03-05T15:13:47Z</time>
      </trkpt>
      <trkpt lat="48.61489" lon="7.26478">
        <ele>685.3</ele>
        <time>2024-03-05T15:13:48Z</time>
      </trkpt>
      <trkpt lat="48.6149" lon="7.26482">
        <ele>685.1</ele>
        <time>2024-03-05T15:13:49Z</time>
      </trkpt>
      <trkpt lat="48.61491" lon="7.26487">
        <ele>685</ele>
        <time>2024-03-05T15:13:50Z</time>
      </trkpt>
      <trkpt lat="48.61492" lon="7.26491">
        <ele>684.9</ele>
        <time>2024-03-05T15:13:51Z</time>
      </trkpt>
      <trkpt lat="48.61493" lon="7.26496">
        <ele>684.8</ele>
        <time>2024-03-05T15:13:52Z</time>
      </trkpt>
      <trkpt lat="48.61494" lon="7.26501">
        <ele>684.6</ele>
        <time>2024-03-05T15:13:53Z</time>
      </trkpt>
      <trkpt lat="48.61495" lon="7.26505">
        <ele>684.5</ele>
        <time>2024-03-05T15:13:54Z</time>
      </trkpt>
      <trkpt lat="48.61496" lon="7.26509">
        <ele>684.4</ele>
        <time>2024-03-05T15:13:55Z</time>
      </trkpt>
      <trkpt lat="48.61496" lon="7.26514">
        <ele>684.3</ele>
        <time>2024-03-05T15:13:56Z</time>
      </trkpt>
      <trkpt lat="48.61497" lon="7.26518">
        <ele>684.2</ele>
        <time>2024-03-05T15:13:57Z</time>
      </trkpt>
      <trkpt lat="48.61497" lon="7.26522">
        <ele>684.1</ele>
        <time>2024-03-05T15:13:58Z</time>
      </trkpt>
      <trkpt lat="48.61497" lon="7.26529">
        <ele>683.9</ele>
        <time>2024-03-05T15:13:59Z</time>
      </trkpt>
      <trkpt lat="48.61497" lon="7.26536">
        <ele>683.8</ele>
        <time>2024-03-05T15:14:00Z</time>
      </trkpt>
      <trkpt lat="48.61497" lon="7.26542">
        <ele>683.6</ele>
        <time>2024-03-05T15:14:01Z</time>
      </trkpt>
      <trkpt lat="48.61497" lon="7.26549">
        <ele>683.5</ele>
        <time>2024-03-05T15:14:03Z</time>
      </trkpt>
      <trkpt lat="48.61497" lon="7.26555">
        <ele>683.3</ele>
        <time>2024-03-05T15:14:04Z</time>
      </trkpt>
      <trkpt lat="48.61498" lon="7.26557">
        <ele>683.3</ele>
        <time>2024-03-05T15:14:05Z</time>
      </trkpt>
      <trkpt lat="48.61498" lon="7.26561">
        <ele>683.1</ele>
        <time>2024-03-05T15:14:06Z</time>
      </trkpt>
      <trkpt lat="48.61499" lon="7.26566">
        <ele>683</ele>
        <time>2024-03-05T15:14:07Z</time>
      </trkpt>
      <trkpt lat="48.615" lon="7.2657">
        <ele>682.9</ele>
        <time>2024-03-05T15:14:08Z</time>
      </trkpt>
      <trkpt lat="48.61501" lon="7.26575">
        <ele>682.8</ele>
        <time>2024-03-05T15:14:09Z</time>
      </trkpt>
      <trkpt lat="48.61502" lon="7.26579">
        <ele>682.7</ele>
        <time>2024-03-05T15:14:10Z</time>
      </trkpt>
      <trkpt lat="48.61502" lon="7.26584">
        <ele>682.6</ele>
        <time>2024-03-05T15:14:11Z</time>
      </trkpt>
      <trkpt lat="48.61502" lon="7.26586">
        <ele>682.5</ele>
        <time>2024-03-05T15:14:12Z</time>
      </trkpt>
      <trkpt lat="48.61502" lon="7.2659">
        <ele>682.4</ele>
        <time>2024-03-05T15:14:13Z</time>
      </trkpt>
      <trkpt lat="48.61503" lon="7.26596">
        <ele>682.3</ele>
        <time>2024-03-05T15:14:14Z</time>
      </trkpt>
      <trkpt lat="48.61503" lon="7.26598">
        <ele>682.2</ele>
        <time>2024-03-05T15:14:15Z</time>
      </trkpt>
      <trkpt lat="48.61502" lon="7.26603">
        <ele>682.1</ele>
        <time>2024-03-05T15:14:16Z</time>
      </trkpt>
      <trkpt lat="48.61502" lon="7.26608">
        <ele>682</ele>
        <time>2024-03-05T15:14:17Z</time>
      </trkpt>
      <trkpt lat="48.61502" lon="7.26614">
        <ele>681.8</ele>
        <time>2024-03-05T15:14:18Z</time>
      </trkpt>
      <trkpt lat="48.61502" lon="7.26616">
        <ele>681.8</ele>
        <time>2024-03-05T15:14:19Z</time>
      </trkpt>
      <trkpt lat="48.61502" lon="7.2662">
        <ele>681.7</ele>
        <time>2024-03-05T15:14:20Z</time>
      </trkpt>
      <trkpt lat="48.61501" lon="7.26627">
        <ele>681.5</ele>
        <time>2024-03-05T15:14:21Z</time>
      </trkpt>
      <trkpt lat="48.61498" lon="7.26635">
        <ele>681.2</ele>
        <time>2024-03-05T15:14:23Z</time>
      </trkpt>
      <trkpt lat="48.61495" lon="7.26639">
        <ele>681.1</ele>
        <time>2024-03-05T15:14:24Z</time>
      </trkpt>
      <trkpt lat="48.61494" lon="7.2664">
        <ele>681</ele>
        <time>2024-03-05T15:14:25Z</time>
      </trkpt>
      <trkpt lat="48.61493" lon="7.26641">
        <ele>681</ele>
        <time>2024-03-05T15:14:26Z</time>
      </trkpt>
      <trkpt lat="48.61491" lon="7.26642">
        <ele>680.9</ele>
        <time>2024-03-05T15:14:27Z</time>
      </trkpt>
      <trkpt lat="48.61489" lon="7.26645">
        <ele>680.8</ele>
        <time>2024-03-05T15:14:28Z</time>
      </trkpt>
      <trkpt lat="48.61485" lon="7.26645">
        <ele>680.6</ele>
        <time>2024-03-05T15:14:29Z</time>
      </trkpt>
      <trkpt lat="48.61483" lon="7.26645">
        <ele>680.5</ele>
        <time>2024-03-05T15:14:30Z</time>
      </trkpt>
      <trkpt lat="48.61481" lon="7.26645">
        <ele>680.5</ele>
        <time>2024-03-05T15:14:31Z</time>
      </trkpt>
      <trkpt lat="48.61479" lon="7.26644">
        <ele>680.4</ele>
        <time>2024-03-05T15:14:33Z</time>
      </trkpt>
      <trkpt lat="48.61476" lon="7.26646">
        <ele>680.3</ele>
        <time>2024-03-05T15:14:34Z</time>
      </trkpt>
      <trkpt lat="48.61475" lon="7.26646">
        <ele>680.3</ele>
        <time>2024-03-05T15:14:35Z</time>
      </trkpt>
      <trkpt lat="48.61472" lon="7.26647">
        <ele>680.2</ele>
        <time>2024-03-05T15:14:36Z</time>
      </trkpt>
      <trkpt lat="48.61469" lon="7.26647">
        <ele>680.1</ele>
        <time>2024-03-05T15:14:37Z</time>
      </trkpt>
      <trkpt lat="48.61466" lon="7.26648">
        <ele>680.1</ele>
        <time>2024-03-05T15:14:38Z</time>
      </trkpt>
      <trkpt lat="48.61462" lon="7.26649">
        <ele>680</ele>
        <time>2024-03-05T15:14:39Z</time>
      </trkpt>
      <trkpt lat="48.61461" lon="7.26649">
        <ele>680</ele>
        <time>2024-03-05T15:14:40Z</time>
      </trkpt>
      <trkpt lat="48.6146" lon="7.26648">
        <ele>680</ele>
        <time>2024-03-05T15:14:41Z</time>
      </trkpt>
      <trkpt lat="48.61456" lon="7.26649">
        <ele>679.9</ele>
        <time>2024-03-05T15:14:43Z</time>
      </trkpt>
      <trkpt lat="48.61453" lon="7.26649">
        <ele>679.9</ele>
        <time>2024-03-05T15:14:44Z</time>
      </trkpt>
      <trkpt lat="48.61453" lon="7.2665">
        <ele>679.8</ele>
        <time>2024-03-05T15:14:45Z</time>
      </trkpt>
      <trkpt lat="48.6145" lon="7.26651">
        <ele>679.8</ele>
        <time>2024-03-05T15:14:46Z</time>
      </trkpt>
      <trkpt lat="48.61447" lon="7.26653">
        <ele>679.8</ele>
        <time>2024-03-05T15:14:47Z</time>
      </trkpt>
      <trkpt lat="48.61446" lon="7.26654">
        <ele>679.7</ele>
        <time>2024-03-05T15:14:48Z</time>
      </trkpt>
      <trkpt lat="48.61445" lon="7.26654">
        <ele>679.7</ele>
        <time>2024-03-05T15:14:49Z</time>
      </trkpt>
      <trkpt lat="48.61442" lon="7.26654">
        <ele>679.7</ele>
        <time>2024-03-05T15:14:50Z</time>
      </trkpt>
      <trkpt lat="48.6144" lon="7.26654">
        <ele>679.7</ele>
        <time>2024-03-05T15:14:51Z</time>
      </trkpt>
      <trkpt lat="48.61436" lon="7.26654">
        <ele>679.6</ele>
        <time>2024-03-05T15:14:53Z</time>
      </trkpt>
      <trkpt lat="48.61433" lon="7.26657">
        <ele>679.6</ele>
        <time>2024-03-05T15:14:54Z</time>
      </trkpt>
      <trkpt lat="48.61432" lon="7.26657">
        <ele>679.6</ele>
        <time>2024-03-05T15:14:55Z</time>
      </trkpt>
      <trkpt lat="48.61431" lon="7.26659">
        <ele>679.6</ele>
        <time>2024-03-05T15:14:56Z</time>
      </trkpt>
      <trkpt lat="48.61429" lon="7.2666">
        <ele>679.6</ele>
        <time>2024-03-05T15:14:57Z</time>
      </trkpt>
      <trkpt lat="48.61425" lon="7.2666">
        <ele>679.6</ele>
        <time>2024-03-05T15:14:58Z</time>
      </trkpt>
      <trkpt lat="48.61423" lon="7.26661">
        <ele>679.6</ele>
        <time>2024-03-05T15:14:59Z</time>
      </trkpt>
      <trkpt lat="48.61421" lon="7.26664">
        <ele>679.6</ele>
        <time>2024-03-05T15:15:00Z</time>
      </trkpt>
      <trkpt lat="48.61418" lon="7.26669">
        <ele>679.6</ele>
        <time>2024-03-05T15:15:01Z</time>
      </trkpt>
      <trkpt lat="48.61416" lon="7.26672">
        <ele>679.6</ele>
        <time>2024-03-05T15:15:02Z</time>
      </trkpt>
      <trkpt lat="48.61412" lon="7.26674">
        <ele>679.5</ele>
        <time>2024-03-05T15:15:04Z</time>
      </trkpt>
      <trkpt lat="48.61411" lon="7.26675">
        <ele>679.5</ele>
        <time>2024-03-05T15:15:05Z</time>
      </trkpt>
      <trkpt lat="48.6141" lon="7.26675">
        <ele>679.5</ele>
        <time>2024-03-05T15:15:06Z</time>
      </trkpt>
      <trkpt lat="48.61406" lon="7.26676">
        <ele>679.4</ele>
        <time>2024-03-05T15:15:07Z</time>
      </trkpt>
      <trkpt lat="48.61405" lon="7.26676">
        <ele>679.4</ele>
        <time>2024-03-05T15:15:08Z</time>
      </trkpt>
      <trkpt lat="48.61403" lon="7.26677">
        <ele>679.3</ele>
        <time>2024-03-05T15:15:09Z</time>
      </trkpt>
      <trkpt lat="48.61402" lon="7.26676">
        <ele>679.3</ele>
        <time>2024-03-05T15:15:10Z</time>
      </trkpt>
      <trkpt lat="48.61401" lon="7.26676">
        <ele>679.3</ele>
        <time>2024-03-05T15:15:11Z</time>
      </trkpt>
      <trkpt lat="48.61399" lon="7.26675">
        <ele>679.2</ele>
        <time>2024-03-05T15:15:12Z</time>
      </trkpt>
      <trkpt lat="48.61398" lon="7.26675">
        <ele>679.2</ele>
        <time>2024-03-05T15:15:13Z</time>
      </trkpt>
      <trkpt lat="48.61395" lon="7.26677">
        <ele>679</ele>
        <time>2024-03-05T15:15:14Z</time>
      </trkpt>
      <trkpt lat="48.61392" lon="7.26681">
        <ele>678.8</ele>
        <time>2024-03-05T15:15:15Z</time>
      </trkpt>
      <trkpt lat="48.61391" lon="7.26685">
        <ele>678.7</ele>
        <time>2024-03-05T15:15:17Z</time>
      </trkpt>
      <trkpt lat="48.61391" lon="7.26687">
        <ele>678.6</ele>
        <time>2024-03-05T15:15:18Z</time>
      </trkpt>
      <trkpt lat="48.6139" lon="7.26691">
        <ele>678.4</ele>
        <time>2024-03-05T15:15:19Z</time>
      </trkpt>
      <trkpt lat="48.61389" lon="7.26692">
        <ele>678.4</ele>
        <time>2024-03-05T15:15:20Z</time>
      </trkpt>
      <trkpt lat="48.61387" lon="7.26695">
        <ele>678.2</ele>
        <time>2024-03-05T15:15:21Z</time>
      </trkpt>
      <trkpt lat="48.61385" lon="7.26698">
        <ele>678</ele>
        <time>2024-03-05T15:15:22Z</time>
      </trkpt>
      <trkpt lat="48.61382" lon="7.26701">
        <ele>677.7</ele>
        <time>2024-03-05T15:15:24Z</time>
      </trkpt>
      <trkpt lat="48.6138" lon="7.26704">
        <ele>677.4</ele>
        <time>2024-03-05T15:15:25Z</time>
      </trkpt>
      <trkpt lat="48.6138" lon="7.26705">
        <ele>677.3</ele>
        <time>2024-03-05T15:15:26Z</time>
      </trkpt>
      <trkpt lat="48.61377" lon="7.26709">
        <ele>677</ele>
        <time>2024-03-05T15:15:27Z</time>
      </trkpt>
      <trkpt lat="48.61376" lon="7.26711">
        <ele>676.8</ele>
        <time>2024-03-05T15:15:28Z</time>
      </trkpt>
      <trkpt lat="48.61372" lon="7.26714">
        <ele>676.4</ele>
        <time>2024-03-05T15:15:29Z</time>
      </trkpt>
      <trkpt lat="48.61371" lon="7.26715">
        <ele>676.2</ele>
        <time>2024-03-05T15:15:30Z</time>
      </trkpt>
      <trkpt lat="48.61367" lon="7.26719">
        <ele>675.7</ele>
        <time>2024-03-05T15:15:31Z</time>
      </trkpt>
      <trkpt lat="48.61364" lon="7.26724">
        <ele>675.2</ele>
        <time>2024-03-05T15:15:32Z</time>
      </trkpt>
      <trkpt lat="48.61362" lon="7.26728">
        <ele>674.8</ele>
        <time>2024-03-05T15:15:33Z</time>
      </trkpt>
      <trkpt lat="48.6136" lon="7.26732">
        <ele>674.5</ele>
        <time>2024-03-05T15:15:34Z</time>
      </trkpt>
      <trkpt lat="48.61358" lon="7.26736">
        <ele>674.1</ele>
        <time>2024-03-05T15:15:35Z</time>
      </trkpt>
      <trkpt lat="48.61357" lon="7.26738">
        <ele>674</ele>
        <time>2024-03-05T15:15:36Z</time>
      </trkpt>
      <trkpt lat="48.61355" lon="7.26742">
        <ele>673.7</ele>
        <time>2024-03-05T15:15:37Z</time>
      </trkpt>
      <trkpt lat="48.61355" lon="7.26744">
        <ele>673.6</ele>
        <time>2024-03-05T15:15:38Z</time>
      </trkpt>
      <trkpt lat="48.61353" lon="7.26748">
        <ele>673.2</ele>
        <time>2024-03-05T15:15:39Z</time>
      </trkpt>
      <trkpt lat="48.61352" lon="7.2675">
        <ele>673.1</ele>
        <time>2024-03-05T15:15:40Z</time>
      </trkpt>
      <trkpt lat="48.6135" lon="7.26752">
        <ele>672.8</ele>
        <time>2024-03-05T15:15:41Z</time>
      </trkpt>
      <trkpt lat="48.61347" lon="7.26758">
        <ele>672.4</ele>
        <time>2024-03-05T15:15:43Z</time>
      </trkpt>
      <trkpt lat="48.61345" lon="7.26762">
        <ele>672.1</ele>
        <time>2024-03-05T15:15:44Z</time>
      </trkpt>
      <trkpt lat="48.61342" lon="7.26766">
        <ele>671.8</ele>
        <time>2024-03-05T15:15:45Z</time>
      </trkpt>
      <trkpt lat="48.6134" lon="7.26771">
        <ele>671.5</ele>
        <time>2024-03-05T15:15:46Z</time>
      </trkpt>
      <trkpt lat="48.61338" lon="7.26777">
        <ele>671.1</ele>
        <time>2024-03-05T15:15:48Z</time>
      </trkpt>
      <trkpt lat="48.61337" lon="7.26778">
        <ele>671</ele>
        <time>2024-03-05T15:15:49Z</time>
      </trkpt>
      <trkpt lat="48.61336" lon="7.2678">
        <ele>670.9</ele>
        <time>2024-03-05T15:15:50Z</time>
      </trkpt>
      <trkpt lat="48.61334" lon="7.26785">
        <ele>670.6</ele>
        <time>2024-03-05T15:15:51Z</time>
      </trkpt>
      <trkpt lat="48.61331" lon="7.26789">
        <ele>670.3</ele>
        <time>2024-03-05T15:15:53Z</time>
      </trkpt>
      <trkpt lat="48.61328" lon="7.26793">
        <ele>670</ele>
        <time>2024-03-05T15:15:54Z</time>
      </trkpt>
      <trkpt lat="48.61328" lon="7.26794">
        <ele>670</ele>
        <time>2024-03-05T15:15:55Z</time>
      </trkpt>
      <trkpt lat="48.61326" lon="7.26798">
        <ele>669.7</ele>
        <time>2024-03-05T15:15:56Z</time>
      </trkpt>
      <trkpt lat="48.61325" lon="7.26799">
        <ele>669.7</ele>
        <time>2024-03-05T15:15:57Z</time>
      </trkpt>
      <trkpt lat="48.61322" lon="7.26806">
        <ele>669.2</ele>
        <time>2024-03-05T15:15:58Z</time>
      </trkpt>
      <trkpt lat="48.6132" lon="7.26809">
        <ele>668.9</ele>
        <time>2024-03-05T15:15:59Z</time>
      </trkpt>
      <trkpt lat="48.61317" lon="7.26815">
        <ele>668.5</ele>
        <time>2024-03-05T15:16:00Z</time>
      </trkpt>
      <trkpt lat="48.61315" lon="7.2682">
        <ele>668.2</ele>
        <time>2024-03-05T15:16:01Z</time>
      </trkpt>
      <trkpt lat="48.61313" lon="7.26823">
        <ele>667.9</ele>
        <time>2024-03-05T15:16:02Z</time>
      </trkpt>
      <trkpt lat="48.61311" lon="7.26827">
        <ele>667.6</ele>
        <time>2024-03-05T15:16:03Z</time>
      </trkpt>
      <trkpt lat="48.6131" lon="7.26831">
        <ele>667.4</ele>
        <time>2024-03-05T15:16:04Z</time>
      </trkpt>
      <trkpt lat="48.61308" lon="7.26835">
        <ele>667.1</ele>
        <time>2024-03-05T15:16:05Z</time>
      </trkpt>
      <trkpt lat="48.61306" lon="7.26839">
        <ele>666.9</ele>
        <time>2024-03-05T15:16:06Z</time>
      </trkpt>
      <trkpt lat="48.61306" lon="7.2684">
        <ele>666.8</ele>
        <time>2024-03-05T15:16:07Z</time>
      </trkpt>
      <trkpt lat="48.61304" lon="7.26842">
        <ele>666.6</ele>
        <time>2024-03-05T15:16:08Z</time>
      </trkpt>
      <trkpt lat="48.61303" lon="7.26844">
        <ele>666.4</ele>
        <time>2024-03-05T15:16:09Z</time>
      </trkpt>
      <trkpt lat="48.613" lon="7.26849">
        <ele>666.1</ele>
        <time>2024-03-05T15:16:10Z</time>
      </trkpt>
      <trkpt lat="48.61299" lon="7.26852">
        <ele>665.9</ele>
        <time>2024-03-05T15:16:11Z</time>
      </trkpt>
      <trkpt lat="48.61296" lon="7.26856">
        <ele>665.6</ele>
        <time>2024-03-05T15:16:12Z</time>
      </trkpt>
      <trkpt lat="48.61292" lon="7.2686">
        <ele>665.2</ele>
        <time>2024-03-05T15:16:14Z</time>
      </trkpt>
      <trkpt lat="48.61288" lon="7.26864">
        <ele>664.9</ele>
        <time>2024-03-05T15:16:15Z</time>
      </trkpt>
      <trkpt lat="48.61283" lon="7.2687">
        <ele>664.3</ele>
        <time>2024-03-05T15:16:17Z</time>
      </trkpt>
      <trkpt lat="48.61275" lon="7.26877">
        <ele>663.6</ele>
        <time>2024-03-05T15:16:19Z</time>
      </trkpt>
      <trkpt lat="48.61271" lon="7.2688">
        <ele>663.4</ele>
        <time>2024-03-05T15:16:20Z</time>
      </trkpt>
      <trkpt lat="48.61267" lon="7.26885">
        <ele>663</ele>
        <time>2024-03-05T15:16:21Z</time>
      </trkpt>
      <trkpt lat="48.61262" lon="7.26887">
        <ele>662.6</ele>
        <time>2024-03-05T15:16:22Z</time>
      </trkpt>
      <trkpt lat="48.61258" lon="7.2689">
        <ele>662.3</ele>
        <time>2024-03-05T15:16:23Z</time>
      </trkpt>
      <trkpt lat="48.61254" lon="7.26892">
        <ele>662</ele>
        <time>2024-03-05T15:16:24Z</time>
      </trkpt>
      <trkpt lat="48.61249" lon="7.26893">
        <ele>661.7</ele>
        <time>2024-03-05T15:16:25Z</time>
      </trkpt>
      <trkpt lat="48.61246" lon="7.26893">
        <ele>661.4</ele>
        <time>2024-03-05T15:16:26Z</time>
      </trkpt>
      <trkpt lat="48.61242" lon="7.26894">
        <ele>661.1</ele>
        <time>2024-03-05T15:16:27Z</time>
      </trkpt>
      <trkpt lat="48.61238" lon="7.26895">
        <ele>660.8</ele>
        <time>2024-03-05T15:16:28Z</time>
      </trkpt>
      <trkpt lat="48.61234" lon="7.26897">
        <ele>660.4</ele>
        <time>2024-03-05T15:16:29Z</time>
      </trkpt>
      <trkpt lat="48.61229" lon="7.26898">
        <ele>660.1</ele>
        <time>2024-03-05T15:16:30Z</time>
      </trkpt>
      <trkpt lat="48.61226" lon="7.26899">
        <ele>659.8</ele>
        <time>2024-03-05T15:16:31Z</time>
      </trkpt>
      <trkpt lat="48.61223" lon="7.26901">
        <ele>659.5</ele>
        <time>2024-03-05T15:16:33Z</time>
      </trkpt>
      <trkpt lat="48.61221" lon="7.26902">
        <ele>659.4</ele>
        <time>2024-03-05T15:16:34Z</time>
      </trkpt>
      <trkpt lat="48.61219" lon="7.26902">
        <ele>659.3</ele>
        <time>2024-03-05T15:16:35Z</time>
      </trkpt>
      <trkpt lat="48.61217" lon="7.26901">
        <ele>659.1</ele>
        <time>2024-03-05T15:16:36Z</time>
      </trkpt>
      <trkpt lat="48.61216" lon="7.26901">
        <ele>659</ele>
        <time>2024-03-05T15:16:37Z</time>
      </trkpt>
      <trkpt lat="48.61214" lon="7.269">
        <ele>658.8</ele>
        <time>2024-03-05T15:16:38Z</time>
      </trkpt>
      <trkpt lat="48.61213" lon="7.269">
        <ele>658.7</ele>
        <time>2024-03-05T15:16:39Z</time>
      </trkpt>
      <trkpt lat="48.61211" lon="7.269">
        <ele>658.7</ele>
        <time>2024-03-05T15:16:40Z</time>
      </trkpt>
      <trkpt lat="48.61206" lon="7.269">
        <ele>658.3</ele>
        <time>2024-03-05T15:16:41Z</time>
      </trkpt>
      <trkpt lat="48.61201" lon="7.26898">
        <ele>657.9</ele>
        <time>2024-03-05T15:16:43Z</time>
      </trkpt>
      <trkpt lat="48.61199" lon="7.26896">
        <ele>657.7</ele>
        <time>2024-03-05T15:16:44Z</time>
      </trkpt>
      <trkpt lat="48.61198" lon="7.26895">
        <ele>657.6</ele>
        <time>2024-03-05T15:16:45Z</time>
      </trkpt>
      <trkpt lat="48.61192" lon="7.26894">
        <ele>657.2</ele>
        <time>2024-03-05T15:16:46Z</time>
      </trkpt>
      <trkpt lat="48.61186" lon="7.26893">
        <ele>656.7</ele>
        <time>2024-03-05T15:16:48Z</time>
      </trkpt>
      <trkpt lat="48.61183" lon="7.26892">
        <ele>656.6</ele>
        <time>2024-03-05T15:16:49Z</time>
      </trkpt>
      <trkpt lat="48.6118" lon="7.26892">
        <ele>656.3</ele>
        <time>2024-03-05T15:16:50Z</time>
      </trkpt>
      <trkpt lat="48.61179" lon="7.26892">
        <ele>656.3</ele>
        <time>2024-03-05T15:16:51Z</time>
      </trkpt>
      <trkpt lat="48.61175" lon="7.26892">
        <ele>656</ele>
        <time>2024-03-05T15:16:52Z</time>
      </trkpt>
      <trkpt lat="48.61173" lon="7.26892">
        <ele>655.9</ele>
        <time>2024-03-05T15:16:53Z</time>
      </trkpt>
      <trkpt lat="48.61169" lon="7.26891">
        <ele>655.6</ele>
        <time>2024-03-05T15:16:54Z</time>
      </trkpt>
      <trkpt lat="48.61168" lon="7.26889">
        <ele>655.5</ele>
        <time>2024-03-05T15:16:55Z</time>
      </trkpt>
      <trkpt lat="48.61165" lon="7.26887">
        <ele>655.3</ele>
        <time>2024-03-05T15:16:56Z</time>
      </trkpt>
      <trkpt lat="48.61162" lon="7.26885">
        <ele>655</ele>
        <time>2024-03-05T15:16:57Z</time>
      </trkpt>
      <trkpt lat="48.61159" lon="7.26884">
        <ele>654.9</ele>
        <time>2024-03-05T15:16:58Z</time>
      </trkpt>
      <trkpt lat="48.61158" lon="7.26884">
        <ele>654.8</ele>
        <time>2024-03-05T15:16:59Z</time>
      </trkpt>
      <trkpt lat="48.61154" lon="7.26884">
        <ele>654.5</ele>
        <time>2024-03-05T15:17:00Z</time>
      </trkpt>
      <trkpt lat="48.61153" lon="7.26884">
        <ele>654.5</ele>
        <time>2024-03-05T15:17:01Z</time>
      </trkpt>
      <trkpt lat="48.6115" lon="7.26883">
        <ele>654.3</ele>
        <time>2024-03-05T15:17:02Z</time>
      </trkpt>
      <trkpt lat="48.61148" lon="7.26881">
        <ele>654.1</ele>
        <time>2024-03-05T15:17:03Z</time>
      </trkpt>
      <trkpt lat="48.61145" lon="7.2688">
        <ele>653.9</ele>
        <time>2024-03-05T15:17:04Z</time>
      </trkpt>
      <trkpt lat="48.61144" lon="7.26879">
        <ele>653.8</ele>
        <time>2024-03-05T15:17:05Z</time>
      </trkpt>
      <trkpt lat="48.61142" lon="7.26879">
        <ele>653.7</ele>
        <time>2024-03-05T15:17:06Z</time>
      </trkpt>
      <trkpt lat="48.61141" lon="7.26879">
        <ele>653.6</ele>
        <time>2024-03-05T15:17:07Z</time>
      </trkpt>
      <trkpt lat="48.61139" lon="7.26878">
        <ele>653.5</ele>
        <time>2024-03-05T15:17:08Z</time>
      </trkpt>
      <trkpt lat="48.61138" lon="7.26878">
        <ele>653.4</ele>
        <time>2024-03-05T15:17:09Z</time>
      </trkpt>
      <trkpt lat="48.61134" lon="7.26875">
        <ele>653.1</ele>
        <time>2024-03-05T15:17:10Z</time>
      </trkpt>
      <trkpt lat="48.61133" lon="7.26873">
        <ele>653</ele>
        <time>2024-03-05T15:17:11Z</time>
      </trkpt>
      <trkpt lat="48.6113" lon="7.26872">
        <ele>652.7</ele>
        <time>2024-03-05T15:17:12Z</time>
      </trkpt>
      <trkpt lat="48.61127" lon="7.2687">
        <ele>652.5</ele>
        <time>2024-03-05T15:17:13Z</time>
      </trkpt>
      <trkpt lat="48.61124" lon="7.26868">
        <ele>652.3</ele>
        <time>2024-03-05T15:17:14Z</time>
      </trkpt>
      <trkpt lat="48.61121" lon="7.26866">
        <ele>652.1</ele>
        <time>2024-03-05T15:17:15Z</time>
      </trkpt>
      <trkpt lat="48.61116" lon="7.26863">
        <ele>651.8</ele>
        <time>2024-03-05T15:17:16Z</time>
      </trkpt>
      <trkpt lat="48.61112" lon="7.26858">
        <ele>651.5</ele>
        <time>2024-03-05T15:17:18Z</time>
      </trkpt>
      <trkpt lat="48.61108" lon="7.26855">
        <ele>651.3</ele>
        <time>2024-03-05T15:17:19Z</time>
      </trkpt>
      <trkpt lat="48.61107" lon="7.26855">
        <ele>651.2</ele>
        <time>2024-03-05T15:17:20Z</time>
      </trkpt>
      <trkpt lat="48.61103" lon="7.26853">
        <ele>651</ele>
        <time>2024-03-05T15:17:21Z</time>
      </trkpt>
      <trkpt lat="48.61102" lon="7.26853">
        <ele>650.9</ele>
        <time>2024-03-05T15:17:22Z</time>
      </trkpt>
      <trkpt lat="48.61098" lon="7.2685">
        <ele>650.7</ele>
        <time>2024-03-05T15:17:23Z</time>
      </trkpt>
      <trkpt lat="48.61096" lon="7.26849">
        <ele>650.6</ele>
        <time>2024-03-05T15:17:24Z</time>
      </trkpt>
      <trkpt lat="48.61093" lon="7.26847">
        <ele>650.4</ele>
        <time>2024-03-05T15:17:25Z</time>
      </trkpt>
      <trkpt lat="48.6109" lon="7.26845">
        <ele>650.2</ele>
        <time>2024-03-05T15:17:26Z</time>
      </trkpt>
      <trkpt lat="48.61089" lon="7.26844">
        <ele>650.2</ele>
        <time>2024-03-05T15:17:27Z</time>
      </trkpt>
      <trkpt lat="48.61085" lon="7.26843">
        <ele>649.9</ele>
        <time>2024-03-05T15:17:28Z</time>
      </trkpt>
      <trkpt lat="48.61084" lon="7.26842">
        <ele>649.9</ele>
        <time>2024-03-05T15:17:29Z</time>
      </trkpt>
      <trkpt lat="48.61081" lon="7.2684">
        <ele>649.7</ele>
        <time>2024-03-05T15:17:30Z</time>
      </trkpt>
      <trkpt lat="48.61077" lon="7.26838">
        <ele>649.5</ele>
        <time>2024-03-05T15:17:31Z</time>
      </trkpt>
      <trkpt lat="48.61075" lon="7.26837">
        <ele>649.4</ele>
        <time>2024-03-05T15:17:32Z</time>
      </trkpt>
      <trkpt lat="48.61071" lon="7.26837">
        <ele>649.2</ele>
        <time>2024-03-05T15:17:33Z</time>
      </trkpt>
      <trkpt lat="48.61066" lon="7.26836">
        <ele>649</ele>
        <time>2024-03-05T15:17:35Z</time>
      </trkpt>
      <trkpt lat="48.61065" lon="7.26836">
        <ele>649</ele>
        <time>2024-03-05T15:17:36Z</time>
      </trkpt>
      <trkpt lat="48.61064" lon="7.26835">
        <ele>648.9</ele>
        <time>2024-03-05T15:17:37Z</time>
      </trkpt>
      <trkpt lat="48.61063" lon="7.26835">
        <ele>648.9</ele>
        <time>2024-03-05T15:17:38Z</time>
      </trkpt>
      <trkpt lat="48.61061" lon="7.26833">
        <ele>648.8</ele>
        <time>2024-03-05T15:17:39Z</time>
      </trkpt>
      <trkpt lat="48.61058" lon="7.26831">
        <ele>648.6</ele>
        <time>2024-03-05T15:17:40Z</time>
      </trkpt>
      <trkpt lat="48.61057" lon="7.26829">
        <ele>648.6</ele>
        <time>2024-03-05T15:17:41Z</time>
      </trkpt>
      <trkpt lat="48.61054" lon="7.26828">
        <ele>648.4</ele>
        <time>2024-03-05T15:17:42Z</time>
      </trkpt>
      <trkpt lat="48.61049" lon="7.26827">
        <ele>648.2</ele>
        <time>2024-03-05T15:17:43Z</time>
      </trkpt>
      <trkpt lat="48.61045" lon="7.26825">
        <ele>648</ele>
        <time>2024-03-05T15:17:44Z</time>
      </trkpt>
      <trkpt lat="48.61042" lon="7.26824">
        <ele>647.9</ele>
        <time>2024-03-05T15:17:45Z</time>
      </trkpt>
      <trkpt lat="48.61038" lon="7.26823">
        <ele>647.7</ele>
        <time>2024-03-05T15:17:46Z</time>
      </trkpt>
      <trkpt lat="48.61037" lon="7.26822">
        <ele>647.6</ele>
        <time>2024-03-05T15:17:47Z</time>
      </trkpt>
      <trkpt lat="48.61033" lon="7.26821">
        <ele>647.4</ele>
        <time>2024-03-05T15:17:48Z</time>
      </trkpt>
      <trkpt lat="48.61032" lon="7.26821">
        <ele>647.4</ele>
        <time>2024-03-05T15:17:49Z</time>
      </trkpt>
      <trkpt lat="48.61029" lon="7.2682">
        <ele>647.2</ele>
        <time>2024-03-05T15:17:50Z</time>
      </trkpt>
      <trkpt lat="48.61028" lon="7.26819">
        <ele>647.2</ele>
        <time>2024-03-05T15:17:51Z</time>
      </trkpt>
      <trkpt lat="48.61027" lon="7.2682">
        <ele>647.1</ele>
        <time>2024-03-05T15:17:52Z</time>
      </trkpt>
      <trkpt lat="48.61026" lon="7.2682">
        <ele>647.1</ele>
        <time>2024-03-05T15:17:54Z</time>
      </trkpt>
      <trkpt lat="48.61025" lon="7.2682">
        <ele>647</ele>
        <time>2024-03-05T15:17:55Z</time>
      </trkpt>
      <trkpt lat="48.61024" lon="7.26821">
        <ele>647</ele>
        <time>2024-03-05T15:17:57Z</time>
      </trkpt>
      <trkpt lat="48.61021" lon="7.26822">
        <ele>646.8</ele>
        <time>2024-03-05T15:17:58Z</time>
      </trkpt>
      <trkpt lat="48.61019" lon="7.26822">
        <ele>646.7</ele>
        <time>2024-03-05T15:17:59Z</time>
      </trkpt>
      <trkpt lat="48.61018" lon="7.26823">
        <ele>646.7</ele>
        <time>2024-03-05T15:18:00Z</time>
      </trkpt>
      <trkpt lat="48.61011" lon="7.26824">
        <ele>646.4</ele>
        <time>2024-03-05T15:18:01Z</time>
      </trkpt>
      <trkpt lat="48.61006" lon="7.26825">
        <ele>646.1</ele>
        <time>2024-03-05T15:18:03Z</time>
      </trkpt>
      <trkpt lat="48.61004" lon="7.26825">
        <ele>646</ele>
        <time>2024-03-05T15:18:04Z</time>
      </trkpt>
      <trkpt lat="48.61002" lon="7.26826">
        <ele>645.9</ele>
        <time>2024-03-05T15:18:05Z</time>
      </trkpt>
      <trkpt lat="48.60999" lon="7.26822">
        <ele>645.7</ele>
        <time>2024-03-05T15:18:07Z</time>
      </trkpt>
      <trkpt lat="48.60997" lon="7.26817">
        <ele>645.5</ele>
        <time>2024-03-05T15:18:08Z</time>
      </trkpt>
      <trkpt lat="48.60994" lon="7.26814">
        <ele>645.3</ele>
        <time>2024-03-05T15:18:09Z</time>
      </trkpt>
      <trkpt lat="48.6099" lon="7.26814">
        <ele>645.1</ele>
        <time>2024-03-05T15:18:10Z</time>
      </trkpt>
      <trkpt lat="48.60989" lon="7.26814">
        <ele>645</ele>
        <time>2024-03-05T15:18:11Z</time>
      </trkpt>
      <trkpt lat="48.60986" lon="7.26814">
        <ele>644.9</ele>
        <time>2024-03-05T15:18:12Z</time>
      </trkpt>
      <trkpt lat="48.60982" lon="7.26815">
        <ele>644.8</ele>
        <time>2024-03-05T15:18:13Z</time>
      </trkpt>
      <trkpt lat="48.6098" lon="7.26816">
        <ele>644.7</ele>
        <time>2024-03-05T15:18:14Z</time>
      </trkpt>
      <trkpt lat="48.60978" lon="7.26816">
        <ele>644.7</ele>
        <time>2024-03-05T15:18:15Z</time>
      </trkpt>
      <trkpt lat="48.60975" lon="7.26818">
        <ele>644.7</ele>
        <time>2024-03-05T15:18:16Z</time>
      </trkpt>
      <trkpt lat="48.60972" lon="7.2682">
        <ele>644.8</ele>
        <time>2024-03-05T15:18:17Z</time>
      </trkpt>
      <trkpt lat="48.6097" lon="7.26821">
        <ele>644.8</ele>
        <time>2024-03-05T15:18:18Z</time>
      </trkpt>
      <trkpt lat="48.60969" lon="7.26825">
        <ele>644.9</ele>
        <time>2024-03-05T15:18:19Z</time>
      </trkpt>
      <trkpt lat="48.60969" lon="7.26827">
        <ele>644.9</ele>
        <time>2024-03-05T15:18:20Z</time>
      </trkpt>
      <trkpt lat="48.6097" lon="7.26831">
        <ele>644.4</ele>
        <time>2024-03-05T15:18:21Z</time>
      </trkpt>
      <trkpt lat="48.6097" lon="7.26832">
        <ele>644.2</ele>
        <time>2024-03-05T15:18:22Z</time>
      </trkpt>
      <trkpt lat="48.60972" lon="7.26836">
        <ele>643.8</ele>
        <time>2024-03-05T15:18:23Z</time>
      </trkpt>
      <trkpt lat="48.60973" lon="7.26837">
        <ele>643.6</ele>
        <time>2024-03-05T15:18:24Z</time>
      </trkpt>
      <trkpt lat="48.60974" lon="7.26838">
        <ele>643.3</ele>
        <time>2024-03-05T15:18:25Z</time>
      </trkpt>
      <trkpt lat="48.60975" lon="7.2684">
        <ele>643.1</ele>
        <time>2024-03-05T15:18:26Z</time>
      </trkpt>
      <trkpt lat="48.60977" lon="7.26843">
        <ele>642.6</ele>
        <time>2024-03-05T15:18:27Z</time>
      </trkpt>
      <trkpt lat="48.60978" lon="7.26844">
        <ele>642.5</ele>
        <time>2024-03-05T15:18:28Z</time>
      </trkpt>
      <trkpt lat="48.6098" lon="7.26847">
        <ele>642</ele>
        <time>2024-03-05T15:18:29Z</time>
      </trkpt>
      <trkpt lat="48.60981" lon="7.26848">
        <ele>641.8</ele>
        <time>2024-03-05T15:18:30Z</time>
      </trkpt>
      <trkpt lat="48.60984" lon="7.26848">
        <ele>641.3</ele>
        <time>2024-03-05T15:18:31Z</time>
      </trkpt>
      <trkpt lat="48.60985" lon="7.26847">
        <ele>641.1</ele>
        <time>2024-03-05T15:18:32Z</time>
      </trkpt>
      <trkpt lat="48.60988" lon="7.26849">
        <ele>640.5</ele>
        <time>2024-03-05T15:18:33Z</time>
      </trkpt>
      <trkpt lat="48.60988" lon="7.2685">
        <ele>640.3</ele>
        <time>2024-03-05T15:18:34Z</time>
      </trkpt>
      <trkpt lat="48.6099" lon="7.26854">
        <ele>639.8</ele>
        <time>2024-03-05T15:18:35Z</time>
      </trkpt>
      <trkpt lat="48.60991" lon="7.26855">
        <ele>639.5</ele>
        <time>2024-03-05T15:18:36Z</time>
      </trkpt>
      <trkpt lat="48.60994" lon="7.26857">
        <ele>639</ele>
        <time>2024-03-05T15:18:37Z</time>
      </trkpt>
      <trkpt lat="48.60995" lon="7.26857">
        <ele>638.8</ele>
        <time>2024-03-05T15:18:38Z</time>
      </trkpt>
      <trkpt lat="48.60998" lon="7.2686">
        <ele>638.2</ele>
        <time>2024-03-05T15:18:39Z</time>
      </trkpt>
      <trkpt lat="48.60998" lon="7.26861">
        <ele>638</ele>
        <time>2024-03-05T15:18:40Z</time>
      </trkpt>
      <trkpt lat="48.61001" lon="7.26863">
        <ele>637.4</ele>
        <time>2024-03-05T15:18:41Z</time>
      </trkpt>
      <trkpt lat="48.61002" lon="7.26864">
        <ele>637.3</ele>
        <time>2024-03-05T15:18:42Z</time>
      </trkpt>
      <trkpt lat="48.61004" lon="7.26867">
        <ele>636.7</ele>
        <time>2024-03-05T15:18:43Z</time>
      </trkpt>
      <trkpt lat="48.61005" lon="7.26868">
        <ele>636.4</ele>
        <time>2024-03-05T15:18:44Z</time>
      </trkpt>
      <trkpt lat="48.61008" lon="7.26871">
        <ele>635.8</ele>
        <time>2024-03-05T15:18:45Z</time>
      </trkpt>
      <trkpt lat="48.61009" lon="7.26872">
        <ele>635.6</ele>
        <time>2024-03-05T15:18:46Z</time>
      </trkpt>
      <trkpt lat="48.61011" lon="7.26875">
        <ele>635</ele>
        <time>2024-03-05T15:18:47Z</time>
      </trkpt>
      <trkpt lat="48.61012" lon="7.26876">
        <ele>634.8</ele>
        <time>2024-03-05T15:18:48Z</time>
      </trkpt>
      <trkpt lat="48.61015" lon="7.2688">
        <ele>634.1</ele>
        <time>2024-03-05T15:18:49Z</time>
      </trkpt>
      <trkpt lat="48.61016" lon="7.26881">
        <ele>633.9</ele>
        <time>2024-03-05T15:18:50Z</time>
      </trkpt>
      <trkpt lat="48.61018" lon="7.26885">
        <ele>633.3</ele>
        <time>2024-03-05T15:18:51Z</time>
      </trkpt>
      <trkpt lat="48.61019" lon="7.26886">
        <ele>633.1</ele>
        <time>2024-03-05T15:18:52Z</time>
      </trkpt>
      <trkpt lat="48.61021" lon="7.26889">
        <ele>632.5</ele>
        <time>2024-03-05T15:18:53Z</time>
      </trkpt>
      <trkpt lat="48.61022" lon="7.26891">
        <ele>632.3</ele>
        <time>2024-03-05T15:18:54Z</time>
      </trkpt>
      <trkpt lat="48.61024" lon="7.26895">
        <ele>631.7</ele>
        <time>2024-03-05T15:18:55Z</time>
      </trkpt>
      <trkpt lat="48.61025" lon="7.26896">
        <ele>631.4</ele>
        <time>2024-03-05T15:18:56Z</time>
      </trkpt>
      <trkpt lat="48.61027" lon="7.269">
        <ele>630.9</ele>
        <time>2024-03-05T15:18:57Z</time>
      </trkpt>
      <trkpt lat="48.61027" lon="7.26901">
        <ele>630.7</ele>
        <time>2024-03-05T15:18:58Z</time>
      </trkpt>
      <trkpt lat="48.61026" lon="7.26901">
        <ele>630.7</ele>
        <time>2024-03-05T15:18:59Z</time>
      </trkpt>
      <trkpt lat="48.61025" lon="7.26901">
        <ele>630.9</ele>
        <time>2024-03-05T15:19:00Z</time>
      </trkpt>
      <trkpt lat="48.61024" lon="7.269">
        <ele>631.1</ele>
        <time>2024-03-05T15:19:01Z</time>
      </trkpt>
      <trkpt lat="48.61023" lon="7.269">
        <ele>631.2</ele>
        <time>2024-03-05T15:19:02Z</time>
      </trkpt>
      <trkpt lat="48.61022" lon="7.26899">
        <ele>631.5</ele>
        <time>2024-03-05T15:19:03Z</time>
      </trkpt>
      <trkpt lat="48.6102" lon="7.26899">
        <ele>631.8</ele>
        <time>2024-03-05T15:19:04Z</time>
      </trkpt>
      <trkpt lat="48.61018" lon="7.26899">
        <ele>632.1</ele>
        <time>2024-03-05T15:19:05Z</time>
      </trkpt>
      <trkpt lat="48.61017" lon="7.26899">
        <ele>632.3</ele>
        <time>2024-03-05T15:19:06Z</time>
      </trkpt>
      <trkpt lat="48.61016" lon="7.26899">
        <ele>632.5</ele>
        <time>2024-03-05T15:19:07Z</time>
      </trkpt>
      <trkpt lat="48.61016" lon="7.26901">
        <ele>632.7</ele>
        <time>2024-03-05T15:19:08Z</time>
      </trkpt>
      <trkpt lat="48.61016" lon="7.26903">
        <ele>633</ele>
        <time>2024-03-05T15:19:09Z</time>
      </trkpt>
      <trkpt lat="48.61018" lon="7.26907">
        <ele>633.6</ele>
        <time>2024-03-05T15:19:10Z</time>
      </trkpt>
      <trkpt lat="48.61019" lon="7.26908">
        <ele>633.8</ele>
        <time>2024-03-05T15:19:11Z</time>
      </trkpt>
      <trkpt lat="48.61021" lon="7.26911">
        <ele>634.5</ele>
        <time>2024-03-05T15:19:12Z</time>
      </trkpt>
      <trkpt lat="48.61022" lon="7.26911">
        <ele>634.6</ele>
        <time>2024-03-05T15:19:13Z</time>
      </trkpt>
      <trkpt lat="48.61023" lon="7.26912">
        <ele>634.9</ele>
        <time>2024-03-05T15:19:14Z</time>
      </trkpt>
      <trkpt lat="48.61025" lon="7.26914">
        <ele>635.3</ele>
        <time>2024-03-05T15:19:15Z</time>
      </trkpt>
      <trkpt lat="48.61027" lon="7.26916">
        <ele>635.9</ele>
        <time>2024-03-05T15:19:16Z</time>
      </trkpt>
      <trkpt lat="48.61028" lon="7.26917">
        <ele>636.1</ele>
        <time>2024-03-05T15:19:17Z</time>
      </trkpt>
      <trkpt lat="48.61029" lon="7.2692">
        <ele>636.5</ele>
        <time>2024-03-05T15:19:18Z</time>
      </trkpt>
      <trkpt lat="48.61029" lon="7.26922">
        <ele>636.8</ele>
        <time>2024-03-05T15:19:19Z</time>
      </trkpt>
      <trkpt lat="48.61029" lon="7.26923">
        <ele>637</ele>
        <time>2024-03-05T15:19:20Z</time>
      </trkpt>
      <trkpt lat="48.6103" lon="7.26926">
        <ele>637.4</ele>
        <time>2024-03-05T15:19:21Z</time>
      </trkpt>
      <trkpt lat="48.6103" lon="7.26928">
        <ele>637.7</ele>
        <time>2024-03-05T15:19:22Z</time>
      </trkpt>
      <trkpt lat="48.61031" lon="7.2693">
        <ele>638.1</ele>
        <time>2024-03-05T15:19:23Z</time>
      </trkpt>
      <trkpt lat="48.61032" lon="7.26934">
        <ele>638.5</ele>
        <time>2024-03-05T15:19:24Z</time>
      </trkpt>
      <trkpt lat="48.61033" lon="7.26934">
        <ele>638.7</ele>
        <time>2024-03-05T15:19:25Z</time>
      </trkpt>
      <trkpt lat="48.61033" lon="7.26935">
        <ele>638.9</ele>
        <time>2024-03-05T15:19:26Z</time>
      </trkpt>
      <trkpt lat="48.61035" lon="7.26938">
        <ele>639.4</ele>
        <time>2024-03-05T15:19:27Z</time>
      </trkpt>
      <trkpt lat="48.61036" lon="7.2694">
        <ele>639.5</ele>
        <time>2024-03-05T15:19:28Z</time>
      </trkpt>
      <trkpt lat="48.61037" lon="7.26944">
        <ele>640.1</ele>
        <time>2024-03-05T15:19:29Z</time>
      </trkpt>
      <trkpt lat="48.61038" lon="7.26945">
        <ele>640.3</ele>
        <time>2024-03-05T15:19:30Z</time>
      </trkpt>
      <trkpt lat="48.61039" lon="7.26949">
        <ele>640.9</ele>
        <time>2024-03-05T15:19:31Z</time>
      </trkpt>
      <trkpt lat="48.6104" lon="7.2695">
        <ele>641.1</ele>
        <time>2024-03-05T15:19:32Z</time>
      </trkpt>
      <trkpt lat="48.61041" lon="7.26952">
        <ele>641.5</ele>
        <time>2024-03-05T15:19:33Z</time>
      </trkpt>
      <trkpt lat="48.61042" lon="7.26954">
        <ele>641.8</ele>
        <time>2024-03-05T15:19:34Z</time>
      </trkpt>
      <trkpt lat="48.61043" lon="7.26956">
        <ele>642</ele>
        <time>2024-03-05T15:19:35Z</time>
      </trkpt>
      <trkpt lat="48.61044" lon="7.26958">
        <ele>642.4</ele>
        <time>2024-03-05T15:19:36Z</time>
      </trkpt>
      <trkpt lat="48.61045" lon="7.2696">
        <ele>642.7</ele>
        <time>2024-03-05T15:19:37Z</time>
      </trkpt>
      <trkpt lat="48.61046" lon="7.26961">
        <ele>643</ele>
        <time>2024-03-05T15:19:38Z</time>
      </trkpt>
      <trkpt lat="48.61047" lon="7.26963">
        <ele>643.2</ele>
        <time>2024-03-05T15:19:39Z</time>
      </trkpt>
      <trkpt lat="48.61048" lon="7.26964">
        <ele>643.5</ele>
        <time>2024-03-05T15:19:40Z</time>
      </trkpt>
      <trkpt lat="48.61049" lon="7.26966">
        <ele>643.8</ele>
        <time>2024-03-05T15:19:41Z</time>
      </trkpt>
      <trkpt lat="48.6105" lon="7.26969">
        <ele>644.1</ele>
        <time>2024-03-05T15:19:42Z</time>
      </trkpt>
      <trkpt lat="48.61051" lon="7.26971">
        <ele>644.5</ele>
        <time>2024-03-05T15:19:43Z</time>
      </trkpt>
      <trkpt lat="48.61051" lon="7.26973">
        <ele>644.8</ele>
        <time>2024-03-05T15:19:44Z</time>
      </trkpt>
      <trkpt lat="48.61052" lon="7.26977">
        <ele>645.3</ele>
        <time>2024-03-05T15:19:45Z</time>
      </trkpt>
      <trkpt lat="48.61052" lon="7.26979">
        <ele>645.4</ele>
        <time>2024-03-05T15:19:46Z</time>
      </trkpt>
      <trkpt lat="48.61052" lon="7.26981">
        <ele>645.8</ele>
        <time>2024-03-05T15:19:47Z</time>
      </trkpt>
      <trkpt lat="48.61053" lon="7.26983">
        <ele>646.1</ele>
        <time>2024-03-05T15:19:48Z</time>
      </trkpt>
      <trkpt lat="48.61053" lon="7.26987">
        <ele>646.6</ele>
        <time>2024-03-05T15:19:49Z</time>
      </trkpt>
      <trkpt lat="48.61053" lon="7.26989">
        <ele>646.8</ele>
        <time>2024-03-05T15:19:50Z</time>
      </trkpt>
      <trkpt lat="48.61054" lon="7.26991">
        <ele>647.1</ele>
        <time>2024-03-05T15:19:51Z</time>
      </trkpt>
      <trkpt lat="48.61053" lon="7.26994">
        <ele>647.4</ele>
        <time>2024-03-05T15:19:52Z</time>
      </trkpt>
      <trkpt lat="48.61054" lon="7.26996">
        <ele>647.7</ele>
        <time>2024-03-05T15:19:53Z</time>
      </trkpt>
      <trkpt lat="48.61054" lon="7.26999">
        <ele>648.1</ele>
        <time>2024-03-05T15:19:54Z</time>
      </trkpt>
      <trkpt lat="48.61054" lon="7.27003">
        <ele>648.6</ele>
        <time>2024-03-05T15:19:55Z</time>
      </trkpt>
      <trkpt lat="48.61054" lon="7.27004">
        <ele>648.8</ele>
        <time>2024-03-05T15:19:56Z</time>
      </trkpt>
      <trkpt lat="48.61054" lon="7.27007">
        <ele>649.1</ele>
        <time>2024-03-05T15:19:57Z</time>
      </trkpt>
      <trkpt lat="48.61055" lon="7.27009">
        <ele>649.5</ele>
        <time>2024-03-05T15:19:58Z</time>
      </trkpt>
      <trkpt lat="48.61055" lon="7.27012">
        <ele>649.8</ele>
        <time>2024-03-05T15:19:59Z</time>
      </trkpt>
      <trkpt lat="48.61055" lon="7.27014">
        <ele>650.1</ele>
        <time>2024-03-05T15:20:00Z</time>
      </trkpt>
      <trkpt lat="48.61054" lon="7.27017">
        <ele>650.5</ele>
        <time>2024-03-05T15:20:01Z</time>
      </trkpt>
      <trkpt lat="48.61054" lon="7.27019">
        <ele>650.8</ele>
        <time>2024-03-05T15:20:02Z</time>
      </trkpt>
      <trkpt lat="48.61053" lon="7.27021">
        <ele>651.1</ele>
        <time>2024-03-05T15:20:03Z</time>
      </trkpt>
      <trkpt lat="48.61053" lon="7.27024">
        <ele>651.5</ele>
        <time>2024-03-05T15:20:04Z</time>
      </trkpt>
      <trkpt lat="48.61052" lon="7.27026">
        <ele>651.8</ele>
        <time>2024-03-05T15:20:05Z</time>
      </trkpt>
      <trkpt lat="48.61051" lon="7.27028">
        <ele>652.1</ele>
        <time>2024-03-05T15:20:06Z</time>
      </trkpt>
      <trkpt lat="48.61051" lon="7.27031">
        <ele>652.5</ele>
        <time>2024-03-05T15:20:07Z</time>
      </trkpt>
      <trkpt lat="48.61051" lon="7.27034">
        <ele>652.8</ele>
        <time>2024-03-05T15:20:08Z</time>
      </trkpt>
      <trkpt lat="48.61051" lon="7.27036">
        <ele>653.2</ele>
        <time>2024-03-05T15:20:09Z</time>
      </trkpt>
      <trkpt lat="48.6105" lon="7.27038">
        <ele>653.5</ele>
        <time>2024-03-05T15:20:10Z</time>
      </trkpt>
      <trkpt lat="48.61049" lon="7.2704">
        <ele>653.8</ele>
        <time>2024-03-05T15:20:11Z</time>
      </trkpt>
      <trkpt lat="48.61049" lon="7.27042">
        <ele>654.1</ele>
        <time>2024-03-05T15:20:12Z</time>
      </trkpt>
      <trkpt lat="48.61049" lon="7.27046">
        <ele>654.7</ele>
        <time>2024-03-05T15:20:13Z</time>
      </trkpt>
      <trkpt lat="48.61049" lon="7.27048">
        <ele>654.9</ele>
        <time>2024-03-05T15:20:14Z</time>
      </trkpt>
      <trkpt lat="48.61048" lon="7.2705">
        <ele>655.2</ele>
        <time>2024-03-05T15:20:15Z</time>
      </trkpt>
      <trkpt lat="48.61047" lon="7.27052">
        <ele>655.6</ele>
        <time>2024-03-05T15:20:16Z</time>
      </trkpt>
      <trkpt lat="48.61046" lon="7.27056">
        <ele>656.1</ele>
        <time>2024-03-05T15:20:17Z</time>
      </trkpt>
      <trkpt lat="48.61045" lon="7.27057">
        <ele>656.4</ele>
        <time>2024-03-05T15:20:18Z</time>
      </trkpt>
      <trkpt lat="48.61043" lon="7.2706">
        <ele>657</ele>
        <time>2024-03-05T15:20:19Z</time>
      </trkpt>
      <trkpt lat="48.61042" lon="7.27061">
        <ele>657.2</ele>
        <time>2024-03-05T15:20:20Z</time>
      </trkpt>
      <trkpt lat="48.6104" lon="7.27065">
        <ele>657.8</ele>
        <time>2024-03-05T15:20:21Z</time>
      </trkpt>
      <trkpt lat="48.6104" lon="7.27066">
        <ele>658</ele>
        <time>2024-03-05T15:20:22Z</time>
      </trkpt>
      <trkpt lat="48.61039" lon="7.27068">
        <ele>658.3</ele>
        <time>2024-03-05T15:20:23Z</time>
      </trkpt>
      <trkpt lat="48.61038" lon="7.27069">
        <ele>658.7</ele>
        <time>2024-03-05T15:20:24Z</time>
      </trkpt>
      <trkpt lat="48.61037" lon="7.27071">
        <ele>659</ele>
        <time>2024-03-05T15:20:25Z</time>
      </trkpt>
      <trkpt lat="48.61036" lon="7.27073">
        <ele>659.3</ele>
        <time>2024-03-05T15:20:26Z</time>
      </trkpt>
      <trkpt lat="48.61035" lon="7.27075">
        <ele>659.7</ele>
        <time>2024-03-05T15:20:27Z</time>
      </trkpt>
      <trkpt lat="48.61034" lon="7.27076">
        <ele>660</ele>
        <time>2024-03-05T15:20:28Z</time>
      </trkpt>
      <trkpt lat="48.61033" lon="7.27078">
        <ele>660.2</ele>
        <time>2024-03-05T15:20:29Z</time>
      </trkpt>
      <trkpt lat="48.61032" lon="7.2708">
        <ele>660.6</ele>
        <time>2024-03-05T15:20:30Z</time>
      </trkpt>
      <trkpt lat="48.61032" lon="7.27084">
        <ele>661.2</ele>
        <time>2024-03-05T15:20:31Z</time>
      </trkpt>
      <trkpt lat="48.61032" lon="7.27085">
        <ele>661.3</ele>
        <time>2024-03-05T15:20:32Z</time>
      </trkpt>
      <trkpt lat="48.61031" lon="7.27087">
        <ele>661.7</ele>
        <time>2024-03-05T15:20:33Z</time>
      </trkpt>
      <trkpt lat="48.6103" lon="7.2709">
        <ele>662.1</ele>
        <time>2024-03-05T15:20:34Z</time>
      </trkpt>
      <trkpt lat="48.61029" lon="7.27093">
        <ele>662.6</ele>
        <time>2024-03-05T15:20:35Z</time>
      </trkpt>
      <trkpt lat="48.61029" lon="7.27095">
        <ele>662.8</ele>
        <time>2024-03-05T15:20:36Z</time>
      </trkpt>
      <trkpt lat="48.61027" lon="7.27096">
        <ele>663.2</ele>
        <time>2024-03-05T15:20:37Z</time>
      </trkpt>
      <trkpt lat="48.61027" lon="7.27098">
        <ele>663.4</ele>
        <time>2024-03-05T15:20:38Z</time>
      </trkpt>
      <trkpt lat="48.61025" lon="7.27101">
        <ele>664.1</ele>
        <time>2024-03-05T15:20:39Z</time>
      </trkpt>
      <trkpt lat="48.61024" lon="7.27103">
        <ele>664.3</ele>
        <time>2024-03-05T15:20:40Z</time>
      </trkpt>
      <trkpt lat="48.61023" lon="7.27105">
        <ele>664.7</ele>
        <time>2024-03-05T15:20:41Z</time>
      </trkpt>
      <trkpt lat="48.61023" lon="7.27107">
        <ele>665.1</ele>
        <time>2024-03-05T15:20:42Z</time>
      </trkpt>
      <trkpt lat="48.61022" lon="7.2711">
        <ele>665.4</ele>
        <time>2024-03-05T15:20:43Z</time>
      </trkpt>
      <trkpt lat="48.61022" lon="7.27112">
        <ele>665.7</ele>
        <time>2024-03-05T15:20:44Z</time>
      </trkpt>
      <trkpt lat="48.61022" lon="7.27113">
        <ele>665.9</ele>
        <time>2024-03-05T15:20:45Z</time>
      </trkpt>
      <trkpt lat="48.61021" lon="7.27116">
        <ele>666.4</ele>
        <time>2024-03-05T15:20:46Z</time>
      </trkpt>
      <trkpt lat="48.61019" lon="7.27122">
        <ele>667.3</ele>
        <time>2024-03-05T15:20:48Z</time>
      </trkpt>
      <trkpt lat="48.61019" lon="7.27123">
        <ele>667.6</ele>
        <time>2024-03-05T15:20:49Z</time>
      </trkpt>
      <trkpt lat="48.61018" lon="7.27125">
        <ele>667.8</ele>
        <time>2024-03-05T15:20:50Z</time>
      </trkpt>
      <trkpt lat="48.61017" lon="7.27127">
        <ele>668.2</ele>
        <time>2024-03-05T15:20:51Z</time>
      </trkpt>
      <trkpt lat="48.61016" lon="7.27129">
        <ele>668.6</ele>
        <time>2024-03-05T15:20:52Z</time>
      </trkpt>
      <trkpt lat="48.61015" lon="7.27132">
        <ele>668.9</ele>
        <time>2024-03-05T15:20:53Z</time>
      </trkpt>
      <trkpt lat="48.61014" lon="7.27134">
        <ele>669.3</ele>
        <time>2024-03-05T15:20:54Z</time>
      </trkpt>
      <trkpt lat="48.61014" lon="7.27137">
        <ele>669.6</ele>
        <time>2024-03-05T15:20:55Z</time>
      </trkpt>
      <trkpt lat="48.61014" lon="7.27139">
        <ele>669.9</ele>
        <time>2024-03-05T15:20:56Z</time>
      </trkpt>
      <trkpt lat="48.61011" lon="7.27141">
        <ele>670.4</ele>
        <time>2024-03-05T15:20:57Z</time>
      </trkpt>
      <trkpt lat="48.6101" lon="7.27143">
        <ele>670.6</ele>
        <time>2024-03-05T15:20:58Z</time>
      </trkpt>
      <trkpt lat="48.61008" lon="7.27146">
        <ele>671.2</ele>
        <time>2024-03-05T15:20:59Z</time>
      </trkpt>
      <trkpt lat="48.61007" lon="7.27147">
        <ele>671.3</ele>
        <time>2024-03-05T15:21:00Z</time>
      </trkpt>
      <trkpt lat="48.61005" lon="7.2715">
        <ele>671.8</ele>
        <time>2024-03-05T15:21:01Z</time>
      </trkpt>
      <trkpt lat="48.61005" lon="7.27151">
        <ele>672</ele>
        <time>2024-03-05T15:21:02Z</time>
      </trkpt>
      <trkpt lat="48.61002" lon="7.27153">
        <ele>672.4</ele>
        <time>2024-03-05T15:21:03Z</time>
      </trkpt>
      <trkpt lat="48.61001" lon="7.27154">
        <ele>672.6</ele>
        <time>2024-03-05T15:21:04Z</time>
      </trkpt>
      <trkpt lat="48.60999" lon="7.27157">
        <ele>673.1</ele>
        <time>2024-03-05T15:21:05Z</time>
      </trkpt>
      <trkpt lat="48.60999" lon="7.27159">
        <ele>673.3</ele>
        <time>2024-03-05T15:21:06Z</time>
      </trkpt>
      <trkpt lat="48.60997" lon="7.27161">
        <ele>673.6</ele>
        <time>2024-03-05T15:21:07Z</time>
      </trkpt>
      <trkpt lat="48.60997" lon="7.27162">
        <ele>673.7</ele>
        <time>2024-03-05T15:21:08Z</time>
      </trkpt>
      <trkpt lat="48.60996" lon="7.27164">
        <ele>673.9</ele>
        <time>2024-03-05T15:21:09Z</time>
      </trkpt>
      <trkpt lat="48.60995" lon="7.27168">
        <ele>674.3</ele>
        <time>2024-03-05T15:21:10Z</time>
      </trkpt>
      <trkpt lat="48.60994" lon="7.27172">
        <ele>674.8</ele>
        <time>2024-03-05T15:21:11Z</time>
      </trkpt>
      <trkpt lat="48.60993" lon="7.27174">
        <ele>675</ele>
        <time>2024-03-05T15:21:12Z</time>
      </trkpt>
      <trkpt lat="48.60993" lon="7.27179">
        <ele>675.6</ele>
        <time>2024-03-05T15:21:13Z</time>
      </trkpt>
      <trkpt lat="48.60993" lon="7.27182">
        <ele>675.9</ele>
        <time>2024-03-05T15:21:14Z</time>
      </trkpt>
      <trkpt lat="48.60993" lon="7.27187">
        <ele>676.5</ele>
        <time>2024-03-05T15:21:15Z</time>
      </trkpt>
      <trkpt lat="48.60993" lon="7.27192">
        <ele>677.1</ele>
        <time>2024-03-05T15:21:16Z</time>
      </trkpt>
      <trkpt lat="48.60991" lon="7.27197">
        <ele>677.9</ele>
        <time>2024-03-05T15:21:17Z</time>
      </trkpt>
      <trkpt lat="48.6099" lon="7.27199">
        <ele>678.2</ele>
        <time>2024-03-05T15:21:18Z</time>
      </trkpt>
      <trkpt lat="48.60986" lon="7.27202">
        <ele>679</ele>
        <time>2024-03-05T15:21:19Z</time>
      </trkpt>
      <trkpt lat="48.60985" lon="7.27203">
        <ele>679.2</ele>
        <time>2024-03-05T15:21:20Z</time>
      </trkpt>
      <trkpt lat="48.60984" lon="7.27204">
        <ele>679.6</ele>
        <time>2024-03-05T15:21:21Z</time>
      </trkpt>
      <trkpt lat="48.60983" lon="7.27205">
        <ele>679.8</ele>
        <time>2024-03-05T15:21:22Z</time>
      </trkpt>
      <trkpt lat="48.60983" lon="7.27206">
        <ele>680</ele>
        <time>2024-03-05T15:21:23Z</time>
      </trkpt>
      <trkpt lat="48.60982" lon="7.27208">
        <ele>680.2</ele>
        <time>2024-03-05T15:21:24Z</time>
      </trkpt>
      <trkpt lat="48.60982" lon="7.27208">
        <ele>680.3</ele>
        <time>2024-03-05T15:21:25Z</time>
      </trkpt>
      <trkpt lat="48.60981" lon="7.27211">
        <ele>680.6</ele>
        <time>2024-03-05T15:21:26Z</time>
      </trkpt>
      <trkpt lat="48.60981" lon="7.27213">
        <ele>680.9</ele>
        <time>2024-03-05T15:21:27Z</time>
      </trkpt>
      <trkpt lat="48.60981" lon="7.27216">
        <ele>681.3</ele>
        <time>2024-03-05T15:21:28Z</time>
      </trkpt>
      <trkpt lat="48.60981" lon="7.27218">
        <ele>681.5</ele>
        <time>2024-03-05T15:21:29Z</time>
      </trkpt>
      <trkpt lat="48.60981" lon="7.27221">
        <ele>681.9</ele>
        <time>2024-03-05T15:21:30Z</time>
      </trkpt>
      <trkpt lat="48.60981" lon="7.27223">
        <ele>682.2</ele>
        <time>2024-03-05T15:21:31Z</time>
      </trkpt>
      <trkpt lat="48.60981" lon="7.27225">
        <ele>682.5</ele>
        <time>2024-03-05T15:21:32Z</time>
      </trkpt>
      <trkpt lat="48.6098" lon="7.27229">
        <ele>683.1</ele>
        <time>2024-03-05T15:21:33Z</time>
      </trkpt>
      <trkpt lat="48.6098" lon="7.2723">
        <ele>683.2</ele>
        <time>2024-03-05T15:21:34Z</time>
      </trkpt>
      <trkpt lat="48.60978" lon="7.27234">
        <ele>683.7</ele>
        <time>2024-03-05T15:21:35Z</time>
      </trkpt>
      <trkpt lat="48.60978" lon="7.27235">
        <ele>683.9</ele>
        <time>2024-03-05T15:21:36Z</time>
      </trkpt>
      <trkpt lat="48.60977" lon="7.27239">
        <ele>684.5</ele>
        <time>2024-03-05T15:21:37Z</time>
      </trkpt>
      <trkpt lat="48.60977" lon="7.27241">
        <ele>684.6</ele>
        <time>2024-03-05T15:21:38Z</time>
      </trkpt>
      <trkpt lat="48.60977" lon="7.27243">
        <ele>684.9</ele>
        <time>2024-03-05T15:21:39Z</time>
      </trkpt>
      <trkpt lat="48.60976" lon="7.27246">
        <ele>685.3</ele>
        <time>2024-03-05T15:21:40Z</time>
      </trkpt>
      <trkpt lat="48.60976" lon="7.2725">
        <ele>685.7</ele>
        <time>2024-03-05T15:21:41Z</time>
      </trkpt>
      <trkpt lat="48.60976" lon="7.27251">
        <ele>685.9</ele>
        <time>2024-03-05T15:21:42Z</time>
      </trkpt>
      <trkpt lat="48.60975" lon="7.27254">
        <ele>686.2</ele>
        <time>2024-03-05T15:21:43Z</time>
      </trkpt>
      <trkpt lat="48.60974" lon="7.27256">
        <ele>686.5</ele>
        <time>2024-03-05T15:21:44Z</time>
      </trkpt>
      <trkpt lat="48.60973" lon="7.2726">
        <ele>687</ele>
        <time>2024-03-05T15:21:45Z</time>
      </trkpt>
      <trkpt lat="48.60972" lon="7.27261">
        <ele>687.2</ele>
        <time>2024-03-05T15:21:46Z</time>
      </trkpt>
      <trkpt lat="48.6097" lon="7.27265">
        <ele>687.8</ele>
        <time>2024-03-05T15:21:47Z</time>
      </trkpt>
      <trkpt lat="48.6097" lon="7.27266">
        <ele>687.9</ele>
        <time>2024-03-05T15:21:48Z</time>
      </trkpt>
      <trkpt lat="48.60969" lon="7.27268">
        <ele>688.2</ele>
        <time>2024-03-05T15:21:49Z</time>
      </trkpt>
      <trkpt lat="48.60969" lon="7.27271">
        <ele>688.6</ele>
        <time>2024-03-05T15:21:50Z</time>
      </trkpt>
      <trkpt lat="48.60969" lon="7.27273">
        <ele>688.9</ele>
        <time>2024-03-05T15:21:51Z</time>
      </trkpt>
      <trkpt lat="48.6097" lon="7.27276">
        <ele>689.2</ele>
        <time>2024-03-05T15:21:52Z</time>
      </trkpt>
      <trkpt lat="48.60972" lon="7.27279">
        <ele>689.7</ele>
        <time>2024-03-05T15:21:53Z</time>
      </trkpt>
      <trkpt lat="48.60972" lon="7.27281">
        <ele>689.9</ele>
        <time>2024-03-05T15:21:54Z</time>
      </trkpt>
      <trkpt lat="48.60973" lon="7.27285">
        <ele>690.5</ele>
        <time>2024-03-05T15:21:55Z</time>
      </trkpt>
      <trkpt lat="48.60973" lon="7.27286">
        <ele>690.7</ele>
        <time>2024-03-05T15:21:56Z</time>
      </trkpt>
      <trkpt lat="48.60975" lon="7.27289">
        <ele>691</ele>
        <time>2024-03-05T15:21:57Z</time>
      </trkpt>
      <trkpt lat="48.60976" lon="7.2729">
        <ele>691.3</ele>
        <time>2024-03-05T15:21:58Z</time>
      </trkpt>
      <trkpt lat="48.60977" lon="7.27292">
        <ele>691.7</ele>
        <time>2024-03-05T15:21:59Z</time>
      </trkpt>
      <trkpt lat="48.60978" lon="7.27293">
        <ele>691.9</ele>
        <time>2024-03-05T15:22:00Z</time>
      </trkpt>
      <trkpt lat="48.60979" lon="7.27294">
        <ele>692.1</ele>
        <time>2024-03-05T15:22:01Z</time>
      </trkpt>
      <trkpt lat="48.60981" lon="7.27297">
        <ele>692.5</ele>
        <time>2024-03-05T15:22:02Z</time>
      </trkpt>
      <trkpt lat="48.60983" lon="7.27301">
        <ele>693.3</ele>
        <time>2024-03-05T15:22:03Z</time>
      </trkpt>
      <trkpt lat="48.60984" lon="7.27303">
        <ele>693.5</ele>
        <time>2024-03-05T15:22:04Z</time>
      </trkpt>
      <trkpt lat="48.60987" lon="7.27306">
        <ele>694.1</ele>
        <time>2024-03-05T15:22:05Z</time>
      </trkpt>
      <trkpt lat="48.60987" lon="7.27307">
        <ele>694.3</ele>
        <time>2024-03-05T15:22:06Z</time>
      </trkpt>
      <trkpt lat="48.60989" lon="7.27309">
        <ele>694.6</ele>
        <time>2024-03-05T15:22:07Z</time>
      </trkpt>
      <trkpt lat="48.60989" lon="7.27311">
        <ele>694.9</ele>
        <time>2024-03-05T15:22:08Z</time>
      </trkpt>
      <trkpt lat="48.60991" lon="7.27313">
        <ele>695.2</ele>
        <time>2024-03-05T15:22:09Z</time>
      </trkpt>
      <trkpt lat="48.60992" lon="7.27315">
        <ele>695.4</ele>
        <time>2024-03-05T15:22:10Z</time>
      </trkpt>
      <trkpt lat="48.60993" lon="7.27316">
        <ele>695.7</ele>
        <time>2024-03-05T15:22:11Z</time>
      </trkpt>
      <trkpt lat="48.60995" lon="7.27316">
        <ele>696</ele>
        <time>2024-03-05T15:22:12Z</time>
      </trkpt>
      <trkpt lat="48.60996" lon="7.27316">
        <ele>696.3</ele>
        <time>2024-03-05T15:22:13Z</time>
      </trkpt>
      <trkpt lat="48.60998" lon="7.27317">
        <ele>696.5</ele>
        <time>2024-03-05T15:22:14Z</time>
      </trkpt>
      <trkpt lat="48.61001" lon="7.27318">
        <ele>697</ele>
        <time>2024-03-05T15:22:15Z</time>
      </trkpt>
      <trkpt lat="48.61002" lon="7.27318">
        <ele>697.2</ele>
        <time>2024-03-05T15:22:16Z</time>
      </trkpt>
      <trkpt lat="48.61005" lon="7.27319">
        <ele>697.8</ele>
        <time>2024-03-05T15:22:17Z</time>
      </trkpt>
      <trkpt lat="48.61006" lon="7.27319">
        <ele>697.9</ele>
        <time>2024-03-05T15:22:18Z</time>
      </trkpt>
      <trkpt lat="48.61009" lon="7.2732">
        <ele>698.5</ele>
        <time>2024-03-05T15:22:19Z</time>
      </trkpt>
      <trkpt lat="48.61011" lon="7.2732">
        <ele>698.7</ele>
        <time>2024-03-05T15:22:20Z</time>
      </trkpt>
      <trkpt lat="48.61014" lon="7.27321">
        <ele>699.3</ele>
        <time>2024-03-05T15:22:21Z</time>
      </trkpt>
      <trkpt lat="48.61015" lon="7.27322">
        <ele>699.5</ele>
        <time>2024-03-05T15:22:22Z</time>
      </trkpt>
      <trkpt lat="48.61018" lon="7.27323">
        <ele>700</ele>
        <time>2024-03-05T15:22:23Z</time>
      </trkpt>
      <trkpt lat="48.61019" lon="7.27323">
        <ele>700.2</ele>
        <time>2024-03-05T15:22:24Z</time>
      </trkpt>
      <trkpt lat="48.61022" lon="7.27326">
        <ele>700.7</ele>
        <time>2024-03-05T15:22:25Z</time>
      </trkpt>
      <trkpt lat="48.61023" lon="7.27327">
        <ele>700.8</ele>
        <time>2024-03-05T15:22:26Z</time>
      </trkpt>
      <trkpt lat="48.61026" lon="7.27329">
        <ele>701.4</ele>
        <time>2024-03-05T15:22:27Z</time>
      </trkpt>
      <trkpt lat="48.61027" lon="7.2733">
        <ele>701.6</ele>
        <time>2024-03-05T15:22:28Z</time>
      </trkpt>
      <trkpt lat="48.6103" lon="7.27331">
        <ele>702.1</ele>
        <time>2024-03-05T15:22:29Z</time>
      </trkpt>
      <trkpt lat="48.61031" lon="7.27331">
        <ele>702.2</ele>
        <time>2024-03-05T15:22:30Z</time>
      </trkpt>
      <trkpt lat="48.61034" lon="7.27333">
        <ele>702.7</ele>
        <time>2024-03-05T15:22:31Z</time>
      </trkpt>
      <trkpt lat="48.61039" lon="7.27335">
        <ele>703.5</ele>
        <time>2024-03-05T15:22:33Z</time>
      </trkpt>
      <trkpt lat="48.6104" lon="7.27335">
        <ele>703.7</ele>
        <time>2024-03-05T15:22:34Z</time>
      </trkpt>
      <trkpt lat="48.61042" lon="7.27335">
        <ele>703.9</ele>
        <time>2024-03-05T15:22:35Z</time>
      </trkpt>
      <trkpt lat="48.61046" lon="7.27336">
        <ele>704.5</ele>
        <time>2024-03-05T15:22:36Z</time>
      </trkpt>
      <trkpt lat="48.61047" lon="7.27335">
        <ele>704.7</ele>
        <time>2024-03-05T15:22:37Z</time>
      </trkpt>
      <trkpt lat="48.6105" lon="7.27336">
        <ele>705.1</ele>
        <time>2024-03-05T15:22:38Z</time>
      </trkpt>
      <trkpt lat="48.61051" lon="7.27336">
        <ele>705.3</ele>
        <time>2024-03-05T15:22:39Z</time>
      </trkpt>
      <trkpt lat="48.61054" lon="7.27338">
        <ele>705.9</ele>
        <time>2024-03-05T15:22:40Z</time>
      </trkpt>
      <trkpt lat="48.61057" lon="7.27338">
        <ele>706.4</ele>
        <time>2024-03-05T15:22:41Z</time>
      </trkpt>
      <trkpt lat="48.6106" lon="7.27337">
        <ele>706.8</ele>
        <time>2024-03-05T15:22:42Z</time>
      </trkpt>
      <trkpt lat="48.61063" lon="7.27338">
        <ele>707.3</ele>
        <time>2024-03-05T15:22:44Z</time>
      </trkpt>
      <trkpt lat="48.61066" lon="7.2734">
        <ele>707.9</ele>
        <time>2024-03-05T15:22:45Z</time>
      </trkpt>
      <trkpt lat="48.61067" lon="7.27341">
        <ele>708.1</ele>
        <time>2024-03-05T15:22:46Z</time>
      </trkpt>
      <trkpt lat="48.6107" lon="7.27341">
        <ele>708.6</ele>
        <time>2024-03-05T15:22:47Z</time>
      </trkpt>
      <trkpt lat="48.61073" lon="7.27343">
        <ele>709.2</ele>
        <time>2024-03-05T15:22:48Z</time>
      </trkpt>
      <trkpt lat="48.61074" lon="7.27343">
        <ele>709.4</ele>
        <time>2024-03-05T15:22:49Z</time>
      </trkpt>
      <trkpt lat="48.61078" lon="7.27345">
        <ele>710.2</ele>
        <time>2024-03-05T15:22:50Z</time>
      </trkpt>
      <trkpt lat="48.6108" lon="7.27346">
        <ele>710.5</ele>
        <time>2024-03-05T15:22:51Z</time>
      </trkpt>
      <trkpt lat="48.61083" lon="7.27348">
        <ele>711.2</ele>
        <time>2024-03-05T15:22:52Z</time>
      </trkpt>
      <trkpt lat="48.61085" lon="7.27349">
        <ele>711.4</ele>
        <time>2024-03-05T15:22:53Z</time>
      </trkpt>
      <trkpt lat="48.61088" lon="7.27352">
        <ele>712</ele>
        <time>2024-03-05T15:22:54Z</time>
      </trkpt>
      <trkpt lat="48.61089" lon="7.27353">
        <ele>712.3</ele>
        <time>2024-03-05T15:22:55Z</time>
      </trkpt>
      <trkpt lat="48.61093" lon="7.27355">
        <ele>712.9</ele>
        <time>2024-03-05T15:22:56Z</time>
      </trkpt>
      <trkpt lat="48.61094" lon="7.27355">
        <ele>713.1</ele>
        <time>2024-03-05T15:22:57Z</time>
      </trkpt>
      <trkpt lat="48.61096" lon="7.27356">
        <ele>713.4</ele>
        <time>2024-03-05T15:22:58Z</time>
      </trkpt>
      <trkpt lat="48.61099" lon="7.27357">
        <ele>713.8</ele>
        <time>2024-03-05T15:23:00Z</time>
      </trkpt>
      <trkpt lat="48.611" lon="7.27357">
        <ele>713.9</ele>
        <time>2024-03-05T15:23:01Z</time>
      </trkpt>
      <trkpt lat="48.61101" lon="7.27359">
        <ele>714.1</ele>
        <time>2024-03-05T15:23:02Z</time>
      </trkpt>
      <trkpt lat="48.61103" lon="7.27362">
        <ele>714.5</ele>
        <time>2024-03-05T15:23:03Z</time>
      </trkpt>
      <trkpt lat="48.61104" lon="7.27363">
        <ele>714.6</ele>
        <time>2024-03-05T15:23:04Z</time>
      </trkpt>
      <trkpt lat="48.61106" lon="7.27365">
        <ele>714.9</ele>
        <time>2024-03-05T15:23:05Z</time>
      </trkpt>
      <trkpt lat="48.61107" lon="7.27366">
        <ele>715</ele>
        <time>2024-03-05T15:23:06Z</time>
      </trkpt>
      <trkpt lat="48.6111" lon="7.27369">
        <ele>715.3</ele>
        <time>2024-03-05T15:23:07Z</time>
      </trkpt>
      <trkpt lat="48.61111" lon="7.2737">
        <ele>715.4</ele>
        <time>2024-03-05T15:23:08Z</time>
      </trkpt>
      <trkpt lat="48.61114" lon="7.27372">
        <ele>715.6</ele>
        <time>2024-03-05T15:23:09Z</time>
      </trkpt>
      <trkpt lat="48.61115" lon="7.27373">
        <ele>715.7</ele>
        <time>2024-03-05T15:23:10Z</time>
      </trkpt>
      <trkpt lat="48.61118" lon="7.27376">
        <ele>715.9</ele>
        <time>2024-03-05T15:23:11Z</time>
      </trkpt>
      <trkpt lat="48.61119" lon="7.27376">
        <ele>715.9</ele>
        <time>2024-03-05T15:23:12Z</time>
      </trkpt>
      <trkpt lat="48.6112" lon="7.27377">
        <ele>716</ele>
        <time>2024-03-05T15:23:13Z</time>
      </trkpt>
      <trkpt lat="48.6112" lon="7.2738">
        <ele>716</ele>
        <time>2024-03-05T15:23:14Z</time>
      </trkpt>
      <trkpt lat="48.61118" lon="7.27382">
        <ele>716</ele>
        <time>2024-03-05T15:23:15Z</time>
      </trkpt>
      <trkpt lat="48.61117" lon="7.27383">
        <ele>716.1</ele>
        <time>2024-03-05T15:23:16Z</time>
      </trkpt>
      <trkpt lat="48.61113" lon="7.27382">
        <ele>716.3</ele>
        <time>2024-03-05T15:23:17Z</time>
      </trkpt>
      <trkpt lat="48.61111" lon="7.27381">
        <ele>716.5</ele>
        <time>2024-03-05T15:23:18Z</time>
      </trkpt>
      <trkpt lat="48.61107" lon="7.27381">
        <ele>716.8</ele>
        <time>2024-03-05T15:23:19Z</time>
      </trkpt>
      <trkpt lat="48.61105" lon="7.27381">
        <ele>716.9</ele>
        <time>2024-03-05T15:23:20Z</time>
      </trkpt>
      <trkpt lat="48.61102" lon="7.2738">
        <ele>717.1</ele>
        <time>2024-03-05T15:23:21Z</time>
      </trkpt>
      <trkpt lat="48.61099" lon="7.27378">
        <ele>717.3</ele>
        <time>2024-03-05T15:23:22Z</time>
      </trkpt>
      <trkpt lat="48.61098" lon="7.27377">
        <ele>717.4</ele>
        <time>2024-03-05T15:23:23Z</time>
      </trkpt>
      <trkpt lat="48.61094" lon="7.27375">
        <ele>717.6</ele>
        <time>2024-03-05T15:23:24Z</time>
      </trkpt>
      <trkpt lat="48.61093" lon="7.27375">
        <ele>717.7</ele>
        <time>2024-03-05T15:23:25Z</time>
      </trkpt>
      <trkpt lat="48.6109" lon="7.27374">
        <ele>717.8</ele>
        <time>2024-03-05T15:23:26Z</time>
      </trkpt>
      <trkpt lat="48.61089" lon="7.27374">
        <ele>717.9</ele>
        <time>2024-03-05T15:23:27Z</time>
      </trkpt>
      <trkpt lat="48.61086" lon="7.27371">
        <ele>718</ele>
        <time>2024-03-05T15:23:28Z</time>
      </trkpt>
      <trkpt lat="48.61083" lon="7.27374">
        <ele>718.2</ele>
        <time>2024-03-05T15:23:29Z</time>
      </trkpt>
      <trkpt lat="48.6108" lon="7.27377">
        <ele>718.3</ele>
        <time>2024-03-05T15:23:30Z</time>
      </trkpt>
      <trkpt lat="48.6108" lon="7.27378">
        <ele>718.4</ele>
        <time>2024-03-05T15:23:31Z</time>
      </trkpt>
      <trkpt lat="48.61076" lon="7.27379">
        <ele>718.5</ele>
        <time>2024-03-05T15:23:32Z</time>
      </trkpt>
      <trkpt lat="48.61075" lon="7.27379">
        <ele>718.6</ele>
        <time>2024-03-05T15:23:33Z</time>
      </trkpt>
      <trkpt lat="48.61072" lon="7.2738">
        <ele>718.8</ele>
        <time>2024-03-05T15:23:34Z</time>
      </trkpt>
      <trkpt lat="48.61071" lon="7.2738">
        <ele>718.8</ele>
        <time>2024-03-05T15:23:35Z</time>
      </trkpt>
      <trkpt lat="48.61067" lon="7.27382">
        <ele>719</ele>
        <time>2024-03-05T15:23:36Z</time>
      </trkpt>
      <trkpt lat="48.61065" lon="7.27382">
        <ele>719.1</ele>
        <time>2024-03-05T15:23:37Z</time>
      </trkpt>
      <trkpt lat="48.61062" lon="7.27384">
        <ele>719.4</ele>
        <time>2024-03-05T15:23:38Z</time>
      </trkpt>
      <trkpt lat="48.6106" lon="7.27385">
        <ele>719.5</ele>
        <time>2024-03-05T15:23:39Z</time>
      </trkpt>
      <trkpt lat="48.61057" lon="7.27386">
        <ele>719.8</ele>
        <time>2024-03-05T15:23:40Z</time>
      </trkpt>
      <trkpt lat="48.61055" lon="7.27387">
        <ele>719.9</ele>
        <time>2024-03-05T15:23:41Z</time>
      </trkpt>
      <trkpt lat="48.61051" lon="7.27388">
        <ele>720.1</ele>
        <time>2024-03-05T15:23:42Z</time>
      </trkpt>
      <trkpt lat="48.6105" lon="7.2739">
        <ele>720.3</ele>
        <time>2024-03-05T15:23:43Z</time>
      </trkpt>
      <trkpt lat="48.61047" lon="7.27391">
        <ele>720.5</ele>
        <time>2024-03-05T15:23:44Z</time>
      </trkpt>
      <trkpt lat="48.61043" lon="7.27392">
        <ele>720.7</ele>
        <time>2024-03-05T15:23:45Z</time>
      </trkpt>
      <trkpt lat="48.61039" lon="7.27393">
        <ele>721</ele>
        <time>2024-03-05T15:23:47Z</time>
      </trkpt>
      <trkpt lat="48.61036" lon="7.27394">
        <ele>721.2</ele>
        <time>2024-03-05T15:23:48Z</time>
      </trkpt>
      <trkpt lat="48.61035" lon="7.27394">
        <ele>721.2</ele>
        <time>2024-03-05T15:23:49Z</time>
      </trkpt>
      <trkpt lat="48.61032" lon="7.27394">
        <ele>721.4</ele>
        <time>2024-03-05T15:23:50Z</time>
      </trkpt>
      <trkpt lat="48.6103" lon="7.27394">
        <ele>721.5</ele>
        <time>2024-03-05T15:23:51Z</time>
      </trkpt>
      <trkpt lat="48.61029" lon="7.27394">
        <ele>721.6</ele>
        <time>2024-03-05T15:23:52Z</time>
      </trkpt>
      <trkpt lat="48.61027" lon="7.27396">
        <ele>721.7</ele>
        <time>2024-03-05T15:23:53Z</time>
      </trkpt>
      <trkpt lat="48.61025" lon="7.27398">
        <ele>721.8</ele>
        <time>2024-03-05T15:23:54Z</time>
      </trkpt>
      <trkpt lat="48.61024" lon="7.27399">
        <ele>721.9</ele>
        <time>2024-03-05T15:23:55Z</time>
      </trkpt>
      <trkpt lat="48.6102" lon="7.27401">
        <ele>722.1</ele>
        <time>2024-03-05T15:23:56Z</time>
      </trkpt>
      <trkpt lat="48.61018" lon="7.27402">
        <ele>722.2</ele>
        <time>2024-03-05T15:23:57Z</time>
      </trkpt>
      <trkpt lat="48.61014" lon="7.27404">
        <ele>722.4</ele>
        <time>2024-03-05T15:23:58Z</time>
      </trkpt>
      <trkpt lat="48.61013" lon="7.27405">
        <ele>722.5</ele>
        <time>2024-03-05T15:23:59Z</time>
      </trkpt>
      <trkpt lat="48.6101" lon="7.27407">
        <ele>722.7</ele>
        <time>2024-03-05T15:24:00Z</time>
      </trkpt>
      <trkpt lat="48.61004" lon="7.27409">
        <ele>723</ele>
        <time>2024-03-05T15:24:02Z</time>
      </trkpt>
      <trkpt lat="48.61002" lon="7.2741">
        <ele>723.1</ele>
        <time>2024-03-05T15:24:03Z</time>
      </trkpt>
      <trkpt lat="48.61001" lon="7.2741">
        <ele>723.3</ele>
        <time>2024-03-05T15:24:04Z</time>
      </trkpt>
      <trkpt lat="48.60997" lon="7.27411">
        <ele>723.4</ele>
        <time>2024-03-05T15:24:05Z</time>
      </trkpt>
      <trkpt lat="48.60993" lon="7.27414">
        <ele>723.7</ele>
        <time>2024-03-05T15:24:07Z</time>
      </trkpt>
      <trkpt lat="48.60992" lon="7.27415">
        <ele>723.8</ele>
        <time>2024-03-05T15:24:08Z</time>
      </trkpt>
      <trkpt lat="48.60991" lon="7.27416">
        <ele>723.9</ele>
        <time>2024-03-05T15:24:09Z</time>
      </trkpt>
      <trkpt lat="48.60987" lon="7.27417">
        <ele>724.1</ele>
        <time>2024-03-05T15:24:10Z</time>
      </trkpt>
      <trkpt lat="48.60986" lon="7.27418">
        <ele>724.2</ele>
        <time>2024-03-05T15:24:11Z</time>
      </trkpt>
      <trkpt lat="48.60983" lon="7.27419">
        <ele>724.4</ele>
        <time>2024-03-05T15:24:12Z</time>
      </trkpt>
      <trkpt lat="48.60982" lon="7.27419">
        <ele>724.5</ele>
        <time>2024-03-05T15:24:13Z</time>
      </trkpt>
      <trkpt lat="48.60979" lon="7.27419">
        <ele>724.7</ele>
        <time>2024-03-05T15:24:14Z</time>
      </trkpt>
      <trkpt lat="48.60978" lon="7.2742">
        <ele>724.8</ele>
        <time>2024-03-05T15:24:15Z</time>
      </trkpt>
      <trkpt lat="48.60974" lon="7.27421">
        <ele>725.1</ele>
        <time>2024-03-05T15:24:16Z</time>
      </trkpt>
      <trkpt lat="48.60973" lon="7.27421">
        <ele>725.1</ele>
        <time>2024-03-05T15:24:17Z</time>
      </trkpt>
      <trkpt lat="48.6097" lon="7.27421">
        <ele>725.4</ele>
        <time>2024-03-05T15:24:18Z</time>
      </trkpt>
      <trkpt lat="48.60969" lon="7.27421">
        <ele>725.4</ele>
        <time>2024-03-05T15:24:19Z</time>
      </trkpt>
      <trkpt lat="48.60965" lon="7.2742">
        <ele>725.7</ele>
        <time>2024-03-05T15:24:20Z</time>
      </trkpt>
      <trkpt lat="48.60964" lon="7.2742">
        <ele>725.8</ele>
        <time>2024-03-05T15:24:21Z</time>
      </trkpt>
      <trkpt lat="48.6096" lon="7.27421">
        <ele>726</ele>
        <time>2024-03-05T15:24:22Z</time>
      </trkpt>
      <trkpt lat="48.60959" lon="7.2742">
        <ele>726.1</ele>
        <time>2024-03-05T15:24:23Z</time>
      </trkpt>
      <trkpt lat="48.60955" lon="7.27421">
        <ele>726.3</ele>
        <time>2024-03-05T15:24:24Z</time>
      </trkpt>
      <trkpt lat="48.60953" lon="7.2742">
        <ele>726.4</ele>
        <time>2024-03-05T15:24:25Z</time>
      </trkpt>
      <trkpt lat="48.6095" lon="7.27419">
        <ele>726.6</ele>
        <time>2024-03-05T15:24:26Z</time>
      </trkpt>
      <trkpt lat="48.60949" lon="7.27418">
        <ele>726.7</ele>
        <time>2024-03-05T15:24:27Z</time>
      </trkpt>
      <trkpt lat="48.60944" lon="7.27417">
        <ele>726.8</ele>
        <time>2024-03-05T15:24:28Z</time>
      </trkpt>
      <trkpt lat="48.60943" lon="7.27416">
        <ele>726.9</ele>
        <time>2024-03-05T15:24:29Z</time>
      </trkpt>
      <trkpt lat="48.6094" lon="7.27416">
        <ele>727</ele>
        <time>2024-03-05T15:24:30Z</time>
      </trkpt>
      <trkpt lat="48.60937" lon="7.27415">
        <ele>727.1</ele>
        <time>2024-03-05T15:24:31Z</time>
      </trkpt>
      <trkpt lat="48.60933" lon="7.27414">
        <ele>727.2</ele>
        <time>2024-03-05T15:24:32Z</time>
      </trkpt>
      <trkpt lat="48.60931" lon="7.27413">
        <ele>727.3</ele>
        <time>2024-03-05T15:24:33Z</time>
      </trkpt>
      <trkpt lat="48.60928" lon="7.27411">
        <ele>727.4</ele>
        <time>2024-03-05T15:24:34Z</time>
      </trkpt>
      <trkpt lat="48.60926" lon="7.2741">
        <ele>727.4</ele>
        <time>2024-03-05T15:24:35Z</time>
      </trkpt>
      <trkpt lat="48.60924" lon="7.27407">
        <ele>727.5</ele>
        <time>2024-03-05T15:24:36Z</time>
      </trkpt>
      <trkpt lat="48.60921" lon="7.27403">
        <ele>727.6</ele>
        <time>2024-03-05T15:24:37Z</time>
      </trkpt>
      <trkpt lat="48.6092" lon="7.27402">
        <ele>727.7</ele>
        <time>2024-03-05T15:24:38Z</time>
      </trkpt>
      <trkpt lat="48.60918" lon="7.27397">
        <ele>727.8</ele>
        <time>2024-03-05T15:24:39Z</time>
      </trkpt>
      <trkpt lat="48.60917" lon="7.27396">
        <ele>727.8</ele>
        <time>2024-03-05T15:24:40Z</time>
      </trkpt>
      <trkpt lat="48.60914" lon="7.27392">
        <ele>727.9</ele>
        <time>2024-03-05T15:24:41Z</time>
      </trkpt>
      <trkpt lat="48.60913" lon="7.2739">
        <ele>728</ele>
        <time>2024-03-05T15:24:42Z</time>
      </trkpt>
      <trkpt lat="48.60911" lon="7.27386">
        <ele>728.1</ele>
        <time>2024-03-05T15:24:43Z</time>
      </trkpt>
      <trkpt lat="48.6091" lon="7.27385">
        <ele>728.1</ele>
        <time>2024-03-05T15:24:44Z</time>
      </trkpt>
      <trkpt lat="48.60909" lon="7.27379">
        <ele>728.2</ele>
        <time>2024-03-05T15:24:45Z</time>
      </trkpt>
      <trkpt lat="48.60909" lon="7.27377">
        <ele>728.2</ele>
        <time>2024-03-05T15:24:46Z</time>
      </trkpt>
      <trkpt lat="48.60909" lon="7.27373">
        <ele>728.2</ele>
        <time>2024-03-05T15:24:47Z</time>
      </trkpt>
      <trkpt lat="48.60908" lon="7.27369">
        <ele>728.2</ele>
        <time>2024-03-05T15:24:48Z</time>
      </trkpt>
      <trkpt lat="48.60909" lon="7.27364">
        <ele>728.3</ele>
        <time>2024-03-05T15:24:49Z</time>
      </trkpt>
      <trkpt lat="48.60909" lon="7.27359">
        <ele>728.3</ele>
        <time>2024-03-05T15:24:50Z</time>
      </trkpt>
      <trkpt lat="48.60908" lon="7.27357">
        <ele>728.3</ele>
        <time>2024-03-05T15:24:51Z</time>
      </trkpt>
      <trkpt lat="48.60907" lon="7.27351">
        <ele>728.3</ele>
        <time>2024-03-05T15:24:52Z</time>
      </trkpt>
      <trkpt lat="48.60907" lon="7.27349">
        <ele>728.3</ele>
        <time>2024-03-05T15:24:53Z</time>
      </trkpt>
      <trkpt lat="48.60907" lon="7.27345">
        <ele>728.3</ele>
        <time>2024-03-05T15:24:54Z</time>
      </trkpt>
      <trkpt lat="48.60906" lon="7.2734">
        <ele>728.3</ele>
        <time>2024-03-05T15:24:55Z</time>
      </trkpt>
      <trkpt lat="48.60905" lon="7.27339">
        <ele>728.3</ele>
        <time>2024-03-05T15:24:56Z</time>
      </trkpt>
      <trkpt lat="48.60904" lon="7.27334">
        <ele>728.3</ele>
        <time>2024-03-05T15:24:57Z</time>
      </trkpt>
      <trkpt lat="48.60903" lon="7.27329">
        <ele>728.3</ele>
        <time>2024-03-05T15:24:58Z</time>
      </trkpt>
      <trkpt lat="48.60903" lon="7.27324">
        <ele>728.3</ele>
        <time>2024-03-05T15:24:59Z</time>
      </trkpt>
      <trkpt lat="48.60903" lon="7.2732">
        <ele>728.3</ele>
        <time>2024-03-05T15:25:00Z</time>
      </trkpt>
      <trkpt lat="48.60903" lon="7.27319">
        <ele>728.3</ele>
        <time>2024-03-05T15:25:01Z</time>
      </trkpt>
      <trkpt lat="48.60902" lon="7.27314">
        <ele>728.2</ele>
        <time>2024-03-05T15:25:02Z</time>
      </trkpt>
      <trkpt lat="48.60902" lon="7.27312">
        <ele>728.2</ele>
        <time>2024-03-05T15:25:03Z</time>
      </trkpt>
      <trkpt lat="48.60902" lon="7.27307">
        <ele>728.2</ele>
        <time>2024-03-05T15:25:04Z</time>
      </trkpt>
      <trkpt lat="48.60902" lon="7.27305">
        <ele>728.2</ele>
        <time>2024-03-05T15:25:05Z</time>
      </trkpt>
      <trkpt lat="48.60902" lon="7.273">
        <ele>728.1</ele>
        <time>2024-03-05T15:25:06Z</time>
      </trkpt>
      <trkpt lat="48.60901" lon="7.27293">
        <ele>728</ele>
        <time>2024-03-05T15:25:07Z</time>
      </trkpt>
      <trkpt lat="48.609" lon="7.27289">
        <ele>728</ele>
        <time>2024-03-05T15:25:08Z</time>
      </trkpt>
      <trkpt lat="48.609" lon="7.27284">
        <ele>728</ele>
        <time>2024-03-05T15:25:09Z</time>
      </trkpt>
      <trkpt lat="48.609" lon="7.27278">
        <ele>727.9</ele>
        <time>2024-03-05T15:25:10Z</time>
      </trkpt>
      <trkpt lat="48.60899" lon="7.27275">
        <ele>727.9</ele>
        <time>2024-03-05T15:25:11Z</time>
      </trkpt>
      <trkpt lat="48.609" lon="7.27271">
        <ele>727.9</ele>
        <time>2024-03-05T15:25:12Z</time>
      </trkpt>
      <trkpt lat="48.609" lon="7.27266">
        <ele>727.9</ele>
        <time>2024-03-05T15:25:13Z</time>
      </trkpt>
      <trkpt lat="48.609" lon="7.2726">
        <ele>727.9</ele>
        <time>2024-03-05T15:25:14Z</time>
      </trkpt>
      <trkpt lat="48.609" lon="7.27258">
        <ele>727.9</ele>
        <time>2024-03-05T15:25:15Z</time>
      </trkpt>
      <trkpt lat="48.60899" lon="7.27253">
        <ele>727.9</ele>
        <time>2024-03-05T15:25:16Z</time>
      </trkpt>
      <trkpt lat="48.60899" lon="7.27249">
        <ele>727.9</ele>
        <time>2024-03-05T15:25:17Z</time>
      </trkpt>
      <trkpt lat="48.60899" lon="7.27244">
        <ele>727.9</ele>
        <time>2024-03-05T15:25:18Z</time>
      </trkpt>
      <trkpt lat="48.60899" lon="7.27238">
        <ele>727.9</ele>
        <time>2024-03-05T15:25:19Z</time>
      </trkpt>
      <trkpt lat="48.60898" lon="7.27236">
        <ele>727.9</ele>
        <time>2024-03-05T15:25:20Z</time>
      </trkpt>
      <trkpt lat="48.60898" lon="7.27231">
        <ele>727.9</ele>
        <time>2024-03-05T15:25:21Z</time>
      </trkpt>
      <trkpt lat="48.60897" lon="7.27227">
        <ele>727.9</ele>
        <time>2024-03-05T15:25:22Z</time>
      </trkpt>
      <trkpt lat="48.60897" lon="7.27223">
        <ele>727.8</ele>
        <time>2024-03-05T15:25:23Z</time>
      </trkpt>
      <trkpt lat="48.60896" lon="7.27219">
        <ele>727.8</ele>
        <time>2024-03-05T15:25:24Z</time>
      </trkpt>
      <trkpt lat="48.60896" lon="7.27214">
        <ele>727.7</ele>
        <time>2024-03-05T15:25:25Z</time>
      </trkpt>
      <trkpt lat="48.60895" lon="7.27209">
        <ele>727.5</ele>
        <time>2024-03-05T15:25:26Z</time>
      </trkpt>
      <trkpt lat="48.60894" lon="7.27204">
        <ele>727.4</ele>
        <time>2024-03-05T15:25:27Z</time>
      </trkpt>
      <trkpt lat="48.60892" lon="7.272">
        <ele>727.3</ele>
        <time>2024-03-05T15:25:28Z</time>
      </trkpt>
      <trkpt lat="48.60892" lon="7.27196">
        <ele>727.2</ele>
        <time>2024-03-05T15:25:29Z</time>
      </trkpt>
      <trkpt lat="48.6089" lon="7.27191">
        <ele>727.1</ele>
        <time>2024-03-05T15:25:30Z</time>
      </trkpt>
      <trkpt lat="48.6089" lon="7.27189">
        <ele>727</ele>
        <time>2024-03-05T15:25:31Z</time>
      </trkpt>
      <trkpt lat="48.60888" lon="7.27184">
        <ele>726.9</ele>
        <time>2024-03-05T15:25:32Z</time>
      </trkpt>
      <trkpt lat="48.60887" lon="7.27182">
        <ele>726.8</ele>
        <time>2024-03-05T15:25:33Z</time>
      </trkpt>
      <trkpt lat="48.60885" lon="7.27177">
        <ele>726.7</ele>
        <time>2024-03-05T15:25:34Z</time>
      </trkpt>
      <trkpt lat="48.60883" lon="7.27176">
        <ele>726.6</ele>
        <time>2024-03-05T15:25:35Z</time>
      </trkpt>
      <trkpt lat="48.6088" lon="7.27172">
        <ele>726.4</ele>
        <time>2024-03-05T15:25:36Z</time>
      </trkpt>
      <trkpt lat="48.60878" lon="7.27171">
        <ele>726.3</ele>
        <time>2024-03-05T15:25:37Z</time>
      </trkpt>
      <trkpt lat="48.60876" lon="7.27169">
        <ele>726.2</ele>
        <time>2024-03-05T15:25:38Z</time>
      </trkpt>
      <trkpt lat="48.60872" lon="7.27165">
        <ele>726</ele>
        <time>2024-03-05T15:25:39Z</time>
      </trkpt>
      <trkpt lat="48.60871" lon="7.27164">
        <ele>725.9</ele>
        <time>2024-03-05T15:25:40Z</time>
      </trkpt>
      <trkpt lat="48.60869" lon="7.27161">
        <ele>725.8</ele>
        <time>2024-03-05T15:25:41Z</time>
      </trkpt>
      <trkpt lat="48.60865" lon="7.27158">
        <ele>725.7</ele>
        <time>2024-03-05T15:25:42Z</time>
      </trkpt>
      <trkpt lat="48.60864" lon="7.27157">
        <ele>725.7</ele>
        <time>2024-03-05T15:25:43Z</time>
      </trkpt>
      <trkpt lat="48.60861" lon="7.27154">
        <ele>725.5</ele>
        <time>2024-03-05T15:25:44Z</time>
      </trkpt>
      <trkpt lat="48.60859" lon="7.27153">
        <ele>725.4</ele>
        <time>2024-03-05T15:25:45Z</time>
      </trkpt>
      <trkpt lat="48.60856" lon="7.27152">
        <ele>725.3</ele>
        <time>2024-03-05T15:25:46Z</time>
      </trkpt>
      <trkpt lat="48.60854" lon="7.27153">
        <ele>725.2</ele>
        <time>2024-03-05T15:25:47Z</time>
      </trkpt>
      <trkpt lat="48.6085" lon="7.27153">
        <ele>725</ele>
        <time>2024-03-05T15:25:48Z</time>
      </trkpt>
      <trkpt lat="48.60848" lon="7.27153">
        <ele>724.9</ele>
        <time>2024-03-05T15:25:49Z</time>
      </trkpt>
      <trkpt lat="48.60844" lon="7.27154">
        <ele>724.7</ele>
        <time>2024-03-05T15:25:50Z</time>
      </trkpt>
      <trkpt lat="48.60842" lon="7.27155">
        <ele>724.6</ele>
        <time>2024-03-05T15:25:51Z</time>
      </trkpt>
      <trkpt lat="48.60839" lon="7.27157">
        <ele>724.4</ele>
        <time>2024-03-05T15:25:52Z</time>
      </trkpt>
      <trkpt lat="48.60836" lon="7.27158">
        <ele>724.3</ele>
        <time>2024-03-05T15:25:53Z</time>
      </trkpt>
      <trkpt lat="48.60833" lon="7.27159">
        <ele>724.1</ele>
        <time>2024-03-05T15:25:54Z</time>
      </trkpt>
      <trkpt lat="48.60831" lon="7.27159">
        <ele>723.8</ele>
        <time>2024-03-05T15:25:55Z</time>
      </trkpt>
      <trkpt lat="48.60828" lon="7.2716">
        <ele>723.6</ele>
        <time>2024-03-05T15:25:56Z</time>
      </trkpt>
      <trkpt lat="48.60825" lon="7.2716">
        <ele>723.3</ele>
        <time>2024-03-05T15:25:57Z</time>
      </trkpt>
      <trkpt lat="48.60821" lon="7.27161">
        <ele>722.8</ele>
        <time>2024-03-05T15:25:58Z</time>
      </trkpt>
      <trkpt lat="48.6082" lon="7.27161">
        <ele>722.7</ele>
        <time>2024-03-05T15:25:59Z</time>
      </trkpt>
      <trkpt lat="48.60816" lon="7.27163">
        <ele>722.1</ele>
        <time>2024-03-05T15:26:00Z</time>
      </trkpt>
      <trkpt lat="48.60815" lon="7.27164">
        <ele>722</ele>
        <time>2024-03-05T15:26:01Z</time>
      </trkpt>
      <trkpt lat="48.60812" lon="7.27164">
        <ele>721.6</ele>
        <time>2024-03-05T15:26:02Z</time>
      </trkpt>
      <trkpt lat="48.6081" lon="7.27166">
        <ele>721.2</ele>
        <time>2024-03-05T15:26:03Z</time>
      </trkpt>
      <trkpt lat="48.60807" lon="7.27167">
        <ele>720.8</ele>
        <time>2024-03-05T15:26:04Z</time>
      </trkpt>
      <trkpt lat="48.60804" lon="7.27168">
        <ele>720.4</ele>
        <time>2024-03-05T15:26:05Z</time>
      </trkpt>
      <trkpt lat="48.608" lon="7.2717">
        <ele>719.9</ele>
        <time>2024-03-05T15:26:06Z</time>
      </trkpt>
      <trkpt lat="48.60798" lon="7.2717">
        <ele>719.7</ele>
        <time>2024-03-05T15:26:07Z</time>
      </trkpt>
      <trkpt lat="48.60796" lon="7.27171">
        <ele>719.3</ele>
        <time>2024-03-05T15:26:08Z</time>
      </trkpt>
      <trkpt lat="48.60793" lon="7.27172">
        <ele>718.9</ele>
        <time>2024-03-05T15:26:09Z</time>
      </trkpt>
      <trkpt lat="48.60789" lon="7.27175">
        <ele>718.4</ele>
        <time>2024-03-05T15:26:10Z</time>
      </trkpt>
      <trkpt lat="48.60788" lon="7.27177">
        <ele>718.2</ele>
        <time>2024-03-05T15:26:11Z</time>
      </trkpt>
      <trkpt lat="48.60785" lon="7.27179">
        <ele>717.8</ele>
        <time>2024-03-05T15:26:12Z</time>
      </trkpt>
      <trkpt lat="48.60783" lon="7.27181">
        <ele>717.5</ele>
        <time>2024-03-05T15:26:13Z</time>
      </trkpt>
      <trkpt lat="48.60779" lon="7.27184">
        <ele>716.9</ele>
        <time>2024-03-05T15:26:14Z</time>
      </trkpt>
      <trkpt lat="48.60777" lon="7.27185">
        <ele>716.7</ele>
        <time>2024-03-05T15:26:15Z</time>
      </trkpt>
      <trkpt lat="48.60773" lon="7.27188">
        <ele>716.2</ele>
        <time>2024-03-05T15:26:16Z</time>
      </trkpt>
      <trkpt lat="48.60772" lon="7.27189">
        <ele>716</ele>
        <time>2024-03-05T15:26:17Z</time>
      </trkpt>
      <trkpt lat="48.60769" lon="7.2719">
        <ele>715.7</ele>
        <time>2024-03-05T15:26:18Z</time>
      </trkpt>
      <trkpt lat="48.60766" lon="7.27192">
        <ele>715.3</ele>
        <time>2024-03-05T15:26:19Z</time>
      </trkpt>
      <trkpt lat="48.60763" lon="7.27194">
        <ele>714.8</ele>
        <time>2024-03-05T15:26:20Z</time>
      </trkpt>
      <trkpt lat="48.6076" lon="7.27195">
        <ele>714.4</ele>
        <time>2024-03-05T15:26:21Z</time>
      </trkpt>
      <trkpt lat="48.60758" lon="7.27197">
        <ele>714</ele>
        <time>2024-03-05T15:26:22Z</time>
      </trkpt>
      <trkpt lat="48.60755" lon="7.27198">
        <ele>713.6</ele>
        <time>2024-03-05T15:26:23Z</time>
      </trkpt>
      <trkpt lat="48.60752" lon="7.27199">
        <ele>713.2</ele>
        <time>2024-03-05T15:26:24Z</time>
      </trkpt>
      <trkpt lat="48.60749" lon="7.27201">
        <ele>712.8</ele>
        <time>2024-03-05T15:26:25Z</time>
      </trkpt>
      <trkpt lat="48.60746" lon="7.27202">
        <ele>712.3</ele>
        <time>2024-03-05T15:26:26Z</time>
      </trkpt>
      <trkpt lat="48.60743" lon="7.27203">
        <ele>711.9</ele>
        <time>2024-03-05T15:26:27Z</time>
      </trkpt>
      <trkpt lat="48.6074" lon="7.27204">
        <ele>711.5</ele>
        <time>2024-03-05T15:26:28Z</time>
      </trkpt>
      <trkpt lat="48.60737" lon="7.27206">
        <ele>711.2</ele>
        <time>2024-03-05T15:26:29Z</time>
      </trkpt>
      <trkpt lat="48.60734" lon="7.27207">
        <ele>710.8</ele>
        <time>2024-03-05T15:26:30Z</time>
      </trkpt>
      <trkpt lat="48.60732" lon="7.27208">
        <ele>710.4</ele>
        <time>2024-03-05T15:26:31Z</time>
      </trkpt>
      <trkpt lat="48.60729" lon="7.2721">
        <ele>710.1</ele>
        <time>2024-03-05T15:26:32Z</time>
      </trkpt>
      <trkpt lat="48.60725" lon="7.2721">
        <ele>709.6</ele>
        <time>2024-03-05T15:26:33Z</time>
      </trkpt>
      <trkpt lat="48.60724" lon="7.2721">
        <ele>709.4</ele>
        <time>2024-03-05T15:26:34Z</time>
      </trkpt>
      <trkpt lat="48.6072" lon="7.27211">
        <ele>709.1</ele>
        <time>2024-03-05T15:26:35Z</time>
      </trkpt>
      <trkpt lat="48.60717" lon="7.27212">
        <ele>708.7</ele>
        <time>2024-03-05T15:26:36Z</time>
      </trkpt>
      <trkpt lat="48.60713" lon="7.27213">
        <ele>708.2</ele>
        <time>2024-03-05T15:26:37Z</time>
      </trkpt>
      <trkpt lat="48.6071" lon="7.27215">
        <ele>707.9</ele>
        <time>2024-03-05T15:26:38Z</time>
      </trkpt>
      <trkpt lat="48.60707" lon="7.27216">
        <ele>707.5</ele>
        <time>2024-03-05T15:26:39Z</time>
      </trkpt>
      <trkpt lat="48.60704" lon="7.27217">
        <ele>707.2</ele>
        <time>2024-03-05T15:26:40Z</time>
      </trkpt>
      <trkpt lat="48.60701" lon="7.27219">
        <ele>706.8</ele>
        <time>2024-03-05T15:26:41Z</time>
      </trkpt>
      <trkpt lat="48.60698" lon="7.27219">
        <ele>706.4</ele>
        <time>2024-03-05T15:26:42Z</time>
      </trkpt>
      <trkpt lat="48.60694" lon="7.27221">
        <ele>706.1</ele>
        <time>2024-03-05T15:26:43Z</time>
      </trkpt>
      <trkpt lat="48.60691" lon="7.27222">
        <ele>705.7</ele>
        <time>2024-03-05T15:26:44Z</time>
      </trkpt>
      <trkpt lat="48.60688" lon="7.27222">
        <ele>705.4</ele>
        <time>2024-03-05T15:26:45Z</time>
      </trkpt>
      <trkpt lat="48.60685" lon="7.27221">
        <ele>704.9</ele>
        <time>2024-03-05T15:26:46Z</time>
      </trkpt>
      <trkpt lat="48.60682" lon="7.27223">
        <ele>704.6</ele>
        <time>2024-03-05T15:26:47Z</time>
      </trkpt>
      <trkpt lat="48.60679" lon="7.27224">
        <ele>704.2</ele>
        <time>2024-03-05T15:26:48Z</time>
      </trkpt>
      <trkpt lat="48.60675" lon="7.27225">
        <ele>703.7</ele>
        <time>2024-03-05T15:26:49Z</time>
      </trkpt>
      <trkpt lat="48.60672" lon="7.27226">
        <ele>703.3</ele>
        <time>2024-03-05T15:26:50Z</time>
      </trkpt>
      <trkpt lat="48.60669" lon="7.27227">
        <ele>703</ele>
        <time>2024-03-05T15:26:51Z</time>
      </trkpt>
      <trkpt lat="48.60666" lon="7.27227">
        <ele>702.6</ele>
        <time>2024-03-05T15:26:52Z</time>
      </trkpt>
      <trkpt lat="48.60663" lon="7.27228">
        <ele>702.2</ele>
        <time>2024-03-05T15:26:53Z</time>
      </trkpt>
      <trkpt lat="48.6066" lon="7.27229">
        <ele>701.8</ele>
        <time>2024-03-05T15:26:54Z</time>
      </trkpt>
      <trkpt lat="48.60656" lon="7.27229">
        <ele>701.4</ele>
        <time>2024-03-05T15:26:55Z</time>
      </trkpt>
      <trkpt lat="48.60653" lon="7.2723">
        <ele>700.9</ele>
        <time>2024-03-05T15:26:56Z</time>
      </trkpt>
      <trkpt lat="48.6065" lon="7.27231">
        <ele>700.5</ele>
        <time>2024-03-05T15:26:57Z</time>
      </trkpt>
      <trkpt lat="48.60646" lon="7.27232">
        <ele>700</ele>
        <time>2024-03-05T15:26:58Z</time>
      </trkpt>
      <trkpt lat="48.60643" lon="7.27233">
        <ele>699.6</ele>
        <time>2024-03-05T15:26:59Z</time>
      </trkpt>
      <trkpt lat="48.6064" lon="7.27233">
        <ele>699.2</ele>
        <time>2024-03-05T15:27:00Z</time>
      </trkpt>
      <trkpt lat="48.60636" lon="7.27233">
        <ele>698.7</ele>
        <time>2024-03-05T15:27:01Z</time>
      </trkpt>
      <trkpt lat="48.60633" lon="7.27234">
        <ele>698.3</ele>
        <time>2024-03-05T15:27:02Z</time>
      </trkpt>
      <trkpt lat="48.6063" lon="7.27234">
        <ele>697.9</ele>
        <time>2024-03-05T15:27:03Z</time>
      </trkpt>
      <trkpt lat="48.60626" lon="7.27232">
        <ele>697.6</ele>
        <time>2024-03-05T15:27:04Z</time>
      </trkpt>
      <trkpt lat="48.60623" lon="7.27233">
        <ele>697.2</ele>
        <time>2024-03-05T15:27:05Z</time>
      </trkpt>
      <trkpt lat="48.60619" lon="7.27231">
        <ele>696.8</ele>
        <time>2024-03-05T15:27:06Z</time>
      </trkpt>
      <trkpt lat="48.60616" lon="7.2723">
        <ele>696.4</ele>
        <time>2024-03-05T15:27:07Z</time>
      </trkpt>
      <trkpt lat="48.60612" lon="7.27231">
        <ele>696</ele>
        <time>2024-03-05T15:27:08Z</time>
      </trkpt>
      <trkpt lat="48.60609" lon="7.2723">
        <ele>695.7</ele>
        <time>2024-03-05T15:27:09Z</time>
      </trkpt>
      <trkpt lat="48.60606" lon="7.27228">
        <ele>695.3</ele>
        <time>2024-03-05T15:27:10Z</time>
      </trkpt>
      <trkpt lat="48.60603" lon="7.27224">
        <ele>694.8</ele>
        <time>2024-03-05T15:27:11Z</time>
      </trkpt>
      <trkpt lat="48.606" lon="7.27221">
        <ele>694.4</ele>
        <time>2024-03-05T15:27:12Z</time>
      </trkpt>
      <trkpt lat="48.60597" lon="7.2722">
        <ele>694.1</ele>
        <time>2024-03-05T15:27:13Z</time>
      </trkpt>
      <trkpt lat="48.60594" lon="7.27221">
        <ele>694.1</ele>
        <time>2024-03-05T15:27:14Z</time>
      </trkpt>
      <trkpt lat="48.60594" lon="7.2722">
        <ele>694.3</ele>
        <time>2024-03-05T15:27:15Z</time>
      </trkpt>
      <trkpt lat="48.60592" lon="7.27222">
        <ele>694.7</ele>
        <time>2024-03-05T15:27:16Z</time>
      </trkpt>
      <trkpt lat="48.60594" lon="7.27225">
        <ele>695.3</ele>
        <time>2024-03-05T15:27:17Z</time>
      </trkpt>
      <trkpt lat="48.60596" lon="7.27229">
        <ele>696</ele>
        <time>2024-03-05T15:27:18Z</time>
      </trkpt>
      <trkpt lat="48.60596" lon="7.2723">
        <ele>696.1</ele>
        <time>2024-03-05T15:27:19Z</time>
      </trkpt>
      <trkpt lat="48.60596" lon="7.27232">
        <ele>696.4</ele>
        <time>2024-03-05T15:27:20Z</time>
      </trkpt>
      <trkpt lat="48.60595" lon="7.27234">
        <ele>696.7</ele>
        <time>2024-03-05T15:27:21Z</time>
      </trkpt>
      <trkpt lat="48.6059" lon="7.27236">
        <ele>697.8</ele>
        <time>2024-03-05T15:27:23Z</time>
      </trkpt>
      <trkpt lat="48.60588" lon="7.27237">
        <ele>698.1</ele>
        <time>2024-03-05T15:27:24Z</time>
      </trkpt>
      <trkpt lat="48.60587" lon="7.27239">
        <ele>698.4</ele>
        <time>2024-03-05T15:27:25Z</time>
      </trkpt>
      <trkpt lat="48.60585" lon="7.27242">
        <ele>698.9</ele>
        <time>2024-03-05T15:27:26Z</time>
      </trkpt>
      <trkpt lat="48.60584" lon="7.27242">
        <ele>699</ele>
        <time>2024-03-05T15:27:27Z</time>
      </trkpt>
      <trkpt lat="48.60583" lon="7.27244">
        <ele>699.3</ele>
        <time>2024-03-05T15:27:28Z</time>
      </trkpt>
      <trkpt lat="48.60581" lon="7.27245">
        <ele>699.5</ele>
        <time>2024-03-05T15:27:29Z</time>
      </trkpt>
      <trkpt lat="48.6058" lon="7.27247">
        <ele>699.8</ele>
        <time>2024-03-05T15:27:30Z</time>
      </trkpt>
      <trkpt lat="48.6058" lon="7.27248">
        <ele>699.9</ele>
        <time>2024-03-05T15:27:31Z</time>
      </trkpt>
      <trkpt lat="48.60579" lon="7.27249">
        <ele>700</ele>
        <time>2024-03-05T15:27:32Z</time>
      </trkpt>
      <trkpt lat="48.60579" lon="7.2725">
        <ele>700.1</ele>
        <time>2024-03-05T15:27:33Z</time>
      </trkpt>
      <trkpt lat="48.60579" lon="7.27251">
        <ele>700.2</ele>
        <time>2024-03-05T15:27:34Z</time>
      </trkpt>
      <trkpt lat="48.60578" lon="7.27252">
        <ele>700.4</ele>
        <time>2024-03-05T15:27:35Z</time>
      </trkpt>
      <trkpt lat="48.60577" lon="7.27254">
        <ele>700.6</ele>
        <time>2024-03-05T15:27:36Z</time>
      </trkpt>
      <trkpt lat="48.60577" lon="7.27256">
        <ele>700.8</ele>
        <time>2024-03-05T15:27:37Z</time>
      </trkpt>
      <trkpt lat="48.60576" lon="7.27258">
        <ele>701</ele>
        <time>2024-03-05T15:27:38Z</time>
      </trkpt>
      <trkpt lat="48.60577" lon="7.27261">
        <ele>701.4</ele>
        <time>2024-03-05T15:27:39Z</time>
      </trkpt>
      <trkpt lat="48.60577" lon="7.27261">
        <ele>701.4</ele>
        <time>2024-03-05T15:27:40Z</time>
      </trkpt>
      <trkpt lat="48.60578" lon="7.2726">
        <ele>701.7</ele>
        <time>2024-03-05T15:27:41Z</time>
      </trkpt>
      <trkpt lat="48.60579" lon="7.27263">
        <ele>702</ele>
        <time>2024-03-05T15:27:42Z</time>
      </trkpt>
      <trkpt lat="48.60578" lon="7.27265">
        <ele>702.1</ele>
        <time>2024-03-05T15:27:43Z</time>
      </trkpt>
      <trkpt lat="48.60578" lon="7.27266">
        <ele>702.3</ele>
        <time>2024-03-05T15:27:44Z</time>
      </trkpt>
      <trkpt lat="48.60577" lon="7.2727">
        <ele>702.8</ele>
        <time>2024-03-05T15:27:45Z</time>
      </trkpt>
      <trkpt lat="48.60576" lon="7.27271">
        <ele>702.9</ele>
        <time>2024-03-05T15:27:46Z</time>
      </trkpt>
      <trkpt lat="48.60575" lon="7.27273">
        <ele>703.3</ele>
        <time>2024-03-05T15:27:47Z</time>
      </trkpt>
      <trkpt lat="48.60574" lon="7.27271">
        <ele>703.6</ele>
        <time>2024-03-05T15:27:48Z</time>
      </trkpt>
      <trkpt lat="48.60573" lon="7.27271">
        <ele>703.8</ele>
        <time>2024-03-05T15:27:49Z</time>
      </trkpt>
      <trkpt lat="48.60572" lon="7.27272">
        <ele>704</ele>
        <time>2024-03-05T15:27:50Z</time>
      </trkpt>
      <trkpt lat="48.60571" lon="7.27274">
        <ele>704.3</ele>
        <time>2024-03-05T15:27:51Z</time>
      </trkpt>
      <trkpt lat="48.6057" lon="7.27276">
        <ele>704.7</ele>
        <time>2024-03-05T15:27:52Z</time>
      </trkpt>
      <trkpt lat="48.60569" lon="7.27275">
        <ele>704.9</ele>
        <time>2024-03-05T15:27:53Z</time>
      </trkpt>
      <trkpt lat="48.60568" lon="7.27276">
        <ele>705.2</ele>
        <time>2024-03-05T15:27:54Z</time>
      </trkpt>
      <trkpt lat="48.60566" lon="7.27277">
        <ele>705.7</ele>
        <time>2024-03-05T15:27:55Z</time>
      </trkpt>
      <trkpt lat="48.60565" lon="7.27277">
        <ele>705.8</ele>
        <time>2024-03-05T15:27:56Z</time>
      </trkpt>
      <trkpt lat="48.60564" lon="7.2728">
        <ele>706.3</ele>
        <time>2024-03-05T15:27:57Z</time>
      </trkpt>
      <trkpt lat="48.60563" lon="7.27281">
        <ele>706.6</ele>
        <time>2024-03-05T15:27:58Z</time>
      </trkpt>
      <trkpt lat="48.60562" lon="7.27283">
        <ele>707</ele>
        <time>2024-03-05T15:28:00Z</time>
      </trkpt>
      <trkpt lat="48.60561" lon="7.27283">
        <ele>707.2</ele>
        <time>2024-03-05T15:28:01Z</time>
      </trkpt>
      <trkpt lat="48.6056" lon="7.27285">
        <ele>707.5</ele>
        <time>2024-03-05T15:28:02Z</time>
      </trkpt>
      <trkpt lat="48.60558" lon="7.27285">
        <ele>707.9</ele>
        <time>2024-03-05T15:28:03Z</time>
      </trkpt>
      <trkpt lat="48.60556" lon="7.27285">
        <ele>708.4</ele>
        <time>2024-03-05T15:28:04Z</time>
      </trkpt>
      <trkpt lat="48.60555" lon="7.27285">
        <ele>708.7</ele>
        <time>2024-03-05T15:28:05Z</time>
      </trkpt>
      <trkpt lat="48.60553" lon="7.27285">
        <ele>709.2</ele>
        <time>2024-03-05T15:28:06Z</time>
      </trkpt>
      <trkpt lat="48.60552" lon="7.27285">
        <ele>709.4</ele>
        <time>2024-03-05T15:28:07Z</time>
      </trkpt>
      <trkpt lat="48.60551" lon="7.27286">
        <ele>709.6</ele>
        <time>2024-03-05T15:28:08Z</time>
      </trkpt>
      <trkpt lat="48.6055" lon="7.27287">
        <ele>710</ele>
        <time>2024-03-05T15:28:09Z</time>
      </trkpt>
      <trkpt lat="48.60549" lon="7.27288">
        <ele>710.3</ele>
        <time>2024-03-05T15:28:10Z</time>
      </trkpt>
      <trkpt lat="48.60549" lon="7.27291">
        <ele>710.7</ele>
        <time>2024-03-05T15:28:11Z</time>
      </trkpt>
      <trkpt lat="48.60547" lon="7.27292">
        <ele>711</ele>
        <time>2024-03-05T15:28:12Z</time>
      </trkpt>
      <trkpt lat="48.60545" lon="7.27293">
        <ele>711.5</ele>
        <time>2024-03-05T15:28:13Z</time>
      </trkpt>
      <trkpt lat="48.60544" lon="7.27294">
        <ele>711.7</ele>
        <time>2024-03-05T15:28:14Z</time>
      </trkpt>
      <trkpt lat="48.60543" lon="7.27294">
        <ele>712</ele>
        <time>2024-03-05T15:28:15Z</time>
      </trkpt>
      <trkpt lat="48.60542" lon="7.27294">
        <ele>712.3</ele>
        <time>2024-03-05T15:28:16Z</time>
      </trkpt>
      <trkpt lat="48.6054" lon="7.27295">
        <ele>712.7</ele>
        <time>2024-03-05T15:28:17Z</time>
      </trkpt>
      <trkpt lat="48.60539" lon="7.27296">
        <ele>713.1</ele>
        <time>2024-03-05T15:28:18Z</time>
      </trkpt>
      <trkpt lat="48.60538" lon="7.27298">
        <ele>713.5</ele>
        <time>2024-03-05T15:28:19Z</time>
      </trkpt>
      <trkpt lat="48.60536" lon="7.27297">
        <ele>713.8</ele>
        <time>2024-03-05T15:28:20Z</time>
      </trkpt>
      <trkpt lat="48.60535" lon="7.27297">
        <ele>714.1</ele>
        <time>2024-03-05T15:28:21Z</time>
      </trkpt>
      <trkpt lat="48.60534" lon="7.27298">
        <ele>714.4</ele>
        <time>2024-03-05T15:28:22Z</time>
      </trkpt>
      <trkpt lat="48.60533" lon="7.27299">
        <ele>714.6</ele>
        <time>2024-03-05T15:28:23Z</time>
      </trkpt>
      <trkpt lat="48.60532" lon="7.273">
        <ele>715</ele>
        <time>2024-03-05T15:28:24Z</time>
      </trkpt>
      <trkpt lat="48.60532" lon="7.27301">
        <ele>715.1</ele>
        <time>2024-03-05T15:28:25Z</time>
      </trkpt>
      <trkpt lat="48.60531" lon="7.27302">
        <ele>715.4</ele>
        <time>2024-03-05T15:28:26Z</time>
      </trkpt>
      <trkpt lat="48.60531" lon="7.27303">
        <ele>715.6</ele>
        <time>2024-03-05T15:28:27Z</time>
      </trkpt>
      <trkpt lat="48.6053" lon="7.27303">
        <ele>715.8</ele>
        <time>2024-03-05T15:28:28Z</time>
      </trkpt>
      <trkpt lat="48.60529" lon="7.27304">
        <ele>716.1</ele>
        <time>2024-03-05T15:28:29Z</time>
      </trkpt>
      <trkpt lat="48.60527" lon="7.27306">
        <ele>716.6</ele>
        <time>2024-03-05T15:28:30Z</time>
      </trkpt>
      <trkpt lat="48.60523" lon="7.27308">
        <ele>717.6</ele>
        <time>2024-03-05T15:28:31Z</time>
      </trkpt>
      <trkpt lat="48.60522" lon="7.27308">
        <ele>718</ele>
        <time>2024-03-05T15:28:32Z</time>
      </trkpt>
      <trkpt lat="48.6052" lon="7.27314">
        <ele>719</ele>
        <time>2024-03-05T15:28:34Z</time>
      </trkpt>
      <trkpt lat="48.6052" lon="7.27317">
        <ele>719.5</ele>
        <time>2024-03-05T15:28:35Z</time>
      </trkpt>
      <trkpt lat="48.60519" lon="7.27317">
        <ele>719.7</ele>
        <time>2024-03-05T15:28:36Z</time>
      </trkpt>
      <trkpt lat="48.60518" lon="7.27317">
        <ele>719.9</ele>
        <time>2024-03-05T15:28:37Z</time>
      </trkpt>
      <trkpt lat="48.60517" lon="7.27319">
        <ele>720.3</ele>
        <time>2024-03-05T15:28:38Z</time>
      </trkpt>
      <trkpt lat="48.60517" lon="7.27322">
        <ele>721</ele>
        <time>2024-03-05T15:28:40Z</time>
      </trkpt>
      <trkpt lat="48.60516" lon="7.27323">
        <ele>721.3</ele>
        <time>2024-03-05T15:28:41Z</time>
      </trkpt>
      <trkpt lat="48.60516" lon="7.27324">
        <ele>721.5</ele>
        <time>2024-03-05T15:28:42Z</time>
      </trkpt>
      <trkpt lat="48.60516" lon="7.27325">
        <ele>721.7</ele>
        <time>2024-03-05T15:28:43Z</time>
      </trkpt>
      <trkpt lat="48.60514" lon="7.27324">
        <ele>722.1</ele>
        <time>2024-03-05T15:28:44Z</time>
      </trkpt>
      <trkpt lat="48.60514" lon="7.27324">
        <ele>722.3</ele>
        <time>2024-03-05T15:28:46Z</time>
      </trkpt>
      <trkpt lat="48.60513" lon="7.27325">
        <ele>722.7</ele>
        <time>2024-03-05T15:28:47Z</time>
      </trkpt>
      <trkpt lat="48.60512" lon="7.27325">
        <ele>722.9</ele>
        <time>2024-03-05T15:28:48Z</time>
      </trkpt>
      <trkpt lat="48.60511" lon="7.27326">
        <ele>723.1</ele>
        <time>2024-03-05T15:28:49Z</time>
      </trkpt>
      <trkpt lat="48.6051" lon="7.27327">
        <ele>723.5</ele>
        <time>2024-03-05T15:28:51Z</time>
      </trkpt>
      <trkpt lat="48.6051" lon="7.27327">
        <ele>723.6</ele>
        <time>2024-03-05T15:28:52Z</time>
      </trkpt>
      <trkpt lat="48.6051" lon="7.27328">
        <ele>723.7</ele>
        <time>2024-03-05T15:28:53Z</time>
      </trkpt>
      <trkpt lat="48.60509" lon="7.27329">
        <ele>724</ele>
        <time>2024-03-05T15:28:54Z</time>
      </trkpt>
      <trkpt lat="48.60509" lon="7.2733">
        <ele>724.2</ele>
        <time>2024-03-05T15:28:55Z</time>
      </trkpt>
      <trkpt lat="48.60508" lon="7.27331">
        <ele>724.3</ele>
        <time>2024-03-05T15:28:56Z</time>
      </trkpt>
      <trkpt lat="48.60508" lon="7.27333">
        <ele>724.8</ele>
        <time>2024-03-05T15:28:57Z</time>
      </trkpt>
      <trkpt lat="48.60504" lon="7.2734">
        <ele>726.5</ele>
        <time>2024-03-05T15:28:58Z</time>
      </trkpt>
      <trkpt lat="48.60501" lon="7.27344">
        <ele>727.6</ele>
        <time>2024-03-05T15:28:59Z</time>
      </trkpt>
      <trkpt lat="48.60498" lon="7.27347">
        <ele>728.6</ele>
        <time>2024-03-05T15:29:00Z</time>
      </trkpt>
      <trkpt lat="48.60495" lon="7.2735">
        <ele>729.5</ele>
        <time>2024-03-05T15:29:02Z</time>
      </trkpt>
      <trkpt lat="48.60494" lon="7.27351">
        <ele>729.8</ele>
        <time>2024-03-05T15:29:03Z</time>
      </trkpt>
      <trkpt lat="48.60493" lon="7.27353">
        <ele>730.3</ele>
        <time>2024-03-05T15:29:04Z</time>
      </trkpt>
      <trkpt lat="48.60492" lon="7.27355">
        <ele>730.7</ele>
        <time>2024-03-05T15:29:05Z</time>
      </trkpt>
      <trkpt lat="48.60492" lon="7.27357">
        <ele>731.1</ele>
        <time>2024-03-05T15:29:06Z</time>
      </trkpt>
      <trkpt lat="48.60493" lon="7.27358">
        <ele>731.4</ele>
        <time>2024-03-05T15:29:07Z</time>
      </trkpt>
      <trkpt lat="48.60492" lon="7.2736">
        <ele>731.7</ele>
        <time>2024-03-05T15:29:09Z</time>
      </trkpt>
      <trkpt lat="48.60492" lon="7.2736">
        <ele>731.8</ele>
        <time>2024-03-05T15:29:10Z</time>
      </trkpt>
      <trkpt lat="48.60491" lon="7.2736">
        <ele>731.9</ele>
        <time>2024-03-05T15:29:11Z</time>
      </trkpt>
      <trkpt lat="48.60491" lon="7.2736">
        <ele>732.1</ele>
        <time>2024-03-05T15:29:12Z</time>
      </trkpt>
      <trkpt lat="48.6049" lon="7.27361">
        <ele>732.4</ele>
        <time>2024-03-05T15:29:13Z</time>
      </trkpt>
      <trkpt lat="48.6049" lon="7.27363">
        <ele>732.7</ele>
        <time>2024-03-05T15:29:14Z</time>
      </trkpt>
      <trkpt lat="48.60489" lon="7.27366">
        <ele>733.4</ele>
        <time>2024-03-05T15:29:15Z</time>
      </trkpt>
      <trkpt lat="48.60488" lon="7.27368">
        <ele>733.7</ele>
        <time>2024-03-05T15:29:16Z</time>
      </trkpt>
      <trkpt lat="48.60488" lon="7.27373">
        <ele>734.7</ele>
        <time>2024-03-05T15:29:17Z</time>
      </trkpt>
      <trkpt lat="48.60488" lon="7.27375">
        <ele>735</ele>
        <time>2024-03-05T15:29:18Z</time>
      </trkpt>
      <trkpt lat="48.60488" lon="7.27378">
        <ele>735.6</ele>
        <time>2024-03-05T15:29:19Z</time>
      </trkpt>
      <trkpt lat="48.60489" lon="7.2738">
        <ele>736.1</ele>
        <time>2024-03-05T15:29:21Z</time>
      </trkpt>
      <trkpt lat="48.60489" lon="7.27383">
        <ele>736.6</ele>
        <time>2024-03-05T15:29:22Z</time>
      </trkpt>
      <trkpt lat="48.60489" lon="7.27385">
        <ele>737</ele>
        <time>2024-03-05T15:29:23Z</time>
      </trkpt>
      <trkpt lat="48.60488" lon="7.27389">
        <ele>737.8</ele>
        <time>2024-03-05T15:29:24Z</time>
      </trkpt>
      <trkpt lat="48.60488" lon="7.27391">
        <ele>738.1</ele>
        <time>2024-03-05T15:29:25Z</time>
      </trkpt>
      <trkpt lat="48.60488" lon="7.27393">
        <ele>738.5</ele>
        <time>2024-03-05T15:29:26Z</time>
      </trkpt>
      <trkpt lat="48.60488" lon="7.27395">
        <ele>738.9</ele>
        <time>2024-03-05T15:29:28Z</time>
      </trkpt>
      <trkpt lat="48.60489" lon="7.27395">
        <ele>739.2</ele>
        <time>2024-03-05T15:29:29Z</time>
      </trkpt>
      <trkpt lat="48.60491" lon="7.27397">
        <ele>739.8</ele>
        <time>2024-03-05T15:29:30Z</time>
      </trkpt>
      <trkpt lat="48.60492" lon="7.27399">
        <ele>740.1</ele>
        <time>2024-03-05T15:29:31Z</time>
      </trkpt>
      <trkpt lat="48.60492" lon="7.274">
        <ele>740.3</ele>
        <time>2024-03-05T15:29:32Z</time>
      </trkpt>
      <trkpt lat="48.60492" lon="7.27401">
        <ele>740.5</ele>
        <time>2024-03-05T15:29:33Z</time>
      </trkpt>
      <trkpt lat="48.60493" lon="7.27403">
        <ele>740.9</ele>
        <time>2024-03-05T15:29:34Z</time>
      </trkpt>
      <trkpt lat="48.60493" lon="7.27404">
        <ele>741</ele>
        <time>2024-03-05T15:29:35Z</time>
      </trkpt>
      <trkpt lat="48.60493" lon="7.27407">
        <ele>741.4</ele>
        <time>2024-03-05T15:29:37Z</time>
      </trkpt>
      <trkpt lat="48.60492" lon="7.27408">
        <ele>741.7</ele>
        <time>2024-03-05T15:29:38Z</time>
      </trkpt>
      <trkpt lat="48.60492" lon="7.27412">
        <ele>742.1</ele>
        <time>2024-03-05T15:29:39Z</time>
      </trkpt>
      <trkpt lat="48.60492" lon="7.27413">
        <ele>742.3</ele>
        <time>2024-03-05T15:29:40Z</time>
      </trkpt>
      <trkpt lat="48.60491" lon="7.27414">
        <ele>742.4</ele>
        <time>2024-03-05T15:29:41Z</time>
      </trkpt>
      <trkpt lat="48.60489" lon="7.27413">
        <ele>743</ele>
        <time>2024-03-05T15:29:42Z</time>
      </trkpt>
      <trkpt lat="48.60485" lon="7.27414">
        <ele>743.5</ele>
        <time>2024-03-05T15:29:43Z</time>
      </trkpt>
      <trkpt lat="48.60485" lon="7.27415">
        <ele>743.6</ele>
        <time>2024-03-05T15:29:44Z</time>
      </trkpt>
      <trkpt lat="48.60484" lon="7.27417">
        <ele>743.8</ele>
        <time>2024-03-05T15:29:45Z</time>
      </trkpt>
      <trkpt lat="48.60484" lon="7.2742">
        <ele>744.1</ele>
        <time>2024-03-05T15:29:46Z</time>
      </trkpt>
      <trkpt lat="48.60483" lon="7.27422">
        <ele>744.3</ele>
        <time>2024-03-05T15:29:47Z</time>
      </trkpt>
      <trkpt lat="48.60482" lon="7.27424">
        <ele>744.5</ele>
        <time>2024-03-05T15:29:48Z</time>
      </trkpt>
      <trkpt lat="48.60481" lon="7.27425">
        <ele>744.8</ele>
        <time>2024-03-05T15:29:49Z</time>
      </trkpt>
      <trkpt lat="48.60478" lon="7.27429">
        <ele>745.2</ele>
        <time>2024-03-05T15:29:51Z</time>
      </trkpt>
      <trkpt lat="48.60478" lon="7.2743">
        <ele>745.4</ele>
        <time>2024-03-05T15:29:52Z</time>
      </trkpt>
      <trkpt lat="48.60477" lon="7.27431">
        <ele>745.5</ele>
        <time>2024-03-05T15:29:53Z</time>
      </trkpt>
      <trkpt lat="48.60476" lon="7.27433">
        <ele>745.7</ele>
        <time>2024-03-05T15:29:54Z</time>
      </trkpt>
      <trkpt lat="48.60476" lon="7.27435">
        <ele>745.9</ele>
        <time>2024-03-05T15:29:55Z</time>
      </trkpt>
      <trkpt lat="48.60475" lon="7.27436">
        <ele>746</ele>
        <time>2024-03-05T15:29:56Z</time>
      </trkpt>
      <trkpt lat="48.60475" lon="7.27437">
        <ele>746.1</ele>
        <time>2024-03-05T15:29:57Z</time>
      </trkpt>
      <trkpt lat="48.60474" lon="7.27438">
        <ele>746.2</ele>
        <time>2024-03-05T15:29:58Z</time>
      </trkpt>
      <trkpt lat="48.60472" lon="7.27441">
        <ele>746.6</ele>
        <time>2024-03-05T15:29:59Z</time>
      </trkpt>
      <trkpt lat="48.60472" lon="7.27443">
        <ele>746.7</ele>
        <time>2024-03-05T15:30:00Z</time>
      </trkpt>
      <trkpt lat="48.6047" lon="7.27447">
        <ele>747.1</ele>
        <time>2024-03-05T15:30:02Z</time>
      </trkpt>
      <trkpt lat="48.60469" lon="7.27447">
        <ele>747.3</ele>
        <time>2024-03-05T15:30:03Z</time>
      </trkpt>
      <trkpt lat="48.60468" lon="7.27451">
        <ele>747.6</ele>
        <time>2024-03-05T15:30:04Z</time>
      </trkpt>
      <trkpt lat="48.60467" lon="7.27452">
        <ele>747.8</ele>
        <time>2024-03-05T15:30:05Z</time>
      </trkpt>
      <trkpt lat="48.60465" lon="7.27456">
        <ele>748.2</ele>
        <time>2024-03-05T15:30:06Z</time>
      </trkpt>
      <trkpt lat="48.60465" lon="7.27458">
        <ele>748.4</ele>
        <time>2024-03-05T15:30:07Z</time>
      </trkpt>
      <trkpt lat="48.60461" lon="7.27463">
        <ele>749.1</ele>
        <time>2024-03-05T15:30:09Z</time>
      </trkpt>
      <trkpt lat="48.6046" lon="7.27464">
        <ele>749.3</ele>
        <time>2024-03-05T15:30:10Z</time>
      </trkpt>
      <trkpt lat="48.60459" lon="7.27466">
        <ele>749.5</ele>
        <time>2024-03-05T15:30:11Z</time>
      </trkpt>
      <trkpt lat="48.60459" lon="7.27467">
        <ele>749.7</ele>
        <time>2024-03-05T15:30:12Z</time>
      </trkpt>
      <trkpt lat="48.60458" lon="7.27468">
        <ele>749.8</ele>
        <time>2024-03-05T15:30:13Z</time>
      </trkpt>
      <trkpt lat="48.60458" lon="7.27468">
        <ele>749.8</ele>
        <time>2024-03-05T15:30:14Z</time>
      </trkpt>
      <trkpt lat="48.60458" lon="7.2747">
        <ele>750</ele>
        <time>2024-03-05T15:30:15Z</time>
      </trkpt>
      <trkpt lat="48.60456" lon="7.27475">
        <ele>750.5</ele>
        <time>2024-03-05T15:30:16Z</time>
      </trkpt>
      <trkpt lat="48.60455" lon="7.27477">
        <ele>750.8</ele>
        <time>2024-03-05T15:30:17Z</time>
      </trkpt>
      <trkpt lat="48.60454" lon="7.27482">
        <ele>751.2</ele>
        <time>2024-03-05T15:30:18Z</time>
      </trkpt>
      <trkpt lat="48.60454" lon="7.27483">
        <ele>751.3</ele>
        <time>2024-03-05T15:30:19Z</time>
      </trkpt>
      <trkpt lat="48.60453" lon="7.27484">
        <ele>751.5</ele>
        <time>2024-03-05T15:30:20Z</time>
      </trkpt>
      <trkpt lat="48.60452" lon="7.27486">
        <ele>751.7</ele>
        <time>2024-03-05T15:30:21Z</time>
      </trkpt>
      <trkpt lat="48.60451" lon="7.27488">
        <ele>751.9</ele>
        <time>2024-03-05T15:30:22Z</time>
      </trkpt>
      <trkpt lat="48.6045" lon="7.2749">
        <ele>752.1</ele>
        <time>2024-03-05T15:30:23Z</time>
      </trkpt>
      <trkpt lat="48.60449" lon="7.27491">
        <ele>752.2</ele>
        <time>2024-03-05T15:30:24Z</time>
      </trkpt>
      <trkpt lat="48.60448" lon="7.27493">
        <ele>752.4</ele>
        <time>2024-03-05T15:30:25Z</time>
      </trkpt>
      <trkpt lat="48.60446" lon="7.27496">
        <ele>752.8</ele>
        <time>2024-03-05T15:30:26Z</time>
      </trkpt>
      <trkpt lat="48.60446" lon="7.27497">
        <ele>752.9</ele>
        <time>2024-03-05T15:30:27Z</time>
      </trkpt>
      <trkpt lat="48.60444" lon="7.275">
        <ele>753.2</ele>
        <time>2024-03-05T15:30:28Z</time>
      </trkpt>
      <trkpt lat="48.60443" lon="7.27501">
        <ele>753.3</ele>
        <time>2024-03-05T15:30:29Z</time>
      </trkpt>
      <trkpt lat="48.60442" lon="7.27504">
        <ele>753.6</ele>
        <time>2024-03-05T15:30:30Z</time>
      </trkpt>
      <trkpt lat="48.60441" lon="7.27505">
        <ele>753.8</ele>
        <time>2024-03-05T15:30:31Z</time>
      </trkpt>
      <trkpt lat="48.6044" lon="7.27507">
        <ele>754</ele>
        <time>2024-03-05T15:30:32Z</time>
      </trkpt>
      <trkpt lat="48.60438" lon="7.27511">
        <ele>754.3</ele>
        <time>2024-03-05T15:30:33Z</time>
      </trkpt>
      <trkpt lat="48.60436" lon="7.27512">
        <ele>754.5</ele>
        <time>2024-03-05T15:30:34Z</time>
      </trkpt>
      <trkpt lat="48.60435" lon="7.27513">
        <ele>754.6</ele>
        <time>2024-03-05T15:30:35Z</time>
      </trkpt>
      <trkpt lat="48.60433" lon="7.27517">
        <ele>755</ele>
        <time>2024-03-05T15:30:36Z</time>
      </trkpt>
      <trkpt lat="48.60432" lon="7.27519">
        <ele>755.1</ele>
        <time>2024-03-05T15:30:37Z</time>
      </trkpt>
      <trkpt lat="48.6043" lon="7.27523">
        <ele>755.4</ele>
        <time>2024-03-05T15:30:38Z</time>
      </trkpt>
      <trkpt lat="48.60429" lon="7.27526">
        <ele>755.7</ele>
        <time>2024-03-05T15:30:39Z</time>
      </trkpt>
      <trkpt lat="48.60427" lon="7.2753">
        <ele>756.1</ele>
        <time>2024-03-05T15:30:40Z</time>
      </trkpt>
      <trkpt lat="48.60427" lon="7.27532">
        <ele>756.2</ele>
        <time>2024-03-05T15:30:41Z</time>
      </trkpt>
      <trkpt lat="48.60426" lon="7.27535">
        <ele>756.4</ele>
        <time>2024-03-05T15:30:42Z</time>
      </trkpt>
      <trkpt lat="48.60426" lon="7.27537">
        <ele>756.5</ele>
        <time>2024-03-05T15:30:43Z</time>
      </trkpt>
      <trkpt lat="48.60425" lon="7.2754">
        <ele>756.8</ele>
        <time>2024-03-05T15:30:44Z</time>
      </trkpt>
      <trkpt lat="48.60424" lon="7.27541">
        <ele>756.9</ele>
        <time>2024-03-05T15:30:45Z</time>
      </trkpt>
      <trkpt lat="48.60424" lon="7.27542">
        <ele>757</ele>
        <time>2024-03-05T15:30:46Z</time>
      </trkpt>
      <trkpt lat="48.60421" lon="7.27545">
        <ele>757.5</ele>
        <time>2024-03-05T15:30:47Z</time>
      </trkpt>
      <trkpt lat="48.6042" lon="7.2755">
        <ele>757.9</ele>
        <time>2024-03-05T15:30:48Z</time>
      </trkpt>
      <trkpt lat="48.60419" lon="7.27553">
        <ele>758.2</ele>
        <time>2024-03-05T15:30:49Z</time>
      </trkpt>
      <trkpt lat="48.60418" lon="7.27558">
        <ele>758.6</ele>
        <time>2024-03-05T15:30:51Z</time>
      </trkpt>
      <trkpt lat="48.60416" lon="7.27561">
        <ele>759</ele>
        <time>2024-03-05T15:30:52Z</time>
      </trkpt>
      <trkpt lat="48.60416" lon="7.27562">
        <ele>759.1</ele>
        <time>2024-03-05T15:30:53Z</time>
      </trkpt>
      <trkpt lat="48.60413" lon="7.27565">
        <ele>759.5</ele>
        <time>2024-03-05T15:30:54Z</time>
      </trkpt>
      <trkpt lat="48.60412" lon="7.27566">
        <ele>759.7</ele>
        <time>2024-03-05T15:30:55Z</time>
      </trkpt>
      <trkpt lat="48.60412" lon="7.27568">
        <ele>759.8</ele>
        <time>2024-03-05T15:30:56Z</time>
      </trkpt>
      <trkpt lat="48.6041" lon="7.27569">
        <ele>760</ele>
        <time>2024-03-05T15:30:57Z</time>
      </trkpt>
      <trkpt lat="48.6041" lon="7.27569">
        <ele>760.1</ele>
        <time>2024-03-05T15:30:58Z</time>
      </trkpt>
      <trkpt lat="48.60408" lon="7.27573">
        <ele>760.5</ele>
        <time>2024-03-05T15:30:59Z</time>
      </trkpt>
      <trkpt lat="48.60408" lon="7.27575">
        <ele>760.7</ele>
        <time>2024-03-05T15:31:00Z</time>
      </trkpt>
      <trkpt lat="48.60407" lon="7.2758">
        <ele>761.1</ele>
        <time>2024-03-05T15:31:01Z</time>
      </trkpt>
      <trkpt lat="48.60405" lon="7.27585">
        <ele>761.6</ele>
        <time>2024-03-05T15:31:02Z</time>
      </trkpt>
      <trkpt lat="48.60405" lon="7.27587">
        <ele>761.8</ele>
        <time>2024-03-05T15:31:03Z</time>
      </trkpt>
      <trkpt lat="48.60403" lon="7.27591">
        <ele>762.2</ele>
        <time>2024-03-05T15:31:04Z</time>
      </trkpt>
      <trkpt lat="48.60402" lon="7.27593">
        <ele>762.3</ele>
        <time>2024-03-05T15:31:05Z</time>
      </trkpt>
      <trkpt lat="48.60401" lon="7.27597">
        <ele>762.8</ele>
        <time>2024-03-05T15:31:06Z</time>
      </trkpt>
      <trkpt lat="48.604" lon="7.27599">
        <ele>762.9</ele>
        <time>2024-03-05T15:31:07Z</time>
      </trkpt>
      <trkpt lat="48.604" lon="7.276">
        <ele>763</ele>
        <time>2024-03-05T15:31:08Z</time>
      </trkpt>
      <trkpt lat="48.60399" lon="7.27601">
        <ele>763.1</ele>
        <time>2024-03-05T15:31:09Z</time>
      </trkpt>
      <trkpt lat="48.60398" lon="7.27602">
        <ele>763.2</ele>
        <time>2024-03-05T15:31:10Z</time>
      </trkpt>
      <trkpt lat="48.60396" lon="7.27605">
        <ele>763.5</ele>
        <time>2024-03-05T15:31:11Z</time>
      </trkpt>
      <trkpt lat="48.60395" lon="7.2761">
        <ele>763.9</ele>
        <time>2024-03-05T15:31:12Z</time>
      </trkpt>
      <trkpt lat="48.60395" lon="7.27611">
        <ele>764</ele>
        <time>2024-03-05T15:31:13Z</time>
      </trkpt>
      <trkpt lat="48.60394" lon="7.27616">
        <ele>764.4</ele>
        <time>2024-03-05T15:31:14Z</time>
      </trkpt>
      <trkpt lat="48.60394" lon="7.27618">
        <ele>764.5</ele>
        <time>2024-03-05T15:31:15Z</time>
      </trkpt>
      <trkpt lat="48.60394" lon="7.27619">
        <ele>764.6</ele>
        <time>2024-03-05T15:31:16Z</time>
      </trkpt>
      <trkpt lat="48.60393" lon="7.27622">
        <ele>764.9</ele>
        <time>2024-03-05T15:31:17Z</time>
      </trkpt>
      <trkpt lat="48.6039" lon="7.27628">
        <ele>765.4</ele>
        <time>2024-03-05T15:31:18Z</time>
      </trkpt>
      <trkpt lat="48.60389" lon="7.27632">
        <ele>765.8</ele>
        <time>2024-03-05T15:31:19Z</time>
      </trkpt>
      <trkpt lat="48.60387" lon="7.27637">
        <ele>766.2</ele>
        <time>2024-03-05T15:31:21Z</time>
      </trkpt>
      <trkpt lat="48.60385" lon="7.27641">
        <ele>766.6</ele>
        <time>2024-03-05T15:31:22Z</time>
      </trkpt>
      <trkpt lat="48.60385" lon="7.27643">
        <ele>766.8</ele>
        <time>2024-03-05T15:31:23Z</time>
      </trkpt>
      <trkpt lat="48.60383" lon="7.27647">
        <ele>766.9</ele>
        <time>2024-03-05T15:31:24Z</time>
      </trkpt>
      <trkpt lat="48.60381" lon="7.2765">
        <ele>767</ele>
        <time>2024-03-05T15:31:25Z</time>
      </trkpt>
      <trkpt lat="48.6038" lon="7.27651">
        <ele>767</ele>
        <time>2024-03-05T15:31:26Z</time>
      </trkpt>
      <trkpt lat="48.60379" lon="7.27652">
        <ele>767</ele>
        <time>2024-03-05T15:31:27Z</time>
      </trkpt>
      <trkpt lat="48.60378" lon="7.27654">
        <ele>767</ele>
        <time>2024-03-05T15:31:28Z</time>
      </trkpt>
      <trkpt lat="48.60376" lon="7.27658">
        <ele>767.1</ele>
        <time>2024-03-05T15:31:29Z</time>
      </trkpt>
      <trkpt lat="48.60375" lon="7.27659">
        <ele>767.1</ele>
        <time>2024-03-05T15:31:30Z</time>
      </trkpt>
      <trkpt lat="48.60372" lon="7.27662">
        <ele>767.2</ele>
        <time>2024-03-05T15:31:31Z</time>
      </trkpt>
      <trkpt lat="48.6037" lon="7.27666">
        <ele>767.2</ele>
        <time>2024-03-05T15:31:32Z</time>
      </trkpt>
      <trkpt lat="48.60367" lon="7.2767">
        <ele>767.2</ele>
        <time>2024-03-05T15:31:33Z</time>
      </trkpt>
      <trkpt lat="48.60365" lon="7.27674">
        <ele>767.3</ele>
        <time>2024-03-05T15:31:34Z</time>
      </trkpt>
      <trkpt lat="48.60363" lon="7.27678">
        <ele>767.3</ele>
        <time>2024-03-05T15:31:35Z</time>
      </trkpt>
      <trkpt lat="48.6036" lon="7.27682">
        <ele>767.4</ele>
        <time>2024-03-05T15:31:36Z</time>
      </trkpt>
      <trkpt lat="48.60358" lon="7.27685">
        <ele>767.4</ele>
        <time>2024-03-05T15:31:37Z</time>
      </trkpt>
      <trkpt lat="48.60355" lon="7.27689">
        <ele>767.4</ele>
        <time>2024-03-05T15:31:38Z</time>
      </trkpt>
      <trkpt lat="48.60353" lon="7.27693">
        <ele>767.5</ele>
        <time>2024-03-05T15:31:39Z</time>
      </trkpt>
      <trkpt lat="48.60351" lon="7.27696">
        <ele>767.5</ele>
        <time>2024-03-05T15:31:40Z</time>
      </trkpt>
      <trkpt lat="48.6035" lon="7.27701">
        <ele>767.6</ele>
        <time>2024-03-05T15:31:41Z</time>
      </trkpt>
      <trkpt lat="48.60347" lon="7.27704">
        <ele>767.6</ele>
        <time>2024-03-05T15:31:42Z</time>
      </trkpt>
      <trkpt lat="48.60344" lon="7.27708">
        <ele>767.7</ele>
        <time>2024-03-05T15:31:43Z</time>
      </trkpt>
      <trkpt lat="48.60341" lon="7.27711">
        <ele>767.9</ele>
        <time>2024-03-05T15:31:44Z</time>
      </trkpt>
      <trkpt lat="48.60339" lon="7.27715">
        <ele>768.2</ele>
        <time>2024-03-05T15:31:45Z</time>
      </trkpt>
      <trkpt lat="48.60336" lon="7.27719">
        <ele>768.5</ele>
        <time>2024-03-05T15:31:46Z</time>
      </trkpt>
      <trkpt lat="48.60334" lon="7.27722">
        <ele>768.8</ele>
        <time>2024-03-05T15:31:47Z</time>
      </trkpt>
      <trkpt lat="48.60332" lon="7.27725">
        <ele>769.1</ele>
        <time>2024-03-05T15:31:48Z</time>
      </trkpt>
      <trkpt lat="48.60329" lon="7.27728">
        <ele>769.4</ele>
        <time>2024-03-05T15:31:49Z</time>
      </trkpt>
      <trkpt lat="48.60326" lon="7.27732">
        <ele>769.7</ele>
        <time>2024-03-05T15:31:51Z</time>
      </trkpt>
      <trkpt lat="48.60324" lon="7.27735">
        <ele>770</ele>
        <time>2024-03-05T15:31:52Z</time>
      </trkpt>
      <trkpt lat="48.60322" lon="7.2774">
        <ele>770.4</ele>
        <time>2024-03-05T15:31:53Z</time>
      </trkpt>
      <trkpt lat="48.60319" lon="7.27745">
        <ele>770.8</ele>
        <time>2024-03-05T15:31:54Z</time>
      </trkpt>
      <trkpt lat="48.60319" lon="7.27747">
        <ele>770.9</ele>
        <time>2024-03-05T15:31:55Z</time>
      </trkpt>
      <trkpt lat="48.60317" lon="7.27751">
        <ele>771.2</ele>
        <time>2024-03-05T15:31:56Z</time>
      </trkpt>
      <trkpt lat="48.60314" lon="7.27755">
        <ele>771.6</ele>
        <time>2024-03-05T15:31:57Z</time>
      </trkpt>
      <trkpt lat="48.60311" lon="7.27759">
        <ele>771.9</ele>
        <time>2024-03-05T15:31:58Z</time>
      </trkpt>
      <trkpt lat="48.60308" lon="7.27762">
        <ele>772.3</ele>
        <time>2024-03-05T15:31:59Z</time>
      </trkpt>
      <trkpt lat="48.60306" lon="7.27766">
        <ele>772.6</ele>
        <time>2024-03-05T15:32:00Z</time>
      </trkpt>
      <trkpt lat="48.60304" lon="7.27771">
        <ele>773</ele>
        <time>2024-03-05T15:32:02Z</time>
      </trkpt>
      <trkpt lat="48.60302" lon="7.27776">
        <ele>773.3</ele>
        <time>2024-03-05T15:32:03Z</time>
      </trkpt>
      <trkpt lat="48.60301" lon="7.27777">
        <ele>773.4</ele>
        <time>2024-03-05T15:32:04Z</time>
      </trkpt>
      <trkpt lat="48.60298" lon="7.2778">
        <ele>773.8</ele>
        <time>2024-03-05T15:32:05Z</time>
      </trkpt>
      <trkpt lat="48.60297" lon="7.27781">
        <ele>773.9</ele>
        <time>2024-03-05T15:32:06Z</time>
      </trkpt>
      <trkpt lat="48.60296" lon="7.27782">
        <ele>774</ele>
        <time>2024-03-05T15:32:07Z</time>
      </trkpt>
      <trkpt lat="48.60295" lon="7.27783">
        <ele>774.1</ele>
        <time>2024-03-05T15:32:08Z</time>
      </trkpt>
      <trkpt lat="48.60293" lon="7.27785">
        <ele>774.3</ele>
        <time>2024-03-05T15:32:09Z</time>
      </trkpt>
      <trkpt lat="48.60292" lon="7.27786">
        <ele>774.4</ele>
        <time>2024-03-05T15:32:10Z</time>
      </trkpt>
      <trkpt lat="48.60293" lon="7.27787">
        <ele>774.4</ele>
        <time>2024-03-05T15:32:11Z</time>
      </trkpt>
      <trkpt lat="48.60293" lon="7.27787">
        <ele>774.5</ele>
        <time>2024-03-05T15:32:12Z</time>
      </trkpt>
      <trkpt lat="48.60294" lon="7.27787">
        <ele>774.5</ele>
        <time>2024-03-05T15:32:13Z</time>
      </trkpt>
      <trkpt lat="48.60294" lon="7.27787">
        <ele>774.5</ele>
        <time>2024-03-05T15:32:14Z</time>
      </trkpt>
      <trkpt lat="48.60293" lon="7.27787">
        <ele>774.6</ele>
        <time>2024-03-05T15:32:15Z</time>
      </trkpt>
      <trkpt lat="48.60293" lon="7.27787">
        <ele>774.6</ele>
        <time>2024-03-05T15:32:16Z</time>
      </trkpt>
      <trkpt lat="48.60293" lon="7.27787">
        <ele>774.6</ele>
        <time>2024-03-05T15:32:17Z</time>
      </trkpt>
      <trkpt lat="48.60293" lon="7.27787">
        <ele>774.6</ele>
        <time>2024-03-05T15:32:19Z</time>
      </trkpt>
      <trkpt lat="48.60293" lon="7.27787">
        <ele>774.6</ele>
        <time>2024-03-05T15:32:20Z</time>
      </trkpt>
      <trkpt lat="48.60293" lon="7.27788">
        <ele>774.6</ele>
        <time>2024-03-05T15:32:21Z</time>
      </trkpt>
      <trkpt lat="48.60293" lon="7.27788">
        <ele>774.6</ele>
        <time>2024-03-05T15:32:22Z</time>
      </trkpt>
      <trkpt lat="48.60293" lon="7.27788">
        <ele>774.6</ele>
        <time>2024-03-05T15:32:23Z</time>
      </trkpt>
      <trkpt lat="48.60293" lon="7.27789">
        <ele>774.7</ele>
        <time>2024-03-05T15:32:24Z</time>
      </trkpt>
      <trkpt lat="48.60293" lon="7.2779">
        <ele>774.8</ele>
        <time>2024-03-05T15:32:25Z</time>
      </trkpt>
      <trkpt lat="48.60293" lon="7.27796">
        <ele>776.4</ele>
        <time>2024-03-05T15:32:26Z</time>
      </trkpt>
      <trkpt lat="48.60292" lon="7.27799">
        <ele>777</ele>
        <time>2024-03-05T15:32:27Z</time>
      </trkpt>
      <trkpt lat="48.60293" lon="7.27806">
        <ele>778.2</ele>
        <time>2024-03-05T15:32:29Z</time>
      </trkpt>
      <trkpt lat="48.60294" lon="7.27809">
        <ele>778.7</ele>
        <time>2024-03-05T15:32:30Z</time>
      </trkpt>
      <trkpt lat="48.60294" lon="7.2781">
        <ele>779.1</ele>
        <time>2024-03-05T15:32:31Z</time>
      </trkpt>
      <trkpt lat="48.60295" lon="7.27812">
        <ele>779.5</ele>
        <time>2024-03-05T15:32:32Z</time>
      </trkpt>
      <trkpt lat="48.60296" lon="7.27813">
        <ele>779.6</ele>
        <time>2024-03-05T15:32:33Z</time>
      </trkpt>
      <trkpt lat="48.60296" lon="7.27814">
        <ele>779.8</ele>
        <time>2024-03-05T15:32:34Z</time>
      </trkpt>
      <trkpt lat="48.60296" lon="7.27814">
        <ele>779.9</ele>
        <time>2024-03-05T15:32:35Z</time>
      </trkpt>
      <trkpt lat="48.60297" lon="7.27815">
        <ele>780.1</ele>
        <time>2024-03-05T15:32:36Z</time>
      </trkpt>
      <trkpt lat="48.60298" lon="7.27817">
        <ele>780.6</ele>
        <time>2024-03-05T15:32:37Z</time>
      </trkpt>
      <trkpt lat="48.603" lon="7.27819">
        <ele>781.4</ele>
        <time>2024-03-05T15:32:39Z</time>
      </trkpt>
      <trkpt lat="48.60301" lon="7.2782">
        <ele>781.7</ele>
        <time>2024-03-05T15:32:40Z</time>
      </trkpt>
      <trkpt lat="48.603" lon="7.2782">
        <ele>782</ele>
        <time>2024-03-05T15:32:41Z</time>
      </trkpt>
      <trkpt lat="48.60299" lon="7.27819">
        <ele>782.5</ele>
        <time>2024-03-05T15:32:42Z</time>
      </trkpt>
      <trkpt lat="48.60298" lon="7.27819">
        <ele>782.7</ele>
        <time>2024-03-05T15:32:43Z</time>
      </trkpt>
      <trkpt lat="48.60298" lon="7.27819">
        <ele>782.7</ele>
        <time>2024-03-05T15:32:44Z</time>
      </trkpt>
      <trkpt lat="48.60298" lon="7.27819">
        <ele>782.8</ele>
        <time>2024-03-05T15:32:45Z</time>
      </trkpt>
      <trkpt lat="48.60298" lon="7.2782">
        <ele>782.9</ele>
        <time>2024-03-05T15:32:46Z</time>
      </trkpt>
      <trkpt lat="48.60298" lon="7.27825">
        <ele>784</ele>
        <time>2024-03-05T15:32:47Z</time>
      </trkpt>
      <trkpt lat="48.60298" lon="7.27828">
        <ele>784.5</ele>
        <time>2024-03-05T15:32:48Z</time>
      </trkpt>
      <trkpt lat="48.603" lon="7.27832">
        <ele>785.4</ele>
        <time>2024-03-05T15:32:50Z</time>
      </trkpt>
      <trkpt lat="48.603" lon="7.27834">
        <ele>785.9</ele>
        <time>2024-03-05T15:32:51Z</time>
      </trkpt>
      <trkpt lat="48.603" lon="7.27834">
        <ele>785.9</ele>
        <time>2024-03-05T15:32:52Z</time>
      </trkpt>
      <trkpt lat="48.603" lon="7.27834">
        <ele>786</ele>
        <time>2024-03-05T15:32:53Z</time>
      </trkpt>
      <trkpt lat="48.603" lon="7.27834">
        <ele>786.1</ele>
        <time>2024-03-05T15:32:54Z</time>
      </trkpt>
      <trkpt lat="48.60301" lon="7.27836">
        <ele>786.8</ele>
        <time>2024-03-05T15:32:56Z</time>
      </trkpt>
      <trkpt lat="48.60304" lon="7.27843">
        <ele>788.5</ele>
        <time>2024-03-05T15:32:57Z</time>
      </trkpt>
      <trkpt lat="48.60303" lon="7.27849">
        <ele>789.9</ele>
        <time>2024-03-05T15:32:58Z</time>
      </trkpt>
      <trkpt lat="48.60302" lon="7.27853">
        <ele>790.9</ele>
        <time>2024-03-05T15:32:59Z</time>
      </trkpt>
      <trkpt lat="48.60303" lon="7.27856">
        <ele>791.5</ele>
        <time>2024-03-05T15:33:00Z</time>
      </trkpt>
      <trkpt lat="48.60304" lon="7.27858">
        <ele>792.2</ele>
        <time>2024-03-05T15:33:01Z</time>
      </trkpt>
      <trkpt lat="48.60306" lon="7.27861">
        <ele>793.2</ele>
        <time>2024-03-05T15:33:02Z</time>
      </trkpt>
      <trkpt lat="48.60307" lon="7.27862">
        <ele>793.6</ele>
        <time>2024-03-05T15:33:03Z</time>
      </trkpt>
      <trkpt lat="48.60309" lon="7.27862">
        <ele>794.2</ele>
        <time>2024-03-05T15:33:04Z</time>
      </trkpt>
      <trkpt lat="48.60311" lon="7.27862">
        <ele>794.9</ele>
        <time>2024-03-05T15:33:05Z</time>
      </trkpt>
      <trkpt lat="48.60313" lon="7.27864">
        <ele>796</ele>
        <time>2024-03-05T15:33:06Z</time>
      </trkpt>
      <trkpt lat="48.60314" lon="7.27864">
        <ele>796.3</ele>
        <time>2024-03-05T15:33:07Z</time>
      </trkpt>
      <trkpt lat="48.60317" lon="7.27864">
        <ele>797.4</ele>
        <time>2024-03-05T15:33:08Z</time>
      </trkpt>
      <trkpt lat="48.60318" lon="7.27864">
        <ele>797.7</ele>
        <time>2024-03-05T15:33:09Z</time>
      </trkpt>
      <trkpt lat="48.60321" lon="7.27865">
        <ele>798.6</ele>
        <time>2024-03-05T15:33:10Z</time>
      </trkpt>
      <trkpt lat="48.60322" lon="7.27866">
        <ele>799</ele>
        <time>2024-03-05T15:33:11Z</time>
      </trkpt>
      <trkpt lat="48.60323" lon="7.27866">
        <ele>799.4</ele>
        <time>2024-03-05T15:33:12Z</time>
      </trkpt>
      <trkpt lat="48.60324" lon="7.27867">
        <ele>799.8</ele>
        <time>2024-03-05T15:33:13Z</time>
      </trkpt>
      <trkpt lat="48.60325" lon="7.27868">
        <ele>800.2</ele>
        <time>2024-03-05T15:33:14Z</time>
      </trkpt>
      <trkpt lat="48.60326" lon="7.2787">
        <ele>800.6</ele>
        <time>2024-03-05T15:33:15Z</time>
      </trkpt>
      <trkpt lat="48.60327" lon="7.27872">
        <ele>801.1</ele>
        <time>2024-03-05T15:33:16Z</time>
      </trkpt>
      <trkpt lat="48.60327" lon="7.27873">
        <ele>801.3</ele>
        <time>2024-03-05T15:33:17Z</time>
      </trkpt>
      <trkpt lat="48.60328" lon="7.27874">
        <ele>801.7</ele>
        <time>2024-03-05T15:33:18Z</time>
      </trkpt>
      <trkpt lat="48.60328" lon="7.27876">
        <ele>802.1</ele>
        <time>2024-03-05T15:33:19Z</time>
      </trkpt>
      <trkpt lat="48.6033" lon="7.2788">
        <ele>802.9</ele>
        <time>2024-03-05T15:33:20Z</time>
      </trkpt>
      <trkpt lat="48.6033" lon="7.27881">
        <ele>803.2</ele>
        <time>2024-03-05T15:33:21Z</time>
      </trkpt>
      <trkpt lat="48.6033" lon="7.27882">
        <ele>803.5</ele>
        <time>2024-03-05T15:33:22Z</time>
      </trkpt>
      <trkpt lat="48.60331" lon="7.27884">
        <ele>804.1</ele>
        <time>2024-03-05T15:33:23Z</time>
      </trkpt>
      <trkpt lat="48.60332" lon="7.27886">
        <ele>804.4</ele>
        <time>2024-03-05T15:33:24Z</time>
      </trkpt>
      <trkpt lat="48.60332" lon="7.27887">
        <ele>804.8</ele>
        <time>2024-03-05T15:33:25Z</time>
      </trkpt>
      <trkpt lat="48.60334" lon="7.27889">
        <ele>805.3</ele>
        <time>2024-03-05T15:33:26Z</time>
      </trkpt>
      <trkpt lat="48.60335" lon="7.27891">
        <ele>806</ele>
        <time>2024-03-05T15:33:28Z</time>
      </trkpt>
      <trkpt lat="48.60336" lon="7.27892">
        <ele>806.3</ele>
        <time>2024-03-05T15:33:29Z</time>
      </trkpt>
      <trkpt lat="48.60337" lon="7.27894">
        <ele>806.7</ele>
        <time>2024-03-05T15:33:30Z</time>
      </trkpt>
      <trkpt lat="48.60338" lon="7.27895">
        <ele>807</ele>
        <time>2024-03-05T15:33:31Z</time>
      </trkpt>
      <trkpt lat="48.60336" lon="7.27893">
        <ele>807.7</ele>
        <time>2024-03-05T15:33:32Z</time>
      </trkpt>
      <trkpt lat="48.60334" lon="7.27889">
        <ele>808.7</ele>
        <time>2024-03-05T15:33:33Z</time>
      </trkpt>
      <trkpt lat="48.60331" lon="7.27886">
        <ele>809.7</ele>
        <time>2024-03-05T15:33:34Z</time>
      </trkpt>
      <trkpt lat="48.6033" lon="7.27887">
        <ele>809.9</ele>
        <time>2024-03-05T15:33:35Z</time>
      </trkpt>
      <trkpt lat="48.60331" lon="7.27888">
        <ele>810.2</ele>
        <time>2024-03-05T15:33:36Z</time>
      </trkpt>
      <trkpt lat="48.60332" lon="7.2789">
        <ele>810.5</ele>
        <time>2024-03-05T15:33:37Z</time>
      </trkpt>
      <trkpt lat="48.60332" lon="7.27891">
        <ele>810.8</ele>
        <time>2024-03-05T15:33:39Z</time>
      </trkpt>
      <trkpt lat="48.60333" lon="7.27892">
        <ele>811.1</ele>
        <time>2024-03-05T15:33:40Z</time>
      </trkpt>
      <trkpt lat="48.60335" lon="7.27896">
        <ele>811.9</ele>
        <time>2024-03-05T15:33:42Z</time>
      </trkpt>
      <trkpt lat="48.60335" lon="7.27897">
        <ele>812.1</ele>
        <time>2024-03-05T15:33:43Z</time>
      </trkpt>
      <trkpt lat="48.60336" lon="7.27898">
        <ele>812.6</ele>
        <time>2024-03-05T15:33:44Z</time>
      </trkpt>
      <trkpt lat="48.60337" lon="7.27898">
        <ele>812.7</ele>
        <time>2024-03-05T15:33:45Z</time>
      </trkpt>
      <trkpt lat="48.60338" lon="7.27899">
        <ele>813.2</ele>
        <time>2024-03-05T15:33:46Z</time>
      </trkpt>
      <trkpt lat="48.6034" lon="7.279">
        <ele>813.7</ele>
        <time>2024-03-05T15:33:47Z</time>
      </trkpt>
      <trkpt lat="48.60341" lon="7.27902">
        <ele>814.2</ele>
        <time>2024-03-05T15:33:49Z</time>
      </trkpt>
      <trkpt lat="48.60341" lon="7.27903">
        <ele>814.5</ele>
        <time>2024-03-05T15:33:50Z</time>
      </trkpt>
      <trkpt lat="48.60341" lon="7.27904">
        <ele>814.8</ele>
        <time>2024-03-05T15:33:51Z</time>
      </trkpt>
      <trkpt lat="48.60342" lon="7.27905">
        <ele>815.1</ele>
        <time>2024-03-05T15:33:53Z</time>
      </trkpt>
      <trkpt lat="48.60343" lon="7.27907">
        <ele>815.4</ele>
        <time>2024-03-05T15:33:54Z</time>
      </trkpt>
      <trkpt lat="48.60343" lon="7.27908">
        <ele>815.7</ele>
        <time>2024-03-05T15:33:55Z</time>
      </trkpt>
      <trkpt lat="48.60344" lon="7.27909">
        <ele>815.9</ele>
        <time>2024-03-05T15:33:56Z</time>
      </trkpt>
      <trkpt lat="48.60344" lon="7.2791">
        <ele>816.2</ele>
        <time>2024-03-05T15:33:57Z</time>
      </trkpt>
      <trkpt lat="48.60346" lon="7.27913">
        <ele>816.8</ele>
        <time>2024-03-05T15:33:58Z</time>
      </trkpt>
      <trkpt lat="48.60346" lon="7.27913">
        <ele>816.9</ele>
        <time>2024-03-05T15:33:59Z</time>
      </trkpt>
      <trkpt lat="48.60346" lon="7.27914">
        <ele>817.1</ele>
        <time>2024-03-05T15:34:00Z</time>
      </trkpt>
      <trkpt lat="48.60347" lon="7.27914">
        <ele>817.3</ele>
        <time>2024-03-05T15:34:01Z</time>
      </trkpt>
      <trkpt lat="48.60348" lon="7.27915">
        <ele>817.6</ele>
        <time>2024-03-05T15:34:02Z</time>
      </trkpt>
      <trkpt lat="48.6035" lon="7.27916">
        <ele>818.2</ele>
        <time>2024-03-05T15:34:03Z</time>
      </trkpt>
      <trkpt lat="48.60352" lon="7.27917">
        <ele>818.9</ele>
        <time>2024-03-05T15:34:05Z</time>
      </trkpt>
      <trkpt lat="48.60351" lon="7.27919">
        <ele>819.3</ele>
        <time>2024-03-05T15:34:06Z</time>
      </trkpt>
      <trkpt lat="48.6035" lon="7.27921">
        <ele>819.8</ele>
        <time>2024-03-05T15:34:07Z</time>
      </trkpt>
      <trkpt lat="48.6035" lon="7.27921">
        <ele>820</ele>
        <time>2024-03-05T15:34:08Z</time>
      </trkpt>
      <trkpt lat="48.60351" lon="7.27922">
        <ele>820.3</ele>
        <time>2024-03-05T15:34:09Z</time>
      </trkpt>
      <trkpt lat="48.60352" lon="7.27923">
        <ele>820.5</ele>
        <time>2024-03-05T15:34:10Z</time>
      </trkpt>
      <trkpt lat="48.60352" lon="7.27924">
        <ele>820.8</ele>
        <time>2024-03-05T15:34:11Z</time>
      </trkpt>
      <trkpt lat="48.60353" lon="7.27925">
        <ele>821</ele>
        <time>2024-03-05T15:34:12Z</time>
      </trkpt>
      <trkpt lat="48.60353" lon="7.27926">
        <ele>821.2</ele>
        <time>2024-03-05T15:34:13Z</time>
      </trkpt>
      <trkpt lat="48.60353" lon="7.27928">
        <ele>821.6</ele>
        <time>2024-03-05T15:34:14Z</time>
      </trkpt>
      <trkpt lat="48.60354" lon="7.27929">
        <ele>822.1</ele>
        <time>2024-03-05T15:34:15Z</time>
      </trkpt>
      <trkpt lat="48.60354" lon="7.27931">
        <ele>822.5</ele>
        <time>2024-03-05T15:34:16Z</time>
      </trkpt>
      <trkpt lat="48.60355" lon="7.27932">
        <ele>822.9</ele>
        <time>2024-03-05T15:34:17Z</time>
      </trkpt>
      <trkpt lat="48.60355" lon="7.27933">
        <ele>823.3</ele>
        <time>2024-03-05T15:34:18Z</time>
      </trkpt>
      <trkpt lat="48.60358" lon="7.27938">
        <ele>824.9</ele>
        <time>2024-03-05T15:34:20Z</time>
      </trkpt>
      <trkpt lat="48.60358" lon="7.27938">
        <ele>825.1</ele>
        <time>2024-03-05T15:34:21Z</time>
      </trkpt>
      <trkpt lat="48.60358" lon="7.27939">
        <ele>825.4</ele>
        <time>2024-03-05T15:34:22Z</time>
      </trkpt>
      <trkpt lat="48.60359" lon="7.2794">
        <ele>825.6</ele>
        <time>2024-03-05T15:34:23Z</time>
      </trkpt>
      <trkpt lat="48.60359" lon="7.2794">
        <ele>825.8</ele>
        <time>2024-03-05T15:34:24Z</time>
      </trkpt>
      <trkpt lat="48.60359" lon="7.27941">
        <ele>826.1</ele>
        <time>2024-03-05T15:34:25Z</time>
      </trkpt>
      <trkpt lat="48.6036" lon="7.27942">
        <ele>826.4</ele>
        <time>2024-03-05T15:34:26Z</time>
      </trkpt>
      <trkpt lat="48.60362" lon="7.27946">
        <ele>827.9</ele>
        <time>2024-03-05T15:34:28Z</time>
      </trkpt>
      <trkpt lat="48.60363" lon="7.27948">
        <ele>828.6</ele>
        <time>2024-03-05T15:34:29Z</time>
      </trkpt>
      <trkpt lat="48.60364" lon="7.2795">
        <ele>829.4</ele>
        <time>2024-03-05T15:34:30Z</time>
      </trkpt>
      <trkpt lat="48.60365" lon="7.27952">
        <ele>830</ele>
        <time>2024-03-05T15:34:31Z</time>
      </trkpt>
      <trkpt lat="48.60366" lon="7.27954">
        <ele>830.6</ele>
        <time>2024-03-05T15:34:32Z</time>
      </trkpt>
      <trkpt lat="48.60366" lon="7.27956">
        <ele>831.1</ele>
        <time>2024-03-05T15:34:33Z</time>
      </trkpt>
      <trkpt lat="48.60367" lon="7.27957">
        <ele>831.5</ele>
        <time>2024-03-05T15:34:34Z</time>
      </trkpt>
      <trkpt lat="48.60367" lon="7.27958">
        <ele>831.7</ele>
        <time>2024-03-05T15:34:35Z</time>
      </trkpt>
      <trkpt lat="48.60368" lon="7.27959">
        <ele>832.2</ele>
        <time>2024-03-05T15:34:36Z</time>
      </trkpt>
      <trkpt lat="48.60368" lon="7.27961">
        <ele>832.6</ele>
        <time>2024-03-05T15:34:38Z</time>
      </trkpt>
      <trkpt lat="48.60368" lon="7.27962">
        <ele>833.1</ele>
        <time>2024-03-05T15:34:39Z</time>
      </trkpt>
      <trkpt lat="48.6037" lon="7.27965">
        <ele>834</ele>
        <time>2024-03-05T15:34:40Z</time>
      </trkpt>
      <trkpt lat="48.60371" lon="7.27968">
        <ele>835.1</ele>
        <time>2024-03-05T15:34:42Z</time>
      </trkpt>
      <trkpt lat="48.60372" lon="7.2797">
        <ele>835.6</ele>
        <time>2024-03-05T15:34:43Z</time>
      </trkpt>
      <trkpt lat="48.60373" lon="7.2797">
        <ele>836</ele>
        <time>2024-03-05T15:34:44Z</time>
      </trkpt>
      <trkpt lat="48.60373" lon="7.2797">
        <ele>836.3</ele>
        <time>2024-03-05T15:34:45Z</time>
      </trkpt>
      <trkpt lat="48.60375" lon="7.27973">
        <ele>837.4</ele>
        <time>2024-03-05T15:34:46Z</time>
      </trkpt>
      <trkpt lat="48.60375" lon="7.27975">
        <ele>837.9</ele>
        <time>2024-03-05T15:34:47Z</time>
      </trkpt>
      <trkpt lat="48.60376" lon="7.2798">
        <ele>839.3</ele>
        <time>2024-03-05T15:34:48Z</time>
      </trkpt>
      <trkpt lat="48.60377" lon="7.27982">
        <ele>839.8</ele>
        <time>2024-03-05T15:34:49Z</time>
      </trkpt>
      <trkpt lat="48.60378" lon="7.27984">
        <ele>840.5</ele>
        <time>2024-03-05T15:34:50Z</time>
      </trkpt>
      <trkpt lat="48.60379" lon="7.27985">
        <ele>841</ele>
        <time>2024-03-05T15:34:51Z</time>
      </trkpt>
      <trkpt lat="48.6038" lon="7.27989">
        <ele>842.2</ele>
        <time>2024-03-05T15:34:52Z</time>
      </trkpt>
      <trkpt lat="48.6038" lon="7.2799">
        <ele>842.5</ele>
        <time>2024-03-05T15:34:53Z</time>
      </trkpt>
      <trkpt lat="48.60381" lon="7.27992">
        <ele>843.2</ele>
        <time>2024-03-05T15:34:54Z</time>
      </trkpt>
      <trkpt lat="48.60382" lon="7.27994">
        <ele>843.8</ele>
        <time>2024-03-05T15:34:55Z</time>
      </trkpt>
      <trkpt lat="48.60382" lon="7.27997">
        <ele>844.4</ele>
        <time>2024-03-05T15:34:56Z</time>
      </trkpt>
      <trkpt lat="48.60385" lon="7.27999">
        <ele>844.8</ele>
        <time>2024-03-05T15:34:58Z</time>
      </trkpt>
      <trkpt lat="48.60386" lon="7.28">
        <ele>845</ele>
        <time>2024-03-05T15:35:00Z</time>
      </trkpt>
      <trkpt lat="48.60387" lon="7.27998">
        <ele>845.2</ele>
        <time>2024-03-05T15:35:01Z</time>
      </trkpt>
      <trkpt lat="48.60388" lon="7.28">
        <ele>845.5</ele>
        <time>2024-03-05T15:35:02Z</time>
      </trkpt>
      <trkpt lat="48.60388" lon="7.27997">
        <ele>845.8</ele>
        <time>2024-03-05T15:35:03Z</time>
      </trkpt>
      <trkpt lat="48.60388" lon="7.27997">
        <ele>845.8</ele>
        <time>2024-03-05T15:35:04Z</time>
      </trkpt>
      <trkpt lat="48.60387" lon="7.27997">
        <ele>845.9</ele>
        <time>2024-03-05T15:35:05Z</time>
      </trkpt>
      <trkpt lat="48.60387" lon="7.27996">
        <ele>846</ele>
        <time>2024-03-05T15:35:06Z</time>
      </trkpt>
      <trkpt lat="48.60387" lon="7.27995">
        <ele>846.1</ele>
        <time>2024-03-05T15:35:07Z</time>
      </trkpt>
      <trkpt lat="48.60388" lon="7.27997">
        <ele>846.2</ele>
        <time>2024-03-05T15:35:08Z</time>
      </trkpt>
      <trkpt lat="48.60388" lon="7.27998">
        <ele>846.4</ele>
        <time>2024-03-05T15:35:09Z</time>
      </trkpt>
      <trkpt lat="48.60389" lon="7.27999">
        <ele>846.5</ele>
        <time>2024-03-05T15:35:10Z</time>
      </trkpt>
      <trkpt lat="48.60392" lon="7.28002">
        <ele>847</ele>
        <time>2024-03-05T15:35:11Z</time>
      </trkpt>
      <trkpt lat="48.60392" lon="7.28003">
        <ele>847.2</ele>
        <time>2024-03-05T15:35:12Z</time>
      </trkpt>
      <trkpt lat="48.60393" lon="7.28008">
        <ele>847.7</ele>
        <time>2024-03-05T15:35:13Z</time>
      </trkpt>
      <trkpt lat="48.60394" lon="7.2801">
        <ele>848</ele>
        <time>2024-03-05T15:35:14Z</time>
      </trkpt>
      <trkpt lat="48.60395" lon="7.28014">
        <ele>848.6</ele>
        <time>2024-03-05T15:35:16Z</time>
      </trkpt>
      <trkpt lat="48.60397" lon="7.28014">
        <ele>848.9</ele>
        <time>2024-03-05T15:35:17Z</time>
      </trkpt>
      <trkpt lat="48.60399" lon="7.28015">
        <ele>849.4</ele>
        <time>2024-03-05T15:35:19Z</time>
      </trkpt>
      <trkpt lat="48.604" lon="7.28016">
        <ele>849.7</ele>
        <time>2024-03-05T15:35:20Z</time>
      </trkpt>
      <trkpt lat="48.604" lon="7.28016">
        <ele>849.7</ele>
        <time>2024-03-05T15:35:21Z</time>
      </trkpt>
      <trkpt lat="48.60401" lon="7.28018">
        <ele>850</ele>
        <time>2024-03-05T15:35:22Z</time>
      </trkpt>
      <trkpt lat="48.60402" lon="7.28017">
        <ele>850.1</ele>
        <time>2024-03-05T15:35:23Z</time>
      </trkpt>
      <trkpt lat="48.60402" lon="7.28018">
        <ele>850.3</ele>
        <time>2024-03-05T15:35:24Z</time>
      </trkpt>
      <trkpt lat="48.60403" lon="7.28019">
        <ele>850.4</ele>
        <time>2024-03-05T15:35:25Z</time>
      </trkpt>
      <trkpt lat="48.60403" lon="7.2802">
        <ele>850.6</ele>
        <time>2024-03-05T15:35:26Z</time>
      </trkpt>
      <trkpt lat="48.60404" lon="7.2802">
        <ele>850.8</ele>
        <time>2024-03-05T15:35:27Z</time>
      </trkpt>
      <trkpt lat="48.60405" lon="7.28021">
        <ele>850.9</ele>
        <time>2024-03-05T15:35:28Z</time>
      </trkpt>
      <trkpt lat="48.60407" lon="7.28025">
        <ele>851.7</ele>
        <time>2024-03-05T15:35:29Z</time>
      </trkpt>
      <trkpt lat="48.60408" lon="7.28026">
        <ele>851.9</ele>
        <time>2024-03-05T15:35:30Z</time>
      </trkpt>
      <trkpt lat="48.60409" lon="7.28028">
        <ele>852.2</ele>
        <time>2024-03-05T15:35:31Z</time>
      </trkpt>
      <trkpt lat="48.6041" lon="7.2803">
        <ele>852.6</ele>
        <time>2024-03-05T15:35:32Z</time>
      </trkpt>
      <trkpt lat="48.60411" lon="7.28031">
        <ele>852.9</ele>
        <time>2024-03-05T15:35:33Z</time>
      </trkpt>
      <trkpt lat="48.60411" lon="7.28031">
        <ele>853</ele>
        <time>2024-03-05T15:35:34Z</time>
      </trkpt>
      <trkpt lat="48.60413" lon="7.28033">
        <ele>853.5</ele>
        <time>2024-03-05T15:35:36Z</time>
      </trkpt>
      <trkpt lat="48.60414" lon="7.28034">
        <ele>853.8</ele>
        <time>2024-03-05T15:35:37Z</time>
      </trkpt>
      <trkpt lat="48.60415" lon="7.28035">
        <ele>854</ele>
        <time>2024-03-05T15:35:38Z</time>
      </trkpt>
      <trkpt lat="48.60416" lon="7.28035">
        <ele>854.2</ele>
        <time>2024-03-05T15:35:39Z</time>
      </trkpt>
      <trkpt lat="48.60416" lon="7.28036">
        <ele>854.4</ele>
        <time>2024-03-05T15:35:40Z</time>
      </trkpt>
      <trkpt lat="48.60417" lon="7.28038">
        <ele>854.7</ele>
        <time>2024-03-05T15:35:41Z</time>
      </trkpt>
      <trkpt lat="48.60418" lon="7.2804">
        <ele>854.9</ele>
        <time>2024-03-05T15:35:42Z</time>
      </trkpt>
      <trkpt lat="48.60418" lon="7.28041">
        <ele>855.1</ele>
        <time>2024-03-05T15:35:43Z</time>
      </trkpt>
      <trkpt lat="48.60419" lon="7.28041">
        <ele>855.3</ele>
        <time>2024-03-05T15:35:44Z</time>
      </trkpt>
      <trkpt lat="48.60421" lon="7.28043">
        <ele>855.9</ele>
        <time>2024-03-05T15:35:46Z</time>
      </trkpt>
      <trkpt lat="48.60422" lon="7.28044">
        <ele>856.1</ele>
        <time>2024-03-05T15:35:47Z</time>
      </trkpt>
      <trkpt lat="48.60423" lon="7.28045">
        <ele>856.3</ele>
        <time>2024-03-05T15:35:48Z</time>
      </trkpt>
      <trkpt lat="48.60423" lon="7.28047">
        <ele>856.6</ele>
        <time>2024-03-05T15:35:49Z</time>
      </trkpt>
      <trkpt lat="48.60424" lon="7.28048">
        <ele>856.9</ele>
        <time>2024-03-05T15:35:50Z</time>
      </trkpt>
      <trkpt lat="48.60424" lon="7.2805">
        <ele>857.1</ele>
        <time>2024-03-05T15:35:51Z</time>
      </trkpt>
      <trkpt lat="48.60424" lon="7.28052">
        <ele>857.4</ele>
        <time>2024-03-05T15:35:52Z</time>
      </trkpt>
      <trkpt lat="48.60424" lon="7.28054">
        <ele>857.7</ele>
        <time>2024-03-05T15:35:53Z</time>
      </trkpt>
      <trkpt lat="48.60424" lon="7.28055">
        <ele>857.8</ele>
        <time>2024-03-05T15:35:54Z</time>
      </trkpt>
      <trkpt lat="48.60425" lon="7.28058">
        <ele>858.1</ele>
        <time>2024-03-05T15:35:55Z</time>
      </trkpt>
      <trkpt lat="48.60426" lon="7.28059">
        <ele>858.3</ele>
        <time>2024-03-05T15:35:56Z</time>
      </trkpt>
      <trkpt lat="48.60426" lon="7.2806">
        <ele>858.5</ele>
        <time>2024-03-05T15:35:57Z</time>
      </trkpt>
      <trkpt lat="48.60426" lon="7.28061">
        <ele>858.7</ele>
        <time>2024-03-05T15:35:58Z</time>
      </trkpt>
      <trkpt lat="48.60427" lon="7.28063">
        <ele>858.8</ele>
        <time>2024-03-05T15:35:59Z</time>
      </trkpt>
      <trkpt lat="48.60428" lon="7.28067">
        <ele>859.4</ele>
        <time>2024-03-05T15:36:00Z</time>
      </trkpt>
      <trkpt lat="48.60429" lon="7.28068">
        <ele>859.6</ele>
        <time>2024-03-05T15:36:01Z</time>
      </trkpt>
      <trkpt lat="48.6043" lon="7.2807">
        <ele>859.9</ele>
        <time>2024-03-05T15:36:02Z</time>
      </trkpt>
      <trkpt lat="48.60431" lon="7.28073">
        <ele>860.2</ele>
        <time>2024-03-05T15:36:03Z</time>
      </trkpt>
      <trkpt lat="48.60431" lon="7.28074">
        <ele>860.5</ele>
        <time>2024-03-05T15:36:04Z</time>
      </trkpt>
      <trkpt lat="48.60433" lon="7.28077">
        <ele>861</ele>
        <time>2024-03-05T15:36:06Z</time>
      </trkpt>
      <trkpt lat="48.60436" lon="7.28079">
        <ele>861.5</ele>
        <time>2024-03-05T15:36:07Z</time>
      </trkpt>
      <trkpt lat="48.60437" lon="7.2808">
        <ele>861.7</ele>
        <time>2024-03-05T15:36:08Z</time>
      </trkpt>
      <trkpt lat="48.60438" lon="7.28082">
        <ele>862.1</ele>
        <time>2024-03-05T15:36:09Z</time>
      </trkpt>
      <trkpt lat="48.6044" lon="7.28083">
        <ele>862.5</ele>
        <time>2024-03-05T15:36:11Z</time>
      </trkpt>
      <trkpt lat="48.60442" lon="7.28085">
        <ele>862.9</ele>
        <time>2024-03-05T15:36:12Z</time>
      </trkpt>
      <trkpt lat="48.60443" lon="7.28086">
        <ele>863.2</ele>
        <time>2024-03-05T15:36:13Z</time>
      </trkpt>
      <trkpt lat="48.60444" lon="7.28087">
        <ele>863.4</ele>
        <time>2024-03-05T15:36:14Z</time>
      </trkpt>
      <trkpt lat="48.60444" lon="7.28088">
        <ele>863.5</ele>
        <time>2024-03-05T15:36:15Z</time>
      </trkpt>
      <trkpt lat="48.60444" lon="7.2809">
        <ele>863.8</ele>
        <time>2024-03-05T15:36:16Z</time>
      </trkpt>
      <trkpt lat="48.60444" lon="7.28093">
        <ele>864.1</ele>
        <time>2024-03-05T15:36:17Z</time>
      </trkpt>
      <trkpt lat="48.60443" lon="7.28091">
        <ele>864.5</ele>
        <time>2024-03-05T15:36:18Z</time>
      </trkpt>
      <trkpt lat="48.60442" lon="7.28093">
        <ele>864.7</ele>
        <time>2024-03-05T15:36:20Z</time>
      </trkpt>
      <trkpt lat="48.60442" lon="7.28094">
        <ele>864.9</ele>
        <time>2024-03-05T15:36:21Z</time>
      </trkpt>
      <trkpt lat="48.60443" lon="7.28095">
        <ele>865</ele>
        <time>2024-03-05T15:36:22Z</time>
      </trkpt>
      <trkpt lat="48.60442" lon="7.28094">
        <ele>865.1</ele>
        <time>2024-03-05T15:36:23Z</time>
      </trkpt>
      <trkpt lat="48.60441" lon="7.28094">
        <ele>865.3</ele>
        <time>2024-03-05T15:36:24Z</time>
      </trkpt>
      <trkpt lat="48.60441" lon="7.28094">
        <ele>865.3</ele>
        <time>2024-03-05T15:36:25Z</time>
      </trkpt>
      <trkpt lat="48.60441" lon="7.28094">
        <ele>865.4</ele>
        <time>2024-03-05T15:36:26Z</time>
      </trkpt>
      <trkpt lat="48.60441" lon="7.28094">
        <ele>865.4</ele>
        <time>2024-03-05T15:36:27Z</time>
      </trkpt>
      <trkpt lat="48.60441" lon="7.28093">
        <ele>865.4</ele>
        <time>2024-03-05T15:36:28Z</time>
      </trkpt>
      <trkpt lat="48.60441" lon="7.28094">
        <ele>865.4</ele>
        <time>2024-03-05T15:36:29Z</time>
      </trkpt>
      <trkpt lat="48.60441" lon="7.28094">
        <ele>865.5</ele>
        <time>2024-03-05T15:36:30Z</time>
      </trkpt>
      <trkpt lat="48.60442" lon="7.28094">
        <ele>865.6</ele>
        <time>2024-03-05T15:36:31Z</time>
      </trkpt>
      <trkpt lat="48.60442" lon="7.28094">
        <ele>865.7</ele>
        <time>2024-03-05T15:36:32Z</time>
      </trkpt>
      <trkpt lat="48.60442" lon="7.28094">
        <ele>865.7</ele>
        <time>2024-03-05T15:36:33Z</time>
      </trkpt>
      <trkpt lat="48.60442" lon="7.28095">
        <ele>865.7</ele>
        <time>2024-03-05T15:36:34Z</time>
      </trkpt>
      <trkpt lat="48.60443" lon="7.28095">
        <ele>865.8</ele>
        <time>2024-03-05T15:36:35Z</time>
      </trkpt>
      <trkpt lat="48.60444" lon="7.28096">
        <ele>866.1</ele>
        <time>2024-03-05T15:36:36Z</time>
      </trkpt>
      <trkpt lat="48.60445" lon="7.28097">
        <ele>866.2</ele>
        <time>2024-03-05T15:36:37Z</time>
      </trkpt>
      <trkpt lat="48.60445" lon="7.28097">
        <ele>866.4</ele>
        <time>2024-03-05T15:36:39Z</time>
      </trkpt>
      <trkpt lat="48.60446" lon="7.28098">
        <ele>866.5</ele>
        <time>2024-03-05T15:36:40Z</time>
      </trkpt>
      <trkpt lat="48.60447" lon="7.28099">
        <ele>866.7</ele>
        <time>2024-03-05T15:36:41Z</time>
      </trkpt>
      <trkpt lat="48.60449" lon="7.281">
        <ele>867.2</ele>
        <time>2024-03-05T15:36:43Z</time>
      </trkpt>
      <trkpt lat="48.60453" lon="7.28102">
        <ele>868</ele>
        <time>2024-03-05T15:36:44Z</time>
      </trkpt>
      <trkpt lat="48.60456" lon="7.28105">
        <ele>868.6</ele>
        <time>2024-03-05T15:36:45Z</time>
      </trkpt>
      <trkpt lat="48.60457" lon="7.28108">
        <ele>869</ele>
        <time>2024-03-05T15:36:46Z</time>
      </trkpt>
      <trkpt lat="48.60459" lon="7.28112">
        <ele>869.5</ele>
        <time>2024-03-05T15:36:47Z</time>
      </trkpt>
      <trkpt lat="48.6046" lon="7.28114">
        <ele>869.8</ele>
        <time>2024-03-05T15:36:49Z</time>
      </trkpt>
      <trkpt lat="48.60461" lon="7.28115">
        <ele>870</ele>
        <time>2024-03-05T15:36:50Z</time>
      </trkpt>
      <trkpt lat="48.60462" lon="7.28117">
        <ele>870.2</ele>
        <time>2024-03-05T15:36:51Z</time>
      </trkpt>
      <trkpt lat="48.60463" lon="7.28119">
        <ele>870.4</ele>
        <time>2024-03-05T15:36:52Z</time>
      </trkpt>
      <trkpt lat="48.60464" lon="7.28123">
        <ele>870.8</ele>
        <time>2024-03-05T15:36:53Z</time>
      </trkpt>
      <trkpt lat="48.60464" lon="7.28125">
        <ele>871</ele>
        <time>2024-03-05T15:36:54Z</time>
      </trkpt>
      <trkpt lat="48.60464" lon="7.28127">
        <ele>871.2</ele>
        <time>2024-03-05T15:36:55Z</time>
      </trkpt>
      <trkpt lat="48.60464" lon="7.2813">
        <ele>871.4</ele>
        <time>2024-03-05T15:36:56Z</time>
      </trkpt>
      <trkpt lat="48.60464" lon="7.28131">
        <ele>871.4</ele>
        <time>2024-03-05T15:36:57Z</time>
      </trkpt>
      <trkpt lat="48.60465" lon="7.28135">
        <ele>871.7</ele>
        <time>2024-03-05T15:36:58Z</time>
      </trkpt>
      <trkpt lat="48.60467" lon="7.28137">
        <ele>872</ele>
        <time>2024-03-05T15:36:59Z</time>
      </trkpt>
      <trkpt lat="48.6047" lon="7.28139">
        <ele>872.3</ele>
        <time>2024-03-05T15:37:00Z</time>
      </trkpt>
      <trkpt lat="48.6047" lon="7.28137">
        <ele>872.4</ele>
        <time>2024-03-05T15:37:01Z</time>
      </trkpt>
      <trkpt lat="48.60471" lon="7.28137">
        <ele>872.5</ele>
        <time>2024-03-05T15:37:02Z</time>
      </trkpt>
      <trkpt lat="48.60472" lon="7.28137">
        <ele>872.6</ele>
        <time>2024-03-05T15:37:03Z</time>
      </trkpt>
      <trkpt lat="48.60473" lon="7.28139">
        <ele>872.7</ele>
        <time>2024-03-05T15:37:04Z</time>
      </trkpt>
      <trkpt lat="48.60473" lon="7.28141">
        <ele>872.8</ele>
        <time>2024-03-05T15:37:05Z</time>
      </trkpt>
      <trkpt lat="48.60474" lon="7.28141">
        <ele>872.9</ele>
        <time>2024-03-05T15:37:06Z</time>
      </trkpt>
      <trkpt lat="48.60474" lon="7.28141">
        <ele>872.9</ele>
        <time>2024-03-05T15:37:07Z</time>
      </trkpt>
      <trkpt lat="48.60476" lon="7.28142">
        <ele>873.1</ele>
        <time>2024-03-05T15:37:09Z</time>
      </trkpt>
      <trkpt lat="48.60478" lon="7.28143">
        <ele>873.3</ele>
        <time>2024-03-05T15:37:10Z</time>
      </trkpt>
      <trkpt lat="48.60479" lon="7.28145">
        <ele>873.4</ele>
        <time>2024-03-05T15:37:11Z</time>
      </trkpt>
      <trkpt lat="48.60479" lon="7.28148">
        <ele>873.5</ele>
        <time>2024-03-05T15:37:12Z</time>
      </trkpt>
      <trkpt lat="48.60479" lon="7.28149">
        <ele>873.6</ele>
        <time>2024-03-05T15:37:13Z</time>
      </trkpt>
      <trkpt lat="48.6048" lon="7.28151">
        <ele>873.6</ele>
        <time>2024-03-05T15:37:14Z</time>
      </trkpt>
      <trkpt lat="48.60482" lon="7.28154">
        <ele>873.8</ele>
        <time>2024-03-05T15:37:15Z</time>
      </trkpt>
      <trkpt lat="48.60482" lon="7.28156">
        <ele>873.9</ele>
        <time>2024-03-05T15:37:16Z</time>
      </trkpt>
      <trkpt lat="48.60484" lon="7.2816">
        <ele>874.1</ele>
        <time>2024-03-05T15:37:17Z</time>
      </trkpt>
      <trkpt lat="48.60485" lon="7.28162">
        <ele>874.1</ele>
        <time>2024-03-05T15:37:18Z</time>
      </trkpt>
      <trkpt lat="48.60486" lon="7.28164">
        <ele>874.2</ele>
        <time>2024-03-05T15:37:19Z</time>
      </trkpt>
      <trkpt lat="48.60487" lon="7.28165">
        <ele>874.2</ele>
        <time>2024-03-05T15:37:20Z</time>
      </trkpt>
      <trkpt lat="48.60489" lon="7.28168">
        <ele>874.3</ele>
        <time>2024-03-05T15:37:21Z</time>
      </trkpt>
      <trkpt lat="48.6049" lon="7.28169">
        <ele>874.4</ele>
        <time>2024-03-05T15:37:22Z</time>
      </trkpt>
      <trkpt lat="48.60491" lon="7.28171">
        <ele>874.5</ele>
        <time>2024-03-05T15:37:23Z</time>
      </trkpt>
      <trkpt lat="48.60492" lon="7.28173">
        <ele>874.5</ele>
        <time>2024-03-05T15:37:24Z</time>
      </trkpt>
      <trkpt lat="48.60492" lon="7.28179">
        <ele>874.8</ele>
        <time>2024-03-05T15:37:25Z</time>
      </trkpt>
      <trkpt lat="48.60492" lon="7.28183">
        <ele>875.1</ele>
        <time>2024-03-05T15:37:26Z</time>
      </trkpt>
      <trkpt lat="48.60492" lon="7.28188">
        <ele>875.7</ele>
        <time>2024-03-05T15:37:28Z</time>
      </trkpt>
      <trkpt lat="48.60493" lon="7.28189">
        <ele>875.7</ele>
        <time>2024-03-05T15:37:29Z</time>
      </trkpt>
      <trkpt lat="48.60493" lon="7.28193">
        <ele>875.9</ele>
        <time>2024-03-05T15:37:30Z</time>
      </trkpt>
      <trkpt lat="48.60494" lon="7.28199">
        <ele>876.3</ele>
        <time>2024-03-05T15:37:31Z</time>
      </trkpt>
      <trkpt lat="48.60493" lon="7.28201">
        <ele>876.2</ele>
        <time>2024-03-05T15:37:32Z</time>
      </trkpt>
      <trkpt lat="48.60494" lon="7.28206">
        <ele>876.2</ele>
        <time>2024-03-05T15:37:33Z</time>
      </trkpt>
      <trkpt lat="48.60495" lon="7.28208">
        <ele>876.2</ele>
        <time>2024-03-05T15:37:34Z</time>
      </trkpt>
      <trkpt lat="48.60496" lon="7.28214">
        <ele>875.9</ele>
        <time>2024-03-05T15:37:35Z</time>
      </trkpt>
      <trkpt lat="48.60496" lon="7.28216">
        <ele>875.8</ele>
        <time>2024-03-05T15:37:36Z</time>
      </trkpt>
      <trkpt lat="48.60496" lon="7.28222">
        <ele>875.6</ele>
        <time>2024-03-05T15:37:37Z</time>
      </trkpt>
      <trkpt lat="48.60495" lon="7.28227">
        <ele>874.8</ele>
        <time>2024-03-05T15:37:38Z</time>
      </trkpt>
      <trkpt lat="48.60495" lon="7.28233">
        <ele>874.4</ele>
        <time>2024-03-05T15:37:40Z</time>
      </trkpt>
      <trkpt lat="48.60494" lon="7.28237">
        <ele>873.9</ele>
        <time>2024-03-05T15:37:41Z</time>
      </trkpt>
      <trkpt lat="48.60494" lon="7.28239">
        <ele>873.9</ele>
        <time>2024-03-05T15:37:42Z</time>
      </trkpt>
      <trkpt lat="48.60493" lon="7.28243">
        <ele>873.8</ele>
        <time>2024-03-05T15:37:43Z</time>
      </trkpt>
      <trkpt lat="48.60493" lon="7.28245">
        <ele>873.3</ele>
        <time>2024-03-05T15:37:44Z</time>
      </trkpt>
      <trkpt lat="48.60492" lon="7.28249">
        <ele>872.8</ele>
        <time>2024-03-05T15:37:45Z</time>
      </trkpt>
      <trkpt lat="48.60491" lon="7.28253">
        <ele>872.4</ele>
        <time>2024-03-05T15:37:46Z</time>
      </trkpt>
      <trkpt lat="48.60491" lon="7.28255">
        <ele>872.4</ele>
        <time>2024-03-05T15:37:47Z</time>
      </trkpt>
      <trkpt lat="48.6049" lon="7.28259">
        <ele>872.4</ele>
        <time>2024-03-05T15:37:49Z</time>
      </trkpt>
      <trkpt lat="48.60489" lon="7.28261">
        <ele>872</ele>
        <time>2024-03-05T15:37:50Z</time>
      </trkpt>
      <trkpt lat="48.60489" lon="7.28261">
        <ele>872</ele>
        <time>2024-03-05T15:37:51Z</time>
      </trkpt>
      <trkpt lat="48.60488" lon="7.28263">
        <ele>872.3</ele>
        <time>2024-03-05T15:37:52Z</time>
      </trkpt>
      <trkpt lat="48.60486" lon="7.28265">
        <ele>872.3</ele>
        <time>2024-03-05T15:37:53Z</time>
      </trkpt>
      <trkpt lat="48.60486" lon="7.28267">
        <ele>872</ele>
        <time>2024-03-05T15:37:54Z</time>
      </trkpt>
      <trkpt lat="48.60484" lon="7.28269">
        <ele>872.3</ele>
        <time>2024-03-05T15:37:55Z</time>
      </trkpt>
      <trkpt lat="48.60484" lon="7.2827">
        <ele>872</ele>
        <time>2024-03-05T15:37:56Z</time>
      </trkpt>
      <trkpt lat="48.60482" lon="7.28275">
        <ele>871.8</ele>
        <time>2024-03-05T15:37:57Z</time>
      </trkpt>
      <trkpt lat="48.60482" lon="7.28276">
        <ele>872.1</ele>
        <time>2024-03-05T15:37:58Z</time>
      </trkpt>
      <trkpt lat="48.60481" lon="7.2828">
        <ele>871.9</ele>
        <time>2024-03-05T15:37:59Z</time>
      </trkpt>
      <trkpt lat="48.60479" lon="7.28284">
        <ele>872</ele>
        <time>2024-03-05T15:38:00Z</time>
      </trkpt>
      <trkpt lat="48.60477" lon="7.28291">
        <ele>872</ele>
        <time>2024-03-05T15:38:02Z</time>
      </trkpt>
      <trkpt lat="48.60476" lon="7.28293">
        <ele>872.2</ele>
        <time>2024-03-05T15:38:03Z</time>
      </trkpt>
      <trkpt lat="48.60475" lon="7.28294">
        <ele>872.2</ele>
        <time>2024-03-05T15:38:04Z</time>
      </trkpt>
      <trkpt lat="48.60473" lon="7.28299">
        <ele>872.5</ele>
        <time>2024-03-05T15:38:05Z</time>
      </trkpt>
      <trkpt lat="48.60472" lon="7.283">
        <ele>872.7</ele>
        <time>2024-03-05T15:38:06Z</time>
      </trkpt>
      <trkpt lat="48.6047" lon="7.28305">
        <ele>873.3</ele>
        <time>2024-03-05T15:38:07Z</time>
      </trkpt>
      <trkpt lat="48.60469" lon="7.28307">
        <ele>873.3</ele>
        <time>2024-03-05T15:38:08Z</time>
      </trkpt>
      <trkpt lat="48.60467" lon="7.28314">
        <ele>874.4</ele>
        <time>2024-03-05T15:38:10Z</time>
      </trkpt>
      <trkpt lat="48.60465" lon="7.28318">
        <ele>874.9</ele>
        <time>2024-03-05T15:38:11Z</time>
      </trkpt>
      <trkpt lat="48.60465" lon="7.28319">
        <ele>875.1</ele>
        <time>2024-03-05T15:38:12Z</time>
      </trkpt>
      <trkpt lat="48.60464" lon="7.28322">
        <ele>875.6</ele>
        <time>2024-03-05T15:38:13Z</time>
      </trkpt>
      <trkpt lat="48.60463" lon="7.28323">
        <ele>875.6</ele>
        <time>2024-03-05T15:38:14Z</time>
      </trkpt>
      <trkpt lat="48.60462" lon="7.28325">
        <ele>876.2</ele>
        <time>2024-03-05T15:38:15Z</time>
      </trkpt>
      <trkpt lat="48.60461" lon="7.28327">
        <ele>876.2</ele>
        <time>2024-03-05T15:38:17Z</time>
      </trkpt>
      <trkpt lat="48.6046" lon="7.28329">
        <ele>876.2</ele>
        <time>2024-03-05T15:38:18Z</time>
      </trkpt>
      <trkpt lat="48.60457" lon="7.28333">
        <ele>876.9</ele>
        <time>2024-03-05T15:38:19Z</time>
      </trkpt>
      <trkpt lat="48.60457" lon="7.28334">
        <ele>877.6</ele>
        <time>2024-03-05T15:38:20Z</time>
      </trkpt>
      <trkpt lat="48.60456" lon="7.28336">
        <ele>877.6</ele>
        <time>2024-03-05T15:38:21Z</time>
      </trkpt>
      <trkpt lat="48.60456" lon="7.28337">
        <ele>877.6</ele>
        <time>2024-03-05T15:38:22Z</time>
      </trkpt>
      <trkpt lat="48.60455" lon="7.28338">
        <ele>877.5</ele>
        <time>2024-03-05T15:38:23Z</time>
      </trkpt>
      <trkpt lat="48.60455" lon="7.28338">
        <ele>877.9</ele>
        <time>2024-03-05T15:38:24Z</time>
      </trkpt>
      <trkpt lat="48.60454" lon="7.28338">
        <ele>877.9</ele>
        <time>2024-03-05T15:38:25Z</time>
      </trkpt>
      <trkpt lat="48.60454" lon="7.28339">
        <ele>878.2</ele>
        <time>2024-03-05T15:38:26Z</time>
      </trkpt>
      <trkpt lat="48.60452" lon="7.28342">
        <ele>878.2</ele>
        <time>2024-03-05T15:38:27Z</time>
      </trkpt>
      <trkpt lat="48.60451" lon="7.28346">
        <ele>879</ele>
        <time>2024-03-05T15:38:28Z</time>
      </trkpt>
      <trkpt lat="48.60449" lon="7.28351">
        <ele>880</ele>
        <time>2024-03-05T15:38:30Z</time>
      </trkpt>
      <trkpt lat="48.60448" lon="7.28353">
        <ele>880.4</ele>
        <time>2024-03-05T15:38:31Z</time>
      </trkpt>
      <trkpt lat="48.60447" lon="7.28355">
        <ele>881</ele>
        <time>2024-03-05T15:38:32Z</time>
      </trkpt>
      <trkpt lat="48.60447" lon="7.28358">
        <ele>881</ele>
        <time>2024-03-05T15:38:33Z</time>
      </trkpt>
      <trkpt lat="48.60447" lon="7.2836">
        <ele>881.6</ele>
        <time>2024-03-05T15:38:34Z</time>
      </trkpt>
      <trkpt lat="48.60445" lon="7.28361">
        <ele>882.1</ele>
        <time>2024-03-05T15:38:35Z</time>
      </trkpt>
      <trkpt lat="48.60445" lon="7.28363">
        <ele>882.1</ele>
        <time>2024-03-05T15:38:36Z</time>
      </trkpt>
      <trkpt lat="48.60444" lon="7.28364">
        <ele>882.7</ele>
        <time>2024-03-05T15:38:37Z</time>
      </trkpt>
      <trkpt lat="48.60443" lon="7.28367">
        <ele>882.6</ele>
        <time>2024-03-05T15:38:38Z</time>
      </trkpt>
      <trkpt lat="48.60443" lon="7.28367">
        <ele>882.6</ele>
        <time>2024-03-05T15:38:39Z</time>
      </trkpt>
      <trkpt lat="48.60442" lon="7.28368">
        <ele>883.7</ele>
        <time>2024-03-05T15:38:40Z</time>
      </trkpt>
      <trkpt lat="48.60442" lon="7.2837">
        <ele>883.6</ele>
        <time>2024-03-05T15:38:41Z</time>
      </trkpt>
      <trkpt lat="48.60441" lon="7.28372">
        <ele>883.6</ele>
        <time>2024-03-05T15:38:43Z</time>
      </trkpt>
      <trkpt lat="48.6044" lon="7.28374">
        <ele>884.1</ele>
        <time>2024-03-05T15:38:44Z</time>
      </trkpt>
      <trkpt lat="48.6044" lon="7.28376">
        <ele>884.1</ele>
        <time>2024-03-05T15:38:45Z</time>
      </trkpt>
      <trkpt lat="48.60438" lon="7.2838">
        <ele>885</ele>
        <time>2024-03-05T15:38:46Z</time>
      </trkpt>
      <trkpt lat="48.60437" lon="7.28382">
        <ele>885.5</ele>
        <time>2024-03-05T15:38:47Z</time>
      </trkpt>
      <trkpt lat="48.60434" lon="7.28387">
        <ele>886.3</ele>
        <time>2024-03-05T15:38:48Z</time>
      </trkpt>
      <trkpt lat="48.60432" lon="7.28391">
        <ele>887</ele>
        <time>2024-03-05T15:38:49Z</time>
      </trkpt>
      <trkpt lat="48.6043" lon="7.28396">
        <ele>888</ele>
        <time>2024-03-05T15:38:50Z</time>
      </trkpt>
      <trkpt lat="48.60429" lon="7.28397">
        <ele>888</ele>
        <time>2024-03-05T15:38:51Z</time>
      </trkpt>
      <trkpt lat="48.60427" lon="7.28399">
        <ele>888.8</ele>
        <time>2024-03-05T15:38:52Z</time>
      </trkpt>
      <trkpt lat="48.60426" lon="7.284">
        <ele>888.8</ele>
        <time>2024-03-05T15:38:53Z</time>
      </trkpt>
      <trkpt lat="48.60425" lon="7.284">
        <ele>889.1</ele>
        <time>2024-03-05T15:38:54Z</time>
      </trkpt>
      <trkpt lat="48.60424" lon="7.28398">
        <ele>889.1</ele>
        <time>2024-03-05T15:38:55Z</time>
      </trkpt>
      <trkpt lat="48.60424" lon="7.28398">
        <ele>889</ele>
        <time>2024-03-05T15:38:56Z</time>
      </trkpt>
      <trkpt lat="48.60422" lon="7.28405">
        <ele>889.9</ele>
        <time>2024-03-05T15:38:57Z</time>
      </trkpt>
      <trkpt lat="48.60422" lon="7.28408">
        <ele>890.5</ele>
        <time>2024-03-05T15:38:58Z</time>
      </trkpt>
      <trkpt lat="48.6042" lon="7.28411">
        <ele>891.1</ele>
        <time>2024-03-05T15:38:59Z</time>
      </trkpt>
      <trkpt lat="48.60419" lon="7.28414">
        <ele>891.4</ele>
        <time>2024-03-05T15:39:00Z</time>
      </trkpt>
      <trkpt lat="48.60418" lon="7.28415">
        <ele>892</ele>
        <time>2024-03-05T15:39:01Z</time>
      </trkpt>
      <trkpt lat="48.60416" lon="7.28419">
        <ele>892.3</ele>
        <time>2024-03-05T15:39:02Z</time>
      </trkpt>
      <trkpt lat="48.60415" lon="7.2842">
        <ele>892.9</ele>
        <time>2024-03-05T15:39:03Z</time>
      </trkpt>
      <trkpt lat="48.60415" lon="7.28421">
        <ele>892.9</ele>
        <time>2024-03-05T15:39:04Z</time>
      </trkpt>
      <trkpt lat="48.60415" lon="7.28423">
        <ele>892.8</ele>
        <time>2024-03-05T15:39:05Z</time>
      </trkpt>
      <trkpt lat="48.60414" lon="7.28424">
        <ele>893.7</ele>
        <time>2024-03-05T15:39:06Z</time>
      </trkpt>
      <trkpt lat="48.60414" lon="7.28427">
        <ele>893.7</ele>
        <time>2024-03-05T15:39:07Z</time>
      </trkpt>
      <trkpt lat="48.60413" lon="7.2843">
        <ele>894.3</ele>
        <time>2024-03-05T15:39:08Z</time>
      </trkpt>
      <trkpt lat="48.60412" lon="7.28432">
        <ele>894.3</ele>
        <time>2024-03-05T15:39:09Z</time>
      </trkpt>
      <trkpt lat="48.60411" lon="7.28434">
        <ele>894.6</ele>
        <time>2024-03-05T15:39:10Z</time>
      </trkpt>
      <trkpt lat="48.60409" lon="7.28435">
        <ele>895.2</ele>
        <time>2024-03-05T15:39:11Z</time>
      </trkpt>
      <trkpt lat="48.60408" lon="7.28436">
        <ele>895.4</ele>
        <time>2024-03-05T15:39:12Z</time>
      </trkpt>
      <trkpt lat="48.60406" lon="7.2844">
        <ele>896.1</ele>
        <time>2024-03-05T15:39:13Z</time>
      </trkpt>
      <trkpt lat="48.60405" lon="7.28441">
        <ele>896.3</ele>
        <time>2024-03-05T15:39:14Z</time>
      </trkpt>
      <trkpt lat="48.60403" lon="7.28444">
        <ele>896.9</ele>
        <time>2024-03-05T15:39:15Z</time>
      </trkpt>
      <trkpt lat="48.60402" lon="7.28445">
        <ele>897.2</ele>
        <time>2024-03-05T15:39:16Z</time>
      </trkpt>
      <trkpt lat="48.604" lon="7.28449">
        <ele>897.9</ele>
        <time>2024-03-05T15:39:17Z</time>
      </trkpt>
      <trkpt lat="48.60399" lon="7.2845">
        <ele>898.1</ele>
        <time>2024-03-05T15:39:18Z</time>
      </trkpt>
      <trkpt lat="48.60397" lon="7.28454">
        <ele>898.9</ele>
        <time>2024-03-05T15:39:20Z</time>
      </trkpt>
      <trkpt lat="48.60396" lon="7.28454">
        <ele>899</ele>
        <time>2024-03-05T15:39:21Z</time>
      </trkpt>
      <trkpt lat="48.60395" lon="7.28456">
        <ele>899.3</ele>
        <time>2024-03-05T15:39:22Z</time>
      </trkpt>
      <trkpt lat="48.60394" lon="7.28457">
        <ele>899.6</ele>
        <time>2024-03-05T15:39:23Z</time>
      </trkpt>
      <trkpt lat="48.60394" lon="7.28458">
        <ele>899.7</ele>
        <time>2024-03-05T15:39:24Z</time>
      </trkpt>
      <trkpt lat="48.60393" lon="7.28461">
        <ele>900.1</ele>
        <time>2024-03-05T15:39:25Z</time>
      </trkpt>
      <trkpt lat="48.60392" lon="7.28463">
        <ele>900.4</ele>
        <time>2024-03-05T15:39:26Z</time>
      </trkpt>
      <trkpt lat="48.60391" lon="7.28465">
        <ele>900.7</ele>
        <time>2024-03-05T15:39:27Z</time>
      </trkpt>
      <trkpt lat="48.6039" lon="7.28468">
        <ele>901.2</ele>
        <time>2024-03-05T15:39:28Z</time>
      </trkpt>
      <trkpt lat="48.60388" lon="7.2847">
        <ele>901.7</ele>
        <time>2024-03-05T15:39:30Z</time>
      </trkpt>
      <trkpt lat="48.60387" lon="7.28472">
        <ele>902</ele>
        <time>2024-03-05T15:39:31Z</time>
      </trkpt>
      <trkpt lat="48.60386" lon="7.28474">
        <ele>902.3</ele>
        <time>2024-03-05T15:39:32Z</time>
      </trkpt>
      <trkpt lat="48.60384" lon="7.28477">
        <ele>902.8</ele>
        <time>2024-03-05T15:39:34Z</time>
      </trkpt>
      <trkpt lat="48.60383" lon="7.28479">
        <ele>903.1</ele>
        <time>2024-03-05T15:39:35Z</time>
      </trkpt>
      <trkpt lat="48.60382" lon="7.2848">
        <ele>903.3</ele>
        <time>2024-03-05T15:39:36Z</time>
      </trkpt>
      <trkpt lat="48.60381" lon="7.28481">
        <ele>903.4</ele>
        <time>2024-03-05T15:39:37Z</time>
      </trkpt>
      <trkpt lat="48.60381" lon="7.28482">
        <ele>903.6</ele>
        <time>2024-03-05T15:39:38Z</time>
      </trkpt>
      <trkpt lat="48.6038" lon="7.28484">
        <ele>903.8</ele>
        <time>2024-03-05T15:39:39Z</time>
      </trkpt>
      <trkpt lat="48.60378" lon="7.28487">
        <ele>904.3</ele>
        <time>2024-03-05T15:39:40Z</time>
      </trkpt>
      <trkpt lat="48.60378" lon="7.28488">
        <ele>904.4</ele>
        <time>2024-03-05T15:39:41Z</time>
      </trkpt>
      <trkpt lat="48.60377" lon="7.2849">
        <ele>904.6</ele>
        <time>2024-03-05T15:39:42Z</time>
      </trkpt>
      <trkpt lat="48.60376" lon="7.28491">
        <ele>904.7</ele>
        <time>2024-03-05T15:39:43Z</time>
      </trkpt>
      <trkpt lat="48.60376" lon="7.28492">
        <ele>905</ele>
        <time>2024-03-05T15:39:44Z</time>
      </trkpt>
      <trkpt lat="48.60375" lon="7.28495">
        <ele>905.2</ele>
        <time>2024-03-05T15:39:45Z</time>
      </trkpt>
      <trkpt lat="48.60374" lon="7.28496">
        <ele>905.4</ele>
        <time>2024-03-05T15:39:46Z</time>
      </trkpt>
      <trkpt lat="48.60374" lon="7.28497">
        <ele>905.6</ele>
        <time>2024-03-05T15:39:47Z</time>
      </trkpt>
      <trkpt lat="48.60373" lon="7.28499">
        <ele>905.7</ele>
        <time>2024-03-05T15:39:48Z</time>
      </trkpt>
      <trkpt lat="48.60371" lon="7.28505">
        <ele>906.5</ele>
        <time>2024-03-05T15:39:50Z</time>
      </trkpt>
      <trkpt lat="48.6037" lon="7.28507">
        <ele>906.7</ele>
        <time>2024-03-05T15:39:51Z</time>
      </trkpt>
      <trkpt lat="48.6037" lon="7.28508">
        <ele>906.9</ele>
        <time>2024-03-05T15:39:52Z</time>
      </trkpt>
      <trkpt lat="48.60369" lon="7.2851">
        <ele>907.2</ele>
        <time>2024-03-05T15:39:53Z</time>
      </trkpt>
      <trkpt lat="48.60367" lon="7.28511">
        <ele>907.5</ele>
        <time>2024-03-05T15:39:54Z</time>
      </trkpt>
      <trkpt lat="48.60364" lon="7.28514">
        <ele>908.1</ele>
        <time>2024-03-05T15:39:55Z</time>
      </trkpt>
      <trkpt lat="48.60362" lon="7.28517">
        <ele>908.6</ele>
        <time>2024-03-05T15:39:56Z</time>
      </trkpt>
      <trkpt lat="48.6036" lon="7.28521">
        <ele>909.2</ele>
        <time>2024-03-05T15:39:57Z</time>
      </trkpt>
      <trkpt lat="48.60359" lon="7.28522">
        <ele>909.3</ele>
        <time>2024-03-05T15:39:58Z</time>
      </trkpt>
      <trkpt lat="48.60356" lon="7.28525">
        <ele>910.1</ele>
        <time>2024-03-05T15:39:59Z</time>
      </trkpt>
      <trkpt lat="48.60354" lon="7.28526">
        <ele>910.4</ele>
        <time>2024-03-05T15:40:00Z</time>
      </trkpt>
      <trkpt lat="48.60353" lon="7.28528">
        <ele>910.7</ele>
        <time>2024-03-05T15:40:02Z</time>
      </trkpt>
      <trkpt lat="48.60353" lon="7.28528">
        <ele>910.8</ele>
        <time>2024-03-05T15:40:03Z</time>
      </trkpt>
      <trkpt lat="48.60353" lon="7.28529">
        <ele>910.9</ele>
        <time>2024-03-05T15:40:04Z</time>
      </trkpt>
      <trkpt lat="48.60352" lon="7.28529">
        <ele>911</ele>
        <time>2024-03-05T15:40:05Z</time>
      </trkpt>
      <trkpt lat="48.60353" lon="7.28528">
        <ele>911.1</ele>
        <time>2024-03-05T15:40:06Z</time>
      </trkpt>
      <trkpt lat="48.60355" lon="7.28526">
        <ele>911.7</ele>
        <time>2024-03-05T15:40:07Z</time>
      </trkpt>
      <trkpt lat="48.60353" lon="7.2853">
        <ele>912.3</ele>
        <time>2024-03-05T15:40:08Z</time>
      </trkpt>
      <trkpt lat="48.60352" lon="7.28531">
        <ele>912.7</ele>
        <time>2024-03-05T15:40:09Z</time>
      </trkpt>
      <trkpt lat="48.6035" lon="7.28536">
        <ele>913.5</ele>
        <time>2024-03-05T15:40:11Z</time>
      </trkpt>
      <trkpt lat="48.6035" lon="7.28537">
        <ele>913.6</ele>
        <time>2024-03-05T15:40:12Z</time>
      </trkpt>
      <trkpt lat="48.60349" lon="7.28539">
        <ele>914</ele>
        <time>2024-03-05T15:40:13Z</time>
      </trkpt>
      <trkpt lat="48.60348" lon="7.28541">
        <ele>914.4</ele>
        <time>2024-03-05T15:40:14Z</time>
      </trkpt>
      <trkpt lat="48.60346" lon="7.28543">
        <ele>915</ele>
        <time>2024-03-05T15:40:15Z</time>
      </trkpt>
      <trkpt lat="48.60343" lon="7.28546">
        <ele>916</ele>
        <time>2024-03-05T15:40:17Z</time>
      </trkpt>
      <trkpt lat="48.60339" lon="7.28547">
        <ele>917</ele>
        <time>2024-03-05T15:40:18Z</time>
      </trkpt>
      <trkpt lat="48.60338" lon="7.28548">
        <ele>917.3</ele>
        <time>2024-03-05T15:40:19Z</time>
      </trkpt>
      <trkpt lat="48.60337" lon="7.2855">
        <ele>917.7</ele>
        <time>2024-03-05T15:40:20Z</time>
      </trkpt>
      <trkpt lat="48.60336" lon="7.28553">
        <ele>918.4</ele>
        <time>2024-03-05T15:40:22Z</time>
      </trkpt>
      <trkpt lat="48.60336" lon="7.28555">
        <ele>918.8</ele>
        <time>2024-03-05T15:40:23Z</time>
      </trkpt>
      <trkpt lat="48.60336" lon="7.28558">
        <ele>919.3</ele>
        <time>2024-03-05T15:40:24Z</time>
      </trkpt>
      <trkpt lat="48.60336" lon="7.2856">
        <ele>919.7</ele>
        <time>2024-03-05T15:40:25Z</time>
      </trkpt>
      <trkpt lat="48.60335" lon="7.28562">
        <ele>920.1</ele>
        <time>2024-03-05T15:40:26Z</time>
      </trkpt>
      <trkpt lat="48.60335" lon="7.2856">
        <ele>920.5</ele>
        <time>2024-03-05T15:40:27Z</time>
      </trkpt>
      <trkpt lat="48.60335" lon="7.28558">
        <ele>920.7</ele>
        <time>2024-03-05T15:40:29Z</time>
      </trkpt>
      <trkpt lat="48.60334" lon="7.28558">
        <ele>920.9</ele>
        <time>2024-03-05T15:40:30Z</time>
      </trkpt>
      <trkpt lat="48.60334" lon="7.28559">
        <ele>921.2</ele>
        <time>2024-03-05T15:40:31Z</time>
      </trkpt>
      <trkpt lat="48.60333" lon="7.2856">
        <ele>921.4</ele>
        <time>2024-03-05T15:40:32Z</time>
      </trkpt>
      <trkpt lat="48.60333" lon="7.28561">
        <ele>921.8</ele>
        <time>2024-03-05T15:40:33Z</time>
      </trkpt>
      <trkpt lat="48.60332" lon="7.28561">
        <ele>922.1</ele>
        <time>2024-03-05T15:40:34Z</time>
      </trkpt>
      <trkpt lat="48.60331" lon="7.28563">
        <ele>922.5</ele>
        <time>2024-03-05T15:40:35Z</time>
      </trkpt>
      <trkpt lat="48.6033" lon="7.28565">
        <ele>923</ele>
        <time>2024-03-05T15:40:36Z</time>
      </trkpt>
      <trkpt lat="48.60329" lon="7.28566">
        <ele>923.4</ele>
        <time>2024-03-05T15:40:37Z</time>
      </trkpt>
      <trkpt lat="48.60328" lon="7.28568">
        <ele>923.9</ele>
        <time>2024-03-05T15:40:38Z</time>
      </trkpt>
      <trkpt lat="48.60327" lon="7.2857">
        <ele>924.3</ele>
        <time>2024-03-05T15:40:39Z</time>
      </trkpt>
      <trkpt lat="48.60326" lon="7.28572">
        <ele>924.9</ele>
        <time>2024-03-05T15:40:40Z</time>
      </trkpt>
      <trkpt lat="48.60325" lon="7.28574">
        <ele>925.4</ele>
        <time>2024-03-05T15:40:41Z</time>
      </trkpt>
      <trkpt lat="48.60324" lon="7.28578">
        <ele>926.2</ele>
        <time>2024-03-05T15:40:42Z</time>
      </trkpt>
      <trkpt lat="48.60323" lon="7.28579">
        <ele>926.5</ele>
        <time>2024-03-05T15:40:43Z</time>
      </trkpt>
      <trkpt lat="48.60322" lon="7.28583">
        <ele>927.4</ele>
        <time>2024-03-05T15:40:44Z</time>
      </trkpt>
      <trkpt lat="48.60321" lon="7.28585">
        <ele>927.8</ele>
        <time>2024-03-05T15:40:45Z</time>
      </trkpt>
      <trkpt lat="48.6032" lon="7.28588">
        <ele>928.3</ele>
        <time>2024-03-05T15:40:46Z</time>
      </trkpt>
      <trkpt lat="48.6032" lon="7.2859">
        <ele>928.7</ele>
        <time>2024-03-05T15:40:47Z</time>
      </trkpt>
      <trkpt lat="48.60319" lon="7.28591">
        <ele>929.1</ele>
        <time>2024-03-05T15:40:48Z</time>
      </trkpt>
      <trkpt lat="48.60318" lon="7.28593">
        <ele>929.4</ele>
        <time>2024-03-05T15:40:49Z</time>
      </trkpt>
      <trkpt lat="48.60318" lon="7.28594">
        <ele>929.6</ele>
        <time>2024-03-05T15:40:50Z</time>
      </trkpt>
      <trkpt lat="48.60316" lon="7.28595">
        <ele>930</ele>
        <time>2024-03-05T15:40:51Z</time>
      </trkpt>
      <trkpt lat="48.60315" lon="7.28597">
        <ele>930.5</ele>
        <time>2024-03-05T15:40:52Z</time>
      </trkpt>
      <trkpt lat="48.60313" lon="7.28599">
        <ele>931.3</ele>
        <time>2024-03-05T15:40:53Z</time>
      </trkpt>
      <trkpt lat="48.60312" lon="7.286">
        <ele>931.6</ele>
        <time>2024-03-05T15:40:54Z</time>
      </trkpt>
      <trkpt lat="48.60311" lon="7.28601">
        <ele>931.8</ele>
        <time>2024-03-05T15:40:55Z</time>
      </trkpt>
      <trkpt lat="48.6031" lon="7.28602">
        <ele>932.1</ele>
        <time>2024-03-05T15:40:56Z</time>
      </trkpt>
      <trkpt lat="48.6031" lon="7.28601">
        <ele>932.1</ele>
        <time>2024-03-05T15:40:57Z</time>
      </trkpt>
      <trkpt lat="48.60311" lon="7.28595">
        <ele>933.1</ele>
        <time>2024-03-05T15:40:58Z</time>
      </trkpt>
      <trkpt lat="48.60309" lon="7.28598">
        <ele>933.9</ele>
        <time>2024-03-05T15:40:59Z</time>
      </trkpt>
      <trkpt lat="48.60307" lon="7.286">
        <ele>934.3</ele>
        <time>2024-03-05T15:41:00Z</time>
      </trkpt>
      <trkpt lat="48.60303" lon="7.28604">
        <ele>935.5</ele>
        <time>2024-03-05T15:41:02Z</time>
      </trkpt>
      <trkpt lat="48.60301" lon="7.28606">
        <ele>936.1</ele>
        <time>2024-03-05T15:41:03Z</time>
      </trkpt>
      <trkpt lat="48.60299" lon="7.28609">
        <ele>936.7</ele>
        <time>2024-03-05T15:41:04Z</time>
      </trkpt>
      <trkpt lat="48.60298" lon="7.28609">
        <ele>936.9</ele>
        <time>2024-03-05T15:41:05Z</time>
      </trkpt>
      <trkpt lat="48.60296" lon="7.2861">
        <ele>937.2</ele>
        <time>2024-03-05T15:41:06Z</time>
      </trkpt>
      <trkpt lat="48.60295" lon="7.28611">
        <ele>937.6</ele>
        <time>2024-03-05T15:41:07Z</time>
      </trkpt>
      <trkpt lat="48.60293" lon="7.28615">
        <ele>938.2</ele>
        <time>2024-03-05T15:41:08Z</time>
      </trkpt>
      <trkpt lat="48.60292" lon="7.28616">
        <ele>938.4</ele>
        <time>2024-03-05T15:41:09Z</time>
      </trkpt>
      <trkpt lat="48.60292" lon="7.28621">
        <ele>939</ele>
        <time>2024-03-05T15:41:10Z</time>
      </trkpt>
      <trkpt lat="48.60292" lon="7.28623">
        <ele>939.2</ele>
        <time>2024-03-05T15:41:11Z</time>
      </trkpt>
      <trkpt lat="48.60292" lon="7.28625">
        <ele>939.5</ele>
        <time>2024-03-05T15:41:12Z</time>
      </trkpt>
      <trkpt lat="48.60291" lon="7.28628">
        <ele>939.8</ele>
        <time>2024-03-05T15:41:13Z</time>
      </trkpt>
      <trkpt lat="48.60291" lon="7.28629">
        <ele>939.9</ele>
        <time>2024-03-05T15:41:14Z</time>
      </trkpt>
      <trkpt lat="48.60291" lon="7.28629">
        <ele>940</ele>
        <time>2024-03-05T15:41:15Z</time>
      </trkpt>
      <trkpt lat="48.60292" lon="7.28629">
        <ele>940.1</ele>
        <time>2024-03-05T15:41:16Z</time>
      </trkpt>
      <trkpt lat="48.60292" lon="7.2863">
        <ele>940.2</ele>
        <time>2024-03-05T15:41:17Z</time>
      </trkpt>
      <trkpt lat="48.60291" lon="7.28631">
        <ele>940.3</ele>
        <time>2024-03-05T15:41:18Z</time>
      </trkpt>
      <trkpt lat="48.6029" lon="7.28634">
        <ele>940.7</ele>
        <time>2024-03-05T15:41:20Z</time>
      </trkpt>
      <trkpt lat="48.60289" lon="7.28636">
        <ele>940.9</ele>
        <time>2024-03-05T15:41:21Z</time>
      </trkpt>
      <trkpt lat="48.60288" lon="7.28638">
        <ele>941.2</ele>
        <time>2024-03-05T15:41:22Z</time>
      </trkpt>
      <trkpt lat="48.60287" lon="7.28642">
        <ele>941.5</ele>
        <time>2024-03-05T15:41:23Z</time>
      </trkpt>
      <trkpt lat="48.60286" lon="7.28643">
        <ele>941.7</ele>
        <time>2024-03-05T15:41:24Z</time>
      </trkpt>
      <trkpt lat="48.60286" lon="7.28644">
        <ele>941.8</ele>
        <time>2024-03-05T15:41:25Z</time>
      </trkpt>
      <trkpt lat="48.60283" lon="7.28648">
        <ele>942.2</ele>
        <time>2024-03-05T15:41:26Z</time>
      </trkpt>
      <trkpt lat="48.60282" lon="7.28648">
        <ele>942.4</ele>
        <time>2024-03-05T15:41:27Z</time>
      </trkpt>
      <trkpt lat="48.6028" lon="7.28648">
        <ele>942.7</ele>
        <time>2024-03-05T15:41:28Z</time>
      </trkpt>
      <trkpt lat="48.60277" lon="7.28648">
        <ele>943</ele>
        <time>2024-03-05T15:41:30Z</time>
      </trkpt>
      <trkpt lat="48.60276" lon="7.28648">
        <ele>943.2</ele>
        <time>2024-03-05T15:41:31Z</time>
      </trkpt>
      <trkpt lat="48.60275" lon="7.2865">
        <ele>943.4</ele>
        <time>2024-03-05T15:41:32Z</time>
      </trkpt>
      <trkpt lat="48.60273" lon="7.2865">
        <ele>943.7</ele>
        <time>2024-03-05T15:41:33Z</time>
      </trkpt>
      <trkpt lat="48.60272" lon="7.2865">
        <ele>943.8</ele>
        <time>2024-03-05T15:41:34Z</time>
      </trkpt>
      <trkpt lat="48.60271" lon="7.2865">
        <ele>943.9</ele>
        <time>2024-03-05T15:41:35Z</time>
      </trkpt>
      <trkpt lat="48.6027" lon="7.28651">
        <ele>944</ele>
        <time>2024-03-05T15:41:36Z</time>
      </trkpt>
      <trkpt lat="48.60269" lon="7.28653">
        <ele>944.2</ele>
        <time>2024-03-05T15:41:37Z</time>
      </trkpt>
      <trkpt lat="48.60266" lon="7.28656">
        <ele>944.6</ele>
        <time>2024-03-05T15:41:38Z</time>
      </trkpt>
      <trkpt lat="48.60265" lon="7.28657">
        <ele>944.8</ele>
        <time>2024-03-05T15:41:39Z</time>
      </trkpt>
      <trkpt lat="48.60263" lon="7.2866">
        <ele>945.1</ele>
        <time>2024-03-05T15:41:40Z</time>
      </trkpt>
      <trkpt lat="48.60262" lon="7.28661">
        <ele>945.3</ele>
        <time>2024-03-05T15:41:41Z</time>
      </trkpt>
      <trkpt lat="48.6026" lon="7.28662">
        <ele>945.5</ele>
        <time>2024-03-05T15:41:42Z</time>
      </trkpt>
      <trkpt lat="48.60258" lon="7.28665">
        <ele>945.9</ele>
        <time>2024-03-05T15:41:43Z</time>
      </trkpt>
      <trkpt lat="48.60256" lon="7.28665">
        <ele>946</ele>
        <time>2024-03-05T15:41:44Z</time>
      </trkpt>
      <trkpt lat="48.60253" lon="7.28668">
        <ele>946.5</ele>
        <time>2024-03-05T15:41:46Z</time>
      </trkpt>
      <trkpt lat="48.60251" lon="7.28668">
        <ele>946.7</ele>
        <time>2024-03-05T15:41:47Z</time>
      </trkpt>
      <trkpt lat="48.6025" lon="7.28669">
        <ele>946.8</ele>
        <time>2024-03-05T15:41:48Z</time>
      </trkpt>
      <trkpt lat="48.60247" lon="7.28671">
        <ele>947.1</ele>
        <time>2024-03-05T15:41:49Z</time>
      </trkpt>
      <trkpt lat="48.60246" lon="7.28672">
        <ele>947.2</ele>
        <time>2024-03-05T15:41:50Z</time>
      </trkpt>
      <trkpt lat="48.60244" lon="7.28674">
        <ele>947.6</ele>
        <time>2024-03-05T15:41:51Z</time>
      </trkpt>
      <trkpt lat="48.60243" lon="7.28675">
        <ele>947.6</ele>
        <time>2024-03-05T15:41:52Z</time>
      </trkpt>
      <trkpt lat="48.60241" lon="7.28676">
        <ele>947.8</ele>
        <time>2024-03-05T15:41:53Z</time>
      </trkpt>
      <trkpt lat="48.60241" lon="7.28678">
        <ele>948</ele>
        <time>2024-03-05T15:41:54Z</time>
      </trkpt>
      <trkpt lat="48.60239" lon="7.28679">
        <ele>948.2</ele>
        <time>2024-03-05T15:41:55Z</time>
      </trkpt>
      <trkpt lat="48.60237" lon="7.2868">
        <ele>948.3</ele>
        <time>2024-03-05T15:41:56Z</time>
      </trkpt>
      <trkpt lat="48.60236" lon="7.2868">
        <ele>948.5</ele>
        <time>2024-03-05T15:41:57Z</time>
      </trkpt>
      <trkpt lat="48.60232" lon="7.28681">
        <ele>948.9</ele>
        <time>2024-03-05T15:41:58Z</time>
      </trkpt>
      <trkpt lat="48.6023" lon="7.28683">
        <ele>949.2</ele>
        <time>2024-03-05T15:41:59Z</time>
      </trkpt>
      <trkpt lat="48.60227" lon="7.28685">
        <ele>949.5</ele>
        <time>2024-03-05T15:42:00Z</time>
      </trkpt>
      <trkpt lat="48.60223" lon="7.28687">
        <ele>949.9</ele>
        <time>2024-03-05T15:42:02Z</time>
      </trkpt>
      <trkpt lat="48.60222" lon="7.28687">
        <ele>950</ele>
        <time>2024-03-05T15:42:03Z</time>
      </trkpt>
      <trkpt lat="48.6022" lon="7.28688">
        <ele>950.1</ele>
        <time>2024-03-05T15:42:04Z</time>
      </trkpt>
      <trkpt lat="48.60217" lon="7.28688">
        <ele>950.4</ele>
        <time>2024-03-05T15:42:05Z</time>
      </trkpt>
      <trkpt lat="48.60216" lon="7.28689">
        <ele>950.5</ele>
        <time>2024-03-05T15:42:06Z</time>
      </trkpt>
      <trkpt lat="48.60213" lon="7.28689">
        <ele>950.9</ele>
        <time>2024-03-05T15:42:07Z</time>
      </trkpt>
      <trkpt lat="48.60211" lon="7.2869">
        <ele>951</ele>
        <time>2024-03-05T15:42:08Z</time>
      </trkpt>
      <trkpt lat="48.60209" lon="7.28693">
        <ele>951.3</ele>
        <time>2024-03-05T15:42:09Z</time>
      </trkpt>
      <trkpt lat="48.60205" lon="7.28695">
        <ele>951.6</ele>
        <time>2024-03-05T15:42:10Z</time>
      </trkpt>
      <trkpt lat="48.60204" lon="7.28696">
        <ele>951.7</ele>
        <time>2024-03-05T15:42:11Z</time>
      </trkpt>
      <trkpt lat="48.60202" lon="7.28698">
        <ele>952</ele>
        <time>2024-03-05T15:42:12Z</time>
      </trkpt>
      <trkpt lat="48.60201" lon="7.28698">
        <ele>952.1</ele>
        <time>2024-03-05T15:42:13Z</time>
      </trkpt>
      <trkpt lat="48.60198" lon="7.28697">
        <ele>952.3</ele>
        <time>2024-03-05T15:42:14Z</time>
      </trkpt>
      <trkpt lat="48.60197" lon="7.28697">
        <ele>952.4</ele>
        <time>2024-03-05T15:42:15Z</time>
      </trkpt>
      <trkpt lat="48.60194" lon="7.28697">
        <ele>952.6</ele>
        <time>2024-03-05T15:42:16Z</time>
      </trkpt>
      <trkpt lat="48.60192" lon="7.28697">
        <ele>952.7</ele>
        <time>2024-03-05T15:42:17Z</time>
      </trkpt>
      <trkpt lat="48.6019" lon="7.28698">
        <ele>952.9</ele>
        <time>2024-03-05T15:42:18Z</time>
      </trkpt>
      <trkpt lat="48.60187" lon="7.28699">
        <ele>953.2</ele>
        <time>2024-03-05T15:42:19Z</time>
      </trkpt>
      <trkpt lat="48.60183" lon="7.287">
        <ele>953.4</ele>
        <time>2024-03-05T15:42:20Z</time>
      </trkpt>
      <trkpt lat="48.60182" lon="7.287">
        <ele>953.5</ele>
        <time>2024-03-05T15:42:21Z</time>
      </trkpt>
      <trkpt lat="48.60179" lon="7.287">
        <ele>953.7</ele>
        <time>2024-03-05T15:42:22Z</time>
      </trkpt>
      <trkpt lat="48.60178" lon="7.287">
        <ele>953.8</ele>
        <time>2024-03-05T15:42:23Z</time>
      </trkpt>
      <trkpt lat="48.60174" lon="7.28701">
        <ele>954.1</ele>
        <time>2024-03-05T15:42:24Z</time>
      </trkpt>
      <trkpt lat="48.60173" lon="7.28701">
        <ele>954.1</ele>
        <time>2024-03-05T15:42:25Z</time>
      </trkpt>
      <trkpt lat="48.6017" lon="7.28702">
        <ele>954.3</ele>
        <time>2024-03-05T15:42:26Z</time>
      </trkpt>
      <trkpt lat="48.60166" lon="7.28704">
        <ele>954.5</ele>
        <time>2024-03-05T15:42:27Z</time>
      </trkpt>
      <trkpt lat="48.60165" lon="7.28705">
        <ele>954.6</ele>
        <time>2024-03-05T15:42:28Z</time>
      </trkpt>
      <trkpt lat="48.60162" lon="7.28707">
        <ele>954.7</ele>
        <time>2024-03-05T15:42:29Z</time>
      </trkpt>
      <trkpt lat="48.6016" lon="7.28708">
        <ele>954.8</ele>
        <time>2024-03-05T15:42:30Z</time>
      </trkpt>
      <trkpt lat="48.60158" lon="7.28708">
        <ele>954.9</ele>
        <time>2024-03-05T15:42:31Z</time>
      </trkpt>
      <trkpt lat="48.60154" lon="7.28708">
        <ele>955</ele>
        <time>2024-03-05T15:42:32Z</time>
      </trkpt>
      <trkpt lat="48.60153" lon="7.28708">
        <ele>955.1</ele>
        <time>2024-03-05T15:42:33Z</time>
      </trkpt>
      <trkpt lat="48.60149" lon="7.28705">
        <ele>955.2</ele>
        <time>2024-03-05T15:42:34Z</time>
      </trkpt>
      <trkpt lat="48.60148" lon="7.28704">
        <ele>955.2</ele>
        <time>2024-03-05T15:42:35Z</time>
      </trkpt>
      <trkpt lat="48.60145" lon="7.28703">
        <ele>955.4</ele>
        <time>2024-03-05T15:42:36Z</time>
      </trkpt>
      <trkpt lat="48.60143" lon="7.28703">
        <ele>955.5</ele>
        <time>2024-03-05T15:42:37Z</time>
      </trkpt>
      <trkpt lat="48.60139" lon="7.28701">
        <ele>955.7</ele>
        <time>2024-03-05T15:42:38Z</time>
      </trkpt>
      <trkpt lat="48.60138" lon="7.287">
        <ele>955.7</ele>
        <time>2024-03-05T15:42:39Z</time>
      </trkpt>
      <trkpt lat="48.60136" lon="7.28696">
        <ele>955.6</ele>
        <time>2024-03-05T15:42:40Z</time>
      </trkpt>
      <trkpt lat="48.60135" lon="7.28695">
        <ele>955.6</ele>
        <time>2024-03-05T15:42:41Z</time>
      </trkpt>
      <trkpt lat="48.60134" lon="7.28691">
        <ele>955.6</ele>
        <time>2024-03-05T15:42:42Z</time>
      </trkpt>
      <trkpt lat="48.60133" lon="7.28687">
        <ele>955.6</ele>
        <time>2024-03-05T15:42:43Z</time>
      </trkpt>
      <trkpt lat="48.6013" lon="7.28685">
        <ele>955.6</ele>
        <time>2024-03-05T15:42:44Z</time>
      </trkpt>
      <trkpt lat="48.60129" lon="7.28684">
        <ele>955.6</ele>
        <time>2024-03-05T15:42:45Z</time>
      </trkpt>
      <trkpt lat="48.60127" lon="7.28684">
        <ele>955.5</ele>
        <time>2024-03-05T15:42:46Z</time>
      </trkpt>
      <trkpt lat="48.60126" lon="7.28684">
        <ele>955.5</ele>
        <time>2024-03-05T15:42:47Z</time>
      </trkpt>
      <trkpt lat="48.60125" lon="7.28686">
        <ele>955.5</ele>
        <time>2024-03-05T15:42:48Z</time>
      </trkpt>
      <trkpt lat="48.60128" lon="7.28689">
        <ele>955.5</ele>
        <time>2024-03-05T15:42:49Z</time>
      </trkpt>
      <trkpt lat="48.6013" lon="7.28691">
        <ele>955.5</ele>
        <time>2024-03-05T15:42:50Z</time>
      </trkpt>
      <trkpt lat="48.60133" lon="7.28695">
        <ele>955.5</ele>
        <time>2024-03-05T15:42:51Z</time>
      </trkpt>
      <trkpt lat="48.60134" lon="7.28699">
        <ele>955.4</ele>
        <time>2024-03-05T15:42:52Z</time>
      </trkpt>
      <trkpt lat="48.60136" lon="7.28704">
        <ele>955.4</ele>
        <time>2024-03-05T15:42:53Z</time>
      </trkpt>
      <trkpt lat="48.60136" lon="7.28706">
        <ele>955.4</ele>
        <time>2024-03-05T15:42:54Z</time>
      </trkpt>
      <trkpt lat="48.60137" lon="7.28711">
        <ele>955.4</ele>
        <time>2024-03-05T15:42:55Z</time>
      </trkpt>
      <trkpt lat="48.60137" lon="7.28713">
        <ele>955.4</ele>
        <time>2024-03-05T15:42:56Z</time>
      </trkpt>
      <trkpt lat="48.60135" lon="7.28716">
        <ele>955.3</ele>
        <time>2024-03-05T15:42:57Z</time>
      </trkpt>
      <trkpt lat="48.60134" lon="7.28716">
        <ele>955.3</ele>
        <time>2024-03-05T15:42:58Z</time>
      </trkpt>
      <trkpt lat="48.60131" lon="7.28713">
        <ele>955.3</ele>
        <time>2024-03-05T15:42:59Z</time>
      </trkpt>
      <trkpt lat="48.60128" lon="7.2871">
        <ele>955.3</ele>
        <time>2024-03-05T15:43:00Z</time>
      </trkpt>
      <trkpt lat="48.60128" lon="7.28709">
        <ele>955.3</ele>
        <time>2024-03-05T15:43:01Z</time>
      </trkpt>
      <trkpt lat="48.60127" lon="7.28707">
        <ele>955.3</ele>
        <time>2024-03-05T15:43:02Z</time>
      </trkpt>
      <trkpt lat="48.60125" lon="7.28705">
        <ele>955.2</ele>
        <time>2024-03-05T15:43:03Z</time>
      </trkpt>
      <trkpt lat="48.60124" lon="7.28704">
        <ele>955.2</ele>
        <time>2024-03-05T15:43:04Z</time>
      </trkpt>
      <trkpt lat="48.60123" lon="7.28702">
        <ele>955.2</ele>
        <time>2024-03-05T15:43:05Z</time>
      </trkpt>
      <trkpt lat="48.60122" lon="7.287">
        <ele>955.2</ele>
        <time>2024-03-05T15:43:06Z</time>
      </trkpt>
      <trkpt lat="48.60122" lon="7.28699">
        <ele>955.2</ele>
        <time>2024-03-05T15:43:07Z</time>
      </trkpt>
      <trkpt lat="48.60121" lon="7.28698">
        <ele>955.2</ele>
        <time>2024-03-05T15:43:08Z</time>
      </trkpt>
      <trkpt lat="48.60121" lon="7.28695">
        <ele>955.2</ele>
        <time>2024-03-05T15:43:09Z</time>
      </trkpt>
      <trkpt lat="48.6012" lon="7.28694">
        <ele>955.2</ele>
        <time>2024-03-05T15:43:10Z</time>
      </trkpt>
      <trkpt lat="48.60119" lon="7.28691">
        <ele>955.1</ele>
        <time>2024-03-05T15:43:11Z</time>
      </trkpt>
      <trkpt lat="48.60118" lon="7.2869">
        <ele>955.1</ele>
        <time>2024-03-05T15:43:12Z</time>
      </trkpt>
      <trkpt lat="48.60118" lon="7.28689">
        <ele>955.1</ele>
        <time>2024-03-05T15:43:13Z</time>
      </trkpt>
      <trkpt lat="48.60118" lon="7.28687">
        <ele>955.1</ele>
        <time>2024-03-05T15:43:14Z</time>
      </trkpt>
      <trkpt lat="48.60118" lon="7.28685">
        <ele>955.1</ele>
        <time>2024-03-05T15:43:15Z</time>
      </trkpt>
      <trkpt lat="48.6012" lon="7.28685">
        <ele>955.1</ele>
        <time>2024-03-05T15:43:16Z</time>
      </trkpt>
      <trkpt lat="48.60121" lon="7.28688">
        <ele>955</ele>
        <time>2024-03-05T15:47:51Z</time>
      </trkpt>
      <trkpt lat="48.60121" lon="7.28691">
        <ele>955</ele>
        <time>2024-03-05T15:47:52Z</time>
      </trkpt>
      <trkpt lat="48.60122" lon="7.28693">
        <ele>955</ele>
        <time>2024-03-05T15:47:53Z</time>
      </trkpt>
      <trkpt lat="48.60123" lon="7.28696">
        <ele>955</ele>
        <time>2024-03-05T15:47:54Z</time>
      </trkpt>
      <trkpt lat="48.60124" lon="7.28698">
        <ele>954.9</ele>
        <time>2024-03-05T15:47:55Z</time>
      </trkpt>
      <trkpt lat="48.60124" lon="7.28701">
        <ele>954.9</ele>
        <time>2024-03-05T15:47:56Z</time>
      </trkpt>
      <trkpt lat="48.60125" lon="7.28705">
        <ele>954.9</ele>
        <time>2024-03-05T15:47:57Z</time>
      </trkpt>
      <trkpt lat="48.60126" lon="7.28706">
        <ele>955</ele>
        <time>2024-03-05T15:47:58Z</time>
      </trkpt>
      <trkpt lat="48.60129" lon="7.28708">
        <ele>955.2</ele>
        <time>2024-03-05T15:47:59Z</time>
      </trkpt>
      <trkpt lat="48.6013" lon="7.28709">
        <ele>955.2</ele>
        <time>2024-03-05T15:48:00Z</time>
      </trkpt>
      <trkpt lat="48.60133" lon="7.28711">
        <ele>955.4</ele>
        <time>2024-03-05T15:48:01Z</time>
      </trkpt>
      <trkpt lat="48.60134" lon="7.28712">
        <ele>955.4</ele>
        <time>2024-03-05T15:48:02Z</time>
      </trkpt>
      <trkpt lat="48.60136" lon="7.28716">
        <ele>955.6</ele>
        <time>2024-03-05T15:48:03Z</time>
      </trkpt>
      <trkpt lat="48.60137" lon="7.28717">
        <ele>955.6</ele>
        <time>2024-03-05T15:48:04Z</time>
      </trkpt>
      <trkpt lat="48.60139" lon="7.28721">
        <ele>955.7</ele>
        <time>2024-03-05T15:48:05Z</time>
      </trkpt>
      <trkpt lat="48.60139" lon="7.28722">
        <ele>955.8</ele>
        <time>2024-03-05T15:48:06Z</time>
      </trkpt>
      <trkpt lat="48.60136" lon="7.28723">
        <ele>955.2</ele>
        <time>2024-03-05T15:48:07Z</time>
      </trkpt>
      <trkpt lat="48.60135" lon="7.28723">
        <ele>955</ele>
        <time>2024-03-05T15:48:08Z</time>
      </trkpt>
      <trkpt lat="48.60133" lon="7.28724">
        <ele>954.6</ele>
        <time>2024-03-05T15:48:09Z</time>
      </trkpt>
      <trkpt lat="48.60131" lon="7.28725">
        <ele>954.2</ele>
        <time>2024-03-05T15:48:10Z</time>
      </trkpt>
      <trkpt lat="48.60129" lon="7.28728">
        <ele>953.6</ele>
        <time>2024-03-05T15:48:11Z</time>
      </trkpt>
      <trkpt lat="48.60129" lon="7.28729">
        <ele>953.4</ele>
        <time>2024-03-05T15:48:12Z</time>
      </trkpt>
      <trkpt lat="48.60128" lon="7.28733">
        <ele>952.9</ele>
        <time>2024-03-05T15:48:13Z</time>
      </trkpt>
      <trkpt lat="48.60128" lon="7.28734">
        <ele>952.6</ele>
        <time>2024-03-05T15:48:14Z</time>
      </trkpt>
      <trkpt lat="48.60128" lon="7.28739">
        <ele>951.9</ele>
        <time>2024-03-05T15:48:15Z</time>
      </trkpt>
      <trkpt lat="48.60128" lon="7.28741">
        <ele>951.7</ele>
        <time>2024-03-05T15:48:16Z</time>
      </trkpt>
      <trkpt lat="48.60127" lon="7.28746">
        <ele>951</ele>
        <time>2024-03-05T15:48:17Z</time>
      </trkpt>
      <trkpt lat="48.60127" lon="7.28748">
        <ele>950.8</ele>
        <time>2024-03-05T15:48:18Z</time>
      </trkpt>
      <trkpt lat="48.60127" lon="7.28752">
        <ele>950.2</ele>
        <time>2024-03-05T15:48:19Z</time>
      </trkpt>
      <trkpt lat="48.60126" lon="7.28757">
        <ele>949.7</ele>
        <time>2024-03-05T15:48:20Z</time>
      </trkpt>
      <trkpt lat="48.60125" lon="7.28762">
        <ele>949.1</ele>
        <time>2024-03-05T15:48:21Z</time>
      </trkpt>
      <trkpt lat="48.60124" lon="7.28766">
        <ele>948.5</ele>
        <time>2024-03-05T15:48:22Z</time>
      </trkpt>
      <trkpt lat="48.60123" lon="7.28772">
        <ele>947.8</ele>
        <time>2024-03-05T15:48:23Z</time>
      </trkpt>
      <trkpt lat="48.60123" lon="7.28774">
        <ele>947.5</ele>
        <time>2024-03-05T15:48:24Z</time>
      </trkpt>
      <trkpt lat="48.60122" lon="7.2878">
        <ele>946.9</ele>
        <time>2024-03-05T15:48:25Z</time>
      </trkpt>
      <trkpt lat="48.60121" lon="7.28781">
        <ele>946.7</ele>
        <time>2024-03-05T15:48:26Z</time>
      </trkpt>
      <trkpt lat="48.6012" lon="7.28785">
        <ele>946.3</ele>
        <time>2024-03-05T15:48:27Z</time>
      </trkpt>
      <trkpt lat="48.60119" lon="7.28786">
        <ele>946</ele>
        <time>2024-03-05T15:48:28Z</time>
      </trkpt>
      <trkpt lat="48.60115" lon="7.28787">
        <ele>945.2</ele>
        <time>2024-03-05T15:48:29Z</time>
      </trkpt>
      <trkpt lat="48.60113" lon="7.28786">
        <ele>944.8</ele>
        <time>2024-03-05T15:48:30Z</time>
      </trkpt>
      <trkpt lat="48.60109" lon="7.28786">
        <ele>943.8</ele>
        <time>2024-03-05T15:48:31Z</time>
      </trkpt>
      <trkpt lat="48.60107" lon="7.28785">
        <ele>943.4</ele>
        <time>2024-03-05T15:48:32Z</time>
      </trkpt>
      <trkpt lat="48.60105" lon="7.28783">
        <ele>942.8</ele>
        <time>2024-03-05T15:48:33Z</time>
      </trkpt>
      <trkpt lat="48.60102" lon="7.28781">
        <ele>942</ele>
        <time>2024-03-05T15:48:34Z</time>
      </trkpt>
      <trkpt lat="48.60099" lon="7.28779">
        <ele>941.4</ele>
        <time>2024-03-05T15:48:35Z</time>
      </trkpt>
      <trkpt lat="48.60096" lon="7.28777">
        <ele>940.5</ele>
        <time>2024-03-05T15:48:36Z</time>
      </trkpt>
      <trkpt lat="48.60095" lon="7.28776">
        <ele>940.2</ele>
        <time>2024-03-05T15:48:37Z</time>
      </trkpt>
      <trkpt lat="48.60092" lon="7.28776">
        <ele>939.6</ele>
        <time>2024-03-05T15:48:38Z</time>
      </trkpt>
      <trkpt lat="48.6009" lon="7.28778">
        <ele>939</ele>
        <time>2024-03-05T15:48:39Z</time>
      </trkpt>
      <trkpt lat="48.60088" lon="7.28783">
        <ele>938.3</ele>
        <time>2024-03-05T15:48:40Z</time>
      </trkpt>
      <trkpt lat="48.60086" lon="7.28788">
        <ele>937.7</ele>
        <time>2024-03-05T15:48:41Z</time>
      </trkpt>
      <trkpt lat="48.60084" lon="7.28789">
        <ele>937.2</ele>
        <time>2024-03-05T15:48:42Z</time>
      </trkpt>
      <trkpt lat="48.60083" lon="7.28789">
        <ele>937</ele>
        <time>2024-03-05T15:48:43Z</time>
      </trkpt>
      <trkpt lat="48.6008" lon="7.28788">
        <ele>936.6</ele>
        <time>2024-03-05T15:48:44Z</time>
      </trkpt>
      <trkpt lat="48.60079" lon="7.28787">
        <ele>936.4</ele>
        <time>2024-03-05T15:48:45Z</time>
      </trkpt>
      <trkpt lat="48.60076" lon="7.28788">
        <ele>935.8</ele>
        <time>2024-03-05T15:48:46Z</time>
      </trkpt>
      <trkpt lat="48.60073" lon="7.2879">
        <ele>935.2</ele>
        <time>2024-03-05T15:48:47Z</time>
      </trkpt>
      <trkpt lat="48.6007" lon="7.28794">
        <ele>934.4</ele>
        <time>2024-03-05T15:48:48Z</time>
      </trkpt>
      <trkpt lat="48.60068" lon="7.28796">
        <ele>934.1</ele>
        <time>2024-03-05T15:48:49Z</time>
      </trkpt>
      <trkpt lat="48.60066" lon="7.28797">
        <ele>933.6</ele>
        <time>2024-03-05T15:48:50Z</time>
      </trkpt>
      <trkpt lat="48.60064" lon="7.28797">
        <ele>933.4</ele>
        <time>2024-03-05T15:48:51Z</time>
      </trkpt>
      <trkpt lat="48.60061" lon="7.28798">
        <ele>932.7</ele>
        <time>2024-03-05T15:48:52Z</time>
      </trkpt>
      <trkpt lat="48.60055" lon="7.28797">
        <ele>931.7</ele>
        <time>2024-03-05T15:48:53Z</time>
      </trkpt>
      <trkpt lat="48.60049" lon="7.28797">
        <ele>930.7</ele>
        <time>2024-03-05T15:48:54Z</time>
      </trkpt>
      <trkpt lat="48.60048" lon="7.28792">
        <ele>930.1</ele>
        <time>2024-03-05T15:48:55Z</time>
      </trkpt>
      <trkpt lat="48.60042" lon="7.28796">
        <ele>929.3</ele>
        <time>2024-03-05T15:48:56Z</time>
      </trkpt>
      <trkpt lat="48.60039" lon="7.28799">
        <ele>928.7</ele>
        <time>2024-03-05T15:48:57Z</time>
      </trkpt>
      <trkpt lat="48.60034" lon="7.288">
        <ele>928.2</ele>
        <time>2024-03-05T15:48:58Z</time>
      </trkpt>
      <trkpt lat="48.6003" lon="7.28798">
        <ele>927.8</ele>
        <time>2024-03-05T15:48:59Z</time>
      </trkpt>
      <trkpt lat="48.60027" lon="7.28797">
        <ele>927.5</ele>
        <time>2024-03-05T15:49:00Z</time>
      </trkpt>
      <trkpt lat="48.60024" lon="7.28797">
        <ele>927.1</ele>
        <time>2024-03-05T15:49:01Z</time>
      </trkpt>
      <trkpt lat="48.6002" lon="7.28799">
        <ele>926.7</ele>
        <time>2024-03-05T15:49:02Z</time>
      </trkpt>
      <trkpt lat="48.60015" lon="7.28801">
        <ele>926.2</ele>
        <time>2024-03-05T15:49:03Z</time>
      </trkpt>
      <trkpt lat="48.60011" lon="7.28803">
        <ele>925.7</ele>
        <time>2024-03-05T15:49:04Z</time>
      </trkpt>
      <trkpt lat="48.60008" lon="7.28804">
        <ele>925.4</ele>
        <time>2024-03-05T15:49:05Z</time>
      </trkpt>
      <trkpt lat="48.60005" lon="7.28806">
        <ele>925</ele>
        <time>2024-03-05T15:49:06Z</time>
      </trkpt>
      <trkpt lat="48.60001" lon="7.28807">
        <ele>924.5</ele>
        <time>2024-03-05T15:49:07Z</time>
      </trkpt>
      <trkpt lat="48.59998" lon="7.2881">
        <ele>924.1</ele>
        <time>2024-03-05T15:49:08Z</time>
      </trkpt>
      <trkpt lat="48.59994" lon="7.2881">
        <ele>923.8</ele>
        <time>2024-03-05T15:49:09Z</time>
      </trkpt>
      <trkpt lat="48.5999" lon="7.28809">
        <ele>923.3</ele>
        <time>2024-03-05T15:49:10Z</time>
      </trkpt>
      <trkpt lat="48.59987" lon="7.28809">
        <ele>923</ele>
        <time>2024-03-05T15:49:11Z</time>
      </trkpt>
      <trkpt lat="48.59983" lon="7.2881">
        <ele>922.6</ele>
        <time>2024-03-05T15:49:12Z</time>
      </trkpt>
      <trkpt lat="48.59981" lon="7.28811">
        <ele>922.3</ele>
        <time>2024-03-05T15:49:13Z</time>
      </trkpt>
      <trkpt lat="48.59978" lon="7.28811">
        <ele>922</ele>
        <time>2024-03-05T15:49:14Z</time>
      </trkpt>
      <trkpt lat="48.59976" lon="7.28812">
        <ele>921.8</ele>
        <time>2024-03-05T15:49:15Z</time>
      </trkpt>
      <trkpt lat="48.59974" lon="7.28814">
        <ele>921.7</ele>
        <time>2024-03-05T15:49:16Z</time>
      </trkpt>
      <trkpt lat="48.59972" lon="7.28816">
        <ele>921.5</ele>
        <time>2024-03-05T15:49:17Z</time>
      </trkpt>
      <trkpt lat="48.59971" lon="7.28817">
        <ele>921.4</ele>
        <time>2024-03-05T15:49:18Z</time>
      </trkpt>
      <trkpt lat="48.59969" lon="7.28819">
        <ele>921.1</ele>
        <time>2024-03-05T15:49:19Z</time>
      </trkpt>
      <trkpt lat="48.59968" lon="7.28821">
        <ele>921</ele>
        <time>2024-03-05T15:49:20Z</time>
      </trkpt>
      <trkpt lat="48.59965" lon="7.28824">
        <ele>920.8</ele>
        <time>2024-03-05T15:49:21Z</time>
      </trkpt>
      <trkpt lat="48.59964" lon="7.28826">
        <ele>920.7</ele>
        <time>2024-03-05T15:49:22Z</time>
      </trkpt>
      <trkpt lat="48.59962" lon="7.28829">
        <ele>920.6</ele>
        <time>2024-03-05T15:49:23Z</time>
      </trkpt>
      <trkpt lat="48.59958" lon="7.2883">
        <ele>920.4</ele>
        <time>2024-03-05T15:49:24Z</time>
      </trkpt>
      <trkpt lat="48.59955" lon="7.28833">
        <ele>920.3</ele>
        <time>2024-03-05T15:49:25Z</time>
      </trkpt>
      <trkpt lat="48.59954" lon="7.28835">
        <ele>920.2</ele>
        <time>2024-03-05T15:49:26Z</time>
      </trkpt>
      <trkpt lat="48.59951" lon="7.28838">
        <ele>920.2</ele>
        <time>2024-03-05T15:49:27Z</time>
      </trkpt>
      <trkpt lat="48.59948" lon="7.2884">
        <ele>920.2</ele>
        <time>2024-03-05T15:49:28Z</time>
      </trkpt>
      <trkpt lat="48.59946" lon="7.28843">
        <ele>920.2</ele>
        <time>2024-03-05T15:49:29Z</time>
      </trkpt>
      <trkpt lat="48.59943" lon="7.28846">
        <ele>920.2</ele>
        <time>2024-03-05T15:49:30Z</time>
      </trkpt>
      <trkpt lat="48.59941" lon="7.28848">
        <ele>920.2</ele>
        <time>2024-03-05T15:49:31Z</time>
      </trkpt>
      <trkpt lat="48.5994" lon="7.28848">
        <ele>920.2</ele>
        <time>2024-03-05T15:49:32Z</time>
      </trkpt>
      <trkpt lat="48.59939" lon="7.28852">
        <ele>920.3</ele>
        <time>2024-03-05T15:49:33Z</time>
      </trkpt>
      <trkpt lat="48.59938" lon="7.28853">
        <ele>920.3</ele>
        <time>2024-03-05T15:49:34Z</time>
      </trkpt>
      <trkpt lat="48.59936" lon="7.28854">
        <ele>920.3</ele>
        <time>2024-03-05T15:49:35Z</time>
      </trkpt>
      <trkpt lat="48.59935" lon="7.28855">
        <ele>920.4</ele>
        <time>2024-03-05T15:49:36Z</time>
      </trkpt>
      <trkpt lat="48.59932" lon="7.28857">
        <ele>920.4</ele>
        <time>2024-03-05T15:49:37Z</time>
      </trkpt>
      <trkpt lat="48.59931" lon="7.28858">
        <ele>920.5</ele>
        <time>2024-03-05T15:49:38Z</time>
      </trkpt>
      <trkpt lat="48.59928" lon="7.28858">
        <ele>920.5</ele>
        <time>2024-03-05T15:49:39Z</time>
      </trkpt>
      <trkpt lat="48.59925" lon="7.28859">
        <ele>920.6</ele>
        <time>2024-03-05T15:49:40Z</time>
      </trkpt>
      <trkpt lat="48.59921" lon="7.2886">
        <ele>920.6</ele>
        <time>2024-03-05T15:49:41Z</time>
      </trkpt>
      <trkpt lat="48.59918" lon="7.2886">
        <ele>920.7</ele>
        <time>2024-03-05T15:49:42Z</time>
      </trkpt>
      <trkpt lat="48.59915" lon="7.28859">
        <ele>920.7</ele>
        <time>2024-03-05T15:49:43Z</time>
      </trkpt>
      <trkpt lat="48.59913" lon="7.28859">
        <ele>920.8</ele>
        <time>2024-03-05T15:49:44Z</time>
      </trkpt>
      <trkpt lat="48.59911" lon="7.2886">
        <ele>920.8</ele>
        <time>2024-03-05T15:49:45Z</time>
      </trkpt>
      <trkpt lat="48.59907" lon="7.2886">
        <ele>920.8</ele>
        <time>2024-03-05T15:49:46Z</time>
      </trkpt>
      <trkpt lat="48.59904" lon="7.2886">
        <ele>920.8</ele>
        <time>2024-03-05T15:49:47Z</time>
      </trkpt>
      <trkpt lat="48.59901" lon="7.28858">
        <ele>920.8</ele>
        <time>2024-03-05T15:49:48Z</time>
      </trkpt>
      <trkpt lat="48.59898" lon="7.28857">
        <ele>920.9</ele>
        <time>2024-03-05T15:49:49Z</time>
      </trkpt>
      <trkpt lat="48.59895" lon="7.28858">
        <ele>920.9</ele>
        <time>2024-03-05T15:49:50Z</time>
      </trkpt>
      <trkpt lat="48.59892" lon="7.28859">
        <ele>920.9</ele>
        <time>2024-03-05T15:49:51Z</time>
      </trkpt>
      <trkpt lat="48.59888" lon="7.28861">
        <ele>920.9</ele>
        <time>2024-03-05T15:49:52Z</time>
      </trkpt>
      <trkpt lat="48.59887" lon="7.28861">
        <ele>920.9</ele>
        <time>2024-03-05T15:49:53Z</time>
      </trkpt>
      <trkpt lat="48.59884" lon="7.2886">
        <ele>920.9</ele>
        <time>2024-03-05T15:49:54Z</time>
      </trkpt>
      <trkpt lat="48.59883" lon="7.28859">
        <ele>920.9</ele>
        <time>2024-03-05T15:49:55Z</time>
      </trkpt>
      <trkpt lat="48.59883" lon="7.28858">
        <ele>920.8</ele>
        <time>2024-03-05T15:49:56Z</time>
      </trkpt>
      <trkpt lat="48.5988" lon="7.28855">
        <ele>920.8</ele>
        <time>2024-03-05T15:49:57Z</time>
      </trkpt>
      <trkpt lat="48.59877" lon="7.28853">
        <ele>920.8</ele>
        <time>2024-03-05T15:49:58Z</time>
      </trkpt>
      <trkpt lat="48.59875" lon="7.28852">
        <ele>920.7</ele>
        <time>2024-03-05T15:49:59Z</time>
      </trkpt>
      <trkpt lat="48.59872" lon="7.28851">
        <ele>920.6</ele>
        <time>2024-03-05T15:50:00Z</time>
      </trkpt>
      <trkpt lat="48.59868" lon="7.2885">
        <ele>920.5</ele>
        <time>2024-03-05T15:50:01Z</time>
      </trkpt>
      <trkpt lat="48.59864" lon="7.28849">
        <ele>920.3</ele>
        <time>2024-03-05T15:50:02Z</time>
      </trkpt>
      <trkpt lat="48.5986" lon="7.28846">
        <ele>920</ele>
        <time>2024-03-05T15:50:03Z</time>
      </trkpt>
      <trkpt lat="48.59855" lon="7.28845">
        <ele>919.7</ele>
        <time>2024-03-05T15:50:04Z</time>
      </trkpt>
      <trkpt lat="48.59853" lon="7.28842">
        <ele>919.5</ele>
        <time>2024-03-05T15:50:05Z</time>
      </trkpt>
      <trkpt lat="48.5985" lon="7.28838">
        <ele>919.1</ele>
        <time>2024-03-05T15:50:06Z</time>
      </trkpt>
      <trkpt lat="48.59849" lon="7.28837">
        <ele>919</ele>
        <time>2024-03-05T15:50:07Z</time>
      </trkpt>
      <trkpt lat="48.59846" lon="7.28836">
        <ele>918.7</ele>
        <time>2024-03-05T15:50:08Z</time>
      </trkpt>
      <trkpt lat="48.59843" lon="7.28835">
        <ele>918.4</ele>
        <time>2024-03-05T15:50:09Z</time>
      </trkpt>
      <trkpt lat="48.5984" lon="7.28832">
        <ele>918</ele>
        <time>2024-03-05T15:50:10Z</time>
      </trkpt>
      <trkpt lat="48.59838" lon="7.28831">
        <ele>917.7</ele>
        <time>2024-03-05T15:50:11Z</time>
      </trkpt>
      <trkpt lat="48.59834" lon="7.28828">
        <ele>917.2</ele>
        <time>2024-03-05T15:50:12Z</time>
      </trkpt>
      <trkpt lat="48.59832" lon="7.28826">
        <ele>916.8</ele>
        <time>2024-03-05T15:50:13Z</time>
      </trkpt>
      <trkpt lat="48.59831" lon="7.28825">
        <ele>916.7</ele>
        <time>2024-03-05T15:50:14Z</time>
      </trkpt>
      <trkpt lat="48.59829" lon="7.28822">
        <ele>916.3</ele>
        <time>2024-03-05T15:50:16Z</time>
      </trkpt>
      <trkpt lat="48.59826" lon="7.2882">
        <ele>915.8</ele>
        <time>2024-03-05T15:50:17Z</time>
      </trkpt>
      <trkpt lat="48.59823" lon="7.28815">
        <ele>915.1</ele>
        <time>2024-03-05T15:50:18Z</time>
      </trkpt>
      <trkpt lat="48.59821" lon="7.28812">
        <ele>914.5</ele>
        <time>2024-03-05T15:50:19Z</time>
      </trkpt>
      <trkpt lat="48.59818" lon="7.28809">
        <ele>914</ele>
        <time>2024-03-05T15:50:20Z</time>
      </trkpt>
      <trkpt lat="48.59815" lon="7.28806">
        <ele>913.5</ele>
        <time>2024-03-05T15:50:21Z</time>
      </trkpt>
      <trkpt lat="48.59812" lon="7.28803">
        <ele>912.9</ele>
        <time>2024-03-05T15:50:22Z</time>
      </trkpt>
      <trkpt lat="48.59808" lon="7.288">
        <ele>912.1</ele>
        <time>2024-03-05T15:50:23Z</time>
      </trkpt>
      <trkpt lat="48.59806" lon="7.28799">
        <ele>911.7</ele>
        <time>2024-03-05T15:50:24Z</time>
      </trkpt>
      <trkpt lat="48.59802" lon="7.28797">
        <ele>911.1</ele>
        <time>2024-03-05T15:50:25Z</time>
      </trkpt>
      <trkpt lat="48.59796" lon="7.28792">
        <ele>910.1</ele>
        <time>2024-03-05T15:50:26Z</time>
      </trkpt>
      <trkpt lat="48.59791" lon="7.28788">
        <ele>909.4</ele>
        <time>2024-03-05T15:50:27Z</time>
      </trkpt>
      <trkpt lat="48.59786" lon="7.28783">
        <ele>908.7</ele>
        <time>2024-03-05T15:50:29Z</time>
      </trkpt>
      <trkpt lat="48.59783" lon="7.28779">
        <ele>908.1</ele>
        <time>2024-03-05T15:50:30Z</time>
      </trkpt>
      <trkpt lat="48.59779" lon="7.28775">
        <ele>907.6</ele>
        <time>2024-03-05T15:50:31Z</time>
      </trkpt>
      <trkpt lat="48.59775" lon="7.28771">
        <ele>907.1</ele>
        <time>2024-03-05T15:50:32Z</time>
      </trkpt>
      <trkpt lat="48.59772" lon="7.28768">
        <ele>906.7</ele>
        <time>2024-03-05T15:50:33Z</time>
      </trkpt>
      <trkpt lat="48.59768" lon="7.28767">
        <ele>906.4</ele>
        <time>2024-03-05T15:50:34Z</time>
      </trkpt>
      <trkpt lat="48.59765" lon="7.28765">
        <ele>906.1</ele>
        <time>2024-03-05T15:50:35Z</time>
      </trkpt>
      <trkpt lat="48.59762" lon="7.28763">
        <ele>905.8</ele>
        <time>2024-03-05T15:50:36Z</time>
      </trkpt>
      <trkpt lat="48.59759" lon="7.2876">
        <ele>905.5</ele>
        <time>2024-03-05T15:50:37Z</time>
      </trkpt>
      <trkpt lat="48.59756" lon="7.28757">
        <ele>905.3</ele>
        <time>2024-03-05T15:50:38Z</time>
      </trkpt>
      <trkpt lat="48.59753" lon="7.28754">
        <ele>905</ele>
        <time>2024-03-05T15:50:39Z</time>
      </trkpt>
      <trkpt lat="48.59751" lon="7.28751">
        <ele>904.8</ele>
        <time>2024-03-05T15:50:40Z</time>
      </trkpt>
      <trkpt lat="48.59748" lon="7.28748">
        <ele>904.6</ele>
        <time>2024-03-05T15:50:41Z</time>
      </trkpt>
      <trkpt lat="48.59745" lon="7.28745">
        <ele>904.4</ele>
        <time>2024-03-05T15:50:42Z</time>
      </trkpt>
      <trkpt lat="48.59742" lon="7.28742">
        <ele>904.2</ele>
        <time>2024-03-05T15:50:43Z</time>
      </trkpt>
      <trkpt lat="48.59738" lon="7.28739">
        <ele>904</ele>
        <time>2024-03-05T15:50:44Z</time>
      </trkpt>
      <trkpt lat="48.59734" lon="7.28737">
        <ele>903.8</ele>
        <time>2024-03-05T15:50:45Z</time>
      </trkpt>
      <trkpt lat="48.5973" lon="7.28732">
        <ele>903.5</ele>
        <time>2024-03-05T15:50:46Z</time>
      </trkpt>
      <trkpt lat="48.59726" lon="7.28727">
        <ele>903.3</ele>
        <time>2024-03-05T15:50:48Z</time>
      </trkpt>
      <trkpt lat="48.59723" lon="7.28724">
        <ele>903.1</ele>
        <time>2024-03-05T15:50:49Z</time>
      </trkpt>
      <trkpt lat="48.59722" lon="7.28724">
        <ele>903.1</ele>
        <time>2024-03-05T15:50:50Z</time>
      </trkpt>
      <trkpt lat="48.5972" lon="7.28722">
        <ele>903</ele>
        <time>2024-03-05T15:50:51Z</time>
      </trkpt>
      <trkpt lat="48.59719" lon="7.28722">
        <ele>903</ele>
        <time>2024-03-05T15:50:52Z</time>
      </trkpt>
      <trkpt lat="48.59717" lon="7.28718">
        <ele>902.8</ele>
        <time>2024-03-05T15:50:53Z</time>
      </trkpt>
      <trkpt lat="48.59716" lon="7.28717">
        <ele>902.8</ele>
        <time>2024-03-05T15:50:54Z</time>
      </trkpt>
      <trkpt lat="48.59715" lon="7.28716">
        <ele>902.7</ele>
        <time>2024-03-05T15:50:55Z</time>
      </trkpt>
      <trkpt lat="48.5971" lon="7.28714">
        <ele>902.4</ele>
        <time>2024-03-05T15:50:56Z</time>
      </trkpt>
      <trkpt lat="48.59705" lon="7.28712">
        <ele>902.2</ele>
        <time>2024-03-05T15:50:57Z</time>
      </trkpt>
      <trkpt lat="48.597" lon="7.28711">
        <ele>901.9</ele>
        <time>2024-03-05T15:50:58Z</time>
      </trkpt>
      <trkpt lat="48.59697" lon="7.28707">
        <ele>901.8</ele>
        <time>2024-03-05T15:50:59Z</time>
      </trkpt>
      <trkpt lat="48.59693" lon="7.28704">
        <ele>901.6</ele>
        <time>2024-03-05T15:51:00Z</time>
      </trkpt>
      <trkpt lat="48.59689" lon="7.287">
        <ele>901.4</ele>
        <time>2024-03-05T15:51:02Z</time>
      </trkpt>
      <trkpt lat="48.59687" lon="7.28697">
        <ele>901.3</ele>
        <time>2024-03-05T15:51:03Z</time>
      </trkpt>
      <trkpt lat="48.59683" lon="7.28693">
        <ele>901.1</ele>
        <time>2024-03-05T15:51:04Z</time>
      </trkpt>
      <trkpt lat="48.59679" lon="7.28689">
        <ele>901</ele>
        <time>2024-03-05T15:51:05Z</time>
      </trkpt>
      <trkpt lat="48.59676" lon="7.28687">
        <ele>900.9</ele>
        <time>2024-03-05T15:51:06Z</time>
      </trkpt>
      <trkpt lat="48.59672" lon="7.28684">
        <ele>900.8</ele>
        <time>2024-03-05T15:51:08Z</time>
      </trkpt>
      <trkpt lat="48.59669" lon="7.28681">
        <ele>900.7</ele>
        <time>2024-03-05T15:51:09Z</time>
      </trkpt>
      <trkpt lat="48.59666" lon="7.28679">
        <ele>900.7</ele>
        <time>2024-03-05T15:51:10Z</time>
      </trkpt>
      <trkpt lat="48.59665" lon="7.28678">
        <ele>900.6</ele>
        <time>2024-03-05T15:51:11Z</time>
      </trkpt>
      <trkpt lat="48.59663" lon="7.28676">
        <ele>900.6</ele>
        <time>2024-03-05T15:51:12Z</time>
      </trkpt>
      <trkpt lat="48.59662" lon="7.28676">
        <ele>900.6</ele>
        <time>2024-03-05T15:51:13Z</time>
      </trkpt>
      <trkpt lat="48.59659" lon="7.28673">
        <ele>900.6</ele>
        <time>2024-03-05T15:51:14Z</time>
      </trkpt>
      <trkpt lat="48.59656" lon="7.2867">
        <ele>900.6</ele>
        <time>2024-03-05T15:51:15Z</time>
      </trkpt>
      <trkpt lat="48.59655" lon="7.28669">
        <ele>900.6</ele>
        <time>2024-03-05T15:51:16Z</time>
      </trkpt>
      <trkpt lat="48.59651" lon="7.28665">
        <ele>900.6</ele>
        <time>2024-03-05T15:51:18Z</time>
      </trkpt>
      <trkpt lat="48.59646" lon="7.28661">
        <ele>900.7</ele>
        <time>2024-03-05T15:51:19Z</time>
      </trkpt>
      <trkpt lat="48.59643" lon="7.28659">
        <ele>900.7</ele>
        <time>2024-03-05T15:51:20Z</time>
      </trkpt>
      <trkpt lat="48.5964" lon="7.28656">
        <ele>900.7</ele>
        <time>2024-03-05T15:51:21Z</time>
      </trkpt>
      <trkpt lat="48.59639" lon="7.28655">
        <ele>900.8</ele>
        <time>2024-03-05T15:51:22Z</time>
      </trkpt>
      <trkpt lat="48.59636" lon="7.28653">
        <ele>900.8</ele>
        <time>2024-03-05T15:51:23Z</time>
      </trkpt>
      <trkpt lat="48.59633" lon="7.2865">
        <ele>900.9</ele>
        <time>2024-03-05T15:51:24Z</time>
      </trkpt>
      <trkpt lat="48.5963" lon="7.28646">
        <ele>901</ele>
        <time>2024-03-05T15:51:25Z</time>
      </trkpt>
      <trkpt lat="48.59625" lon="7.28639">
        <ele>901.1</ele>
        <time>2024-03-05T15:51:26Z</time>
      </trkpt>
      <trkpt lat="48.5962" lon="7.28634">
        <ele>901.3</ele>
        <time>2024-03-05T15:51:28Z</time>
      </trkpt>
      <trkpt lat="48.59618" lon="7.28633">
        <ele>901.3</ele>
        <time>2024-03-05T15:51:29Z</time>
      </trkpt>
      <trkpt lat="48.59614" lon="7.28629">
        <ele>901.4</ele>
        <time>2024-03-05T15:51:30Z</time>
      </trkpt>
      <trkpt lat="48.59613" lon="7.28628">
        <ele>901.5</ele>
        <time>2024-03-05T15:51:31Z</time>
      </trkpt>
      <trkpt lat="48.5961" lon="7.28626">
        <ele>901.6</ele>
        <time>2024-03-05T15:51:32Z</time>
      </trkpt>
      <trkpt lat="48.59607" lon="7.28623">
        <ele>901.7</ele>
        <time>2024-03-05T15:51:33Z</time>
      </trkpt>
      <trkpt lat="48.59606" lon="7.28621">
        <ele>901.7</ele>
        <time>2024-03-05T15:51:34Z</time>
      </trkpt>
      <trkpt lat="48.59604" lon="7.28618">
        <ele>901.8</ele>
        <time>2024-03-05T15:51:35Z</time>
      </trkpt>
      <trkpt lat="48.59601" lon="7.28615">
        <ele>901.9</ele>
        <time>2024-03-05T15:51:36Z</time>
      </trkpt>
      <trkpt lat="48.59598" lon="7.28611">
        <ele>902</ele>
        <time>2024-03-05T15:51:37Z</time>
      </trkpt>
      <trkpt lat="48.59594" lon="7.28606">
        <ele>902.1</ele>
        <time>2024-03-05T15:51:39Z</time>
      </trkpt>
      <trkpt lat="48.59593" lon="7.28604">
        <ele>902.1</ele>
        <time>2024-03-05T15:51:40Z</time>
      </trkpt>
      <trkpt lat="48.59592" lon="7.28603">
        <ele>902.1</ele>
        <time>2024-03-05T15:51:41Z</time>
      </trkpt>
      <trkpt lat="48.5959" lon="7.286">
        <ele>902.2</ele>
        <time>2024-03-05T15:51:42Z</time>
      </trkpt>
      <trkpt lat="48.59589" lon="7.286">
        <ele>902.2</ele>
        <time>2024-03-05T15:51:43Z</time>
      </trkpt>
      <trkpt lat="48.59588" lon="7.28599">
        <ele>902.2</ele>
        <time>2024-03-05T15:51:44Z</time>
      </trkpt>
      <trkpt lat="48.59588" lon="7.28597">
        <ele>902.2</ele>
        <time>2024-03-05T15:51:45Z</time>
      </trkpt>
      <trkpt lat="48.59587" lon="7.28595">
        <ele>902.2</ele>
        <time>2024-03-05T15:51:46Z</time>
      </trkpt>
      <trkpt lat="48.59585" lon="7.28592">
        <ele>902.3</ele>
        <time>2024-03-05T15:51:47Z</time>
      </trkpt>
      <trkpt lat="48.59582" lon="7.28589">
        <ele>902.3</ele>
        <time>2024-03-05T15:51:48Z</time>
      </trkpt>
      <trkpt lat="48.59582" lon="7.28587">
        <ele>902.3</ele>
        <time>2024-03-05T15:51:49Z</time>
      </trkpt>
      <trkpt lat="48.5958" lon="7.28583">
        <ele>902.4</ele>
        <time>2024-03-05T15:51:50Z</time>
      </trkpt>
      <trkpt lat="48.59579" lon="7.28582">
        <ele>902.4</ele>
        <time>2024-03-05T15:51:51Z</time>
      </trkpt>
      <trkpt lat="48.59576" lon="7.2858">
        <ele>902.4</ele>
        <time>2024-03-05T15:51:52Z</time>
      </trkpt>
      <trkpt lat="48.59573" lon="7.28576">
        <ele>902.4</ele>
        <time>2024-03-05T15:51:53Z</time>
      </trkpt>
      <trkpt lat="48.5957" lon="7.28572">
        <ele>902.5</ele>
        <time>2024-03-05T15:51:54Z</time>
      </trkpt>
      <trkpt lat="48.59566" lon="7.28568">
        <ele>902.6</ele>
        <time>2024-03-05T15:51:55Z</time>
      </trkpt>
      <trkpt lat="48.59563" lon="7.28566">
        <ele>902.6</ele>
        <time>2024-03-05T15:51:56Z</time>
      </trkpt>
      <trkpt lat="48.5956" lon="7.28564">
        <ele>902.7</ele>
        <time>2024-03-05T15:51:57Z</time>
      </trkpt>
      <trkpt lat="48.59558" lon="7.2856">
        <ele>902.7</ele>
        <time>2024-03-05T15:51:58Z</time>
      </trkpt>
      <trkpt lat="48.59556" lon="7.28557">
        <ele>902.8</ele>
        <time>2024-03-05T15:51:59Z</time>
      </trkpt>
      <trkpt lat="48.59553" lon="7.28554">
        <ele>902.8</ele>
        <time>2024-03-05T15:52:00Z</time>
      </trkpt>
      <trkpt lat="48.59549" lon="7.2855">
        <ele>902.9</ele>
        <time>2024-03-05T15:52:02Z</time>
      </trkpt>
      <trkpt lat="48.59547" lon="7.28548">
        <ele>902.9</ele>
        <time>2024-03-05T15:52:03Z</time>
      </trkpt>
      <trkpt lat="48.59543" lon="7.28542">
        <ele>903</ele>
        <time>2024-03-05T15:52:04Z</time>
      </trkpt>
      <trkpt lat="48.59539" lon="7.28538">
        <ele>903.1</ele>
        <time>2024-03-05T15:52:05Z</time>
      </trkpt>
      <trkpt lat="48.59536" lon="7.28536">
        <ele>903.1</ele>
        <time>2024-03-05T15:52:06Z</time>
      </trkpt>
      <trkpt lat="48.59533" lon="7.28531">
        <ele>903.1</ele>
        <time>2024-03-05T15:52:08Z</time>
      </trkpt>
      <trkpt lat="48.59532" lon="7.28526">
        <ele>903.2</ele>
        <time>2024-03-05T15:52:09Z</time>
      </trkpt>
      <trkpt lat="48.59531" lon="7.28525">
        <ele>903.2</ele>
        <time>2024-03-05T15:52:10Z</time>
      </trkpt>
      <trkpt lat="48.59529" lon="7.28521">
        <ele>903.2</ele>
        <time>2024-03-05T15:52:11Z</time>
      </trkpt>
      <trkpt lat="48.59527" lon="7.28519">
        <ele>903.2</ele>
        <time>2024-03-05T15:52:12Z</time>
      </trkpt>
      <trkpt lat="48.59527" lon="7.28518">
        <ele>903.2</ele>
        <time>2024-03-05T15:52:13Z</time>
      </trkpt>
      <trkpt lat="48.59525" lon="7.28516">
        <ele>903.2</ele>
        <time>2024-03-05T15:52:14Z</time>
      </trkpt>
      <trkpt lat="48.59523" lon="7.28511">
        <ele>903.2</ele>
        <time>2024-03-05T15:52:15Z</time>
      </trkpt>
      <trkpt lat="48.59522" lon="7.28508">
        <ele>903.2</ele>
        <time>2024-03-05T15:52:16Z</time>
      </trkpt>
      <trkpt lat="48.59521" lon="7.28504">
        <ele>903.2</ele>
        <time>2024-03-05T15:52:17Z</time>
      </trkpt>
      <trkpt lat="48.59519" lon="7.28499">
        <ele>903.2</ele>
        <time>2024-03-05T15:52:18Z</time>
      </trkpt>
      <trkpt lat="48.59516" lon="7.28496">
        <ele>903.2</ele>
        <time>2024-03-05T15:52:19Z</time>
      </trkpt>
      <trkpt lat="48.59515" lon="7.28495">
        <ele>903.2</ele>
        <time>2024-03-05T15:52:20Z</time>
      </trkpt>
      <trkpt lat="48.59513" lon="7.28492">
        <ele>903.2</ele>
        <time>2024-03-05T15:52:21Z</time>
      </trkpt>
      <trkpt lat="48.59512" lon="7.28491">
        <ele>903.2</ele>
        <time>2024-03-05T15:52:22Z</time>
      </trkpt>
      <trkpt lat="48.59509" lon="7.28489">
        <ele>903.2</ele>
        <time>2024-03-05T15:52:23Z</time>
      </trkpt>
      <trkpt lat="48.59507" lon="7.28487">
        <ele>903.2</ele>
        <time>2024-03-05T15:52:24Z</time>
      </trkpt>
      <trkpt lat="48.59505" lon="7.28484">
        <ele>903.2</ele>
        <time>2024-03-05T15:52:25Z</time>
      </trkpt>
      <trkpt lat="48.595" lon="7.2848">
        <ele>903.3</ele>
        <time>2024-03-05T15:52:26Z</time>
      </trkpt>
      <trkpt lat="48.59497" lon="7.28476">
        <ele>903.3</ele>
        <time>2024-03-05T15:52:27Z</time>
      </trkpt>
      <trkpt lat="48.59493" lon="7.28471">
        <ele>903.4</ele>
        <time>2024-03-05T15:52:28Z</time>
      </trkpt>
      <trkpt lat="48.59491" lon="7.28469">
        <ele>903.4</ele>
        <time>2024-03-05T15:52:29Z</time>
      </trkpt>
      <trkpt lat="48.59488" lon="7.28466">
        <ele>903.4</ele>
        <time>2024-03-05T15:52:30Z</time>
      </trkpt>
      <trkpt lat="48.59486" lon="7.28462">
        <ele>903.5</ele>
        <time>2024-03-05T15:52:31Z</time>
      </trkpt>
      <trkpt lat="48.59484" lon="7.2846">
        <ele>903.5</ele>
        <time>2024-03-05T15:52:32Z</time>
      </trkpt>
      <trkpt lat="48.59482" lon="7.28452">
        <ele>903.5</ele>
        <time>2024-03-05T15:52:33Z</time>
      </trkpt>
      <trkpt lat="48.59481" lon="7.28448">
        <ele>903.5</ele>
        <time>2024-03-05T15:52:34Z</time>
      </trkpt>
      <trkpt lat="48.59478" lon="7.28444">
        <ele>903.5</ele>
        <time>2024-03-05T15:52:35Z</time>
      </trkpt>
      <trkpt lat="48.59476" lon="7.28441">
        <ele>903.6</ele>
        <time>2024-03-05T15:52:36Z</time>
      </trkpt>
      <trkpt lat="48.59474" lon="7.28437">
        <ele>903.6</ele>
        <time>2024-03-05T15:52:37Z</time>
      </trkpt>
      <trkpt lat="48.59472" lon="7.28432">
        <ele>903.6</ele>
        <time>2024-03-05T15:52:39Z</time>
      </trkpt>
      <trkpt lat="48.59469" lon="7.28426">
        <ele>903.6</ele>
        <time>2024-03-05T15:52:40Z</time>
      </trkpt>
      <trkpt lat="48.59467" lon="7.28422">
        <ele>903.6</ele>
        <time>2024-03-05T15:52:41Z</time>
      </trkpt>
      <trkpt lat="48.59465" lon="7.28417">
        <ele>903.7</ele>
        <time>2024-03-05T15:52:42Z</time>
      </trkpt>
      <trkpt lat="48.59464" lon="7.28415">
        <ele>903.7</ele>
        <time>2024-03-05T15:52:43Z</time>
      </trkpt>
      <trkpt lat="48.59463" lon="7.28411">
        <ele>903.7</ele>
        <time>2024-03-05T15:52:44Z</time>
      </trkpt>
      <trkpt lat="48.59461" lon="7.28407">
        <ele>903.7</ele>
        <time>2024-03-05T15:52:45Z</time>
      </trkpt>
      <trkpt lat="48.59458" lon="7.28403">
        <ele>903.7</ele>
        <time>2024-03-05T15:52:46Z</time>
      </trkpt>
      <trkpt lat="48.59456" lon="7.28399">
        <ele>903.8</ele>
        <time>2024-03-05T15:52:47Z</time>
      </trkpt>
      <trkpt lat="48.59454" lon="7.28395">
        <ele>903.8</ele>
        <time>2024-03-05T15:52:48Z</time>
      </trkpt>
      <trkpt lat="48.59451" lon="7.28391">
        <ele>903.8</ele>
        <time>2024-03-05T15:52:49Z</time>
      </trkpt>
      <trkpt lat="48.59449" lon="7.28388">
        <ele>903.9</ele>
        <time>2024-03-05T15:52:50Z</time>
      </trkpt>
      <trkpt lat="48.59446" lon="7.28385">
        <ele>903.9</ele>
        <time>2024-03-05T15:52:51Z</time>
      </trkpt>
      <trkpt lat="48.59444" lon="7.28383">
        <ele>903.9</ele>
        <time>2024-03-05T15:52:52Z</time>
      </trkpt>
      <trkpt lat="48.59441" lon="7.28379">
        <ele>903.9</ele>
        <time>2024-03-05T15:52:53Z</time>
      </trkpt>
      <trkpt lat="48.59439" lon="7.28376">
        <ele>904</ele>
        <time>2024-03-05T15:52:54Z</time>
      </trkpt>
      <trkpt lat="48.59437" lon="7.28373">
        <ele>904</ele>
        <time>2024-03-05T15:52:55Z</time>
      </trkpt>
      <trkpt lat="48.59435" lon="7.28368">
        <ele>903.9</ele>
        <time>2024-03-05T15:52:56Z</time>
      </trkpt>
      <trkpt lat="48.59434" lon="7.28364">
        <ele>903.9</ele>
        <time>2024-03-05T15:52:57Z</time>
      </trkpt>
      <trkpt lat="48.59432" lon="7.28358">
        <ele>903.8</ele>
        <time>2024-03-05T15:52:58Z</time>
      </trkpt>
      <trkpt lat="48.59431" lon="7.28353">
        <ele>903.7</ele>
        <time>2024-03-05T15:52:59Z</time>
      </trkpt>
      <trkpt lat="48.5943" lon="7.28347">
        <ele>903.7</ele>
        <time>2024-03-05T15:53:00Z</time>
      </trkpt>
      <trkpt lat="48.5943" lon="7.28343">
        <ele>903.6</ele>
        <time>2024-03-05T15:53:01Z</time>
      </trkpt>
      <trkpt lat="48.5943" lon="7.28338">
        <ele>903.6</ele>
        <time>2024-03-05T15:53:02Z</time>
      </trkpt>
      <trkpt lat="48.59429" lon="7.28335">
        <ele>903.6</ele>
        <time>2024-03-05T15:53:03Z</time>
      </trkpt>
      <trkpt lat="48.59427" lon="7.28331">
        <ele>903.6</ele>
        <time>2024-03-05T15:53:04Z</time>
      </trkpt>
      <trkpt lat="48.59426" lon="7.28327">
        <ele>903.6</ele>
        <time>2024-03-05T15:53:05Z</time>
      </trkpt>
      <trkpt lat="48.59425" lon="7.28322">
        <ele>903.5</ele>
        <time>2024-03-05T15:53:06Z</time>
      </trkpt>
      <trkpt lat="48.59424" lon="7.2832">
        <ele>903.5</ele>
        <time>2024-03-05T15:53:07Z</time>
      </trkpt>
      <trkpt lat="48.59423" lon="7.28314">
        <ele>903.5</ele>
        <time>2024-03-05T15:53:08Z</time>
      </trkpt>
      <trkpt lat="48.59422" lon="7.28312">
        <ele>903.5</ele>
        <time>2024-03-05T15:53:09Z</time>
      </trkpt>
      <trkpt lat="48.59421" lon="7.28305">
        <ele>903.5</ele>
        <time>2024-03-05T15:53:10Z</time>
      </trkpt>
      <trkpt lat="48.5942" lon="7.28303">
        <ele>903.4</ele>
        <time>2024-03-05T15:53:11Z</time>
      </trkpt>
      <trkpt lat="48.59418" lon="7.28297">
        <ele>903.4</ele>
        <time>2024-03-05T15:53:12Z</time>
      </trkpt>
      <trkpt lat="48.59416" lon="7.28292">
        <ele>903.4</ele>
        <time>2024-03-05T15:53:13Z</time>
      </trkpt>
      <trkpt lat="48.59413" lon="7.28288">
        <ele>903.3</ele>
        <time>2024-03-05T15:53:14Z</time>
      </trkpt>
      <trkpt lat="48.59411" lon="7.28285">
        <ele>903.3</ele>
        <time>2024-03-05T15:53:15Z</time>
      </trkpt>
      <trkpt lat="48.59408" lon="7.28283">
        <ele>903.2</ele>
        <time>2024-03-05T15:53:16Z</time>
      </trkpt>
      <trkpt lat="48.59406" lon="7.2828">
        <ele>903.2</ele>
        <time>2024-03-05T15:53:17Z</time>
      </trkpt>
      <trkpt lat="48.59405" lon="7.28277">
        <ele>903.2</ele>
        <time>2024-03-05T15:53:18Z</time>
      </trkpt>
      <trkpt lat="48.59403" lon="7.28273">
        <ele>903.1</ele>
        <time>2024-03-05T15:53:19Z</time>
      </trkpt>
      <trkpt lat="48.59401" lon="7.28269">
        <ele>903.1</ele>
        <time>2024-03-05T15:53:20Z</time>
      </trkpt>
      <trkpt lat="48.594" lon="7.28265">
        <ele>903.1</ele>
        <time>2024-03-05T15:53:21Z</time>
      </trkpt>
      <trkpt lat="48.59398" lon="7.28259">
        <ele>903.1</ele>
        <time>2024-03-05T15:53:22Z</time>
      </trkpt>
      <trkpt lat="48.59397" lon="7.28257">
        <ele>903.1</ele>
        <time>2024-03-05T15:53:23Z</time>
      </trkpt>
      <trkpt lat="48.59394" lon="7.28253">
        <ele>903.1</ele>
        <time>2024-03-05T15:53:24Z</time>
      </trkpt>
      <trkpt lat="48.59394" lon="7.2825">
        <ele>903.1</ele>
        <time>2024-03-05T15:53:25Z</time>
      </trkpt>
      <trkpt lat="48.59393" lon="7.28246">
        <ele>903.1</ele>
        <time>2024-03-05T15:53:26Z</time>
      </trkpt>
      <trkpt lat="48.59391" lon="7.28242">
        <ele>903.1</ele>
        <time>2024-03-05T15:53:27Z</time>
      </trkpt>
      <trkpt lat="48.5939" lon="7.28239">
        <ele>903.1</ele>
        <time>2024-03-05T15:53:28Z</time>
      </trkpt>
      <trkpt lat="48.59389" lon="7.28234">
        <ele>903.1</ele>
        <time>2024-03-05T15:53:29Z</time>
      </trkpt>
      <trkpt lat="48.59387" lon="7.28231">
        <ele>903.1</ele>
        <time>2024-03-05T15:53:30Z</time>
      </trkpt>
      <trkpt lat="48.59385" lon="7.28225">
        <ele>903.1</ele>
        <time>2024-03-05T15:53:31Z</time>
      </trkpt>
      <trkpt lat="48.59384" lon="7.28224">
        <ele>903.1</ele>
        <time>2024-03-05T15:53:32Z</time>
      </trkpt>
      <trkpt lat="48.59382" lon="7.28218">
        <ele>903.2</ele>
        <time>2024-03-05T15:53:33Z</time>
      </trkpt>
      <trkpt lat="48.59382" lon="7.28216">
        <ele>903.2</ele>
        <time>2024-03-05T15:53:34Z</time>
      </trkpt>
      <trkpt lat="48.5938" lon="7.28217">
        <ele>903.2</ele>
        <time>2024-03-05T15:53:35Z</time>
      </trkpt>
      <trkpt lat="48.59379" lon="7.28219">
        <ele>903.2</ele>
        <time>2024-03-05T15:53:36Z</time>
      </trkpt>
      <trkpt lat="48.59377" lon="7.28215">
        <ele>903.2</ele>
        <time>2024-03-05T15:53:37Z</time>
      </trkpt>
      <trkpt lat="48.59377" lon="7.28213">
        <ele>903.2</ele>
        <time>2024-03-05T15:53:38Z</time>
      </trkpt>
      <trkpt lat="48.59374" lon="7.28211">
        <ele>903.3</ele>
        <time>2024-03-05T15:53:39Z</time>
      </trkpt>
      <trkpt lat="48.59373" lon="7.2821">
        <ele>903.3</ele>
        <time>2024-03-05T15:53:40Z</time>
      </trkpt>
      <trkpt lat="48.59372" lon="7.28208">
        <ele>903.3</ele>
        <time>2024-03-05T15:53:41Z</time>
      </trkpt>
      <trkpt lat="48.59371" lon="7.28206">
        <ele>903.3</ele>
        <time>2024-03-05T15:53:42Z</time>
      </trkpt>
      <trkpt lat="48.59368" lon="7.28202">
        <ele>903.4</ele>
        <time>2024-03-05T15:53:43Z</time>
      </trkpt>
      <trkpt lat="48.59367" lon="7.28201">
        <ele>903.4</ele>
        <time>2024-03-05T15:53:44Z</time>
      </trkpt>
      <trkpt lat="48.59364" lon="7.28199">
        <ele>903.5</ele>
        <time>2024-03-05T15:53:45Z</time>
      </trkpt>
      <trkpt lat="48.59364" lon="7.28198">
        <ele>903.5</ele>
        <time>2024-03-05T15:53:46Z</time>
      </trkpt>
      <trkpt lat="48.59364" lon="7.28195">
        <ele>903.5</ele>
        <time>2024-03-05T15:53:47Z</time>
      </trkpt>
      <trkpt lat="48.59363" lon="7.28193">
        <ele>903.5</ele>
        <time>2024-03-05T15:53:48Z</time>
      </trkpt>
      <trkpt lat="48.5936" lon="7.28192">
        <ele>903.7</ele>
        <time>2024-03-05T15:53:49Z</time>
      </trkpt>
      <trkpt lat="48.59359" lon="7.28191">
        <ele>903.9</ele>
        <time>2024-03-05T15:53:50Z</time>
      </trkpt>
      <trkpt lat="48.59356" lon="7.28188">
        <ele>904.2</ele>
        <time>2024-03-05T15:53:51Z</time>
      </trkpt>
      <trkpt lat="48.59354" lon="7.28188">
        <ele>904.3</ele>
        <time>2024-03-05T15:53:52Z</time>
      </trkpt>
      <trkpt lat="48.59351" lon="7.28186">
        <ele>904.6</ele>
        <time>2024-03-05T15:53:53Z</time>
      </trkpt>
      <trkpt lat="48.59349" lon="7.28185">
        <ele>904.8</ele>
        <time>2024-03-05T15:53:54Z</time>
      </trkpt>
      <trkpt lat="48.5935" lon="7.2818">
        <ele>905</ele>
        <time>2024-03-05T15:53:55Z</time>
      </trkpt>
      <trkpt lat="48.5935" lon="7.28176">
        <ele>905.2</ele>
        <time>2024-03-05T15:53:56Z</time>
      </trkpt>
      <trkpt lat="48.5935" lon="7.28174">
        <ele>905.2</ele>
        <time>2024-03-05T15:53:57Z</time>
      </trkpt>
      <trkpt lat="48.5935" lon="7.28169">
        <ele>905.4</ele>
        <time>2024-03-05T15:53:58Z</time>
      </trkpt>
      <trkpt lat="48.5935" lon="7.28168">
        <ele>905.5</ele>
        <time>2024-03-05T15:53:59Z</time>
      </trkpt>
      <trkpt lat="48.59349" lon="7.28163">
        <ele>905.7</ele>
        <time>2024-03-05T15:54:00Z</time>
      </trkpt>
      <trkpt lat="48.59349" lon="7.28161">
        <ele>905.7</ele>
        <time>2024-03-05T15:54:01Z</time>
      </trkpt>
      <trkpt lat="48.59347" lon="7.28158">
        <ele>905.9</ele>
        <time>2024-03-05T15:54:02Z</time>
      </trkpt>
      <trkpt lat="48.59346" lon="7.28157">
        <ele>906</ele>
        <time>2024-03-05T15:54:03Z</time>
      </trkpt>
      <trkpt lat="48.59344" lon="7.28153">
        <ele>906.2</ele>
        <time>2024-03-05T15:54:04Z</time>
      </trkpt>
      <trkpt lat="48.59341" lon="7.28149">
        <ele>906.4</ele>
        <time>2024-03-05T15:54:05Z</time>
      </trkpt>
      <trkpt lat="48.59339" lon="7.28146">
        <ele>906.6</ele>
        <time>2024-03-05T15:54:06Z</time>
      </trkpt>
      <trkpt lat="48.59338" lon="7.28143">
        <ele>906.7</ele>
        <time>2024-03-05T15:54:07Z</time>
      </trkpt>
      <trkpt lat="48.59335" lon="7.28138">
        <ele>907</ele>
        <time>2024-03-05T15:54:08Z</time>
      </trkpt>
      <trkpt lat="48.59335" lon="7.28137">
        <ele>907.1</ele>
        <time>2024-03-05T15:54:09Z</time>
      </trkpt>
      <trkpt lat="48.59333" lon="7.28133">
        <ele>907.3</ele>
        <time>2024-03-05T15:54:10Z</time>
      </trkpt>
      <trkpt lat="48.59332" lon="7.28129">
        <ele>907.5</ele>
        <time>2024-03-05T15:54:11Z</time>
      </trkpt>
      <trkpt lat="48.59329" lon="7.28125">
        <ele>907.8</ele>
        <time>2024-03-05T15:54:12Z</time>
      </trkpt>
      <trkpt lat="48.59328" lon="7.28124">
        <ele>907.9</ele>
        <time>2024-03-05T15:54:13Z</time>
      </trkpt>
      <trkpt lat="48.59326" lon="7.28119">
        <ele>908.2</ele>
        <time>2024-03-05T15:54:14Z</time>
      </trkpt>
      <trkpt lat="48.59325" lon="7.28118">
        <ele>908.3</ele>
        <time>2024-03-05T15:54:15Z</time>
      </trkpt>
      <trkpt lat="48.59323" lon="7.28114">
        <ele>908.5</ele>
        <time>2024-03-05T15:54:16Z</time>
      </trkpt>
      <trkpt lat="48.5932" lon="7.2811">
        <ele>908.8</ele>
        <time>2024-03-05T15:54:17Z</time>
      </trkpt>
      <trkpt lat="48.59319" lon="7.28109">
        <ele>908.9</ele>
        <time>2024-03-05T15:54:18Z</time>
      </trkpt>
      <trkpt lat="48.59316" lon="7.28106">
        <ele>909.1</ele>
        <time>2024-03-05T15:54:19Z</time>
      </trkpt>
      <trkpt lat="48.59315" lon="7.28105">
        <ele>909.2</ele>
        <time>2024-03-05T15:54:20Z</time>
      </trkpt>
      <trkpt lat="48.59312" lon="7.28101">
        <ele>909.5</ele>
        <time>2024-03-05T15:54:21Z</time>
      </trkpt>
      <trkpt lat="48.59311" lon="7.28099">
        <ele>909.6</ele>
        <time>2024-03-05T15:54:22Z</time>
      </trkpt>
      <trkpt lat="48.5931" lon="7.28095">
        <ele>909.7</ele>
        <time>2024-03-05T15:54:23Z</time>
      </trkpt>
      <trkpt lat="48.59309" lon="7.28089">
        <ele>909.6</ele>
        <time>2024-03-05T15:54:24Z</time>
      </trkpt>
      <trkpt lat="48.59308" lon="7.28088">
        <ele>909.6</ele>
        <time>2024-03-05T15:54:25Z</time>
      </trkpt>
      <trkpt lat="48.59308" lon="7.28083">
        <ele>909.6</ele>
        <time>2024-03-05T15:54:26Z</time>
      </trkpt>
      <trkpt lat="48.59307" lon="7.28081">
        <ele>909.6</ele>
        <time>2024-03-05T15:54:27Z</time>
      </trkpt>
      <trkpt lat="48.59306" lon="7.28077">
        <ele>909.6</ele>
        <time>2024-03-05T15:54:28Z</time>
      </trkpt>
      <trkpt lat="48.59305" lon="7.28075">
        <ele>909.6</ele>
        <time>2024-03-05T15:54:29Z</time>
      </trkpt>
      <trkpt lat="48.59304" lon="7.28071">
        <ele>909.6</ele>
        <time>2024-03-05T15:54:30Z</time>
      </trkpt>
      <trkpt lat="48.59304" lon="7.2807">
        <ele>909.6</ele>
        <time>2024-03-05T15:54:31Z</time>
      </trkpt>
      <trkpt lat="48.59302" lon="7.28064">
        <ele>909.6</ele>
        <time>2024-03-05T15:54:32Z</time>
      </trkpt>
      <trkpt lat="48.59301" lon="7.28062">
        <ele>909.6</ele>
        <time>2024-03-05T15:54:33Z</time>
      </trkpt>
      <trkpt lat="48.593" lon="7.28059">
        <ele>909.6</ele>
        <time>2024-03-05T15:54:34Z</time>
      </trkpt>
      <trkpt lat="48.59297" lon="7.28054">
        <ele>909.6</ele>
        <time>2024-03-05T15:54:35Z</time>
      </trkpt>
      <trkpt lat="48.59296" lon="7.28052">
        <ele>909.6</ele>
        <time>2024-03-05T15:54:36Z</time>
      </trkpt>
      <trkpt lat="48.59294" lon="7.28048">
        <ele>909.7</ele>
        <time>2024-03-05T15:54:37Z</time>
      </trkpt>
      <trkpt lat="48.59293" lon="7.28047">
        <ele>909.7</ele>
        <time>2024-03-05T15:54:38Z</time>
      </trkpt>
      <trkpt lat="48.59291" lon="7.28041">
        <ele>909.7</ele>
        <time>2024-03-05T15:54:39Z</time>
      </trkpt>
      <trkpt lat="48.5929" lon="7.2804">
        <ele>909.7</ele>
        <time>2024-03-05T15:54:40Z</time>
      </trkpt>
      <trkpt lat="48.59288" lon="7.28035">
        <ele>909.8</ele>
        <time>2024-03-05T15:54:41Z</time>
      </trkpt>
      <trkpt lat="48.59288" lon="7.28033">
        <ele>909.8</ele>
        <time>2024-03-05T15:54:42Z</time>
      </trkpt>
      <trkpt lat="48.59286" lon="7.2803">
        <ele>909.8</ele>
        <time>2024-03-05T15:54:43Z</time>
      </trkpt>
      <trkpt lat="48.59283" lon="7.28026">
        <ele>909.9</ele>
        <time>2024-03-05T15:54:44Z</time>
      </trkpt>
      <trkpt lat="48.59282" lon="7.28024">
        <ele>909.8</ele>
        <time>2024-03-05T15:54:45Z</time>
      </trkpt>
      <trkpt lat="48.59279" lon="7.28021">
        <ele>909.8</ele>
        <time>2024-03-05T15:54:46Z</time>
      </trkpt>
      <trkpt lat="48.59278" lon="7.2802">
        <ele>909.7</ele>
        <time>2024-03-05T15:54:47Z</time>
      </trkpt>
      <trkpt lat="48.59275" lon="7.28018">
        <ele>909.6</ele>
        <time>2024-03-05T15:54:48Z</time>
      </trkpt>
      <trkpt lat="48.59272" lon="7.28015">
        <ele>909.5</ele>
        <time>2024-03-05T15:54:49Z</time>
      </trkpt>
      <trkpt lat="48.59271" lon="7.28014">
        <ele>909.5</ele>
        <time>2024-03-05T15:54:50Z</time>
      </trkpt>
      <trkpt lat="48.59269" lon="7.28009">
        <ele>909.4</ele>
        <time>2024-03-05T15:54:51Z</time>
      </trkpt>
      <trkpt lat="48.59269" lon="7.28007">
        <ele>909.4</ele>
        <time>2024-03-05T15:54:52Z</time>
      </trkpt>
      <trkpt lat="48.59267" lon="7.28002">
        <ele>909.3</ele>
        <time>2024-03-05T15:54:53Z</time>
      </trkpt>
      <trkpt lat="48.59266" lon="7.28001">
        <ele>909.3</ele>
        <time>2024-03-05T15:54:54Z</time>
      </trkpt>
      <trkpt lat="48.59265" lon="7.27996">
        <ele>909.2</ele>
        <time>2024-03-05T15:54:55Z</time>
      </trkpt>
      <trkpt lat="48.59263" lon="7.27991">
        <ele>909.1</ele>
        <time>2024-03-05T15:54:56Z</time>
      </trkpt>
      <trkpt lat="48.59262" lon="7.2799">
        <ele>909.1</ele>
        <time>2024-03-05T15:54:57Z</time>
      </trkpt>
      <trkpt lat="48.59261" lon="7.27987">
        <ele>909.1</ele>
        <time>2024-03-05T15:54:58Z</time>
      </trkpt>
      <trkpt lat="48.59258" lon="7.27983">
        <ele>909</ele>
        <time>2024-03-05T15:54:59Z</time>
      </trkpt>
      <trkpt lat="48.59257" lon="7.27981">
        <ele>909</ele>
        <time>2024-03-05T15:55:00Z</time>
      </trkpt>
      <trkpt lat="48.59255" lon="7.27976">
        <ele>909</ele>
        <time>2024-03-05T15:55:01Z</time>
      </trkpt>
      <trkpt lat="48.59254" lon="7.27974">
        <ele>909</ele>
        <time>2024-03-05T15:55:02Z</time>
      </trkpt>
      <trkpt lat="48.59251" lon="7.2797">
        <ele>909.1</ele>
        <time>2024-03-05T15:55:03Z</time>
      </trkpt>
      <trkpt lat="48.59251" lon="7.27968">
        <ele>909.1</ele>
        <time>2024-03-05T15:55:04Z</time>
      </trkpt>
      <trkpt lat="48.59248" lon="7.27964">
        <ele>909.3</ele>
        <time>2024-03-05T15:55:05Z</time>
      </trkpt>
      <trkpt lat="48.59247" lon="7.27962">
        <ele>909.5</ele>
        <time>2024-03-05T15:55:06Z</time>
      </trkpt>
      <trkpt lat="48.59245" lon="7.27957">
        <ele>909.9</ele>
        <time>2024-03-05T15:55:07Z</time>
      </trkpt>
      <trkpt lat="48.59244" lon="7.27955">
        <ele>910</ele>
        <time>2024-03-05T15:55:08Z</time>
      </trkpt>
      <trkpt lat="48.59243" lon="7.2795">
        <ele>910.3</ele>
        <time>2024-03-05T15:55:09Z</time>
      </trkpt>
      <trkpt lat="48.59243" lon="7.27948">
        <ele>910.5</ele>
        <time>2024-03-05T15:55:10Z</time>
      </trkpt>
      <trkpt lat="48.59242" lon="7.27943">
        <ele>910.8</ele>
        <time>2024-03-05T15:55:11Z</time>
      </trkpt>
      <trkpt lat="48.59242" lon="7.27941">
        <ele>910.9</ele>
        <time>2024-03-05T15:55:12Z</time>
      </trkpt>
      <trkpt lat="48.59242" lon="7.27935">
        <ele>911.3</ele>
        <time>2024-03-05T15:55:13Z</time>
      </trkpt>
      <trkpt lat="48.59242" lon="7.27933">
        <ele>911.4</ele>
        <time>2024-03-05T15:55:14Z</time>
      </trkpt>
      <trkpt lat="48.59242" lon="7.27928">
        <ele>911.8</ele>
        <time>2024-03-05T15:55:15Z</time>
      </trkpt>
      <trkpt lat="48.59242" lon="7.27926">
        <ele>911.9</ele>
        <time>2024-03-05T15:55:16Z</time>
      </trkpt>
      <trkpt lat="48.59242" lon="7.27921">
        <ele>912.2</ele>
        <time>2024-03-05T15:55:17Z</time>
      </trkpt>
      <trkpt lat="48.59242" lon="7.27919">
        <ele>912.3</ele>
        <time>2024-03-05T15:55:18Z</time>
      </trkpt>
      <trkpt lat="48.59243" lon="7.27914">
        <ele>912.7</ele>
        <time>2024-03-05T15:55:19Z</time>
      </trkpt>
      <trkpt lat="48.59243" lon="7.27912">
        <ele>912.9</ele>
        <time>2024-03-05T15:55:20Z</time>
      </trkpt>
      <trkpt lat="48.59243" lon="7.27906">
        <ele>913.3</ele>
        <time>2024-03-05T15:55:21Z</time>
      </trkpt>
      <trkpt lat="48.59243" lon="7.27905">
        <ele>913.5</ele>
        <time>2024-03-05T15:55:22Z</time>
      </trkpt>
      <trkpt lat="48.59244" lon="7.27899">
        <ele>914</ele>
        <time>2024-03-05T15:55:23Z</time>
      </trkpt>
      <trkpt lat="48.59243" lon="7.27897">
        <ele>914.2</ele>
        <time>2024-03-05T15:55:24Z</time>
      </trkpt>
      <trkpt lat="48.59243" lon="7.27893">
        <ele>914.7</ele>
        <time>2024-03-05T15:55:25Z</time>
      </trkpt>
      <trkpt lat="48.59242" lon="7.27888">
        <ele>915.3</ele>
        <time>2024-03-05T15:55:26Z</time>
      </trkpt>
      <trkpt lat="48.59241" lon="7.27886">
        <ele>915.6</ele>
        <time>2024-03-05T15:55:27Z</time>
      </trkpt>
      <trkpt lat="48.5924" lon="7.27881">
        <ele>916.2</ele>
        <time>2024-03-05T15:55:28Z</time>
      </trkpt>
      <trkpt lat="48.5924" lon="7.27879">
        <ele>916.5</ele>
        <time>2024-03-05T15:55:29Z</time>
      </trkpt>
      <trkpt lat="48.59241" lon="7.27874">
        <ele>917.2</ele>
        <time>2024-03-05T15:55:30Z</time>
      </trkpt>
      <trkpt lat="48.59241" lon="7.27872">
        <ele>917.4</ele>
        <time>2024-03-05T15:55:31Z</time>
      </trkpt>
      <trkpt lat="48.59242" lon="7.27867">
        <ele>918</ele>
        <time>2024-03-05T15:55:32Z</time>
      </trkpt>
      <trkpt lat="48.59242" lon="7.27866">
        <ele>918.2</ele>
        <time>2024-03-05T15:55:33Z</time>
      </trkpt>
      <trkpt lat="48.59243" lon="7.2786">
        <ele>918.9</ele>
        <time>2024-03-05T15:55:34Z</time>
      </trkpt>
      <trkpt lat="48.59243" lon="7.27858">
        <ele>919.1</ele>
        <time>2024-03-05T15:55:35Z</time>
      </trkpt>
      <trkpt lat="48.59243" lon="7.27853">
        <ele>919.7</ele>
        <time>2024-03-05T15:55:36Z</time>
      </trkpt>
      <trkpt lat="48.59243" lon="7.27852">
        <ele>919.9</ele>
        <time>2024-03-05T15:55:37Z</time>
      </trkpt>
      <trkpt lat="48.59242" lon="7.27847">
        <ele>920.4</ele>
        <time>2024-03-05T15:55:38Z</time>
      </trkpt>
      <trkpt lat="48.59241" lon="7.27846">
        <ele>920.6</ele>
        <time>2024-03-05T15:55:39Z</time>
      </trkpt>
      <trkpt lat="48.5924" lon="7.27841">
        <ele>921.1</ele>
        <time>2024-03-05T15:55:40Z</time>
      </trkpt>
      <trkpt lat="48.59239" lon="7.2784">
        <ele>921.3</ele>
        <time>2024-03-05T15:55:41Z</time>
      </trkpt>
      <trkpt lat="48.59238" lon="7.27835">
        <ele>921.8</ele>
        <time>2024-03-05T15:55:42Z</time>
      </trkpt>
      <trkpt lat="48.59238" lon="7.27833">
        <ele>922</ele>
        <time>2024-03-05T15:55:43Z</time>
      </trkpt>
      <trkpt lat="48.59237" lon="7.2783">
        <ele>922.4</ele>
        <time>2024-03-05T15:55:44Z</time>
      </trkpt>
      <trkpt lat="48.59236" lon="7.27828">
        <ele>922.6</ele>
        <time>2024-03-05T15:55:45Z</time>
      </trkpt>
      <trkpt lat="48.59235" lon="7.27825">
        <ele>923</ele>
        <time>2024-03-05T15:55:46Z</time>
      </trkpt>
      <trkpt lat="48.59233" lon="7.27824">
        <ele>923.2</ele>
        <time>2024-03-05T15:55:47Z</time>
      </trkpt>
      <trkpt lat="48.59232" lon="7.27822">
        <ele>923.4</ele>
        <time>2024-03-05T15:55:48Z</time>
      </trkpt>
      <trkpt lat="48.59233" lon="7.27822">
        <ele>923.5</ele>
        <time>2024-03-05T15:55:49Z</time>
      </trkpt>
      <trkpt lat="48.59233" lon="7.27821">
        <ele>923.6</ele>
        <time>2024-03-05T15:55:50Z</time>
      </trkpt>
      <trkpt lat="48.59233" lon="7.27819">
        <ele>923.9</ele>
        <time>2024-03-05T15:55:51Z</time>
      </trkpt>
      <trkpt lat="48.59233" lon="7.27816">
        <ele>924.1</ele>
        <time>2024-03-05T15:55:52Z</time>
      </trkpt>
      <trkpt lat="48.59232" lon="7.27813">
        <ele>924.4</ele>
        <time>2024-03-05T15:55:53Z</time>
      </trkpt>
      <trkpt lat="48.59233" lon="7.27811">
        <ele>924.6</ele>
        <time>2024-03-05T15:55:54Z</time>
      </trkpt>
      <trkpt lat="48.59233" lon="7.2781">
        <ele>924.7</ele>
        <time>2024-03-05T15:55:55Z</time>
      </trkpt>
      <trkpt lat="48.59233" lon="7.27808">
        <ele>924.9</ele>
        <time>2024-03-05T15:55:56Z</time>
      </trkpt>
      <trkpt lat="48.59233" lon="7.27807">
        <ele>925</ele>
        <time>2024-03-05T15:55:57Z</time>
      </trkpt>
      <trkpt lat="48.59235" lon="7.27803">
        <ele>925.4</ele>
        <time>2024-03-05T15:55:58Z</time>
      </trkpt>
      <trkpt lat="48.59236" lon="7.27802">
        <ele>925.6</ele>
        <time>2024-03-05T15:55:59Z</time>
      </trkpt>
      <trkpt lat="48.59235" lon="7.27798">
        <ele>925.9</ele>
        <time>2024-03-05T15:56:01Z</time>
      </trkpt>
      <trkpt lat="48.59235" lon="7.27797">
        <ele>926</ele>
        <time>2024-03-05T15:56:02Z</time>
      </trkpt>
      <trkpt lat="48.59235" lon="7.27796">
        <ele>926.1</ele>
        <time>2024-03-05T15:56:03Z</time>
      </trkpt>
      <trkpt lat="48.59236" lon="7.27793">
        <ele>926.3</ele>
        <time>2024-03-05T15:56:04Z</time>
      </trkpt>
      <trkpt lat="48.59235" lon="7.27792">
        <ele>926.5</ele>
        <time>2024-03-05T15:56:05Z</time>
      </trkpt>
      <trkpt lat="48.59234" lon="7.27791">
        <ele>926.7</ele>
        <time>2024-03-05T15:56:06Z</time>
      </trkpt>
      <trkpt lat="48.59234" lon="7.27786">
        <ele>927.1</ele>
        <time>2024-03-05T15:56:07Z</time>
      </trkpt>
      <trkpt lat="48.59234" lon="7.27785">
        <ele>927.3</ele>
        <time>2024-03-05T15:56:08Z</time>
      </trkpt>
      <trkpt lat="48.59234" lon="7.27779">
        <ele>927.7</ele>
        <time>2024-03-05T15:56:09Z</time>
      </trkpt>
      <trkpt lat="48.59234" lon="7.27777">
        <ele>927.9</ele>
        <time>2024-03-05T15:56:10Z</time>
      </trkpt>
      <trkpt lat="48.59233" lon="7.27771">
        <ele>928.5</ele>
        <time>2024-03-05T15:56:12Z</time>
      </trkpt>
      <trkpt lat="48.59233" lon="7.27768">
        <ele>928.7</ele>
        <time>2024-03-05T15:56:13Z</time>
      </trkpt>
      <trkpt lat="48.59232" lon="7.27767">
        <ele>928.9</ele>
        <time>2024-03-05T15:56:14Z</time>
      </trkpt>
      <trkpt lat="48.59231" lon="7.27764">
        <ele>929.1</ele>
        <time>2024-03-05T15:56:15Z</time>
      </trkpt>
      <trkpt lat="48.5923" lon="7.27761">
        <ele>929.4</ele>
        <time>2024-03-05T15:56:16Z</time>
      </trkpt>
      <trkpt lat="48.59229" lon="7.27759">
        <ele>929.6</ele>
        <time>2024-03-05T15:56:17Z</time>
      </trkpt>
      <trkpt lat="48.59229" lon="7.27756">
        <ele>929.8</ele>
        <time>2024-03-05T15:56:18Z</time>
      </trkpt>
      <trkpt lat="48.59229" lon="7.27754">
        <ele>930</ele>
        <time>2024-03-05T15:56:19Z</time>
      </trkpt>
      <trkpt lat="48.59228" lon="7.2775">
        <ele>930.3</ele>
        <time>2024-03-05T15:56:20Z</time>
      </trkpt>
      <trkpt lat="48.59228" lon="7.27747">
        <ele>930.5</ele>
        <time>2024-03-05T15:56:21Z</time>
      </trkpt>
      <trkpt lat="48.59227" lon="7.27743">
        <ele>930.8</ele>
        <time>2024-03-05T15:56:23Z</time>
      </trkpt>
      <trkpt lat="48.59227" lon="7.27739">
        <ele>931.1</ele>
        <time>2024-03-05T15:56:24Z</time>
      </trkpt>
      <trkpt lat="48.59227" lon="7.27737">
        <ele>931.1</ele>
        <time>2024-03-05T15:56:25Z</time>
      </trkpt>
      <trkpt lat="48.59227" lon="7.27732">
        <ele>931.4</ele>
        <time>2024-03-05T15:56:26Z</time>
      </trkpt>
      <trkpt lat="48.59227" lon="7.27731">
        <ele>931.5</ele>
        <time>2024-03-05T15:56:27Z</time>
      </trkpt>
      <trkpt lat="48.59228" lon="7.27725">
        <ele>931.7</ele>
        <time>2024-03-05T15:56:29Z</time>
      </trkpt>
      <trkpt lat="48.59229" lon="7.27723">
        <ele>931.9</ele>
        <time>2024-03-05T15:56:30Z</time>
      </trkpt>
      <trkpt lat="48.5923" lon="7.2772">
        <ele>932</ele>
        <time>2024-03-05T15:56:32Z</time>
      </trkpt>
      <trkpt lat="48.59231" lon="7.27715">
        <ele>932.2</ele>
        <time>2024-03-05T15:56:33Z</time>
      </trkpt>
      <trkpt lat="48.59232" lon="7.27712">
        <ele>932.3</ele>
        <time>2024-03-05T15:56:34Z</time>
      </trkpt>
      <trkpt lat="48.59233" lon="7.2771">
        <ele>932.4</ele>
        <time>2024-03-05T15:56:35Z</time>
      </trkpt>
      <trkpt lat="48.59234" lon="7.27706">
        <ele>932.5</ele>
        <time>2024-03-05T15:56:36Z</time>
      </trkpt>
      <trkpt lat="48.59235" lon="7.27703">
        <ele>932.7</ele>
        <time>2024-03-05T15:56:37Z</time>
      </trkpt>
      <trkpt lat="48.59236" lon="7.27698">
        <ele>932.8</ele>
        <time>2024-03-05T15:56:38Z</time>
      </trkpt>
      <trkpt lat="48.59237" lon="7.27696">
        <ele>932.9</ele>
        <time>2024-03-05T15:56:39Z</time>
      </trkpt>
      <trkpt lat="48.59239" lon="7.27692">
        <ele>933</ele>
        <time>2024-03-05T15:56:40Z</time>
      </trkpt>
      <trkpt lat="48.59242" lon="7.27687">
        <ele>933.2</ele>
        <time>2024-03-05T15:56:42Z</time>
      </trkpt>
      <trkpt lat="48.59244" lon="7.2768">
        <ele>933.4</ele>
        <time>2024-03-05T15:56:43Z</time>
      </trkpt>
      <trkpt lat="48.59246" lon="7.27677">
        <ele>933.4</ele>
        <time>2024-03-05T15:56:44Z</time>
      </trkpt>
      <trkpt lat="48.59248" lon="7.27673">
        <ele>933.6</ele>
        <time>2024-03-05T15:56:45Z</time>
      </trkpt>
      <trkpt lat="48.59251" lon="7.27671">
        <ele>933.7</ele>
        <time>2024-03-05T15:56:47Z</time>
      </trkpt>
      <trkpt lat="48.59252" lon="7.27667">
        <ele>933.7</ele>
        <time>2024-03-05T15:56:48Z</time>
      </trkpt>
      <trkpt lat="48.59252" lon="7.27664">
        <ele>933.8</ele>
        <time>2024-03-05T15:56:49Z</time>
      </trkpt>
      <trkpt lat="48.59253" lon="7.27663">
        <ele>933.8</ele>
        <time>2024-03-05T15:56:50Z</time>
      </trkpt>
      <trkpt lat="48.59254" lon="7.27662">
        <ele>933.9</ele>
        <time>2024-03-05T15:56:51Z</time>
      </trkpt>
      <trkpt lat="48.59254" lon="7.27658">
        <ele>934</ele>
        <time>2024-03-05T15:56:52Z</time>
      </trkpt>
      <trkpt lat="48.59253" lon="7.27656">
        <ele>934</ele>
        <time>2024-03-05T15:56:53Z</time>
      </trkpt>
      <trkpt lat="48.59253" lon="7.27653">
        <ele>934</ele>
        <time>2024-03-05T15:56:54Z</time>
      </trkpt>
      <trkpt lat="48.59254" lon="7.27648">
        <ele>934.1</ele>
        <time>2024-03-05T15:56:55Z</time>
      </trkpt>
      <trkpt lat="48.59254" lon="7.27646">
        <ele>934.2</ele>
        <time>2024-03-05T15:56:56Z</time>
      </trkpt>
      <trkpt lat="48.59257" lon="7.27641">
        <ele>934.3</ele>
        <time>2024-03-05T15:56:57Z</time>
      </trkpt>
      <trkpt lat="48.59256" lon="7.27637">
        <ele>934.4</ele>
        <time>2024-03-05T15:56:58Z</time>
      </trkpt>
      <trkpt lat="48.59257" lon="7.27633">
        <ele>934.5</ele>
        <time>2024-03-05T15:56:59Z</time>
      </trkpt>
      <trkpt lat="48.59258" lon="7.27632">
        <ele>934.5</ele>
        <time>2024-03-05T15:57:00Z</time>
      </trkpt>
      <trkpt lat="48.59258" lon="7.27628">
        <ele>934.6</ele>
        <time>2024-03-05T15:57:01Z</time>
      </trkpt>
      <trkpt lat="48.59258" lon="7.27625">
        <ele>934.7</ele>
        <time>2024-03-05T15:57:02Z</time>
      </trkpt>
      <trkpt lat="48.59261" lon="7.2762">
        <ele>934.8</ele>
        <time>2024-03-05T15:57:03Z</time>
      </trkpt>
      <trkpt lat="48.59263" lon="7.27616">
        <ele>935</ele>
        <time>2024-03-05T15:57:04Z</time>
      </trkpt>
      <trkpt lat="48.59265" lon="7.27612">
        <ele>935.1</ele>
        <time>2024-03-05T15:57:05Z</time>
      </trkpt>
      <trkpt lat="48.59267" lon="7.27606">
        <ele>935.3</ele>
        <time>2024-03-05T15:57:06Z</time>
      </trkpt>
      <trkpt lat="48.59268" lon="7.27602">
        <ele>935.4</ele>
        <time>2024-03-05T15:57:07Z</time>
      </trkpt>
      <trkpt lat="48.59269" lon="7.27598">
        <ele>935.5</ele>
        <time>2024-03-05T15:57:08Z</time>
      </trkpt>
      <trkpt lat="48.5927" lon="7.27592">
        <ele>935.7</ele>
        <time>2024-03-05T15:57:09Z</time>
      </trkpt>
      <trkpt lat="48.5927" lon="7.27589">
        <ele>935.8</ele>
        <time>2024-03-05T15:57:10Z</time>
      </trkpt>
      <trkpt lat="48.59271" lon="7.27584">
        <ele>936</ele>
        <time>2024-03-05T15:57:11Z</time>
      </trkpt>
      <trkpt lat="48.59273" lon="7.2758">
        <ele>936.1</ele>
        <time>2024-03-05T15:57:12Z</time>
      </trkpt>
      <trkpt lat="48.59274" lon="7.27574">
        <ele>936.4</ele>
        <time>2024-03-05T15:57:13Z</time>
      </trkpt>
      <trkpt lat="48.59274" lon="7.27571">
        <ele>936.4</ele>
        <time>2024-03-05T15:57:14Z</time>
      </trkpt>
      <trkpt lat="48.59275" lon="7.27565">
        <ele>936.6</ele>
        <time>2024-03-05T15:57:15Z</time>
      </trkpt>
      <trkpt lat="48.59276" lon="7.27564">
        <ele>936.7</ele>
        <time>2024-03-05T15:57:16Z</time>
      </trkpt>
      <trkpt lat="48.59276" lon="7.27559">
        <ele>936.9</ele>
        <time>2024-03-05T15:57:17Z</time>
      </trkpt>
      <trkpt lat="48.59276" lon="7.27557">
        <ele>936.9</ele>
        <time>2024-03-05T15:57:18Z</time>
      </trkpt>
      <trkpt lat="48.59277" lon="7.27552">
        <ele>937.1</ele>
        <time>2024-03-05T15:57:19Z</time>
      </trkpt>
      <trkpt lat="48.59277" lon="7.2755">
        <ele>937.2</ele>
        <time>2024-03-05T15:57:20Z</time>
      </trkpt>
      <trkpt lat="48.59279" lon="7.27546">
        <ele>937.4</ele>
        <time>2024-03-05T15:57:21Z</time>
      </trkpt>
      <trkpt lat="48.5928" lon="7.27541">
        <ele>937.6</ele>
        <time>2024-03-05T15:57:22Z</time>
      </trkpt>
      <trkpt lat="48.59281" lon="7.2754">
        <ele>937.7</ele>
        <time>2024-03-05T15:57:23Z</time>
      </trkpt>
      <trkpt lat="48.59282" lon="7.27535">
        <ele>937.9</ele>
        <time>2024-03-05T15:57:24Z</time>
      </trkpt>
      <trkpt lat="48.59282" lon="7.27533">
        <ele>938</ele>
        <time>2024-03-05T15:57:25Z</time>
      </trkpt>
      <trkpt lat="48.59284" lon="7.27529">
        <ele>938.2</ele>
        <time>2024-03-05T15:57:26Z</time>
      </trkpt>
      <trkpt lat="48.59285" lon="7.27524">
        <ele>938.5</ele>
        <time>2024-03-05T15:57:27Z</time>
      </trkpt>
      <trkpt lat="48.59285" lon="7.27521">
        <ele>938.7</ele>
        <time>2024-03-05T15:57:28Z</time>
      </trkpt>
      <trkpt lat="48.59285" lon="7.27517">
        <ele>939</ele>
        <time>2024-03-05T15:57:29Z</time>
      </trkpt>
      <trkpt lat="48.59285" lon="7.27511">
        <ele>939.4</ele>
        <time>2024-03-05T15:57:30Z</time>
      </trkpt>
      <trkpt lat="48.59285" lon="7.27509">
        <ele>939.5</ele>
        <time>2024-03-05T15:57:31Z</time>
      </trkpt>
      <trkpt lat="48.59286" lon="7.27503">
        <ele>940</ele>
        <time>2024-03-05T15:57:32Z</time>
      </trkpt>
      <trkpt lat="48.59286" lon="7.27501">
        <ele>940.1</ele>
        <time>2024-03-05T15:57:33Z</time>
      </trkpt>
      <trkpt lat="48.59286" lon="7.27496">
        <ele>940.5</ele>
        <time>2024-03-05T15:57:34Z</time>
      </trkpt>
      <trkpt lat="48.59286" lon="7.27491">
        <ele>941</ele>
        <time>2024-03-05T15:57:35Z</time>
      </trkpt>
      <trkpt lat="48.59285" lon="7.27489">
        <ele>941.2</ele>
        <time>2024-03-05T15:57:36Z</time>
      </trkpt>
      <trkpt lat="48.59285" lon="7.27486">
        <ele>941.4</ele>
        <time>2024-03-05T15:57:37Z</time>
      </trkpt>
      <trkpt lat="48.59285" lon="7.27484">
        <ele>941.6</ele>
        <time>2024-03-05T15:57:38Z</time>
      </trkpt>
      <trkpt lat="48.59285" lon="7.27482">
        <ele>941.7</ele>
        <time>2024-03-05T15:57:39Z</time>
      </trkpt>
      <trkpt lat="48.59284" lon="7.27478">
        <ele>942.1</ele>
        <time>2024-03-05T15:57:40Z</time>
      </trkpt>
      <trkpt lat="48.59284" lon="7.27477">
        <ele>942.2</ele>
        <time>2024-03-05T15:57:41Z</time>
      </trkpt>
      <trkpt lat="48.59283" lon="7.27474">
        <ele>942.4</ele>
        <time>2024-03-05T15:57:42Z</time>
      </trkpt>
      <trkpt lat="48.59283" lon="7.27469">
        <ele>942.9</ele>
        <time>2024-03-05T15:57:44Z</time>
      </trkpt>
      <trkpt lat="48.59283" lon="7.27466">
        <ele>943.1</ele>
        <time>2024-03-05T15:57:45Z</time>
      </trkpt>
      <trkpt lat="48.59282" lon="7.27464">
        <ele>943.3</ele>
        <time>2024-03-05T15:57:46Z</time>
      </trkpt>
      <trkpt lat="48.59281" lon="7.2746">
        <ele>943.6</ele>
        <time>2024-03-05T15:57:47Z</time>
      </trkpt>
      <trkpt lat="48.59281" lon="7.27458">
        <ele>943.8</ele>
        <time>2024-03-05T15:57:48Z</time>
      </trkpt>
      <trkpt lat="48.5928" lon="7.27454">
        <ele>944.1</ele>
        <time>2024-03-05T15:57:49Z</time>
      </trkpt>
      <trkpt lat="48.5928" lon="7.27453">
        <ele>944.2</ele>
        <time>2024-03-05T15:57:50Z</time>
      </trkpt>
      <trkpt lat="48.59279" lon="7.27451">
        <ele>944.4</ele>
        <time>2024-03-05T15:57:51Z</time>
      </trkpt>
      <trkpt lat="48.59278" lon="7.27448">
        <ele>944.7</ele>
        <time>2024-03-05T15:57:52Z</time>
      </trkpt>
      <trkpt lat="48.59277" lon="7.27443">
        <ele>945.1</ele>
        <time>2024-03-05T15:57:53Z</time>
      </trkpt>
      <trkpt lat="48.59277" lon="7.27442">
        <ele>945.2</ele>
        <time>2024-03-05T15:57:54Z</time>
      </trkpt>
      <trkpt lat="48.59276" lon="7.27439">
        <ele>945.5</ele>
        <time>2024-03-05T15:57:55Z</time>
      </trkpt>
      <trkpt lat="48.59275" lon="7.27437">
        <ele>945.7</ele>
        <time>2024-03-05T15:57:56Z</time>
      </trkpt>
      <trkpt lat="48.59273" lon="7.27433">
        <ele>946.1</ele>
        <time>2024-03-05T15:57:57Z</time>
      </trkpt>
      <trkpt lat="48.59273" lon="7.27432">
        <ele>946.2</ele>
        <time>2024-03-05T15:57:58Z</time>
      </trkpt>
      <trkpt lat="48.59271" lon="7.27428">
        <ele>946.6</ele>
        <time>2024-03-05T15:57:59Z</time>
      </trkpt>
      <trkpt lat="48.59271" lon="7.27426">
        <ele>946.7</ele>
        <time>2024-03-05T15:58:00Z</time>
      </trkpt>
      <trkpt lat="48.5927" lon="7.27422">
        <ele>947.1</ele>
        <time>2024-03-05T15:58:01Z</time>
      </trkpt>
      <trkpt lat="48.5927" lon="7.27421">
        <ele>947.2</ele>
        <time>2024-03-05T15:58:02Z</time>
      </trkpt>
      <trkpt lat="48.59268" lon="7.27416">
        <ele>947.6</ele>
        <time>2024-03-05T15:58:03Z</time>
      </trkpt>
      <trkpt lat="48.59268" lon="7.27414">
        <ele>947.7</ele>
        <time>2024-03-05T15:58:04Z</time>
      </trkpt>
      <trkpt lat="48.59267" lon="7.2741">
        <ele>948.1</ele>
        <time>2024-03-05T15:58:05Z</time>
      </trkpt>
      <trkpt lat="48.59266" lon="7.27409">
        <ele>948.2</ele>
        <time>2024-03-05T15:58:06Z</time>
      </trkpt>
      <trkpt lat="48.59265" lon="7.27405">
        <ele>948.5</ele>
        <time>2024-03-05T15:58:07Z</time>
      </trkpt>
      <trkpt lat="48.59264" lon="7.27402">
        <ele>948.8</ele>
        <time>2024-03-05T15:58:08Z</time>
      </trkpt>
      <trkpt lat="48.59263" lon="7.27396">
        <ele>949.3</ele>
        <time>2024-03-05T15:58:10Z</time>
      </trkpt>
      <trkpt lat="48.59262" lon="7.27393">
        <ele>949.6</ele>
        <time>2024-03-05T15:58:11Z</time>
      </trkpt>
      <trkpt lat="48.5926" lon="7.27387">
        <ele>950</ele>
        <time>2024-03-05T15:58:13Z</time>
      </trkpt>
      <trkpt lat="48.59259" lon="7.27385">
        <ele>950.2</ele>
        <time>2024-03-05T15:58:14Z</time>
      </trkpt>
      <trkpt lat="48.59259" lon="7.27383">
        <ele>950.4</ele>
        <time>2024-03-05T15:58:15Z</time>
      </trkpt>
      <trkpt lat="48.59258" lon="7.2738">
        <ele>950.6</ele>
        <time>2024-03-05T15:58:16Z</time>
      </trkpt>
      <trkpt lat="48.59258" lon="7.27378">
        <ele>950.8</ele>
        <time>2024-03-05T15:58:17Z</time>
      </trkpt>
      <trkpt lat="48.59257" lon="7.27373">
        <ele>951.1</ele>
        <time>2024-03-05T15:58:18Z</time>
      </trkpt>
      <trkpt lat="48.59256" lon="7.27371">
        <ele>951.3</ele>
        <time>2024-03-05T15:58:19Z</time>
      </trkpt>
      <trkpt lat="48.59256" lon="7.27368">
        <ele>951.5</ele>
        <time>2024-03-05T15:58:20Z</time>
      </trkpt>
      <trkpt lat="48.59256" lon="7.27366">
        <ele>951.7</ele>
        <time>2024-03-05T15:58:21Z</time>
      </trkpt>
      <trkpt lat="48.59254" lon="7.27361">
        <ele>952.1</ele>
        <time>2024-03-05T15:58:22Z</time>
      </trkpt>
      <trkpt lat="48.59254" lon="7.2736">
        <ele>952.3</ele>
        <time>2024-03-05T15:58:23Z</time>
      </trkpt>
      <trkpt lat="48.59252" lon="7.27356">
        <ele>952.6</ele>
        <time>2024-03-05T15:58:24Z</time>
      </trkpt>
      <trkpt lat="48.59251" lon="7.27354">
        <ele>952.7</ele>
        <time>2024-03-05T15:58:25Z</time>
      </trkpt>
      <trkpt lat="48.59251" lon="7.27352">
        <ele>952.9</ele>
        <time>2024-03-05T15:58:26Z</time>
      </trkpt>
      <trkpt lat="48.5925" lon="7.2735">
        <ele>953.1</ele>
        <time>2024-03-05T15:58:27Z</time>
      </trkpt>
      <trkpt lat="48.59249" lon="7.27345">
        <ele>953.5</ele>
        <time>2024-03-05T15:58:28Z</time>
      </trkpt>
      <trkpt lat="48.59248" lon="7.27344">
        <ele>953.6</ele>
        <time>2024-03-05T15:58:29Z</time>
      </trkpt>
      <trkpt lat="48.59247" lon="7.2734">
        <ele>954</ele>
        <time>2024-03-05T15:58:30Z</time>
      </trkpt>
      <trkpt lat="48.59247" lon="7.27339">
        <ele>954.1</ele>
        <time>2024-03-05T15:58:31Z</time>
      </trkpt>
      <trkpt lat="48.59247" lon="7.27334">
        <ele>954.5</ele>
        <time>2024-03-05T15:58:32Z</time>
      </trkpt>
      <trkpt lat="48.59247" lon="7.27333">
        <ele>954.6</ele>
        <time>2024-03-05T15:58:33Z</time>
      </trkpt>
      <trkpt lat="48.59247" lon="7.27329">
        <ele>954.9</ele>
        <time>2024-03-05T15:58:34Z</time>
      </trkpt>
      <trkpt lat="48.59248" lon="7.27327">
        <ele>955</ele>
        <time>2024-03-05T15:58:35Z</time>
      </trkpt>
      <trkpt lat="48.59247" lon="7.27323">
        <ele>955.3</ele>
        <time>2024-03-05T15:58:36Z</time>
      </trkpt>
      <trkpt lat="48.59247" lon="7.27321">
        <ele>955.4</ele>
        <time>2024-03-05T15:58:37Z</time>
      </trkpt>
      <trkpt lat="48.59247" lon="7.27319">
        <ele>955.6</ele>
        <time>2024-03-05T15:58:38Z</time>
      </trkpt>
      <trkpt lat="48.59248" lon="7.27316">
        <ele>955.8</ele>
        <time>2024-03-05T15:58:39Z</time>
      </trkpt>
      <trkpt lat="48.5925" lon="7.27313">
        <ele>956</ele>
        <time>2024-03-05T15:58:40Z</time>
      </trkpt>
      <trkpt lat="48.5925" lon="7.27311">
        <ele>956.1</ele>
        <time>2024-03-05T15:58:41Z</time>
      </trkpt>
      <trkpt lat="48.59252" lon="7.27308">
        <ele>956.4</ele>
        <time>2024-03-05T15:58:42Z</time>
      </trkpt>
      <trkpt lat="48.59252" lon="7.27306">
        <ele>956.5</ele>
        <time>2024-03-05T15:58:43Z</time>
      </trkpt>
      <trkpt lat="48.59254" lon="7.27302">
        <ele>956.8</ele>
        <time>2024-03-05T15:58:44Z</time>
      </trkpt>
      <trkpt lat="48.59255" lon="7.27301">
        <ele>956.9</ele>
        <time>2024-03-05T15:58:45Z</time>
      </trkpt>
      <trkpt lat="48.59257" lon="7.27298">
        <ele>957.2</ele>
        <time>2024-03-05T15:58:46Z</time>
      </trkpt>
      <trkpt lat="48.59258" lon="7.27297">
        <ele>957.3</ele>
        <time>2024-03-05T15:58:47Z</time>
      </trkpt>
      <trkpt lat="48.59261" lon="7.27295">
        <ele>957.6</ele>
        <time>2024-03-05T15:58:48Z</time>
      </trkpt>
      <trkpt lat="48.59262" lon="7.27294">
        <ele>957.7</ele>
        <time>2024-03-05T15:58:49Z</time>
      </trkpt>
      <trkpt lat="48.59265" lon="7.27292">
        <ele>958</ele>
        <time>2024-03-05T15:58:50Z</time>
      </trkpt>
      <trkpt lat="48.59266" lon="7.27291">
        <ele>958.1</ele>
        <time>2024-03-05T15:58:51Z</time>
      </trkpt>
      <trkpt lat="48.59269" lon="7.27288">
        <ele>958.4</ele>
        <time>2024-03-05T15:58:52Z</time>
      </trkpt>
      <trkpt lat="48.59269" lon="7.27287">
        <ele>958.5</ele>
        <time>2024-03-05T15:58:53Z</time>
      </trkpt>
      <trkpt lat="48.59272" lon="7.27284">
        <ele>958.7</ele>
        <time>2024-03-05T15:58:54Z</time>
      </trkpt>
      <trkpt lat="48.59273" lon="7.27282">
        <ele>958.8</ele>
        <time>2024-03-05T15:58:55Z</time>
      </trkpt>
      <trkpt lat="48.59275" lon="7.27279">
        <ele>959.1</ele>
        <time>2024-03-05T15:58:56Z</time>
      </trkpt>
      <trkpt lat="48.59276" lon="7.27277">
        <ele>959.2</ele>
        <time>2024-03-05T15:58:57Z</time>
      </trkpt>
      <trkpt lat="48.59279" lon="7.27275">
        <ele>959.5</ele>
        <time>2024-03-05T15:58:59Z</time>
      </trkpt>
      <trkpt lat="48.5928" lon="7.27273">
        <ele>959.6</ele>
        <time>2024-03-05T15:59:00Z</time>
      </trkpt>
      <trkpt lat="48.59281" lon="7.27271">
        <ele>959.7</ele>
        <time>2024-03-05T15:59:01Z</time>
      </trkpt>
      <trkpt lat="48.59282" lon="7.27267">
        <ele>959.9</ele>
        <time>2024-03-05T15:59:02Z</time>
      </trkpt>
      <trkpt lat="48.59282" lon="7.27263">
        <ele>960.1</ele>
        <time>2024-03-05T15:59:03Z</time>
      </trkpt>
      <trkpt lat="48.59284" lon="7.27257">
        <ele>960.4</ele>
        <time>2024-03-05T15:59:04Z</time>
      </trkpt>
      <trkpt lat="48.59285" lon="7.27256">
        <ele>960.5</ele>
        <time>2024-03-05T15:59:05Z</time>
      </trkpt>
      <trkpt lat="48.59287" lon="7.27252">
        <ele>960.7</ele>
        <time>2024-03-05T15:59:06Z</time>
      </trkpt>
      <trkpt lat="48.59288" lon="7.27246">
        <ele>960.9</ele>
        <time>2024-03-05T15:59:07Z</time>
      </trkpt>
      <trkpt lat="48.59289" lon="7.27245">
        <ele>961.1</ele>
        <time>2024-03-05T15:59:08Z</time>
      </trkpt>
      <trkpt lat="48.59292" lon="7.27241">
        <ele>961.4</ele>
        <time>2024-03-05T15:59:09Z</time>
      </trkpt>
      <trkpt lat="48.59292" lon="7.2724">
        <ele>961.4</ele>
        <time>2024-03-05T15:59:10Z</time>
      </trkpt>
      <trkpt lat="48.59295" lon="7.27238">
        <ele>961.7</ele>
        <time>2024-03-05T15:59:11Z</time>
      </trkpt>
      <trkpt lat="48.59296" lon="7.27237">
        <ele>961.8</ele>
        <time>2024-03-05T15:59:12Z</time>
      </trkpt>
      <trkpt lat="48.59297" lon="7.27233">
        <ele>962.1</ele>
        <time>2024-03-05T15:59:13Z</time>
      </trkpt>
      <trkpt lat="48.59298" lon="7.27231">
        <ele>962.2</ele>
        <time>2024-03-05T15:59:14Z</time>
      </trkpt>
      <trkpt lat="48.593" lon="7.27227">
        <ele>962.5</ele>
        <time>2024-03-05T15:59:15Z</time>
      </trkpt>
      <trkpt lat="48.59301" lon="7.27223">
        <ele>962.8</ele>
        <time>2024-03-05T15:59:16Z</time>
      </trkpt>
      <trkpt lat="48.59303" lon="7.27219">
        <ele>963.1</ele>
        <time>2024-03-05T15:59:17Z</time>
      </trkpt>
      <trkpt lat="48.59305" lon="7.27215">
        <ele>963.4</ele>
        <time>2024-03-05T15:59:18Z</time>
      </trkpt>
      <trkpt lat="48.59306" lon="7.2721">
        <ele>963.7</ele>
        <time>2024-03-05T15:59:19Z</time>
      </trkpt>
      <trkpt lat="48.59307" lon="7.27209">
        <ele>963.9</ele>
        <time>2024-03-05T15:59:20Z</time>
      </trkpt>
      <trkpt lat="48.59307" lon="7.27203">
        <ele>964.2</ele>
        <time>2024-03-05T15:59:21Z</time>
      </trkpt>
      <trkpt lat="48.59307" lon="7.27202">
        <ele>964.3</ele>
        <time>2024-03-05T15:59:22Z</time>
      </trkpt>
      <trkpt lat="48.59306" lon="7.27199">
        <ele>964.5</ele>
        <time>2024-03-05T15:59:23Z</time>
      </trkpt>
      <trkpt lat="48.59307" lon="7.27197">
        <ele>964.6</ele>
        <time>2024-03-05T15:59:24Z</time>
      </trkpt>
      <trkpt lat="48.59309" lon="7.27194">
        <ele>964.9</ele>
        <time>2024-03-05T15:59:25Z</time>
      </trkpt>
      <trkpt lat="48.5931" lon="7.27189">
        <ele>965.2</ele>
        <time>2024-03-05T15:59:26Z</time>
      </trkpt>
      <trkpt lat="48.59309" lon="7.27186">
        <ele>965.3</ele>
        <time>2024-03-05T15:59:27Z</time>
      </trkpt>
      <trkpt lat="48.59308" lon="7.27182">
        <ele>965.5</ele>
        <time>2024-03-05T15:59:28Z</time>
      </trkpt>
      <trkpt lat="48.59309" lon="7.2718">
        <ele>965.6</ele>
        <time>2024-03-05T15:59:29Z</time>
      </trkpt>
      <trkpt lat="48.59309" lon="7.27178">
        <ele>965.7</ele>
        <time>2024-03-05T15:59:30Z</time>
      </trkpt>
      <trkpt lat="48.59308" lon="7.27177">
        <ele>965.8</ele>
        <time>2024-03-05T15:59:31Z</time>
      </trkpt>
      <trkpt lat="48.59309" lon="7.27172">
        <ele>965.9</ele>
        <time>2024-03-05T15:59:32Z</time>
      </trkpt>
      <trkpt lat="48.59309" lon="7.2717">
        <ele>966</ele>
        <time>2024-03-05T15:59:33Z</time>
      </trkpt>
      <trkpt lat="48.59309" lon="7.27165">
        <ele>966.2</ele>
        <time>2024-03-05T15:59:34Z</time>
      </trkpt>
      <trkpt lat="48.59309" lon="7.27163">
        <ele>966.2</ele>
        <time>2024-03-05T15:59:35Z</time>
      </trkpt>
      <trkpt lat="48.59308" lon="7.27157">
        <ele>966.4</ele>
        <time>2024-03-05T15:59:36Z</time>
      </trkpt>
      <trkpt lat="48.59308" lon="7.27155">
        <ele>966.4</ele>
        <time>2024-03-05T15:59:37Z</time>
      </trkpt>
      <trkpt lat="48.59307" lon="7.2715">
        <ele>966.5</ele>
        <time>2024-03-05T15:59:38Z</time>
      </trkpt>
      <trkpt lat="48.59306" lon="7.27148">
        <ele>966.5</ele>
        <time>2024-03-05T15:59:39Z</time>
      </trkpt>
      <trkpt lat="48.59305" lon="7.27142">
        <ele>966.4</ele>
        <time>2024-03-05T15:59:40Z</time>
      </trkpt>
      <trkpt lat="48.59304" lon="7.27141">
        <ele>966.4</ele>
        <time>2024-03-05T15:59:41Z</time>
      </trkpt>
      <trkpt lat="48.59303" lon="7.27137">
        <ele>966.4</ele>
        <time>2024-03-05T15:59:42Z</time>
      </trkpt>
      <trkpt lat="48.59302" lon="7.27131">
        <ele>966.2</ele>
        <time>2024-03-05T15:59:43Z</time>
      </trkpt>
      <trkpt lat="48.59301" lon="7.27129">
        <ele>966.2</ele>
        <time>2024-03-05T15:59:44Z</time>
      </trkpt>
      <trkpt lat="48.59301" lon="7.27123">
        <ele>966</ele>
        <time>2024-03-05T15:59:45Z</time>
      </trkpt>
      <trkpt lat="48.593" lon="7.27119">
        <ele>965.8</ele>
        <time>2024-03-05T15:59:46Z</time>
      </trkpt>
      <trkpt lat="48.59299" lon="7.27114">
        <ele>965.7</ele>
        <time>2024-03-05T15:59:47Z</time>
      </trkpt>
      <trkpt lat="48.59298" lon="7.27109">
        <ele>965.5</ele>
        <time>2024-03-05T15:59:48Z</time>
      </trkpt>
      <trkpt lat="48.59298" lon="7.27105">
        <ele>965.3</ele>
        <time>2024-03-05T15:59:49Z</time>
      </trkpt>
      <trkpt lat="48.59298" lon="7.27099">
        <ele>965</ele>
        <time>2024-03-05T15:59:50Z</time>
      </trkpt>
      <trkpt lat="48.59298" lon="7.27097">
        <ele>964.9</ele>
        <time>2024-03-05T15:59:51Z</time>
      </trkpt>
      <trkpt lat="48.59298" lon="7.27092">
        <ele>964.8</ele>
        <time>2024-03-05T15:59:52Z</time>
      </trkpt>
      <trkpt lat="48.59298" lon="7.27087">
        <ele>964.5</ele>
        <time>2024-03-05T15:59:53Z</time>
      </trkpt>
      <trkpt lat="48.59297" lon="7.27081">
        <ele>964.3</ele>
        <time>2024-03-05T15:59:54Z</time>
      </trkpt>
      <trkpt lat="48.59297" lon="7.27079">
        <ele>964.2</ele>
        <time>2024-03-05T15:59:55Z</time>
      </trkpt>
      <trkpt lat="48.59298" lon="7.27071">
        <ele>963.9</ele>
        <time>2024-03-05T15:59:57Z</time>
      </trkpt>
      <trkpt lat="48.59297" lon="7.27066">
        <ele>963.7</ele>
        <time>2024-03-05T15:59:58Z</time>
      </trkpt>
      <trkpt lat="48.59297" lon="7.27061">
        <ele>963.5</ele>
        <time>2024-03-05T15:59:59Z</time>
      </trkpt>
      <trkpt lat="48.59297" lon="7.27057">
        <ele>963.3</ele>
        <time>2024-03-05T16:00:00Z</time>
      </trkpt>
      <trkpt lat="48.59297" lon="7.27052">
        <ele>963.1</ele>
        <time>2024-03-05T16:00:01Z</time>
      </trkpt>
      <trkpt lat="48.59298" lon="7.27047">
        <ele>962.9</ele>
        <time>2024-03-05T16:00:02Z</time>
      </trkpt>
      <trkpt lat="48.59298" lon="7.27043">
        <ele>962.7</ele>
        <time>2024-03-05T16:00:03Z</time>
      </trkpt>
      <trkpt lat="48.59299" lon="7.27038">
        <ele>962.4</ele>
        <time>2024-03-05T16:00:04Z</time>
      </trkpt>
      <trkpt lat="48.59299" lon="7.27034">
        <ele>962.1</ele>
        <time>2024-03-05T16:00:05Z</time>
      </trkpt>
      <trkpt lat="48.593" lon="7.27028">
        <ele>961.8</ele>
        <time>2024-03-05T16:00:06Z</time>
      </trkpt>
      <trkpt lat="48.593" lon="7.27025">
        <ele>961.6</ele>
        <time>2024-03-05T16:00:07Z</time>
      </trkpt>
      <trkpt lat="48.59301" lon="7.27021">
        <ele>961.3</ele>
        <time>2024-03-05T16:00:08Z</time>
      </trkpt>
      <trkpt lat="48.59301" lon="7.27017">
        <ele>961</ele>
        <time>2024-03-05T16:00:09Z</time>
      </trkpt>
      <trkpt lat="48.59301" lon="7.27013">
        <ele>960.7</ele>
        <time>2024-03-05T16:00:10Z</time>
      </trkpt>
      <trkpt lat="48.59301" lon="7.27008">
        <ele>960.3</ele>
        <time>2024-03-05T16:00:11Z</time>
      </trkpt>
      <trkpt lat="48.59301" lon="7.27004">
        <ele>960</ele>
        <time>2024-03-05T16:00:12Z</time>
      </trkpt>
      <trkpt lat="48.593" lon="7.26999">
        <ele>959.6</ele>
        <time>2024-03-05T16:00:13Z</time>
      </trkpt>
      <trkpt lat="48.593" lon="7.26995">
        <ele>959.3</ele>
        <time>2024-03-05T16:00:14Z</time>
      </trkpt>
      <trkpt lat="48.59299" lon="7.26991">
        <ele>958.9</ele>
        <time>2024-03-05T16:00:15Z</time>
      </trkpt>
      <trkpt lat="48.59299" lon="7.26984">
        <ele>958.3</ele>
        <time>2024-03-05T16:00:16Z</time>
      </trkpt>
      <trkpt lat="48.59299" lon="7.26977">
        <ele>957.6</ele>
        <time>2024-03-05T16:00:18Z</time>
      </trkpt>
      <trkpt lat="48.59297" lon="7.26973">
        <ele>957.2</ele>
        <time>2024-03-05T16:00:19Z</time>
      </trkpt>
      <trkpt lat="48.59297" lon="7.26968">
        <ele>956.7</ele>
        <time>2024-03-05T16:00:20Z</time>
      </trkpt>
      <trkpt lat="48.59296" lon="7.26964">
        <ele>956.2</ele>
        <time>2024-03-05T16:00:21Z</time>
      </trkpt>
      <trkpt lat="48.59295" lon="7.26959">
        <ele>955.7</ele>
        <time>2024-03-05T16:00:22Z</time>
      </trkpt>
      <trkpt lat="48.59295" lon="7.26954">
        <ele>955.1</ele>
        <time>2024-03-05T16:00:23Z</time>
      </trkpt>
      <trkpt lat="48.59294" lon="7.26948">
        <ele>954.4</ele>
        <time>2024-03-05T16:00:24Z</time>
      </trkpt>
      <trkpt lat="48.59293" lon="7.26942">
        <ele>953.7</ele>
        <time>2024-03-05T16:00:25Z</time>
      </trkpt>
      <trkpt lat="48.5929" lon="7.26937">
        <ele>953</ele>
        <time>2024-03-05T16:00:26Z</time>
      </trkpt>
      <trkpt lat="48.59288" lon="7.2693">
        <ele>952.1</ele>
        <time>2024-03-05T16:00:27Z</time>
      </trkpt>
      <trkpt lat="48.59286" lon="7.26924">
        <ele>951.3</ele>
        <time>2024-03-05T16:00:28Z</time>
      </trkpt>
      <trkpt lat="48.5928" lon="7.26917">
        <ele>950.1</ele>
        <time>2024-03-05T16:00:30Z</time>
      </trkpt>
      <trkpt lat="48.59278" lon="7.26914">
        <ele>949.5</ele>
        <time>2024-03-05T16:00:31Z</time>
      </trkpt>
      <trkpt lat="48.59274" lon="7.26909">
        <ele>948.8</ele>
        <time>2024-03-05T16:00:32Z</time>
      </trkpt>
      <trkpt lat="48.59272" lon="7.26902">
        <ele>948</ele>
        <time>2024-03-05T16:00:33Z</time>
      </trkpt>
      <trkpt lat="48.59269" lon="7.26899">
        <ele>947.4</ele>
        <time>2024-03-05T16:00:34Z</time>
      </trkpt>
      <trkpt lat="48.59265" lon="7.26894">
        <ele>946.6</ele>
        <time>2024-03-05T16:00:35Z</time>
      </trkpt>
      <trkpt lat="48.59264" lon="7.26889">
        <ele>946</ele>
        <time>2024-03-05T16:00:36Z</time>
      </trkpt>
      <trkpt lat="48.59262" lon="7.26884">
        <ele>945.4</ele>
        <time>2024-03-05T16:00:37Z</time>
      </trkpt>
      <trkpt lat="48.59261" lon="7.26879">
        <ele>944.9</ele>
        <time>2024-03-05T16:00:38Z</time>
      </trkpt>
      <trkpt lat="48.5926" lon="7.26873">
        <ele>944.3</ele>
        <time>2024-03-05T16:00:39Z</time>
      </trkpt>
      <trkpt lat="48.59259" lon="7.26867">
        <ele>943.7</ele>
        <time>2024-03-05T16:00:40Z</time>
      </trkpt>
      <trkpt lat="48.59258" lon="7.26861">
        <ele>943.2</ele>
        <time>2024-03-05T16:00:41Z</time>
      </trkpt>
      <trkpt lat="48.59256" lon="7.26856">
        <ele>942.7</ele>
        <time>2024-03-05T16:00:42Z</time>
      </trkpt>
      <trkpt lat="48.59253" lon="7.26852">
        <ele>942.2</ele>
        <time>2024-03-05T16:00:43Z</time>
      </trkpt>
      <trkpt lat="48.5925" lon="7.26844">
        <ele>941.4</ele>
        <time>2024-03-05T16:00:44Z</time>
      </trkpt>
      <trkpt lat="48.59249" lon="7.26839">
        <ele>941</ele>
        <time>2024-03-05T16:00:45Z</time>
      </trkpt>
      <trkpt lat="48.59249" lon="7.26834">
        <ele>940.6</ele>
        <time>2024-03-05T16:00:46Z</time>
      </trkpt>
      <trkpt lat="48.59248" lon="7.26829">
        <ele>940.3</ele>
        <time>2024-03-05T16:00:47Z</time>
      </trkpt>
      <trkpt lat="48.59246" lon="7.26824">
        <ele>939.9</ele>
        <time>2024-03-05T16:00:48Z</time>
      </trkpt>
      <trkpt lat="48.59246" lon="7.26817">
        <ele>939.4</ele>
        <time>2024-03-05T16:00:49Z</time>
      </trkpt>
      <trkpt lat="48.59244" lon="7.26812">
        <ele>939</ele>
        <time>2024-03-05T16:00:50Z</time>
      </trkpt>
      <trkpt lat="48.59243" lon="7.26807">
        <ele>938.5</ele>
        <time>2024-03-05T16:00:51Z</time>
      </trkpt>
      <trkpt lat="48.59242" lon="7.26801">
        <ele>938</ele>
        <time>2024-03-05T16:00:52Z</time>
      </trkpt>
      <trkpt lat="48.59241" lon="7.26796">
        <ele>937.6</ele>
        <time>2024-03-05T16:00:53Z</time>
      </trkpt>
      <trkpt lat="48.5924" lon="7.26791">
        <ele>937.1</ele>
        <time>2024-03-05T16:00:54Z</time>
      </trkpt>
      <trkpt lat="48.59239" lon="7.26785">
        <ele>936.7</ele>
        <time>2024-03-05T16:00:55Z</time>
      </trkpt>
      <trkpt lat="48.59238" lon="7.2678">
        <ele>936.3</ele>
        <time>2024-03-05T16:00:56Z</time>
      </trkpt>
      <trkpt lat="48.59238" lon="7.26775">
        <ele>935.8</ele>
        <time>2024-03-05T16:00:57Z</time>
      </trkpt>
      <trkpt lat="48.59237" lon="7.26771">
        <ele>935.4</ele>
        <time>2024-03-05T16:00:58Z</time>
      </trkpt>
      <trkpt lat="48.59236" lon="7.26766">
        <ele>934.9</ele>
        <time>2024-03-05T16:00:59Z</time>
      </trkpt>
      <trkpt lat="48.59233" lon="7.26762">
        <ele>934.4</ele>
        <time>2024-03-05T16:01:00Z</time>
      </trkpt>
      <trkpt lat="48.59231" lon="7.26759">
        <ele>933.9</ele>
        <time>2024-03-05T16:01:01Z</time>
      </trkpt>
      <trkpt lat="48.5923" lon="7.26754">
        <ele>933.4</ele>
        <time>2024-03-05T16:01:02Z</time>
      </trkpt>
      <trkpt lat="48.59228" lon="7.26751">
        <ele>932.9</ele>
        <time>2024-03-05T16:01:03Z</time>
      </trkpt>
      <trkpt lat="48.59226" lon="7.26747">
        <ele>932.4</ele>
        <time>2024-03-05T16:01:04Z</time>
      </trkpt>
      <trkpt lat="48.59224" lon="7.26743">
        <ele>931.9</ele>
        <time>2024-03-05T16:01:05Z</time>
      </trkpt>
      <trkpt lat="48.59223" lon="7.26738">
        <ele>931.4</ele>
        <time>2024-03-05T16:01:06Z</time>
      </trkpt>
      <trkpt lat="48.59222" lon="7.26734">
        <ele>930.9</ele>
        <time>2024-03-05T16:01:07Z</time>
      </trkpt>
      <trkpt lat="48.59222" lon="7.26728">
        <ele>930.3</ele>
        <time>2024-03-05T16:01:08Z</time>
      </trkpt>
      <trkpt lat="48.59223" lon="7.26721">
        <ele>929.7</ele>
        <time>2024-03-05T16:01:09Z</time>
      </trkpt>
      <trkpt lat="48.59223" lon="7.26715">
        <ele>929.1</ele>
        <time>2024-03-05T16:01:10Z</time>
      </trkpt>
      <trkpt lat="48.59225" lon="7.2671">
        <ele>928.6</ele>
        <time>2024-03-05T16:01:11Z</time>
      </trkpt>
      <trkpt lat="48.59226" lon="7.26704">
        <ele>928</ele>
        <time>2024-03-05T16:01:12Z</time>
      </trkpt>
      <trkpt lat="48.59227" lon="7.267">
        <ele>927.5</ele>
        <time>2024-03-05T16:01:13Z</time>
      </trkpt>
      <trkpt lat="48.59228" lon="7.26695">
        <ele>927.1</ele>
        <time>2024-03-05T16:01:14Z</time>
      </trkpt>
      <trkpt lat="48.59228" lon="7.2669">
        <ele>926.7</ele>
        <time>2024-03-05T16:01:15Z</time>
      </trkpt>
      <trkpt lat="48.5923" lon="7.26683">
        <ele>926.1</ele>
        <time>2024-03-05T16:01:16Z</time>
      </trkpt>
      <trkpt lat="48.5923" lon="7.26677">
        <ele>925.6</ele>
        <time>2024-03-05T16:01:17Z</time>
      </trkpt>
      <trkpt lat="48.5923" lon="7.26671">
        <ele>925.1</ele>
        <time>2024-03-05T16:01:18Z</time>
      </trkpt>
      <trkpt lat="48.5923" lon="7.26665">
        <ele>924.6</ele>
        <time>2024-03-05T16:01:19Z</time>
      </trkpt>
      <trkpt lat="48.59231" lon="7.26659">
        <ele>924.2</ele>
        <time>2024-03-05T16:01:21Z</time>
      </trkpt>
      <trkpt lat="48.5923" lon="7.26654">
        <ele>923.8</ele>
        <time>2024-03-05T16:01:22Z</time>
      </trkpt>
      <trkpt lat="48.59229" lon="7.2665">
        <ele>923.4</ele>
        <time>2024-03-05T16:01:23Z</time>
      </trkpt>
      <trkpt lat="48.59227" lon="7.26645">
        <ele>923</ele>
        <time>2024-03-05T16:01:24Z</time>
      </trkpt>
      <trkpt lat="48.59227" lon="7.2664">
        <ele>922.6</ele>
        <time>2024-03-05T16:01:25Z</time>
      </trkpt>
      <trkpt lat="48.59225" lon="7.26636">
        <ele>922.3</ele>
        <time>2024-03-05T16:01:26Z</time>
      </trkpt>
      <trkpt lat="48.59224" lon="7.26631">
        <ele>921.9</ele>
        <time>2024-03-05T16:01:27Z</time>
      </trkpt>
      <trkpt lat="48.59224" lon="7.26629">
        <ele>921.8</ele>
        <time>2024-03-05T16:01:28Z</time>
      </trkpt>
      <trkpt lat="48.59222" lon="7.26625">
        <ele>921.4</ele>
        <time>2024-03-05T16:01:29Z</time>
      </trkpt>
      <trkpt lat="48.59221" lon="7.2662">
        <ele>921.1</ele>
        <time>2024-03-05T16:01:30Z</time>
      </trkpt>
      <trkpt lat="48.5922" lon="7.26615">
        <ele>920.8</ele>
        <time>2024-03-05T16:01:31Z</time>
      </trkpt>
      <trkpt lat="48.59219" lon="7.26611">
        <ele>920.5</ele>
        <time>2024-03-05T16:01:32Z</time>
      </trkpt>
      <trkpt lat="48.59219" lon="7.26605">
        <ele>920.2</ele>
        <time>2024-03-05T16:01:33Z</time>
      </trkpt>
      <trkpt lat="48.59219" lon="7.26603">
        <ele>920.1</ele>
        <time>2024-03-05T16:01:34Z</time>
      </trkpt>
      <trkpt lat="48.59219" lon="7.26598">
        <ele>919.8</ele>
        <time>2024-03-05T16:01:35Z</time>
      </trkpt>
      <trkpt lat="48.59219" lon="7.26594">
        <ele>919.6</ele>
        <time>2024-03-05T16:01:36Z</time>
      </trkpt>
      <trkpt lat="48.59218" lon="7.26588">
        <ele>919.3</ele>
        <time>2024-03-05T16:01:37Z</time>
      </trkpt>
      <trkpt lat="48.59218" lon="7.26586">
        <ele>919.2</ele>
        <time>2024-03-05T16:01:38Z</time>
      </trkpt>
      <trkpt lat="48.59216" lon="7.26582">
        <ele>919</ele>
        <time>2024-03-05T16:01:39Z</time>
      </trkpt>
      <trkpt lat="48.59214" lon="7.26579">
        <ele>918.8</ele>
        <time>2024-03-05T16:01:40Z</time>
      </trkpt>
      <trkpt lat="48.59212" lon="7.26575">
        <ele>918.6</ele>
        <time>2024-03-05T16:01:41Z</time>
      </trkpt>
      <trkpt lat="48.5921" lon="7.26571">
        <ele>918.4</ele>
        <time>2024-03-05T16:01:42Z</time>
      </trkpt>
      <trkpt lat="48.59208" lon="7.26568">
        <ele>918.1</ele>
        <time>2024-03-05T16:01:43Z</time>
      </trkpt>
      <trkpt lat="48.59206" lon="7.26565">
        <ele>918</ele>
        <time>2024-03-05T16:01:44Z</time>
      </trkpt>
      <trkpt lat="48.59204" lon="7.26561">
        <ele>917.8</ele>
        <time>2024-03-05T16:01:45Z</time>
      </trkpt>
      <trkpt lat="48.59202" lon="7.26558">
        <ele>917.6</ele>
        <time>2024-03-05T16:01:46Z</time>
      </trkpt>
      <trkpt lat="48.59201" lon="7.26553">
        <ele>917.4</ele>
        <time>2024-03-05T16:01:47Z</time>
      </trkpt>
      <trkpt lat="48.592" lon="7.26547">
        <ele>917.2</ele>
        <time>2024-03-05T16:01:48Z</time>
      </trkpt>
      <trkpt lat="48.59199" lon="7.26545">
        <ele>917.1</ele>
        <time>2024-03-05T16:01:49Z</time>
      </trkpt>
      <trkpt lat="48.59197" lon="7.26541">
        <ele>917</ele>
        <time>2024-03-05T16:01:50Z</time>
      </trkpt>
      <trkpt lat="48.59196" lon="7.26537">
        <ele>916.9</ele>
        <time>2024-03-05T16:01:51Z</time>
      </trkpt>
      <trkpt lat="48.59196" lon="7.26533">
        <ele>916.8</ele>
        <time>2024-03-05T16:01:52Z</time>
      </trkpt>
      <trkpt lat="48.59196" lon="7.26528">
        <ele>916.7</ele>
        <time>2024-03-05T16:01:53Z</time>
      </trkpt>
      <trkpt lat="48.59196" lon="7.26524">
        <ele>916.7</ele>
        <time>2024-03-05T16:01:54Z</time>
      </trkpt>
      <trkpt lat="48.59196" lon="7.2652">
        <ele>916.6</ele>
        <time>2024-03-05T16:01:55Z</time>
      </trkpt>
      <trkpt lat="48.59197" lon="7.26515">
        <ele>916.5</ele>
        <time>2024-03-05T16:01:56Z</time>
      </trkpt>
      <trkpt lat="48.59197" lon="7.26509">
        <ele>916.3</ele>
        <time>2024-03-05T16:01:57Z</time>
      </trkpt>
      <trkpt lat="48.59198" lon="7.26507">
        <ele>916.3</ele>
        <time>2024-03-05T16:01:58Z</time>
      </trkpt>
      <trkpt lat="48.59198" lon="7.26503">
        <ele>916.2</ele>
        <time>2024-03-05T16:01:59Z</time>
      </trkpt>
      <trkpt lat="48.59199" lon="7.26497">
        <ele>916.1</ele>
        <time>2024-03-05T16:02:00Z</time>
      </trkpt>
      <trkpt lat="48.59199" lon="7.26494">
        <ele>916</ele>
        <time>2024-03-05T16:02:01Z</time>
      </trkpt>
      <trkpt lat="48.59199" lon="7.2649">
        <ele>915.9</ele>
        <time>2024-03-05T16:02:02Z</time>
      </trkpt>
      <trkpt lat="48.592" lon="7.26485">
        <ele>915.8</ele>
        <time>2024-03-05T16:02:03Z</time>
      </trkpt>
      <trkpt lat="48.592" lon="7.2648">
        <ele>915.7</ele>
        <time>2024-03-05T16:02:04Z</time>
      </trkpt>
      <trkpt lat="48.592" lon="7.26475">
        <ele>915.6</ele>
        <time>2024-03-05T16:02:05Z</time>
      </trkpt>
      <trkpt lat="48.59201" lon="7.26471">
        <ele>915.5</ele>
        <time>2024-03-05T16:02:06Z</time>
      </trkpt>
      <trkpt lat="48.59203" lon="7.26465">
        <ele>915.3</ele>
        <time>2024-03-05T16:02:07Z</time>
      </trkpt>
      <trkpt lat="48.59203" lon="7.26464">
        <ele>915.3</ele>
        <time>2024-03-05T16:02:08Z</time>
      </trkpt>
      <trkpt lat="48.59205" lon="7.26459">
        <ele>915.2</ele>
        <time>2024-03-05T16:02:09Z</time>
      </trkpt>
      <trkpt lat="48.59206" lon="7.26455">
        <ele>915.1</ele>
        <time>2024-03-05T16:02:10Z</time>
      </trkpt>
      <trkpt lat="48.59208" lon="7.26451">
        <ele>915</ele>
        <time>2024-03-05T16:02:11Z</time>
      </trkpt>
      <trkpt lat="48.59209" lon="7.26447">
        <ele>914.9</ele>
        <time>2024-03-05T16:02:12Z</time>
      </trkpt>
      <trkpt lat="48.5921" lon="7.26443">
        <ele>914.9</ele>
        <time>2024-03-05T16:02:13Z</time>
      </trkpt>
      <trkpt lat="48.59212" lon="7.26439">
        <ele>914.8</ele>
        <time>2024-03-05T16:02:14Z</time>
      </trkpt>
      <trkpt lat="48.59213" lon="7.26435">
        <ele>914.7</ele>
        <time>2024-03-05T16:02:15Z</time>
      </trkpt>
      <trkpt lat="48.59214" lon="7.2643">
        <ele>914.6</ele>
        <time>2024-03-05T16:02:16Z</time>
      </trkpt>
      <trkpt lat="48.59215" lon="7.26426">
        <ele>914.5</ele>
        <time>2024-03-05T16:02:17Z</time>
      </trkpt>
      <trkpt lat="48.59216" lon="7.26422">
        <ele>914.5</ele>
        <time>2024-03-05T16:02:18Z</time>
      </trkpt>
      <trkpt lat="48.59217" lon="7.26418">
        <ele>914.4</ele>
        <time>2024-03-05T16:02:19Z</time>
      </trkpt>
      <trkpt lat="48.59218" lon="7.26411">
        <ele>914.2</ele>
        <time>2024-03-05T16:02:20Z</time>
      </trkpt>
      <trkpt lat="48.59219" lon="7.26409">
        <ele>914.2</ele>
        <time>2024-03-05T16:02:21Z</time>
      </trkpt>
      <trkpt lat="48.59219" lon="7.26405">
        <ele>914.1</ele>
        <time>2024-03-05T16:02:22Z</time>
      </trkpt>
      <trkpt lat="48.5922" lon="7.26399">
        <ele>914</ele>
        <time>2024-03-05T16:02:23Z</time>
      </trkpt>
      <trkpt lat="48.59221" lon="7.26395">
        <ele>913.9</ele>
        <time>2024-03-05T16:02:24Z</time>
      </trkpt>
      <trkpt lat="48.59222" lon="7.2639">
        <ele>913.8</ele>
        <time>2024-03-05T16:02:25Z</time>
      </trkpt>
      <trkpt lat="48.59222" lon="7.26384">
        <ele>913.7</ele>
        <time>2024-03-05T16:02:26Z</time>
      </trkpt>
      <trkpt lat="48.59221" lon="7.2638">
        <ele>913.6</ele>
        <time>2024-03-05T16:02:27Z</time>
      </trkpt>
      <trkpt lat="48.5922" lon="7.26375">
        <ele>913.4</ele>
        <time>2024-03-05T16:02:28Z</time>
      </trkpt>
      <trkpt lat="48.5922" lon="7.2637">
        <ele>913.3</ele>
        <time>2024-03-05T16:02:29Z</time>
      </trkpt>
      <trkpt lat="48.5922" lon="7.26365">
        <ele>913.2</ele>
        <time>2024-03-05T16:02:30Z</time>
      </trkpt>
      <trkpt lat="48.5922" lon="7.2636">
        <ele>913.1</ele>
        <time>2024-03-05T16:02:31Z</time>
      </trkpt>
      <trkpt lat="48.5922" lon="7.26355">
        <ele>913</ele>
        <time>2024-03-05T16:02:32Z</time>
      </trkpt>
      <trkpt lat="48.59221" lon="7.2635">
        <ele>912.9</ele>
        <time>2024-03-05T16:02:33Z</time>
      </trkpt>
      <trkpt lat="48.59221" lon="7.26344">
        <ele>912.8</ele>
        <time>2024-03-05T16:02:34Z</time>
      </trkpt>
      <trkpt lat="48.59222" lon="7.2634">
        <ele>912.7</ele>
        <time>2024-03-05T16:02:35Z</time>
      </trkpt>
      <trkpt lat="48.59223" lon="7.26335">
        <ele>912.6</ele>
        <time>2024-03-05T16:02:36Z</time>
      </trkpt>
      <trkpt lat="48.59224" lon="7.26329">
        <ele>912.4</ele>
        <time>2024-03-05T16:02:37Z</time>
      </trkpt>
      <trkpt lat="48.59225" lon="7.26325">
        <ele>912.4</ele>
        <time>2024-03-05T16:02:38Z</time>
      </trkpt>
      <trkpt lat="48.59226" lon="7.26318">
        <ele>912.2</ele>
        <time>2024-03-05T16:02:39Z</time>
      </trkpt>
      <trkpt lat="48.59227" lon="7.26313">
        <ele>912.2</ele>
        <time>2024-03-05T16:02:40Z</time>
      </trkpt>
      <trkpt lat="48.59227" lon="7.26307">
        <ele>912.1</ele>
        <time>2024-03-05T16:02:41Z</time>
      </trkpt>
      <trkpt lat="48.59228" lon="7.26303">
        <ele>912</ele>
        <time>2024-03-05T16:02:42Z</time>
      </trkpt>
      <trkpt lat="48.59228" lon="7.26298">
        <ele>911.9</ele>
        <time>2024-03-05T16:02:43Z</time>
      </trkpt>
      <trkpt lat="48.59229" lon="7.26293">
        <ele>911.8</ele>
        <time>2024-03-05T16:02:44Z</time>
      </trkpt>
      <trkpt lat="48.59229" lon="7.26287">
        <ele>911.7</ele>
        <time>2024-03-05T16:02:45Z</time>
      </trkpt>
      <trkpt lat="48.5923" lon="7.26282">
        <ele>911.6</ele>
        <time>2024-03-05T16:02:46Z</time>
      </trkpt>
      <trkpt lat="48.59231" lon="7.26277">
        <ele>911.6</ele>
        <time>2024-03-05T16:02:47Z</time>
      </trkpt>
      <trkpt lat="48.59232" lon="7.26273">
        <ele>911.5</ele>
        <time>2024-03-05T16:02:48Z</time>
      </trkpt>
      <trkpt lat="48.59233" lon="7.26267">
        <ele>911.4</ele>
        <time>2024-03-05T16:02:49Z</time>
      </trkpt>
      <trkpt lat="48.59232" lon="7.2626">
        <ele>911.3</ele>
        <time>2024-03-05T16:02:50Z</time>
      </trkpt>
      <trkpt lat="48.59232" lon="7.26256">
        <ele>911.3</ele>
        <time>2024-03-05T16:02:51Z</time>
      </trkpt>
      <trkpt lat="48.59231" lon="7.26251">
        <ele>911.2</ele>
        <time>2024-03-05T16:02:52Z</time>
      </trkpt>
      <trkpt lat="48.5923" lon="7.26247">
        <ele>911.1</ele>
        <time>2024-03-05T16:02:53Z</time>
      </trkpt>
      <trkpt lat="48.5923" lon="7.26242">
        <ele>911.1</ele>
        <time>2024-03-05T16:02:54Z</time>
      </trkpt>
      <trkpt lat="48.5923" lon="7.26237">
        <ele>911</ele>
        <time>2024-03-05T16:02:55Z</time>
      </trkpt>
      <trkpt lat="48.5923" lon="7.26232">
        <ele>910.9</ele>
        <time>2024-03-05T16:02:56Z</time>
      </trkpt>
      <trkpt lat="48.59231" lon="7.26226">
        <ele>910.8</ele>
        <time>2024-03-05T16:02:57Z</time>
      </trkpt>
      <trkpt lat="48.59231" lon="7.26221">
        <ele>910.7</ele>
        <time>2024-03-05T16:02:58Z</time>
      </trkpt>
      <trkpt lat="48.59229" lon="7.26215">
        <ele>910.6</ele>
        <time>2024-03-05T16:02:59Z</time>
      </trkpt>
      <trkpt lat="48.59228" lon="7.2621">
        <ele>910.5</ele>
        <time>2024-03-05T16:03:00Z</time>
      </trkpt>
      <trkpt lat="48.59227" lon="7.26204">
        <ele>910.4</ele>
        <time>2024-03-05T16:03:01Z</time>
      </trkpt>
      <trkpt lat="48.59227" lon="7.26198">
        <ele>910.3</ele>
        <time>2024-03-05T16:03:02Z</time>
      </trkpt>
      <trkpt lat="48.59227" lon="7.26193">
        <ele>910.2</ele>
        <time>2024-03-05T16:03:03Z</time>
      </trkpt>
      <trkpt lat="48.59227" lon="7.26188">
        <ele>910.1</ele>
        <time>2024-03-05T16:03:04Z</time>
      </trkpt>
      <trkpt lat="48.59225" lon="7.26183">
        <ele>910</ele>
        <time>2024-03-05T16:03:05Z</time>
      </trkpt>
      <trkpt lat="48.59224" lon="7.26178">
        <ele>909.9</ele>
        <time>2024-03-05T16:03:06Z</time>
      </trkpt>
      <trkpt lat="48.59224" lon="7.26173">
        <ele>909.8</ele>
        <time>2024-03-05T16:03:07Z</time>
      </trkpt>
      <trkpt lat="48.59222" lon="7.26167">
        <ele>909.6</ele>
        <time>2024-03-05T16:03:08Z</time>
      </trkpt>
      <trkpt lat="48.59221" lon="7.26161">
        <ele>909.5</ele>
        <time>2024-03-05T16:03:09Z</time>
      </trkpt>
      <trkpt lat="48.5922" lon="7.26155">
        <ele>909.4</ele>
        <time>2024-03-05T16:03:10Z</time>
      </trkpt>
      <trkpt lat="48.59219" lon="7.26149">
        <ele>909.3</ele>
        <time>2024-03-05T16:03:12Z</time>
      </trkpt>
      <trkpt lat="48.59218" lon="7.26145">
        <ele>909.3</ele>
        <time>2024-03-05T16:03:13Z</time>
      </trkpt>
      <trkpt lat="48.59217" lon="7.26139">
        <ele>909.2</ele>
        <time>2024-03-05T16:03:14Z</time>
      </trkpt>
      <trkpt lat="48.59217" lon="7.26134">
        <ele>909.1</ele>
        <time>2024-03-05T16:03:15Z</time>
      </trkpt>
      <trkpt lat="48.59216" lon="7.26129">
        <ele>909</ele>
        <time>2024-03-05T16:03:16Z</time>
      </trkpt>
      <trkpt lat="48.59216" lon="7.26125">
        <ele>908.9</ele>
        <time>2024-03-05T16:03:17Z</time>
      </trkpt>
      <trkpt lat="48.59214" lon="7.26119">
        <ele>908.8</ele>
        <time>2024-03-05T16:03:18Z</time>
      </trkpt>
      <trkpt lat="48.59213" lon="7.26115">
        <ele>908.7</ele>
        <time>2024-03-05T16:03:19Z</time>
      </trkpt>
      <trkpt lat="48.59212" lon="7.2611">
        <ele>908.6</ele>
        <time>2024-03-05T16:03:20Z</time>
      </trkpt>
      <trkpt lat="48.59211" lon="7.26106">
        <ele>908.5</ele>
        <time>2024-03-05T16:03:21Z</time>
      </trkpt>
      <trkpt lat="48.5921" lon="7.26101">
        <ele>908.4</ele>
        <time>2024-03-05T16:03:22Z</time>
      </trkpt>
      <trkpt lat="48.59208" lon="7.26097">
        <ele>908.3</ele>
        <time>2024-03-05T16:03:23Z</time>
      </trkpt>
      <trkpt lat="48.59207" lon="7.26091">
        <ele>908.2</ele>
        <time>2024-03-05T16:03:24Z</time>
      </trkpt>
      <trkpt lat="48.59206" lon="7.26086">
        <ele>908.1</ele>
        <time>2024-03-05T16:03:25Z</time>
      </trkpt>
      <trkpt lat="48.59205" lon="7.26082">
        <ele>908</ele>
        <time>2024-03-05T16:03:26Z</time>
      </trkpt>
      <trkpt lat="48.59204" lon="7.26076">
        <ele>907.9</ele>
        <time>2024-03-05T16:03:27Z</time>
      </trkpt>
      <trkpt lat="48.59203" lon="7.26072">
        <ele>907.9</ele>
        <time>2024-03-05T16:03:28Z</time>
      </trkpt>
      <trkpt lat="48.59202" lon="7.26068">
        <ele>907.8</ele>
        <time>2024-03-05T16:03:29Z</time>
      </trkpt>
      <trkpt lat="48.59201" lon="7.26062">
        <ele>907.6</ele>
        <time>2024-03-05T16:03:30Z</time>
      </trkpt>
      <trkpt lat="48.592" lon="7.26058">
        <ele>907.5</ele>
        <time>2024-03-05T16:03:31Z</time>
      </trkpt>
      <trkpt lat="48.59199" lon="7.26056">
        <ele>907.5</ele>
        <time>2024-03-05T16:03:32Z</time>
      </trkpt>
      <trkpt lat="48.59198" lon="7.26051">
        <ele>907.3</ele>
        <time>2024-03-05T16:03:33Z</time>
      </trkpt>
      <trkpt lat="48.59197" lon="7.26045">
        <ele>907.2</ele>
        <time>2024-03-05T16:03:34Z</time>
      </trkpt>
      <trkpt lat="48.59197" lon="7.2604">
        <ele>907.1</ele>
        <time>2024-03-05T16:03:35Z</time>
      </trkpt>
      <trkpt lat="48.59197" lon="7.26034">
        <ele>906.9</ele>
        <time>2024-03-05T16:03:36Z</time>
      </trkpt>
      <trkpt lat="48.59196" lon="7.26027">
        <ele>906.8</ele>
        <time>2024-03-05T16:03:38Z</time>
      </trkpt>
      <trkpt lat="48.59197" lon="7.26021">
        <ele>906.7</ele>
        <time>2024-03-05T16:03:39Z</time>
      </trkpt>
      <trkpt lat="48.59197" lon="7.26015">
        <ele>906.6</ele>
        <time>2024-03-05T16:03:40Z</time>
      </trkpt>
      <trkpt lat="48.59197" lon="7.26013">
        <ele>906.6</ele>
        <time>2024-03-05T16:03:41Z</time>
      </trkpt>
      <trkpt lat="48.59197" lon="7.26009">
        <ele>906.6</ele>
        <time>2024-03-05T16:03:42Z</time>
      </trkpt>
      <trkpt lat="48.59197" lon="7.26005">
        <ele>906.5</ele>
        <time>2024-03-05T16:03:43Z</time>
      </trkpt>
      <trkpt lat="48.59197" lon="7.25999">
        <ele>906.4</ele>
        <time>2024-03-05T16:03:44Z</time>
      </trkpt>
      <trkpt lat="48.59197" lon="7.25995">
        <ele>906.4</ele>
        <time>2024-03-05T16:03:45Z</time>
      </trkpt>
      <trkpt lat="48.59198" lon="7.2599">
        <ele>906.3</ele>
        <time>2024-03-05T16:03:46Z</time>
      </trkpt>
      <trkpt lat="48.59197" lon="7.25986">
        <ele>906.3</ele>
        <time>2024-03-05T16:03:47Z</time>
      </trkpt>
      <trkpt lat="48.59197" lon="7.25981">
        <ele>906.2</ele>
        <time>2024-03-05T16:03:48Z</time>
      </trkpt>
      <trkpt lat="48.59197" lon="7.25976">
        <ele>906.2</ele>
        <time>2024-03-05T16:03:49Z</time>
      </trkpt>
      <trkpt lat="48.59196" lon="7.25971">
        <ele>906.1</ele>
        <time>2024-03-05T16:03:50Z</time>
      </trkpt>
      <trkpt lat="48.59196" lon="7.25966">
        <ele>906</ele>
        <time>2024-03-05T16:03:51Z</time>
      </trkpt>
      <trkpt lat="48.59195" lon="7.25964">
        <ele>906</ele>
        <time>2024-03-05T16:03:52Z</time>
      </trkpt>
      <trkpt lat="48.59194" lon="7.25959">
        <ele>905.9</ele>
        <time>2024-03-05T16:03:53Z</time>
      </trkpt>
      <trkpt lat="48.59194" lon="7.25958">
        <ele>905.9</ele>
        <time>2024-03-05T16:03:54Z</time>
      </trkpt>
      <trkpt lat="48.59192" lon="7.25953">
        <ele>905.8</ele>
        <time>2024-03-05T16:03:55Z</time>
      </trkpt>
      <trkpt lat="48.59191" lon="7.25948">
        <ele>905.8</ele>
        <time>2024-03-05T16:03:56Z</time>
      </trkpt>
      <trkpt lat="48.59191" lon="7.25943">
        <ele>905.7</ele>
        <time>2024-03-05T16:03:57Z</time>
      </trkpt>
      <trkpt lat="48.59191" lon="7.25937">
        <ele>905.6</ele>
        <time>2024-03-05T16:03:58Z</time>
      </trkpt>
      <trkpt lat="48.59191" lon="7.25933">
        <ele>905.5</ele>
        <time>2024-03-05T16:03:59Z</time>
      </trkpt>
      <trkpt lat="48.59192" lon="7.25928">
        <ele>905.4</ele>
        <time>2024-03-05T16:04:00Z</time>
      </trkpt>
      <trkpt lat="48.59191" lon="7.25923">
        <ele>905.4</ele>
        <time>2024-03-05T16:04:01Z</time>
      </trkpt>
      <trkpt lat="48.59191" lon="7.25919">
        <ele>905.3</ele>
        <time>2024-03-05T16:04:02Z</time>
      </trkpt>
      <trkpt lat="48.5919" lon="7.25914">
        <ele>905.2</ele>
        <time>2024-03-05T16:04:03Z</time>
      </trkpt>
      <trkpt lat="48.5919" lon="7.25909">
        <ele>905.1</ele>
        <time>2024-03-05T16:04:04Z</time>
      </trkpt>
      <trkpt lat="48.5919" lon="7.25905">
        <ele>905</ele>
        <time>2024-03-05T16:04:05Z</time>
      </trkpt>
      <trkpt lat="48.5919" lon="7.25901">
        <ele>904.9</ele>
        <time>2024-03-05T16:04:06Z</time>
      </trkpt>
      <trkpt lat="48.59189" lon="7.25896">
        <ele>904.8</ele>
        <time>2024-03-05T16:04:07Z</time>
      </trkpt>
      <trkpt lat="48.59189" lon="7.25891">
        <ele>904.7</ele>
        <time>2024-03-05T16:04:08Z</time>
      </trkpt>
      <trkpt lat="48.59189" lon="7.25887">
        <ele>904.7</ele>
        <time>2024-03-05T16:04:09Z</time>
      </trkpt>
      <trkpt lat="48.59188" lon="7.25882">
        <ele>904.6</ele>
        <time>2024-03-05T16:04:10Z</time>
      </trkpt>
      <trkpt lat="48.59188" lon="7.25876">
        <ele>904.5</ele>
        <time>2024-03-05T16:04:11Z</time>
      </trkpt>
      <trkpt lat="48.59187" lon="7.25871">
        <ele>904.4</ele>
        <time>2024-03-05T16:04:12Z</time>
      </trkpt>
      <trkpt lat="48.59187" lon="7.25867">
        <ele>904.3</ele>
        <time>2024-03-05T16:04:13Z</time>
      </trkpt>
      <trkpt lat="48.59186" lon="7.25861">
        <ele>904.2</ele>
        <time>2024-03-05T16:04:14Z</time>
      </trkpt>
      <trkpt lat="48.59186" lon="7.25857">
        <ele>904.1</ele>
        <time>2024-03-05T16:04:15Z</time>
      </trkpt>
      <trkpt lat="48.59186" lon="7.25851">
        <ele>904</ele>
        <time>2024-03-05T16:04:16Z</time>
      </trkpt>
      <trkpt lat="48.59186" lon="7.25846">
        <ele>903.9</ele>
        <time>2024-03-05T16:04:17Z</time>
      </trkpt>
      <trkpt lat="48.59186" lon="7.25842">
        <ele>903.8</ele>
        <time>2024-03-05T16:04:18Z</time>
      </trkpt>
      <trkpt lat="48.59186" lon="7.25837">
        <ele>903.7</ele>
        <time>2024-03-05T16:04:19Z</time>
      </trkpt>
      <trkpt lat="48.59185" lon="7.25832">
        <ele>903.5</ele>
        <time>2024-03-05T16:04:20Z</time>
      </trkpt>
      <trkpt lat="48.59184" lon="7.25827">
        <ele>903.4</ele>
        <time>2024-03-05T16:04:21Z</time>
      </trkpt>
      <trkpt lat="48.59183" lon="7.25822">
        <ele>903.3</ele>
        <time>2024-03-05T16:04:22Z</time>
      </trkpt>
      <trkpt lat="48.59181" lon="7.25818">
        <ele>903.1</ele>
        <time>2024-03-05T16:04:23Z</time>
      </trkpt>
      <trkpt lat="48.5918" lon="7.25814">
        <ele>903</ele>
        <time>2024-03-05T16:04:24Z</time>
      </trkpt>
      <trkpt lat="48.59179" lon="7.25809">
        <ele>902.9</ele>
        <time>2024-03-05T16:04:25Z</time>
      </trkpt>
      <trkpt lat="48.59178" lon="7.25805">
        <ele>902.8</ele>
        <time>2024-03-05T16:04:26Z</time>
      </trkpt>
      <trkpt lat="48.59177" lon="7.25801">
        <ele>902.8</ele>
        <time>2024-03-05T16:04:27Z</time>
      </trkpt>
      <trkpt lat="48.59177" lon="7.25796">
        <ele>902.7</ele>
        <time>2024-03-05T16:04:28Z</time>
      </trkpt>
      <trkpt lat="48.59177" lon="7.25792">
        <ele>902.6</ele>
        <time>2024-03-05T16:04:29Z</time>
      </trkpt>
      <trkpt lat="48.59176" lon="7.25787">
        <ele>902.6</ele>
        <time>2024-03-05T16:04:30Z</time>
      </trkpt>
      <trkpt lat="48.59176" lon="7.25782">
        <ele>902.5</ele>
        <time>2024-03-05T16:04:31Z</time>
      </trkpt>
      <trkpt lat="48.59175" lon="7.25778">
        <ele>902.4</ele>
        <time>2024-03-05T16:04:32Z</time>
      </trkpt>
      <trkpt lat="48.59174" lon="7.25773">
        <ele>902.4</ele>
        <time>2024-03-05T16:04:33Z</time>
      </trkpt>
      <trkpt lat="48.59173" lon="7.25769">
        <ele>902.3</ele>
        <time>2024-03-05T16:04:34Z</time>
      </trkpt>
      <trkpt lat="48.59171" lon="7.25765">
        <ele>902.2</ele>
        <time>2024-03-05T16:04:35Z</time>
      </trkpt>
      <trkpt lat="48.5917" lon="7.2576">
        <ele>902.2</ele>
        <time>2024-03-05T16:04:36Z</time>
      </trkpt>
      <trkpt lat="48.59169" lon="7.25755">
        <ele>902.1</ele>
        <time>2024-03-05T16:04:37Z</time>
      </trkpt>
      <trkpt lat="48.59168" lon="7.25751">
        <ele>902</ele>
        <time>2024-03-05T16:04:38Z</time>
      </trkpt>
      <trkpt lat="48.59165" lon="7.25746">
        <ele>901.9</ele>
        <time>2024-03-05T16:04:39Z</time>
      </trkpt>
      <trkpt lat="48.59164" lon="7.25741">
        <ele>901.8</ele>
        <time>2024-03-05T16:04:40Z</time>
      </trkpt>
      <trkpt lat="48.59162" lon="7.25733">
        <ele>901.7</ele>
        <time>2024-03-05T16:04:42Z</time>
      </trkpt>
      <trkpt lat="48.59161" lon="7.25728">
        <ele>901.6</ele>
        <time>2024-03-05T16:04:43Z</time>
      </trkpt>
      <trkpt lat="48.5916" lon="7.25723">
        <ele>901.5</ele>
        <time>2024-03-05T16:04:44Z</time>
      </trkpt>
      <trkpt lat="48.59159" lon="7.25719">
        <ele>901.4</ele>
        <time>2024-03-05T16:04:45Z</time>
      </trkpt>
      <trkpt lat="48.59159" lon="7.25715">
        <ele>901.3</ele>
        <time>2024-03-05T16:04:46Z</time>
      </trkpt>
      <trkpt lat="48.59158" lon="7.2571">
        <ele>901.2</ele>
        <time>2024-03-05T16:04:47Z</time>
      </trkpt>
      <trkpt lat="48.59159" lon="7.25703">
        <ele>901</ele>
        <time>2024-03-05T16:04:48Z</time>
      </trkpt>
      <trkpt lat="48.59159" lon="7.25697">
        <ele>900.9</ele>
        <time>2024-03-05T16:04:49Z</time>
      </trkpt>
      <trkpt lat="48.59159" lon="7.25692">
        <ele>900.8</ele>
        <time>2024-03-05T16:04:50Z</time>
      </trkpt>
      <trkpt lat="48.59159" lon="7.25686">
        <ele>900.7</ele>
        <time>2024-03-05T16:04:51Z</time>
      </trkpt>
      <trkpt lat="48.59158" lon="7.25681">
        <ele>900.6</ele>
        <time>2024-03-05T16:04:52Z</time>
      </trkpt>
      <trkpt lat="48.59158" lon="7.25676">
        <ele>900.5</ele>
        <time>2024-03-05T16:04:53Z</time>
      </trkpt>
      <trkpt lat="48.59158" lon="7.2567">
        <ele>900.3</ele>
        <time>2024-03-05T16:04:54Z</time>
      </trkpt>
      <trkpt lat="48.59157" lon="7.25662">
        <ele>900.2</ele>
        <time>2024-03-05T16:04:56Z</time>
      </trkpt>
      <trkpt lat="48.59156" lon="7.25658">
        <ele>900</ele>
        <time>2024-03-05T16:04:57Z</time>
      </trkpt>
      <trkpt lat="48.59156" lon="7.25654">
        <ele>899.9</ele>
        <time>2024-03-05T16:04:58Z</time>
      </trkpt>
      <trkpt lat="48.59155" lon="7.25648">
        <ele>899.8</ele>
        <time>2024-03-05T16:04:59Z</time>
      </trkpt>
      <trkpt lat="48.59154" lon="7.25644">
        <ele>899.6</ele>
        <time>2024-03-05T16:05:00Z</time>
      </trkpt>
      <trkpt lat="48.59154" lon="7.25638">
        <ele>899.5</ele>
        <time>2024-03-05T16:05:01Z</time>
      </trkpt>
      <trkpt lat="48.59155" lon="7.25633">
        <ele>899.4</ele>
        <time>2024-03-05T16:05:02Z</time>
      </trkpt>
      <trkpt lat="48.59155" lon="7.25628">
        <ele>899.3</ele>
        <time>2024-03-05T16:05:03Z</time>
      </trkpt>
      <trkpt lat="48.59155" lon="7.25623">
        <ele>899.2</ele>
        <time>2024-03-05T16:05:04Z</time>
      </trkpt>
      <trkpt lat="48.59155" lon="7.25617">
        <ele>899.1</ele>
        <time>2024-03-05T16:05:05Z</time>
      </trkpt>
      <trkpt lat="48.59155" lon="7.25612">
        <ele>899.1</ele>
        <time>2024-03-05T16:05:06Z</time>
      </trkpt>
      <trkpt lat="48.59154" lon="7.25606">
        <ele>899.1</ele>
        <time>2024-03-05T16:05:07Z</time>
      </trkpt>
      <trkpt lat="48.59155" lon="7.256">
        <ele>899</ele>
        <time>2024-03-05T16:05:08Z</time>
      </trkpt>
      <trkpt lat="48.59156" lon="7.25594">
        <ele>899</ele>
        <time>2024-03-05T16:05:09Z</time>
      </trkpt>
      <trkpt lat="48.59157" lon="7.2559">
        <ele>899</ele>
        <time>2024-03-05T16:05:10Z</time>
      </trkpt>
      <trkpt lat="48.59158" lon="7.25585">
        <ele>898.9</ele>
        <time>2024-03-05T16:05:11Z</time>
      </trkpt>
      <trkpt lat="48.59158" lon="7.2558">
        <ele>898.9</ele>
        <time>2024-03-05T16:05:12Z</time>
      </trkpt>
      <trkpt lat="48.59158" lon="7.25575">
        <ele>898.9</ele>
        <time>2024-03-05T16:05:13Z</time>
      </trkpt>
      <trkpt lat="48.59158" lon="7.2557">
        <ele>898.8</ele>
        <time>2024-03-05T16:05:14Z</time>
      </trkpt>
      <trkpt lat="48.59158" lon="7.25566">
        <ele>898.7</ele>
        <time>2024-03-05T16:05:15Z</time>
      </trkpt>
      <trkpt lat="48.59158" lon="7.25561">
        <ele>898.7</ele>
        <time>2024-03-05T16:05:16Z</time>
      </trkpt>
      <trkpt lat="48.5916" lon="7.25556">
        <ele>898.6</ele>
        <time>2024-03-05T16:05:17Z</time>
      </trkpt>
      <trkpt lat="48.5916" lon="7.25552">
        <ele>898.5</ele>
        <time>2024-03-05T16:05:18Z</time>
      </trkpt>
      <trkpt lat="48.59159" lon="7.25547">
        <ele>898.5</ele>
        <time>2024-03-05T16:05:19Z</time>
      </trkpt>
      <trkpt lat="48.59159" lon="7.25541">
        <ele>898.4</ele>
        <time>2024-03-05T16:05:20Z</time>
      </trkpt>
      <trkpt lat="48.59159" lon="7.25539">
        <ele>898.4</ele>
        <time>2024-03-05T16:05:21Z</time>
      </trkpt>
      <trkpt lat="48.59159" lon="7.25533">
        <ele>898.3</ele>
        <time>2024-03-05T16:05:22Z</time>
      </trkpt>
      <trkpt lat="48.59158" lon="7.25529">
        <ele>898.2</ele>
        <time>2024-03-05T16:05:23Z</time>
      </trkpt>
      <trkpt lat="48.59157" lon="7.25523">
        <ele>898.1</ele>
        <time>2024-03-05T16:05:24Z</time>
      </trkpt>
      <trkpt lat="48.59157" lon="7.25515">
        <ele>898</ele>
        <time>2024-03-05T16:05:26Z</time>
      </trkpt>
      <trkpt lat="48.59156" lon="7.2551">
        <ele>897.9</ele>
        <time>2024-03-05T16:05:27Z</time>
      </trkpt>
      <trkpt lat="48.59155" lon="7.25505">
        <ele>897.8</ele>
        <time>2024-03-05T16:05:28Z</time>
      </trkpt>
      <trkpt lat="48.59156" lon="7.255">
        <ele>897.7</ele>
        <time>2024-03-05T16:05:29Z</time>
      </trkpt>
      <trkpt lat="48.59155" lon="7.25496">
        <ele>897.6</ele>
        <time>2024-03-05T16:05:30Z</time>
      </trkpt>
      <trkpt lat="48.59156" lon="7.25491">
        <ele>897.5</ele>
        <time>2024-03-05T16:05:31Z</time>
      </trkpt>
      <trkpt lat="48.59157" lon="7.25485">
        <ele>897.4</ele>
        <time>2024-03-05T16:05:32Z</time>
      </trkpt>
      <trkpt lat="48.59155" lon="7.2548">
        <ele>897.3</ele>
        <time>2024-03-05T16:05:33Z</time>
      </trkpt>
      <trkpt lat="48.59158" lon="7.25474">
        <ele>897.1</ele>
        <time>2024-03-05T16:05:34Z</time>
      </trkpt>
      <trkpt lat="48.59159" lon="7.25465">
        <ele>897</ele>
        <time>2024-03-05T16:05:36Z</time>
      </trkpt>
      <trkpt lat="48.59159" lon="7.2546">
        <ele>896.9</ele>
        <time>2024-03-05T16:05:37Z</time>
      </trkpt>
      <trkpt lat="48.59159" lon="7.25454">
        <ele>896.8</ele>
        <time>2024-03-05T16:05:38Z</time>
      </trkpt>
      <trkpt lat="48.59159" lon="7.25452">
        <ele>896.8</ele>
        <time>2024-03-05T16:05:39Z</time>
      </trkpt>
      <trkpt lat="48.59157" lon="7.25446">
        <ele>896.7</ele>
        <time>2024-03-05T16:05:40Z</time>
      </trkpt>
      <trkpt lat="48.59157" lon="7.25441">
        <ele>896.6</ele>
        <time>2024-03-05T16:05:41Z</time>
      </trkpt>
      <trkpt lat="48.59156" lon="7.25435">
        <ele>896.5</ele>
        <time>2024-03-05T16:05:42Z</time>
      </trkpt>
      <trkpt lat="48.59154" lon="7.25428">
        <ele>896.4</ele>
        <time>2024-03-05T16:05:44Z</time>
      </trkpt>
      <trkpt lat="48.59154" lon="7.25423">
        <ele>896.3</ele>
        <time>2024-03-05T16:05:45Z</time>
      </trkpt>
      <trkpt lat="48.59153" lon="7.25419">
        <ele>896.3</ele>
        <time>2024-03-05T16:05:46Z</time>
      </trkpt>
      <trkpt lat="48.59151" lon="7.25415">
        <ele>896.2</ele>
        <time>2024-03-05T16:05:47Z</time>
      </trkpt>
      <trkpt lat="48.5915" lon="7.2541">
        <ele>896.1</ele>
        <time>2024-03-05T16:05:48Z</time>
      </trkpt>
      <trkpt lat="48.59149" lon="7.25405">
        <ele>896</ele>
        <time>2024-03-05T16:05:49Z</time>
      </trkpt>
      <trkpt lat="48.59149" lon="7.25401">
        <ele>895.9</ele>
        <time>2024-03-05T16:05:50Z</time>
      </trkpt>
      <trkpt lat="48.59149" lon="7.25396">
        <ele>895.8</ele>
        <time>2024-03-05T16:05:51Z</time>
      </trkpt>
      <trkpt lat="48.5915" lon="7.25391">
        <ele>895.7</ele>
        <time>2024-03-05T16:05:52Z</time>
      </trkpt>
      <trkpt lat="48.5915" lon="7.25387">
        <ele>895.6</ele>
        <time>2024-03-05T16:05:53Z</time>
      </trkpt>
      <trkpt lat="48.59151" lon="7.25383">
        <ele>895.5</ele>
        <time>2024-03-05T16:05:54Z</time>
      </trkpt>
      <trkpt lat="48.59151" lon="7.25379">
        <ele>895.4</ele>
        <time>2024-03-05T16:05:55Z</time>
      </trkpt>
      <trkpt lat="48.59152" lon="7.25374">
        <ele>895.2</ele>
        <time>2024-03-05T16:05:56Z</time>
      </trkpt>
      <trkpt lat="48.59153" lon="7.25369">
        <ele>895.1</ele>
        <time>2024-03-05T16:05:57Z</time>
      </trkpt>
      <trkpt lat="48.59156" lon="7.25366">
        <ele>894.9</ele>
        <time>2024-03-05T16:05:58Z</time>
      </trkpt>
      <trkpt lat="48.59158" lon="7.25362">
        <ele>894.8</ele>
        <time>2024-03-05T16:05:59Z</time>
      </trkpt>
      <trkpt lat="48.5916" lon="7.25357">
        <ele>894.6</ele>
        <time>2024-03-05T16:06:00Z</time>
      </trkpt>
      <trkpt lat="48.59163" lon="7.25353">
        <ele>894.5</ele>
        <time>2024-03-05T16:06:01Z</time>
      </trkpt>
      <trkpt lat="48.59165" lon="7.2535">
        <ele>894.4</ele>
        <time>2024-03-05T16:06:02Z</time>
      </trkpt>
      <trkpt lat="48.59168" lon="7.25347">
        <ele>894.3</ele>
        <time>2024-03-05T16:06:03Z</time>
      </trkpt>
      <trkpt lat="48.59171" lon="7.25344">
        <ele>894.2</ele>
        <time>2024-03-05T16:06:04Z</time>
      </trkpt>
      <trkpt lat="48.59173" lon="7.25341">
        <ele>894.1</ele>
        <time>2024-03-05T16:06:05Z</time>
      </trkpt>
      <trkpt lat="48.59176" lon="7.25338">
        <ele>894</ele>
        <time>2024-03-05T16:06:06Z</time>
      </trkpt>
      <trkpt lat="48.59179" lon="7.25335">
        <ele>893.9</ele>
        <time>2024-03-05T16:06:07Z</time>
      </trkpt>
      <trkpt lat="48.59181" lon="7.25331">
        <ele>893.8</ele>
        <time>2024-03-05T16:06:08Z</time>
      </trkpt>
      <trkpt lat="48.59183" lon="7.25327">
        <ele>893.7</ele>
        <time>2024-03-05T16:06:09Z</time>
      </trkpt>
      <trkpt lat="48.59185" lon="7.25324">
        <ele>893.6</ele>
        <time>2024-03-05T16:06:10Z</time>
      </trkpt>
      <trkpt lat="48.59187" lon="7.2532">
        <ele>893.5</ele>
        <time>2024-03-05T16:06:11Z</time>
      </trkpt>
      <trkpt lat="48.59189" lon="7.25316">
        <ele>893.4</ele>
        <time>2024-03-05T16:06:12Z</time>
      </trkpt>
      <trkpt lat="48.59191" lon="7.25313">
        <ele>893.3</ele>
        <time>2024-03-05T16:06:13Z</time>
      </trkpt>
      <trkpt lat="48.59194" lon="7.25309">
        <ele>893.2</ele>
        <time>2024-03-05T16:06:14Z</time>
      </trkpt>
      <trkpt lat="48.59196" lon="7.25306">
        <ele>893.1</ele>
        <time>2024-03-05T16:06:15Z</time>
      </trkpt>
      <trkpt lat="48.59198" lon="7.25303">
        <ele>893</ele>
        <time>2024-03-05T16:06:16Z</time>
      </trkpt>
      <trkpt lat="48.592" lon="7.25298">
        <ele>892.9</ele>
        <time>2024-03-05T16:06:17Z</time>
      </trkpt>
      <trkpt lat="48.59201" lon="7.25294">
        <ele>892.8</ele>
        <time>2024-03-05T16:06:18Z</time>
      </trkpt>
      <trkpt lat="48.59203" lon="7.25289">
        <ele>892.7</ele>
        <time>2024-03-05T16:06:19Z</time>
      </trkpt>
      <trkpt lat="48.59204" lon="7.25284">
        <ele>892.5</ele>
        <time>2024-03-05T16:06:20Z</time>
      </trkpt>
      <trkpt lat="48.59205" lon="7.25279">
        <ele>892.4</ele>
        <time>2024-03-05T16:06:21Z</time>
      </trkpt>
      <trkpt lat="48.59208" lon="7.25275">
        <ele>892.3</ele>
        <time>2024-03-05T16:06:22Z</time>
      </trkpt>
      <trkpt lat="48.59207" lon="7.2527">
        <ele>892.2</ele>
        <time>2024-03-05T16:06:23Z</time>
      </trkpt>
      <trkpt lat="48.59208" lon="7.25266">
        <ele>892.1</ele>
        <time>2024-03-05T16:06:24Z</time>
      </trkpt>
      <trkpt lat="48.59209" lon="7.25262">
        <ele>892</ele>
        <time>2024-03-05T16:06:25Z</time>
      </trkpt>
      <trkpt lat="48.59209" lon="7.25257">
        <ele>892</ele>
        <time>2024-03-05T16:06:26Z</time>
      </trkpt>
      <trkpt lat="48.5921" lon="7.25253">
        <ele>891.9</ele>
        <time>2024-03-05T16:06:27Z</time>
      </trkpt>
      <trkpt lat="48.5921" lon="7.25249">
        <ele>891.8</ele>
        <time>2024-03-05T16:06:28Z</time>
      </trkpt>
      <trkpt lat="48.59211" lon="7.25245">
        <ele>891.7</ele>
        <time>2024-03-05T16:06:29Z</time>
      </trkpt>
      <trkpt lat="48.59211" lon="7.25241">
        <ele>891.7</ele>
        <time>2024-03-05T16:06:30Z</time>
      </trkpt>
      <trkpt lat="48.59211" lon="7.25236">
        <ele>891.6</ele>
        <time>2024-03-05T16:06:31Z</time>
      </trkpt>
      <trkpt lat="48.59212" lon="7.25232">
        <ele>891.5</ele>
        <time>2024-03-05T16:06:32Z</time>
      </trkpt>
      <trkpt lat="48.59212" lon="7.25228">
        <ele>891.5</ele>
        <time>2024-03-05T16:06:33Z</time>
      </trkpt>
      <trkpt lat="48.59213" lon="7.25223">
        <ele>891.4</ele>
        <time>2024-03-05T16:06:34Z</time>
      </trkpt>
      <trkpt lat="48.59214" lon="7.25218">
        <ele>891.3</ele>
        <time>2024-03-05T16:06:35Z</time>
      </trkpt>
      <trkpt lat="48.59214" lon="7.25214">
        <ele>891.2</ele>
        <time>2024-03-05T16:06:36Z</time>
      </trkpt>
      <trkpt lat="48.59214" lon="7.2521">
        <ele>891.1</ele>
        <time>2024-03-05T16:06:37Z</time>
      </trkpt>
      <trkpt lat="48.59214" lon="7.25205">
        <ele>891</ele>
        <time>2024-03-05T16:06:38Z</time>
      </trkpt>
      <trkpt lat="48.59214" lon="7.25201">
        <ele>891</ele>
        <time>2024-03-05T16:06:39Z</time>
      </trkpt>
      <trkpt lat="48.59215" lon="7.25197">
        <ele>890.9</ele>
        <time>2024-03-05T16:06:40Z</time>
      </trkpt>
      <trkpt lat="48.59215" lon="7.25191">
        <ele>890.8</ele>
        <time>2024-03-05T16:06:41Z</time>
      </trkpt>
      <trkpt lat="48.59215" lon="7.2519">
        <ele>890.7</ele>
        <time>2024-03-05T16:06:42Z</time>
      </trkpt>
      <trkpt lat="48.59215" lon="7.25185">
        <ele>890.6</ele>
        <time>2024-03-05T16:06:43Z</time>
      </trkpt>
      <trkpt lat="48.59215" lon="7.25183">
        <ele>890.6</ele>
        <time>2024-03-05T16:06:44Z</time>
      </trkpt>
      <trkpt lat="48.59216" lon="7.25179">
        <ele>890.4</ele>
        <time>2024-03-05T16:06:45Z</time>
      </trkpt>
      <trkpt lat="48.59216" lon="7.25173">
        <ele>890.3</ele>
        <time>2024-03-05T16:06:46Z</time>
      </trkpt>
      <trkpt lat="48.59216" lon="7.25171">
        <ele>890.2</ele>
        <time>2024-03-05T16:06:47Z</time>
      </trkpt>
      <trkpt lat="48.59216" lon="7.25165">
        <ele>890</ele>
        <time>2024-03-05T16:06:48Z</time>
      </trkpt>
      <trkpt lat="48.59217" lon="7.25162">
        <ele>889.9</ele>
        <time>2024-03-05T16:06:49Z</time>
      </trkpt>
      <trkpt lat="48.59219" lon="7.25157">
        <ele>889.6</ele>
        <time>2024-03-05T16:06:50Z</time>
      </trkpt>
      <trkpt lat="48.59219" lon="7.25156">
        <ele>889.6</ele>
        <time>2024-03-05T16:06:51Z</time>
      </trkpt>
      <trkpt lat="48.59221" lon="7.25151">
        <ele>889.4</ele>
        <time>2024-03-05T16:06:52Z</time>
      </trkpt>
      <trkpt lat="48.59222" lon="7.25149">
        <ele>889.3</ele>
        <time>2024-03-05T16:06:53Z</time>
      </trkpt>
      <trkpt lat="48.59223" lon="7.25144">
        <ele>889.1</ele>
        <time>2024-03-05T16:06:54Z</time>
      </trkpt>
      <trkpt lat="48.59224" lon="7.25143">
        <ele>889</ele>
        <time>2024-03-05T16:06:55Z</time>
      </trkpt>
      <trkpt lat="48.59226" lon="7.25138">
        <ele>888.7</ele>
        <time>2024-03-05T16:06:56Z</time>
      </trkpt>
      <trkpt lat="48.59226" lon="7.25137">
        <ele>888.7</ele>
        <time>2024-03-05T16:06:57Z</time>
      </trkpt>
      <trkpt lat="48.59229" lon="7.25134">
        <ele>888.4</ele>
        <time>2024-03-05T16:06:58Z</time>
      </trkpt>
      <trkpt lat="48.59231" lon="7.25134">
        <ele>888.3</ele>
        <time>2024-03-05T16:06:59Z</time>
      </trkpt>
      <trkpt lat="48.59234" lon="7.25133">
        <ele>888</ele>
        <time>2024-03-05T16:07:00Z</time>
      </trkpt>
      <trkpt lat="48.59235" lon="7.25133">
        <ele>888</ele>
        <time>2024-03-05T16:07:01Z</time>
      </trkpt>
      <trkpt lat="48.59238" lon="7.25134">
        <ele>888</ele>
        <time>2024-03-05T16:07:02Z</time>
      </trkpt>
      <trkpt lat="48.59242" lon="7.25134">
        <ele>888.1</ele>
        <time>2024-03-05T16:07:03Z</time>
      </trkpt>
      <trkpt lat="48.59243" lon="7.25135">
        <ele>888.2</ele>
        <time>2024-03-05T16:07:04Z</time>
      </trkpt>
      <trkpt lat="48.59246" lon="7.25135">
        <ele>888.3</ele>
        <time>2024-03-05T16:07:05Z</time>
      </trkpt>
      <trkpt lat="48.59249" lon="7.25136">
        <ele>888.4</ele>
        <time>2024-03-05T16:07:06Z</time>
      </trkpt>
      <trkpt lat="48.5925" lon="7.25136">
        <ele>888.5</ele>
        <time>2024-03-05T16:07:07Z</time>
      </trkpt>
      <trkpt lat="48.59254" lon="7.25137">
        <ele>888.6</ele>
        <time>2024-03-05T16:07:08Z</time>
      </trkpt>
      <trkpt lat="48.59256" lon="7.25136">
        <ele>888.7</ele>
        <time>2024-03-05T16:07:09Z</time>
      </trkpt>
      <trkpt lat="48.59259" lon="7.25137">
        <ele>888.8</ele>
        <time>2024-03-05T16:07:10Z</time>
      </trkpt>
      <trkpt lat="48.59262" lon="7.25138">
        <ele>888.9</ele>
        <time>2024-03-05T16:07:11Z</time>
      </trkpt>
      <trkpt lat="48.59266" lon="7.25139">
        <ele>889.1</ele>
        <time>2024-03-05T16:07:12Z</time>
      </trkpt>
      <trkpt lat="48.59267" lon="7.2514">
        <ele>889.2</ele>
        <time>2024-03-05T16:07:13Z</time>
      </trkpt>
      <trkpt lat="48.59269" lon="7.25142">
        <ele>889.3</ele>
        <time>2024-03-05T16:07:14Z</time>
      </trkpt>
      <trkpt lat="48.59272" lon="7.25144">
        <ele>889.4</ele>
        <time>2024-03-05T16:07:15Z</time>
      </trkpt>
      <trkpt lat="48.59276" lon="7.2515">
        <ele>889.6</ele>
        <time>2024-03-05T16:07:16Z</time>
      </trkpt>
      <trkpt lat="48.59279" lon="7.25158">
        <ele>889.9</ele>
        <time>2024-03-05T16:07:17Z</time>
      </trkpt>
      <trkpt lat="48.59281" lon="7.25163">
        <ele>890</ele>
        <time>2024-03-05T16:07:18Z</time>
      </trkpt>
      <trkpt lat="48.59284" lon="7.25165">
        <ele>890</ele>
        <time>2024-03-05T16:07:19Z</time>
      </trkpt>
      <trkpt lat="48.59288" lon="7.25166">
        <ele>890.1</ele>
        <time>2024-03-05T16:07:20Z</time>
      </trkpt>
      <trkpt lat="48.5929" lon="7.25166">
        <ele>890.1</ele>
        <time>2024-03-05T16:07:21Z</time>
      </trkpt>
      <trkpt lat="48.59293" lon="7.25166">
        <ele>890.1</ele>
        <time>2024-03-05T16:07:22Z</time>
      </trkpt>
      <trkpt lat="48.59297" lon="7.25166">
        <ele>890.2</ele>
        <time>2024-03-05T16:07:23Z</time>
      </trkpt>
      <trkpt lat="48.593" lon="7.25167">
        <ele>890.2</ele>
        <time>2024-03-05T16:07:24Z</time>
      </trkpt>
      <trkpt lat="48.59303" lon="7.25168">
        <ele>890.2</ele>
        <time>2024-03-05T16:07:25Z</time>
      </trkpt>
      <trkpt lat="48.59306" lon="7.25168">
        <ele>890.1</ele>
        <time>2024-03-05T16:07:26Z</time>
      </trkpt>
      <trkpt lat="48.59309" lon="7.2517">
        <ele>890.1</ele>
        <time>2024-03-05T16:07:27Z</time>
      </trkpt>
      <trkpt lat="48.59312" lon="7.2517">
        <ele>890</ele>
        <time>2024-03-05T16:07:28Z</time>
      </trkpt>
      <trkpt lat="48.59315" lon="7.25171">
        <ele>890</ele>
        <time>2024-03-05T16:07:29Z</time>
      </trkpt>
      <trkpt lat="48.59318" lon="7.25173">
        <ele>889.9</ele>
        <time>2024-03-05T16:07:30Z</time>
      </trkpt>
      <trkpt lat="48.59321" lon="7.25174">
        <ele>889.9</ele>
        <time>2024-03-05T16:07:31Z</time>
      </trkpt>
      <trkpt lat="48.59323" lon="7.25176">
        <ele>889.8</ele>
        <time>2024-03-05T16:07:32Z</time>
      </trkpt>
      <trkpt lat="48.59326" lon="7.25173">
        <ele>889.8</ele>
        <time>2024-03-05T16:07:33Z</time>
      </trkpt>
      <trkpt lat="48.59329" lon="7.25168">
        <ele>889.8</ele>
        <time>2024-03-05T16:07:34Z</time>
      </trkpt>
      <trkpt lat="48.59332" lon="7.25167">
        <ele>889.8</ele>
        <time>2024-03-05T16:07:35Z</time>
      </trkpt>
      <trkpt lat="48.59335" lon="7.25168">
        <ele>889.8</ele>
        <time>2024-03-05T16:07:36Z</time>
      </trkpt>
      <trkpt lat="48.59338" lon="7.25169">
        <ele>889.8</ele>
        <time>2024-03-05T16:07:37Z</time>
      </trkpt>
      <trkpt lat="48.59339" lon="7.25168">
        <ele>889.8</ele>
        <time>2024-03-05T16:07:38Z</time>
      </trkpt>
      <trkpt lat="48.59341" lon="7.25168">
        <ele>889.8</ele>
        <time>2024-03-05T16:07:39Z</time>
      </trkpt>
      <trkpt lat="48.59342" lon="7.25168">
        <ele>889.8</ele>
        <time>2024-03-05T16:07:40Z</time>
      </trkpt>
      <trkpt lat="48.59345" lon="7.2517">
        <ele>889.8</ele>
        <time>2024-03-05T16:07:41Z</time>
      </trkpt>
      <trkpt lat="48.59346" lon="7.2517">
        <ele>889.8</ele>
        <time>2024-03-05T16:07:42Z</time>
      </trkpt>
      <trkpt lat="48.59349" lon="7.25171">
        <ele>889.8</ele>
        <time>2024-03-05T16:07:43Z</time>
      </trkpt>
      <trkpt lat="48.5935" lon="7.25172">
        <ele>889.8</ele>
        <time>2024-03-05T16:07:44Z</time>
      </trkpt>
      <trkpt lat="48.59354" lon="7.25172">
        <ele>889.8</ele>
        <time>2024-03-05T16:07:45Z</time>
      </trkpt>
      <trkpt lat="48.59356" lon="7.25172">
        <ele>889.8</ele>
        <time>2024-03-05T16:07:46Z</time>
      </trkpt>
      <trkpt lat="48.59359" lon="7.25173">
        <ele>889.8</ele>
        <time>2024-03-05T16:07:47Z</time>
      </trkpt>
      <trkpt lat="48.59361" lon="7.25174">
        <ele>889.8</ele>
        <time>2024-03-05T16:07:48Z</time>
      </trkpt>
      <trkpt lat="48.59364" lon="7.25175">
        <ele>889.8</ele>
        <time>2024-03-05T16:07:49Z</time>
      </trkpt>
      <trkpt lat="48.59368" lon="7.25175">
        <ele>889.8</ele>
        <time>2024-03-05T16:07:50Z</time>
      </trkpt>
      <trkpt lat="48.59372" lon="7.25175">
        <ele>889.8</ele>
        <time>2024-03-05T16:07:51Z</time>
      </trkpt>
      <trkpt lat="48.59377" lon="7.25174">
        <ele>889.8</ele>
        <time>2024-03-05T16:07:53Z</time>
      </trkpt>
      <trkpt lat="48.59379" lon="7.25172">
        <ele>889.9</ele>
        <time>2024-03-05T16:07:54Z</time>
      </trkpt>
      <trkpt lat="48.5938" lon="7.25171">
        <ele>889.9</ele>
        <time>2024-03-05T16:07:55Z</time>
      </trkpt>
      <trkpt lat="48.59383" lon="7.2517">
        <ele>889.9</ele>
        <time>2024-03-05T16:07:56Z</time>
      </trkpt>
      <trkpt lat="48.59387" lon="7.2517">
        <ele>889.9</ele>
        <time>2024-03-05T16:07:57Z</time>
      </trkpt>
      <trkpt lat="48.5939" lon="7.25169">
        <ele>890</ele>
        <time>2024-03-05T16:07:58Z</time>
      </trkpt>
      <trkpt lat="48.59393" lon="7.25167">
        <ele>890</ele>
        <time>2024-03-05T16:07:59Z</time>
      </trkpt>
      <trkpt lat="48.59397" lon="7.25167">
        <ele>890.1</ele>
        <time>2024-03-05T16:08:00Z</time>
      </trkpt>
      <trkpt lat="48.594" lon="7.25166">
        <ele>890.1</ele>
        <time>2024-03-05T16:08:01Z</time>
      </trkpt>
      <trkpt lat="48.59403" lon="7.25164">
        <ele>890.2</ele>
        <time>2024-03-05T16:08:02Z</time>
      </trkpt>
      <trkpt lat="48.59407" lon="7.25162">
        <ele>890.2</ele>
        <time>2024-03-05T16:08:03Z</time>
      </trkpt>
      <trkpt lat="48.59408" lon="7.25161">
        <ele>890.2</ele>
        <time>2024-03-05T16:08:04Z</time>
      </trkpt>
      <trkpt lat="48.59411" lon="7.25158">
        <ele>890.1</ele>
        <time>2024-03-05T16:08:05Z</time>
      </trkpt>
      <trkpt lat="48.59413" lon="7.25155">
        <ele>890.1</ele>
        <time>2024-03-05T16:08:06Z</time>
      </trkpt>
      <trkpt lat="48.59416" lon="7.25153">
        <ele>890</ele>
        <time>2024-03-05T16:08:07Z</time>
      </trkpt>
      <trkpt lat="48.59419" lon="7.2515">
        <ele>889.9</ele>
        <time>2024-03-05T16:08:08Z</time>
      </trkpt>
      <trkpt lat="48.59421" lon="7.25148">
        <ele>889.9</ele>
        <time>2024-03-05T16:08:09Z</time>
      </trkpt>
      <trkpt lat="48.59424" lon="7.25145">
        <ele>889.8</ele>
        <time>2024-03-05T16:08:10Z</time>
      </trkpt>
      <trkpt lat="48.59428" lon="7.25142">
        <ele>889.7</ele>
        <time>2024-03-05T16:08:11Z</time>
      </trkpt>
      <trkpt lat="48.59432" lon="7.25137">
        <ele>889.6</ele>
        <time>2024-03-05T16:08:13Z</time>
      </trkpt>
      <trkpt lat="48.59434" lon="7.25133">
        <ele>889.5</ele>
        <time>2024-03-05T16:08:14Z</time>
      </trkpt>
      <trkpt lat="48.59436" lon="7.2513">
        <ele>889.5</ele>
        <time>2024-03-05T16:08:15Z</time>
      </trkpt>
      <trkpt lat="48.59438" lon="7.25126">
        <ele>889.6</ele>
        <time>2024-03-05T16:08:16Z</time>
      </trkpt>
      <trkpt lat="48.5944" lon="7.25123">
        <ele>889.6</ele>
        <time>2024-03-05T16:08:17Z</time>
      </trkpt>
      <trkpt lat="48.59443" lon="7.25117">
        <ele>889.7</ele>
        <time>2024-03-05T16:08:18Z</time>
      </trkpt>
      <trkpt lat="48.59446" lon="7.25113">
        <ele>889.8</ele>
        <time>2024-03-05T16:08:19Z</time>
      </trkpt>
      <trkpt lat="48.59449" lon="7.2511">
        <ele>889.9</ele>
        <time>2024-03-05T16:08:20Z</time>
      </trkpt>
      <trkpt lat="48.59454" lon="7.25109">
        <ele>889.5</ele>
        <time>2024-03-05T16:08:21Z</time>
      </trkpt>
      <trkpt lat="48.59459" lon="7.25107">
        <ele>889</ele>
        <time>2024-03-05T16:08:23Z</time>
      </trkpt>
      <trkpt lat="48.59462" lon="7.25107">
        <ele>888.7</ele>
        <time>2024-03-05T16:08:24Z</time>
      </trkpt>
      <trkpt lat="48.59465" lon="7.25106">
        <ele>888.3</ele>
        <time>2024-03-05T16:08:25Z</time>
      </trkpt>
      <trkpt lat="48.59468" lon="7.25103">
        <ele>887.8</ele>
        <time>2024-03-05T16:08:26Z</time>
      </trkpt>
      <trkpt lat="48.59472" lon="7.25098">
        <ele>886.9</ele>
        <time>2024-03-05T16:08:27Z</time>
      </trkpt>
      <trkpt lat="48.59475" lon="7.25096">
        <ele>886.3</ele>
        <time>2024-03-05T16:08:28Z</time>
      </trkpt>
      <trkpt lat="48.59478" lon="7.25093">
        <ele>885.6</ele>
        <time>2024-03-05T16:08:30Z</time>
      </trkpt>
      <trkpt lat="48.59478" lon="7.25093">
        <ele>885.6</ele>
        <time>2024-03-05T16:08:31Z</time>
      </trkpt>
      <trkpt lat="48.59478" lon="7.25092">
        <ele>885.5</ele>
        <time>2024-03-05T16:08:32Z</time>
      </trkpt>
      <trkpt lat="48.59478" lon="7.25092">
        <ele>885.5</ele>
        <time>2024-03-05T16:08:33Z</time>
      </trkpt>
      <trkpt lat="48.59479" lon="7.25092">
        <ele>885.4</ele>
        <time>2024-03-05T16:08:34Z</time>
      </trkpt>
      <trkpt lat="48.59479" lon="7.25092">
        <ele>885.4</ele>
        <time>2024-03-05T16:08:35Z</time>
      </trkpt>
      <trkpt lat="48.59479" lon="7.25092">
        <ele>885.3</ele>
        <time>2024-03-05T16:08:36Z</time>
      </trkpt>
      <trkpt lat="48.59479" lon="7.25092">
        <ele>885.3</ele>
        <time>2024-03-05T16:08:37Z</time>
      </trkpt>
      <trkpt lat="48.5948" lon="7.25092">
        <ele>885.2</ele>
        <time>2024-03-05T16:08:38Z</time>
      </trkpt>
      <trkpt lat="48.5948" lon="7.25092">
        <ele>885.2</ele>
        <time>2024-03-05T16:08:39Z</time>
      </trkpt>
      <trkpt lat="48.5948" lon="7.25092">
        <ele>885.1</ele>
        <time>2024-03-05T16:08:40Z</time>
      </trkpt>
      <trkpt lat="48.5948" lon="7.25092">
        <ele>885.1</ele>
        <time>2024-03-05T16:08:41Z</time>
      </trkpt>
      <trkpt lat="48.5948" lon="7.25092">
        <ele>885</ele>
        <time>2024-03-05T16:08:42Z</time>
      </trkpt>
      <trkpt lat="48.59481" lon="7.25092">
        <ele>885</ele>
        <time>2024-03-05T16:08:43Z</time>
      </trkpt>
      <trkpt lat="48.59481" lon="7.25091">
        <ele>884.9</ele>
        <time>2024-03-05T16:08:44Z</time>
      </trkpt>
      <trkpt lat="48.59481" lon="7.25091">
        <ele>884.9</ele>
        <time>2024-03-05T16:08:45Z</time>
      </trkpt>
      <trkpt lat="48.59481" lon="7.25091">
        <ele>884.8</ele>
        <time>2024-03-05T16:08:46Z</time>
      </trkpt>
      <trkpt lat="48.59482" lon="7.25091">
        <ele>884.8</ele>
        <time>2024-03-05T16:08:47Z</time>
      </trkpt>
      <trkpt lat="48.59482" lon="7.25091">
        <ele>884.7</ele>
        <time>2024-03-05T16:08:48Z</time>
      </trkpt>
      <trkpt lat="48.59482" lon="7.25091">
        <ele>884.7</ele>
        <time>2024-03-05T16:08:49Z</time>
      </trkpt>
      <trkpt lat="48.59482" lon="7.25091">
        <ele>884.6</ele>
        <time>2024-03-05T16:08:50Z</time>
      </trkpt>
      <trkpt lat="48.59482" lon="7.25091">
        <ele>884.5</ele>
        <time>2024-03-05T16:08:51Z</time>
      </trkpt>
      <trkpt lat="48.59483" lon="7.25091">
        <ele>884.5</ele>
        <time>2024-03-05T16:08:52Z</time>
      </trkpt>
      <trkpt lat="48.59483" lon="7.25091">
        <ele>884.5</ele>
        <time>2024-03-05T16:08:53Z</time>
      </trkpt>
      <trkpt lat="48.5949" lon="7.25091">
        <ele>882.9</ele>
        <time>2024-03-05T16:08:55Z</time>
      </trkpt>
      <trkpt lat="48.59494" lon="7.25094">
        <ele>881.9</ele>
        <time>2024-03-05T16:08:56Z</time>
      </trkpt>
      <trkpt lat="48.59495" lon="7.25095">
        <ele>881.5</ele>
        <time>2024-03-05T16:08:57Z</time>
      </trkpt>
      <trkpt lat="48.59499" lon="7.25098">
        <ele>880.7</ele>
        <time>2024-03-05T16:08:58Z</time>
      </trkpt>
      <trkpt lat="48.59501" lon="7.25101">
        <ele>880</ele>
        <time>2024-03-05T16:08:59Z</time>
      </trkpt>
      <trkpt lat="48.59502" lon="7.25103">
        <ele>879.7</ele>
        <time>2024-03-05T16:09:00Z</time>
      </trkpt>
      <trkpt lat="48.59504" lon="7.25108">
        <ele>878.9</ele>
        <time>2024-03-05T16:09:01Z</time>
      </trkpt>
      <trkpt lat="48.59505" lon="7.25109">
        <ele>878.6</ele>
        <time>2024-03-05T16:09:02Z</time>
      </trkpt>
      <trkpt lat="48.59507" lon="7.25113">
        <ele>877.9</ele>
        <time>2024-03-05T16:09:03Z</time>
      </trkpt>
      <trkpt lat="48.5951" lon="7.25116">
        <ele>877.3</ele>
        <time>2024-03-05T16:09:04Z</time>
      </trkpt>
      <trkpt lat="48.59512" lon="7.2512">
        <ele>876.6</ele>
        <time>2024-03-05T16:09:05Z</time>
      </trkpt>
      <trkpt lat="48.59514" lon="7.25122">
        <ele>876</ele>
        <time>2024-03-05T16:09:06Z</time>
      </trkpt>
      <trkpt lat="48.59517" lon="7.25126">
        <ele>875.3</ele>
        <time>2024-03-05T16:09:07Z</time>
      </trkpt>
      <trkpt lat="48.59519" lon="7.25129">
        <ele>874.6</ele>
        <time>2024-03-05T16:09:08Z</time>
      </trkpt>
      <trkpt lat="48.59521" lon="7.25133">
        <ele>874</ele>
        <time>2024-03-05T16:09:10Z</time>
      </trkpt>
      <trkpt lat="48.59522" lon="7.25134">
        <ele>873.8</ele>
        <time>2024-03-05T16:09:11Z</time>
      </trkpt>
      <trkpt lat="48.59524" lon="7.25139">
        <ele>872.9</ele>
        <time>2024-03-05T16:09:12Z</time>
      </trkpt>
      <trkpt lat="48.59525" lon="7.25142">
        <ele>872.5</ele>
        <time>2024-03-05T16:09:13Z</time>
      </trkpt>
      <trkpt lat="48.59528" lon="7.25147">
        <ele>871.5</ele>
        <time>2024-03-05T16:09:14Z</time>
      </trkpt>
      <trkpt lat="48.5953" lon="7.25152">
        <ele>870.7</ele>
        <time>2024-03-05T16:09:15Z</time>
      </trkpt>
      <trkpt lat="48.59533" lon="7.25155">
        <ele>869.9</ele>
        <time>2024-03-05T16:09:16Z</time>
      </trkpt>
      <trkpt lat="48.59538" lon="7.25158">
        <ele>868.8</ele>
        <time>2024-03-05T16:09:17Z</time>
      </trkpt>
      <trkpt lat="48.59544" lon="7.25162">
        <ele>867.5</ele>
        <time>2024-03-05T16:09:18Z</time>
      </trkpt>
      <trkpt lat="48.59545" lon="7.25164">
        <ele>867.1</ele>
        <time>2024-03-05T16:09:19Z</time>
      </trkpt>
      <trkpt lat="48.59548" lon="7.25169">
        <ele>866.2</ele>
        <time>2024-03-05T16:09:21Z</time>
      </trkpt>
      <trkpt lat="48.5955" lon="7.25173">
        <ele>865.6</ele>
        <time>2024-03-05T16:09:22Z</time>
      </trkpt>
      <trkpt lat="48.59551" lon="7.25177">
        <ele>865</ele>
        <time>2024-03-05T16:09:23Z</time>
      </trkpt>
      <trkpt lat="48.59555" lon="7.25182">
        <ele>864.1</ele>
        <time>2024-03-05T16:09:24Z</time>
      </trkpt>
      <trkpt lat="48.59556" lon="7.25185">
        <ele>863.7</ele>
        <time>2024-03-05T16:09:25Z</time>
      </trkpt>
      <trkpt lat="48.59559" lon="7.25189">
        <ele>863</ele>
        <time>2024-03-05T16:09:26Z</time>
      </trkpt>
      <trkpt lat="48.59563" lon="7.25193">
        <ele>862</ele>
        <time>2024-03-05T16:09:27Z</time>
      </trkpt>
      <trkpt lat="48.59568" lon="7.25204">
        <ele>860.4</ele>
        <time>2024-03-05T16:09:28Z</time>
      </trkpt>
      <trkpt lat="48.59571" lon="7.25211">
        <ele>859.1</ele>
        <time>2024-03-05T16:09:29Z</time>
      </trkpt>
      <trkpt lat="48.59575" lon="7.25218">
        <ele>857.7</ele>
        <time>2024-03-05T16:09:31Z</time>
      </trkpt>
      <trkpt lat="48.59577" lon="7.25223">
        <ele>856.9</ele>
        <time>2024-03-05T16:09:32Z</time>
      </trkpt>
      <trkpt lat="48.5958" lon="7.25227">
        <ele>856</ele>
        <time>2024-03-05T16:09:33Z</time>
      </trkpt>
      <trkpt lat="48.59583" lon="7.25234">
        <ele>854.8</ele>
        <time>2024-03-05T16:09:34Z</time>
      </trkpt>
      <trkpt lat="48.5959" lon="7.25246">
        <ele>852.9</ele>
        <time>2024-03-05T16:09:36Z</time>
      </trkpt>
      <trkpt lat="48.59593" lon="7.25253">
        <ele>852.1</ele>
        <time>2024-03-05T16:09:37Z</time>
      </trkpt>
      <trkpt lat="48.59594" lon="7.25256">
        <ele>851.6</ele>
        <time>2024-03-05T16:09:38Z</time>
      </trkpt>
      <trkpt lat="48.59598" lon="7.2526">
        <ele>850.9</ele>
        <time>2024-03-05T16:09:40Z</time>
      </trkpt>
      <trkpt lat="48.59602" lon="7.25262">
        <ele>850.3</ele>
        <time>2024-03-05T16:09:41Z</time>
      </trkpt>
      <trkpt lat="48.59605" lon="7.25265">
        <ele>849.7</ele>
        <time>2024-03-05T16:09:42Z</time>
      </trkpt>
      <trkpt lat="48.59608" lon="7.25269">
        <ele>849</ele>
        <time>2024-03-05T16:09:43Z</time>
      </trkpt>
      <trkpt lat="48.59612" lon="7.25273">
        <ele>848.3</ele>
        <time>2024-03-05T16:09:44Z</time>
      </trkpt>
      <trkpt lat="48.59616" lon="7.25276">
        <ele>847.5</ele>
        <time>2024-03-05T16:09:45Z</time>
      </trkpt>
      <trkpt lat="48.5962" lon="7.25279">
        <ele>846.9</ele>
        <time>2024-03-05T16:09:46Z</time>
      </trkpt>
      <trkpt lat="48.59624" lon="7.25283">
        <ele>846.1</ele>
        <time>2024-03-05T16:09:47Z</time>
      </trkpt>
      <trkpt lat="48.59631" lon="7.25289">
        <ele>844.8</ele>
        <time>2024-03-05T16:09:48Z</time>
      </trkpt>
      <trkpt lat="48.59636" lon="7.25292">
        <ele>843.9</ele>
        <time>2024-03-05T16:09:49Z</time>
      </trkpt>
      <trkpt lat="48.59643" lon="7.25295">
        <ele>842.9</ele>
        <time>2024-03-05T16:09:51Z</time>
      </trkpt>
      <trkpt lat="48.59646" lon="7.25296">
        <ele>842.6</ele>
        <time>2024-03-05T16:09:52Z</time>
      </trkpt>
      <trkpt lat="48.5965" lon="7.25297">
        <ele>842.2</ele>
        <time>2024-03-05T16:09:53Z</time>
      </trkpt>
      <trkpt lat="48.59651" lon="7.25297">
        <ele>842</ele>
        <time>2024-03-05T16:09:54Z</time>
      </trkpt>
      <trkpt lat="48.59654" lon="7.25299">
        <ele>841.6</ele>
        <time>2024-03-05T16:09:55Z</time>
      </trkpt>
      <trkpt lat="48.59659" lon="7.25301">
        <ele>841.1</ele>
        <time>2024-03-05T16:09:56Z</time>
      </trkpt>
      <trkpt lat="48.59663" lon="7.25301">
        <ele>840.7</ele>
        <time>2024-03-05T16:09:57Z</time>
      </trkpt>
      <trkpt lat="48.59669" lon="7.25305">
        <ele>839.9</ele>
        <time>2024-03-05T16:09:58Z</time>
      </trkpt>
      <trkpt lat="48.59674" lon="7.25306">
        <ele>839.3</ele>
        <time>2024-03-05T16:09:59Z</time>
      </trkpt>
      <trkpt lat="48.59678" lon="7.25305">
        <ele>838.8</ele>
        <time>2024-03-05T16:10:00Z</time>
      </trkpt>
      <trkpt lat="48.59682" lon="7.25304">
        <ele>838.4</ele>
        <time>2024-03-05T16:10:01Z</time>
      </trkpt>
      <trkpt lat="48.59686" lon="7.25301">
        <ele>837.9</ele>
        <time>2024-03-05T16:10:03Z</time>
      </trkpt>
      <trkpt lat="48.59691" lon="7.253">
        <ele>837.4</ele>
        <time>2024-03-05T16:10:04Z</time>
      </trkpt>
      <trkpt lat="48.59694" lon="7.25298">
        <ele>837</ele>
        <time>2024-03-05T16:10:05Z</time>
      </trkpt>
      <trkpt lat="48.59697" lon="7.25296">
        <ele>836.7</ele>
        <time>2024-03-05T16:10:06Z</time>
      </trkpt>
      <trkpt lat="48.597" lon="7.25295">
        <ele>836.4</ele>
        <time>2024-03-05T16:10:07Z</time>
      </trkpt>
      <trkpt lat="48.59707" lon="7.25293">
        <ele>835.6</ele>
        <time>2024-03-05T16:10:08Z</time>
      </trkpt>
      <trkpt lat="48.59712" lon="7.2529">
        <ele>835</ele>
        <time>2024-03-05T16:10:10Z</time>
      </trkpt>
      <trkpt lat="48.59715" lon="7.25288">
        <ele>834.7</ele>
        <time>2024-03-05T16:10:11Z</time>
      </trkpt>
      <trkpt lat="48.59717" lon="7.25285">
        <ele>834.3</ele>
        <time>2024-03-05T16:10:12Z</time>
      </trkpt>
      <trkpt lat="48.59721" lon="7.25284">
        <ele>833.9</ele>
        <time>2024-03-05T16:10:13Z</time>
      </trkpt>
      <trkpt lat="48.59724" lon="7.25281">
        <ele>833.5</ele>
        <time>2024-03-05T16:10:14Z</time>
      </trkpt>
      <trkpt lat="48.59727" lon="7.25279">
        <ele>833.1</ele>
        <time>2024-03-05T16:10:15Z</time>
      </trkpt>
      <trkpt lat="48.59731" lon="7.25278">
        <ele>832.7</ele>
        <time>2024-03-05T16:10:16Z</time>
      </trkpt>
      <trkpt lat="48.59734" lon="7.25276">
        <ele>832.3</ele>
        <time>2024-03-05T16:10:17Z</time>
      </trkpt>
      <trkpt lat="48.59738" lon="7.25275">
        <ele>831.9</ele>
        <time>2024-03-05T16:10:18Z</time>
      </trkpt>
      <trkpt lat="48.59741" lon="7.25274">
        <ele>831.6</ele>
        <time>2024-03-05T16:10:19Z</time>
      </trkpt>
      <trkpt lat="48.59746" lon="7.25272">
        <ele>831.1</ele>
        <time>2024-03-05T16:10:21Z</time>
      </trkpt>
      <trkpt lat="48.59751" lon="7.2527">
        <ele>830.6</ele>
        <time>2024-03-05T16:10:22Z</time>
      </trkpt>
      <trkpt lat="48.59755" lon="7.25269">
        <ele>830.3</ele>
        <time>2024-03-05T16:10:23Z</time>
      </trkpt>
      <trkpt lat="48.59759" lon="7.25268">
        <ele>829.9</ele>
        <time>2024-03-05T16:10:24Z</time>
      </trkpt>
      <trkpt lat="48.59764" lon="7.25266">
        <ele>829.7</ele>
        <time>2024-03-05T16:10:25Z</time>
      </trkpt>
      <trkpt lat="48.59767" lon="7.25265">
        <ele>829.4</ele>
        <time>2024-03-05T16:10:26Z</time>
      </trkpt>
      <trkpt lat="48.59771" lon="7.25265">
        <ele>829.1</ele>
        <time>2024-03-05T16:10:27Z</time>
      </trkpt>
      <trkpt lat="48.59776" lon="7.25265">
        <ele>828.8</ele>
        <time>2024-03-05T16:10:28Z</time>
      </trkpt>
      <trkpt lat="48.59781" lon="7.25264">
        <ele>828.4</ele>
        <time>2024-03-05T16:10:29Z</time>
      </trkpt>
      <trkpt lat="48.59787" lon="7.25261">
        <ele>827.8</ele>
        <time>2024-03-05T16:10:31Z</time>
      </trkpt>
      <trkpt lat="48.59791" lon="7.25258">
        <ele>827.4</ele>
        <time>2024-03-05T16:10:32Z</time>
      </trkpt>
      <trkpt lat="48.59795" lon="7.25257">
        <ele>827.1</ele>
        <time>2024-03-05T16:10:33Z</time>
      </trkpt>
      <trkpt lat="48.598" lon="7.25255">
        <ele>826.7</ele>
        <time>2024-03-05T16:10:34Z</time>
      </trkpt>
      <trkpt lat="48.59804" lon="7.25253">
        <ele>826.4</ele>
        <time>2024-03-05T16:10:35Z</time>
      </trkpt>
      <trkpt lat="48.59809" lon="7.25249">
        <ele>826.1</ele>
        <time>2024-03-05T16:10:36Z</time>
      </trkpt>
      <trkpt lat="48.59812" lon="7.25247">
        <ele>825.9</ele>
        <time>2024-03-05T16:10:37Z</time>
      </trkpt>
      <trkpt lat="48.59818" lon="7.25246">
        <ele>825.6</ele>
        <time>2024-03-05T16:10:38Z</time>
      </trkpt>
      <trkpt lat="48.59822" lon="7.25244">
        <ele>825.3</ele>
        <time>2024-03-05T16:10:39Z</time>
      </trkpt>
      <trkpt lat="48.59829" lon="7.25242">
        <ele>825</ele>
        <time>2024-03-05T16:10:41Z</time>
      </trkpt>
      <trkpt lat="48.59833" lon="7.25242">
        <ele>824.8</ele>
        <time>2024-03-05T16:10:42Z</time>
      </trkpt>
      <trkpt lat="48.59837" lon="7.25241">
        <ele>824.7</ele>
        <time>2024-03-05T16:10:43Z</time>
      </trkpt>
      <trkpt lat="48.5984" lon="7.25239">
        <ele>824.6</ele>
        <time>2024-03-05T16:10:44Z</time>
      </trkpt>
      <trkpt lat="48.59843" lon="7.25239">
        <ele>824.5</ele>
        <time>2024-03-05T16:10:45Z</time>
      </trkpt>
      <trkpt lat="48.59846" lon="7.25237">
        <ele>824.4</ele>
        <time>2024-03-05T16:10:46Z</time>
      </trkpt>
      <trkpt lat="48.59847" lon="7.25236">
        <ele>824.4</ele>
        <time>2024-03-05T16:10:47Z</time>
      </trkpt>
      <trkpt lat="48.59851" lon="7.25235">
        <ele>824.3</ele>
        <time>2024-03-05T16:10:48Z</time>
      </trkpt>
      <trkpt lat="48.59852" lon="7.25235">
        <ele>824.3</ele>
        <time>2024-03-05T16:10:49Z</time>
      </trkpt>
      <trkpt lat="48.59856" lon="7.25232">
        <ele>824.2</ele>
        <time>2024-03-05T16:10:51Z</time>
      </trkpt>
      <trkpt lat="48.59859" lon="7.25228">
        <ele>824.2</ele>
        <time>2024-03-05T16:10:52Z</time>
      </trkpt>
      <trkpt lat="48.5986" lon="7.25228">
        <ele>824.1</ele>
        <time>2024-03-05T16:10:53Z</time>
      </trkpt>
      <trkpt lat="48.59864" lon="7.25225">
        <ele>824.1</ele>
        <time>2024-03-05T16:10:54Z</time>
      </trkpt>
      <trkpt lat="48.59865" lon="7.25224">
        <ele>824.1</ele>
        <time>2024-03-05T16:10:55Z</time>
      </trkpt>
      <trkpt lat="48.59868" lon="7.25222">
        <ele>824.1</ele>
        <time>2024-03-05T16:10:56Z</time>
      </trkpt>
      <trkpt lat="48.59871" lon="7.2522">
        <ele>824</ele>
        <time>2024-03-05T16:10:57Z</time>
      </trkpt>
      <trkpt lat="48.59875" lon="7.25217">
        <ele>824</ele>
        <time>2024-03-05T16:10:58Z</time>
      </trkpt>
      <trkpt lat="48.59879" lon="7.25216">
        <ele>824</ele>
        <time>2024-03-05T16:10:59Z</time>
      </trkpt>
      <trkpt lat="48.59883" lon="7.25214">
        <ele>823.9</ele>
        <time>2024-03-05T16:11:00Z</time>
      </trkpt>
      <trkpt lat="48.59886" lon="7.25212">
        <ele>823.8</ele>
        <time>2024-03-05T16:11:01Z</time>
      </trkpt>
      <trkpt lat="48.59888" lon="7.2521">
        <ele>823.8</ele>
        <time>2024-03-05T16:11:02Z</time>
      </trkpt>
      <trkpt lat="48.59891" lon="7.25207">
        <ele>823.7</ele>
        <time>2024-03-05T16:11:04Z</time>
      </trkpt>
      <trkpt lat="48.59895" lon="7.25204">
        <ele>823.7</ele>
        <time>2024-03-05T16:11:05Z</time>
      </trkpt>
      <trkpt lat="48.59898" lon="7.25202">
        <ele>823.6</ele>
        <time>2024-03-05T16:11:06Z</time>
      </trkpt>
      <trkpt lat="48.59903" lon="7.25198">
        <ele>823.5</ele>
        <time>2024-03-05T16:11:07Z</time>
      </trkpt>
      <trkpt lat="48.59907" lon="7.25194">
        <ele>823.5</ele>
        <time>2024-03-05T16:11:08Z</time>
      </trkpt>
      <trkpt lat="48.59911" lon="7.25193">
        <ele>823.4</ele>
        <time>2024-03-05T16:11:09Z</time>
      </trkpt>
      <trkpt lat="48.59915" lon="7.25191">
        <ele>823.4</ele>
        <time>2024-03-05T16:11:10Z</time>
      </trkpt>
      <trkpt lat="48.59919" lon="7.25188">
        <ele>823.3</ele>
        <time>2024-03-05T16:11:12Z</time>
      </trkpt>
      <trkpt lat="48.59922" lon="7.25184">
        <ele>823.3</ele>
        <time>2024-03-05T16:11:13Z</time>
      </trkpt>
      <trkpt lat="48.59923" lon="7.25183">
        <ele>823.3</ele>
        <time>2024-03-05T16:11:14Z</time>
      </trkpt>
      <trkpt lat="48.59926" lon="7.25183">
        <ele>823.2</ele>
        <time>2024-03-05T16:11:15Z</time>
      </trkpt>
      <trkpt lat="48.59929" lon="7.25181">
        <ele>823.2</ele>
        <time>2024-03-05T16:11:16Z</time>
      </trkpt>
      <trkpt lat="48.59932" lon="7.2518">
        <ele>823.1</ele>
        <time>2024-03-05T16:11:17Z</time>
      </trkpt>
      <trkpt lat="48.59935" lon="7.2518">
        <ele>823</ele>
        <time>2024-03-05T16:11:18Z</time>
      </trkpt>
      <trkpt lat="48.5994" lon="7.25179">
        <ele>822.9</ele>
        <time>2024-03-05T16:11:19Z</time>
      </trkpt>
      <trkpt lat="48.59943" lon="7.2518">
        <ele>822.7</ele>
        <time>2024-03-05T16:11:20Z</time>
      </trkpt>
      <trkpt lat="48.59947" lon="7.25179">
        <ele>822.6</ele>
        <time>2024-03-05T16:11:21Z</time>
      </trkpt>
      <trkpt lat="48.5995" lon="7.25179">
        <ele>822.4</ele>
        <time>2024-03-05T16:11:22Z</time>
      </trkpt>
      <trkpt lat="48.59954" lon="7.25179">
        <ele>822.3</ele>
        <time>2024-03-05T16:11:23Z</time>
      </trkpt>
      <trkpt lat="48.59958" lon="7.2518">
        <ele>822.1</ele>
        <time>2024-03-05T16:11:24Z</time>
      </trkpt>
      <trkpt lat="48.59962" lon="7.2518">
        <ele>821.9</ele>
        <time>2024-03-05T16:11:25Z</time>
      </trkpt>
      <trkpt lat="48.59967" lon="7.25178">
        <ele>821.7</ele>
        <time>2024-03-05T16:11:26Z</time>
      </trkpt>
      <trkpt lat="48.59971" lon="7.25177">
        <ele>821.5</ele>
        <time>2024-03-05T16:11:27Z</time>
      </trkpt>
      <trkpt lat="48.59976" lon="7.25176">
        <ele>821.3</ele>
        <time>2024-03-05T16:11:28Z</time>
      </trkpt>
      <trkpt lat="48.59981" lon="7.25176">
        <ele>821</ele>
        <time>2024-03-05T16:11:29Z</time>
      </trkpt>
      <trkpt lat="48.59985" lon="7.25175">
        <ele>820.8</ele>
        <time>2024-03-05T16:11:30Z</time>
      </trkpt>
      <trkpt lat="48.5999" lon="7.25176">
        <ele>820.6</ele>
        <time>2024-03-05T16:11:32Z</time>
      </trkpt>
      <trkpt lat="48.59994" lon="7.25176">
        <ele>820.5</ele>
        <time>2024-03-05T16:11:33Z</time>
      </trkpt>
      <trkpt lat="48.60001" lon="7.25177">
        <ele>820.2</ele>
        <time>2024-03-05T16:11:35Z</time>
      </trkpt>
      <trkpt lat="48.60004" lon="7.25176">
        <ele>820</ele>
        <time>2024-03-05T16:11:36Z</time>
      </trkpt>
      <trkpt lat="48.60008" lon="7.25178">
        <ele>819.9</ele>
        <time>2024-03-05T16:11:37Z</time>
      </trkpt>
      <trkpt lat="48.60009" lon="7.25179">
        <ele>819.8</ele>
        <time>2024-03-05T16:11:38Z</time>
      </trkpt>
      <trkpt lat="48.60013" lon="7.25177">
        <ele>819.7</ele>
        <time>2024-03-05T16:11:39Z</time>
      </trkpt>
      <trkpt lat="48.60016" lon="7.25176">
        <ele>819.6</ele>
        <time>2024-03-05T16:11:40Z</time>
      </trkpt>
      <trkpt lat="48.60019" lon="7.25175">
        <ele>819.5</ele>
        <time>2024-03-05T16:11:41Z</time>
      </trkpt>
      <trkpt lat="48.60022" lon="7.25175">
        <ele>819.3</ele>
        <time>2024-03-05T16:11:42Z</time>
      </trkpt>
      <trkpt lat="48.60026" lon="7.25174">
        <ele>819.2</ele>
        <time>2024-03-05T16:11:43Z</time>
      </trkpt>
      <trkpt lat="48.60029" lon="7.25172">
        <ele>819.1</ele>
        <time>2024-03-05T16:11:44Z</time>
      </trkpt>
      <trkpt lat="48.60033" lon="7.2517">
        <ele>818.9</ele>
        <time>2024-03-05T16:11:45Z</time>
      </trkpt>
      <trkpt lat="48.60036" lon="7.25169">
        <ele>818.7</ele>
        <time>2024-03-05T16:11:46Z</time>
      </trkpt>
      <trkpt lat="48.60037" lon="7.25168">
        <ele>818.7</ele>
        <time>2024-03-05T16:11:47Z</time>
      </trkpt>
      <trkpt lat="48.60042" lon="7.25166">
        <ele>818.4</ele>
        <time>2024-03-05T16:11:48Z</time>
      </trkpt>
      <trkpt lat="48.60047" lon="7.25163">
        <ele>818.1</ele>
        <time>2024-03-05T16:11:50Z</time>
      </trkpt>
      <trkpt lat="48.60051" lon="7.25161">
        <ele>817.8</ele>
        <time>2024-03-05T16:11:51Z</time>
      </trkpt>
      <trkpt lat="48.60052" lon="7.2516">
        <ele>817.7</ele>
        <time>2024-03-05T16:11:52Z</time>
      </trkpt>
      <trkpt lat="48.60056" lon="7.25158">
        <ele>817.5</ele>
        <time>2024-03-05T16:11:53Z</time>
      </trkpt>
      <trkpt lat="48.60059" lon="7.25157">
        <ele>817.3</ele>
        <time>2024-03-05T16:11:54Z</time>
      </trkpt>
      <trkpt lat="48.60063" lon="7.25157">
        <ele>817</ele>
        <time>2024-03-05T16:11:55Z</time>
      </trkpt>
      <trkpt lat="48.60067" lon="7.25156">
        <ele>816.8</ele>
        <time>2024-03-05T16:11:56Z</time>
      </trkpt>
      <trkpt lat="48.6007" lon="7.25155">
        <ele>816.6</ele>
        <time>2024-03-05T16:11:57Z</time>
      </trkpt>
      <trkpt lat="48.60075" lon="7.25155">
        <ele>816.3</ele>
        <time>2024-03-05T16:11:58Z</time>
      </trkpt>
      <trkpt lat="48.60078" lon="7.25155">
        <ele>816</ele>
        <time>2024-03-05T16:11:59Z</time>
      </trkpt>
      <trkpt lat="48.60083" lon="7.25154">
        <ele>815.7</ele>
        <time>2024-03-05T16:12:00Z</time>
      </trkpt>
      <trkpt lat="48.60087" lon="7.25153">
        <ele>815.4</ele>
        <time>2024-03-05T16:12:01Z</time>
      </trkpt>
      <trkpt lat="48.60092" lon="7.25154">
        <ele>815.1</ele>
        <time>2024-03-05T16:12:02Z</time>
      </trkpt>
      <trkpt lat="48.60097" lon="7.25155">
        <ele>814.8</ele>
        <time>2024-03-05T16:12:04Z</time>
      </trkpt>
      <trkpt lat="48.601" lon="7.25155">
        <ele>814.7</ele>
        <time>2024-03-05T16:12:05Z</time>
      </trkpt>
      <trkpt lat="48.60103" lon="7.25156">
        <ele>814.5</ele>
        <time>2024-03-05T16:12:06Z</time>
      </trkpt>
      <trkpt lat="48.60106" lon="7.25156">
        <ele>814.3</ele>
        <time>2024-03-05T16:12:07Z</time>
      </trkpt>
      <trkpt lat="48.60111" lon="7.25156">
        <ele>814.1</ele>
        <time>2024-03-05T16:12:08Z</time>
      </trkpt>
      <trkpt lat="48.60116" lon="7.25156">
        <ele>813.9</ele>
        <time>2024-03-05T16:12:09Z</time>
      </trkpt>
      <trkpt lat="48.60122" lon="7.25158">
        <ele>813.6</ele>
        <time>2024-03-05T16:12:11Z</time>
      </trkpt>
      <trkpt lat="48.60126" lon="7.2516">
        <ele>813.5</ele>
        <time>2024-03-05T16:12:12Z</time>
      </trkpt>
      <trkpt lat="48.60129" lon="7.25161">
        <ele>813.3</ele>
        <time>2024-03-05T16:12:13Z</time>
      </trkpt>
      <trkpt lat="48.60133" lon="7.25161">
        <ele>813.2</ele>
        <time>2024-03-05T16:12:14Z</time>
      </trkpt>
      <trkpt lat="48.60137" lon="7.25161">
        <ele>813</ele>
        <time>2024-03-05T16:12:15Z</time>
      </trkpt>
      <trkpt lat="48.60142" lon="7.25161">
        <ele>812.8</ele>
        <time>2024-03-05T16:12:16Z</time>
      </trkpt>
      <trkpt lat="48.60146" lon="7.25162">
        <ele>812.6</ele>
        <time>2024-03-05T16:12:17Z</time>
      </trkpt>
      <trkpt lat="48.60153" lon="7.25164">
        <ele>812.3</ele>
        <time>2024-03-05T16:12:18Z</time>
      </trkpt>
      <trkpt lat="48.60157" lon="7.25165">
        <ele>812.1</ele>
        <time>2024-03-05T16:12:19Z</time>
      </trkpt>
      <trkpt lat="48.60163" lon="7.25167">
        <ele>811.9</ele>
        <time>2024-03-05T16:12:21Z</time>
      </trkpt>
      <trkpt lat="48.60166" lon="7.25167">
        <ele>811.8</ele>
        <time>2024-03-05T16:12:22Z</time>
      </trkpt>
      <trkpt lat="48.6017" lon="7.25167">
        <ele>811.6</ele>
        <time>2024-03-05T16:12:23Z</time>
      </trkpt>
      <trkpt lat="48.60174" lon="7.25168">
        <ele>811.5</ele>
        <time>2024-03-05T16:12:24Z</time>
      </trkpt>
      <trkpt lat="48.60177" lon="7.25169">
        <ele>811.4</ele>
        <time>2024-03-05T16:12:25Z</time>
      </trkpt>
      <trkpt lat="48.60181" lon="7.2517">
        <ele>811.2</ele>
        <time>2024-03-05T16:12:26Z</time>
      </trkpt>
      <trkpt lat="48.60186" lon="7.25173">
        <ele>811</ele>
        <time>2024-03-05T16:12:27Z</time>
      </trkpt>
      <trkpt lat="48.60192" lon="7.25177">
        <ele>810.8</ele>
        <time>2024-03-05T16:12:28Z</time>
      </trkpt>
      <trkpt lat="48.60197" lon="7.2518">
        <ele>810.6</ele>
        <time>2024-03-05T16:12:29Z</time>
      </trkpt>
      <trkpt lat="48.602" lon="7.25181">
        <ele>810.5</ele>
        <time>2024-03-05T16:12:30Z</time>
      </trkpt>
      <trkpt lat="48.60204" lon="7.25183">
        <ele>810.3</ele>
        <time>2024-03-05T16:12:31Z</time>
      </trkpt>
      <trkpt lat="48.60209" lon="7.25185">
        <ele>810.2</ele>
        <time>2024-03-05T16:12:33Z</time>
      </trkpt>
      <trkpt lat="48.60213" lon="7.25187">
        <ele>810</ele>
        <time>2024-03-05T16:12:34Z</time>
      </trkpt>
      <trkpt lat="48.60216" lon="7.25188">
        <ele>809.9</ele>
        <time>2024-03-05T16:12:35Z</time>
      </trkpt>
      <trkpt lat="48.60221" lon="7.25191">
        <ele>809.8</ele>
        <time>2024-03-05T16:12:36Z</time>
      </trkpt>
      <trkpt lat="48.60223" lon="7.25193">
        <ele>809.7</ele>
        <time>2024-03-05T16:12:37Z</time>
      </trkpt>
      <trkpt lat="48.60227" lon="7.25194">
        <ele>809.5</ele>
        <time>2024-03-05T16:12:38Z</time>
      </trkpt>
      <trkpt lat="48.60231" lon="7.25197">
        <ele>809.4</ele>
        <time>2024-03-05T16:12:39Z</time>
      </trkpt>
      <trkpt lat="48.60234" lon="7.25201">
        <ele>809.2</ele>
        <time>2024-03-05T16:12:40Z</time>
      </trkpt>
      <trkpt lat="48.60237" lon="7.25205">
        <ele>809.1</ele>
        <time>2024-03-05T16:12:41Z</time>
      </trkpt>
      <trkpt lat="48.6024" lon="7.25208">
        <ele>808.9</ele>
        <time>2024-03-05T16:12:42Z</time>
      </trkpt>
      <trkpt lat="48.60242" lon="7.25212">
        <ele>808.8</ele>
        <time>2024-03-05T16:12:43Z</time>
      </trkpt>
      <trkpt lat="48.60245" lon="7.25216">
        <ele>808.6</ele>
        <time>2024-03-05T16:12:44Z</time>
      </trkpt>
      <trkpt lat="48.60248" lon="7.25219">
        <ele>808.5</ele>
        <time>2024-03-05T16:12:45Z</time>
      </trkpt>
      <trkpt lat="48.6025" lon="7.25223">
        <ele>808.3</ele>
        <time>2024-03-05T16:12:46Z</time>
      </trkpt>
      <trkpt lat="48.60253" lon="7.25228">
        <ele>808</ele>
        <time>2024-03-05T16:12:47Z</time>
      </trkpt>
      <trkpt lat="48.60256" lon="7.25231">
        <ele>807.7</ele>
        <time>2024-03-05T16:12:48Z</time>
      </trkpt>
      <trkpt lat="48.60259" lon="7.25234">
        <ele>807.4</ele>
        <time>2024-03-05T16:12:49Z</time>
      </trkpt>
      <trkpt lat="48.60262" lon="7.25237">
        <ele>807.1</ele>
        <time>2024-03-05T16:12:50Z</time>
      </trkpt>
      <trkpt lat="48.60264" lon="7.2524">
        <ele>806.7</ele>
        <time>2024-03-05T16:12:51Z</time>
      </trkpt>
      <trkpt lat="48.60268" lon="7.25243">
        <ele>806.2</ele>
        <time>2024-03-05T16:12:52Z</time>
      </trkpt>
      <trkpt lat="48.60269" lon="7.25244">
        <ele>806.1</ele>
        <time>2024-03-05T16:12:53Z</time>
      </trkpt>
      <trkpt lat="48.60272" lon="7.25247">
        <ele>805.7</ele>
        <time>2024-03-05T16:12:54Z</time>
      </trkpt>
      <trkpt lat="48.60275" lon="7.2525">
        <ele>805.2</ele>
        <time>2024-03-05T16:12:55Z</time>
      </trkpt>
      <trkpt lat="48.60279" lon="7.25253">
        <ele>804.7</ele>
        <time>2024-03-05T16:12:56Z</time>
      </trkpt>
      <trkpt lat="48.60283" lon="7.25257">
        <ele>804.2</ele>
        <time>2024-03-05T16:12:57Z</time>
      </trkpt>
      <trkpt lat="48.60288" lon="7.25264">
        <ele>803.5</ele>
        <time>2024-03-05T16:12:58Z</time>
      </trkpt>
      <trkpt lat="48.60293" lon="7.25269">
        <ele>803</ele>
        <time>2024-03-05T16:12:59Z</time>
      </trkpt>
      <trkpt lat="48.60296" lon="7.25274">
        <ele>802.5</ele>
        <time>2024-03-05T16:13:00Z</time>
      </trkpt>
      <trkpt lat="48.60299" lon="7.25278">
        <ele>802.2</ele>
        <time>2024-03-05T16:13:01Z</time>
      </trkpt>
      <trkpt lat="48.60303" lon="7.25286">
        <ele>801.5</ele>
        <time>2024-03-05T16:13:03Z</time>
      </trkpt>
      <trkpt lat="48.60306" lon="7.25292">
        <ele>801</ele>
        <time>2024-03-05T16:13:04Z</time>
      </trkpt>
      <trkpt lat="48.60309" lon="7.25297">
        <ele>800.5</ele>
        <time>2024-03-05T16:13:05Z</time>
      </trkpt>
      <trkpt lat="48.60311" lon="7.25301">
        <ele>800.2</ele>
        <time>2024-03-05T16:13:06Z</time>
      </trkpt>
      <trkpt lat="48.60313" lon="7.25304">
        <ele>799.9</ele>
        <time>2024-03-05T16:13:07Z</time>
      </trkpt>
      <trkpt lat="48.60315" lon="7.25309">
        <ele>799.6</ele>
        <time>2024-03-05T16:13:08Z</time>
      </trkpt>
      <trkpt lat="48.60315" lon="7.25311">
        <ele>799.5</ele>
        <time>2024-03-05T16:13:09Z</time>
      </trkpt>
      <trkpt lat="48.60316" lon="7.25316">
        <ele>799.3</ele>
        <time>2024-03-05T16:13:10Z</time>
      </trkpt>
      <trkpt lat="48.60318" lon="7.2532">
        <ele>799.1</ele>
        <time>2024-03-05T16:13:11Z</time>
      </trkpt>
      <trkpt lat="48.60319" lon="7.25322">
        <ele>799</ele>
        <time>2024-03-05T16:13:12Z</time>
      </trkpt>
      <trkpt lat="48.60319" lon="7.25324">
        <ele>798.9</ele>
        <time>2024-03-05T16:13:13Z</time>
      </trkpt>
      <trkpt lat="48.60321" lon="7.25329">
        <ele>798.8</ele>
        <time>2024-03-05T16:13:14Z</time>
      </trkpt>
      <trkpt lat="48.60322" lon="7.25333">
        <ele>798.7</ele>
        <time>2024-03-05T16:13:15Z</time>
      </trkpt>
      <trkpt lat="48.60323" lon="7.25338">
        <ele>798.7</ele>
        <time>2024-03-05T16:13:16Z</time>
      </trkpt>
      <trkpt lat="48.60324" lon="7.25344">
        <ele>798.7</ele>
        <time>2024-03-05T16:13:17Z</time>
      </trkpt>
      <trkpt lat="48.60326" lon="7.25356">
        <ele>798.6</ele>
        <time>2024-03-05T16:13:18Z</time>
      </trkpt>
      <trkpt lat="48.60326" lon="7.25367">
        <ele>798.5</ele>
        <time>2024-03-05T16:13:20Z</time>
      </trkpt>
      <trkpt lat="48.60326" lon="7.25374">
        <ele>798.4</ele>
        <time>2024-03-05T16:13:21Z</time>
      </trkpt>
      <trkpt lat="48.60327" lon="7.2538">
        <ele>798.4</ele>
        <time>2024-03-05T16:13:22Z</time>
      </trkpt>
      <trkpt lat="48.60326" lon="7.25385">
        <ele>798.3</ele>
        <time>2024-03-05T16:13:23Z</time>
      </trkpt>
      <trkpt lat="48.60326" lon="7.25392">
        <ele>798.3</ele>
        <time>2024-03-05T16:13:24Z</time>
      </trkpt>
      <trkpt lat="48.60326" lon="7.25394">
        <ele>798.2</ele>
        <time>2024-03-05T16:13:25Z</time>
      </trkpt>
      <trkpt lat="48.60326" lon="7.25401">
        <ele>798.2</ele>
        <time>2024-03-05T16:13:26Z</time>
      </trkpt>
      <trkpt lat="48.60327" lon="7.25408">
        <ele>798.2</ele>
        <time>2024-03-05T16:13:27Z</time>
      </trkpt>
      <trkpt lat="48.60327" lon="7.25416">
        <ele>798.1</ele>
        <time>2024-03-05T16:13:28Z</time>
      </trkpt>
      <trkpt lat="48.60327" lon="7.25421">
        <ele>798.1</ele>
        <time>2024-03-05T16:13:29Z</time>
      </trkpt>
      <trkpt lat="48.60328" lon="7.25427">
        <ele>798</ele>
        <time>2024-03-05T16:13:30Z</time>
      </trkpt>
      <trkpt lat="48.6033" lon="7.25433">
        <ele>797.9</ele>
        <time>2024-03-05T16:13:31Z</time>
      </trkpt>
      <trkpt lat="48.60334" lon="7.25441">
        <ele>797.9</ele>
        <time>2024-03-05T16:13:32Z</time>
      </trkpt>
      <trkpt lat="48.60338" lon="7.25447">
        <ele>797.5</ele>
        <time>2024-03-05T16:13:33Z</time>
      </trkpt>
      <trkpt lat="48.60341" lon="7.25451">
        <ele>797.4</ele>
        <time>2024-03-05T16:13:34Z</time>
      </trkpt>
      <trkpt lat="48.60345" lon="7.25454">
        <ele>797.3</ele>
        <time>2024-03-05T16:13:35Z</time>
      </trkpt>
      <trkpt lat="48.60349" lon="7.25458">
        <ele>797.1</ele>
        <time>2024-03-05T16:13:36Z</time>
      </trkpt>
      <trkpt lat="48.60352" lon="7.25461">
        <ele>797</ele>
        <time>2024-03-05T16:13:37Z</time>
      </trkpt>
      <trkpt lat="48.60356" lon="7.25467">
        <ele>796.8</ele>
        <time>2024-03-05T16:13:38Z</time>
      </trkpt>
      <trkpt lat="48.60364" lon="7.25475">
        <ele>796.5</ele>
        <time>2024-03-05T16:13:40Z</time>
      </trkpt>
      <trkpt lat="48.60368" lon="7.25479">
        <ele>796.3</ele>
        <time>2024-03-05T16:13:41Z</time>
      </trkpt>
      <trkpt lat="48.60371" lon="7.25482">
        <ele>796.2</ele>
        <time>2024-03-05T16:13:42Z</time>
      </trkpt>
      <trkpt lat="48.60373" lon="7.25484">
        <ele>796</ele>
        <time>2024-03-05T16:13:43Z</time>
      </trkpt>
      <trkpt lat="48.60376" lon="7.25487">
        <ele>795.8</ele>
        <time>2024-03-05T16:13:44Z</time>
      </trkpt>
      <trkpt lat="48.60379" lon="7.25489">
        <ele>795.7</ele>
        <time>2024-03-05T16:13:45Z</time>
      </trkpt>
      <trkpt lat="48.60382" lon="7.2549">
        <ele>795.5</ele>
        <time>2024-03-05T16:13:46Z</time>
      </trkpt>
      <trkpt lat="48.60386" lon="7.25492">
        <ele>795.2</ele>
        <time>2024-03-05T16:13:47Z</time>
      </trkpt>
      <trkpt lat="48.6039" lon="7.25495">
        <ele>795</ele>
        <time>2024-03-05T16:13:48Z</time>
      </trkpt>
      <trkpt lat="48.60396" lon="7.25497">
        <ele>794.6</ele>
        <time>2024-03-05T16:13:50Z</time>
      </trkpt>
      <trkpt lat="48.60397" lon="7.25497">
        <ele>794.5</ele>
        <time>2024-03-05T16:13:51Z</time>
      </trkpt>
      <trkpt lat="48.60398" lon="7.25497">
        <ele>794.5</ele>
        <time>2024-03-05T16:13:52Z</time>
      </trkpt>
      <trkpt lat="48.60401" lon="7.25498">
        <ele>794.2</ele>
        <time>2024-03-05T16:13:54Z</time>
      </trkpt>
      <trkpt lat="48.60404" lon="7.25499">
        <ele>794.1</ele>
        <time>2024-03-05T16:13:55Z</time>
      </trkpt>
      <trkpt lat="48.60407" lon="7.255">
        <ele>793.9</ele>
        <time>2024-03-05T16:13:56Z</time>
      </trkpt>
      <trkpt lat="48.60412" lon="7.25501">
        <ele>793.6</ele>
        <time>2024-03-05T16:13:57Z</time>
      </trkpt>
      <trkpt lat="48.60416" lon="7.25503">
        <ele>793.4</ele>
        <time>2024-03-05T16:13:58Z</time>
      </trkpt>
      <trkpt lat="48.60421" lon="7.25505">
        <ele>793.2</ele>
        <time>2024-03-05T16:13:59Z</time>
      </trkpt>
      <trkpt lat="48.60426" lon="7.25507">
        <ele>793</ele>
        <time>2024-03-05T16:14:00Z</time>
      </trkpt>
      <trkpt lat="48.60429" lon="7.25509">
        <ele>792.9</ele>
        <time>2024-03-05T16:14:01Z</time>
      </trkpt>
      <trkpt lat="48.60434" lon="7.25512">
        <ele>792.7</ele>
        <time>2024-03-05T16:14:03Z</time>
      </trkpt>
      <trkpt lat="48.60437" lon="7.25514">
        <ele>792.6</ele>
        <time>2024-03-05T16:14:04Z</time>
      </trkpt>
      <trkpt lat="48.6044" lon="7.25516">
        <ele>792.5</ele>
        <time>2024-03-05T16:14:05Z</time>
      </trkpt>
      <trkpt lat="48.60443" lon="7.25518">
        <ele>792.5</ele>
        <time>2024-03-05T16:14:06Z</time>
      </trkpt>
      <trkpt lat="48.60446" lon="7.2552">
        <ele>792.4</ele>
        <time>2024-03-05T16:14:07Z</time>
      </trkpt>
      <trkpt lat="48.6045" lon="7.25523">
        <ele>792.3</ele>
        <time>2024-03-05T16:14:08Z</time>
      </trkpt>
      <trkpt lat="48.60453" lon="7.25525">
        <ele>792.1</ele>
        <time>2024-03-05T16:14:09Z</time>
      </trkpt>
      <trkpt lat="48.60456" lon="7.25527">
        <ele>792</ele>
        <time>2024-03-05T16:14:10Z</time>
      </trkpt>
      <trkpt lat="48.6046" lon="7.2553">
        <ele>791.9</ele>
        <time>2024-03-05T16:14:11Z</time>
      </trkpt>
      <trkpt lat="48.60463" lon="7.25533">
        <ele>791.7</ele>
        <time>2024-03-05T16:14:12Z</time>
      </trkpt>
      <trkpt lat="48.60466" lon="7.25536">
        <ele>791.6</ele>
        <time>2024-03-05T16:14:13Z</time>
      </trkpt>
      <trkpt lat="48.60469" lon="7.25539">
        <ele>791.4</ele>
        <time>2024-03-05T16:14:14Z</time>
      </trkpt>
      <trkpt lat="48.60472" lon="7.25541">
        <ele>791.2</ele>
        <time>2024-03-05T16:14:15Z</time>
      </trkpt>
      <trkpt lat="48.60475" lon="7.25543">
        <ele>791</ele>
        <time>2024-03-05T16:14:16Z</time>
      </trkpt>
      <trkpt lat="48.60479" lon="7.25545">
        <ele>790.8</ele>
        <time>2024-03-05T16:14:17Z</time>
      </trkpt>
      <trkpt lat="48.60482" lon="7.25547">
        <ele>790.5</ele>
        <time>2024-03-05T16:14:18Z</time>
      </trkpt>
      <trkpt lat="48.60485" lon="7.25551">
        <ele>790.3</ele>
        <time>2024-03-05T16:14:19Z</time>
      </trkpt>
      <trkpt lat="48.60489" lon="7.25554">
        <ele>790.1</ele>
        <time>2024-03-05T16:14:20Z</time>
      </trkpt>
      <trkpt lat="48.60494" lon="7.25558">
        <ele>789.7</ele>
        <time>2024-03-05T16:14:22Z</time>
      </trkpt>
      <trkpt lat="48.60497" lon="7.25561">
        <ele>789.5</ele>
        <time>2024-03-05T16:14:23Z</time>
      </trkpt>
      <trkpt lat="48.605" lon="7.25563">
        <ele>789.3</ele>
        <time>2024-03-05T16:14:24Z</time>
      </trkpt>
      <trkpt lat="48.60504" lon="7.25566">
        <ele>789.1</ele>
        <time>2024-03-05T16:14:25Z</time>
      </trkpt>
      <trkpt lat="48.60507" lon="7.25568">
        <ele>788.9</ele>
        <time>2024-03-05T16:14:26Z</time>
      </trkpt>
      <trkpt lat="48.6051" lon="7.25571">
        <ele>788.7</ele>
        <time>2024-03-05T16:14:27Z</time>
      </trkpt>
      <trkpt lat="48.60513" lon="7.25574">
        <ele>788.5</ele>
        <time>2024-03-05T16:14:28Z</time>
      </trkpt>
      <trkpt lat="48.60519" lon="7.25576">
        <ele>788.2</ele>
        <time>2024-03-05T16:14:29Z</time>
      </trkpt>
      <trkpt lat="48.60523" lon="7.2558">
        <ele>788</ele>
        <time>2024-03-05T16:14:30Z</time>
      </trkpt>
      <trkpt lat="48.60527" lon="7.25582">
        <ele>787.8</ele>
        <time>2024-03-05T16:14:31Z</time>
      </trkpt>
      <trkpt lat="48.60531" lon="7.25587">
        <ele>787.5</ele>
        <time>2024-03-05T16:14:33Z</time>
      </trkpt>
      <trkpt lat="48.60535" lon="7.2559">
        <ele>787.3</ele>
        <time>2024-03-05T16:14:34Z</time>
      </trkpt>
      <trkpt lat="48.60538" lon="7.25594">
        <ele>787.1</ele>
        <time>2024-03-05T16:14:35Z</time>
      </trkpt>
      <trkpt lat="48.60542" lon="7.25597">
        <ele>786.9</ele>
        <time>2024-03-05T16:14:36Z</time>
      </trkpt>
      <trkpt lat="48.60546" lon="7.25601">
        <ele>786.7</ele>
        <time>2024-03-05T16:14:37Z</time>
      </trkpt>
      <trkpt lat="48.6055" lon="7.25604">
        <ele>786.5</ele>
        <time>2024-03-05T16:14:38Z</time>
      </trkpt>
      <trkpt lat="48.60553" lon="7.25608">
        <ele>786.2</ele>
        <time>2024-03-05T16:14:39Z</time>
      </trkpt>
      <trkpt lat="48.60557" lon="7.2561">
        <ele>786</ele>
        <time>2024-03-05T16:14:40Z</time>
      </trkpt>
      <trkpt lat="48.6056" lon="7.25613">
        <ele>785.8</ele>
        <time>2024-03-05T16:14:41Z</time>
      </trkpt>
      <trkpt lat="48.60563" lon="7.25615">
        <ele>785.7</ele>
        <time>2024-03-05T16:14:42Z</time>
      </trkpt>
      <trkpt lat="48.60566" lon="7.25618">
        <ele>785.5</ele>
        <time>2024-03-05T16:14:43Z</time>
      </trkpt>
      <trkpt lat="48.6057" lon="7.25622">
        <ele>785.2</ele>
        <time>2024-03-05T16:14:44Z</time>
      </trkpt>
      <trkpt lat="48.60574" lon="7.25626">
        <ele>785</ele>
        <time>2024-03-05T16:14:45Z</time>
      </trkpt>
      <trkpt lat="48.60578" lon="7.25628">
        <ele>784.7</ele>
        <time>2024-03-05T16:14:46Z</time>
      </trkpt>
      <trkpt lat="48.60582" lon="7.25632">
        <ele>784.5</ele>
        <time>2024-03-05T16:14:47Z</time>
      </trkpt>
      <trkpt lat="48.60587" lon="7.25637">
        <ele>784.2</ele>
        <time>2024-03-05T16:14:48Z</time>
      </trkpt>
      <trkpt lat="48.60591" lon="7.2564">
        <ele>783.9</ele>
        <time>2024-03-05T16:14:49Z</time>
      </trkpt>
      <trkpt lat="48.60595" lon="7.25643">
        <ele>783.7</ele>
        <time>2024-03-05T16:14:50Z</time>
      </trkpt>
      <trkpt lat="48.60598" lon="7.25645">
        <ele>783.6</ele>
        <time>2024-03-05T16:14:51Z</time>
      </trkpt>
      <trkpt lat="48.60604" lon="7.25649">
        <ele>783.3</ele>
        <time>2024-03-05T16:14:53Z</time>
      </trkpt>
      <trkpt lat="48.60609" lon="7.25653">
        <ele>783</ele>
        <time>2024-03-05T16:14:54Z</time>
      </trkpt>
      <trkpt lat="48.60613" lon="7.25657">
        <ele>782.8</ele>
        <time>2024-03-05T16:14:55Z</time>
      </trkpt>
      <trkpt lat="48.60617" lon="7.25659">
        <ele>782.6</ele>
        <time>2024-03-05T16:14:56Z</time>
      </trkpt>
      <trkpt lat="48.6062" lon="7.25661">
        <ele>782.5</ele>
        <time>2024-03-05T16:14:57Z</time>
      </trkpt>
      <trkpt lat="48.60625" lon="7.25663">
        <ele>782.3</ele>
        <time>2024-03-05T16:14:58Z</time>
      </trkpt>
      <trkpt lat="48.60629" lon="7.25665">
        <ele>782.1</ele>
        <time>2024-03-05T16:14:59Z</time>
      </trkpt>
      <trkpt lat="48.60632" lon="7.25667">
        <ele>781.9</ele>
        <time>2024-03-05T16:15:00Z</time>
      </trkpt>
      <trkpt lat="48.60635" lon="7.2567">
        <ele>781.7</ele>
        <time>2024-03-05T16:15:01Z</time>
      </trkpt>
      <trkpt lat="48.60639" lon="7.25673">
        <ele>781.5</ele>
        <time>2024-03-05T16:15:02Z</time>
      </trkpt>
      <trkpt lat="48.60643" lon="7.25674">
        <ele>781.4</ele>
        <time>2024-03-05T16:15:03Z</time>
      </trkpt>
      <trkpt lat="48.60647" lon="7.25676">
        <ele>781.2</ele>
        <time>2024-03-05T16:15:04Z</time>
      </trkpt>
      <trkpt lat="48.60651" lon="7.25678">
        <ele>781</ele>
        <time>2024-03-05T16:15:05Z</time>
      </trkpt>
      <trkpt lat="48.60659" lon="7.25681">
        <ele>780.7</ele>
        <time>2024-03-05T16:15:07Z</time>
      </trkpt>
      <trkpt lat="48.60663" lon="7.25683">
        <ele>780.5</ele>
        <time>2024-03-05T16:15:08Z</time>
      </trkpt>
      <trkpt lat="48.60667" lon="7.25685">
        <ele>780.4</ele>
        <time>2024-03-05T16:15:09Z</time>
      </trkpt>
      <trkpt lat="48.6067" lon="7.25686">
        <ele>780.2</ele>
        <time>2024-03-05T16:15:10Z</time>
      </trkpt>
      <trkpt lat="48.60674" lon="7.25688">
        <ele>780.1</ele>
        <time>2024-03-05T16:15:11Z</time>
      </trkpt>
      <trkpt lat="48.60677" lon="7.25689">
        <ele>780</ele>
        <time>2024-03-05T16:15:12Z</time>
      </trkpt>
      <trkpt lat="48.60681" lon="7.2569">
        <ele>779.8</ele>
        <time>2024-03-05T16:15:13Z</time>
      </trkpt>
      <trkpt lat="48.60684" lon="7.25691">
        <ele>779.7</ele>
        <time>2024-03-05T16:15:14Z</time>
      </trkpt>
      <trkpt lat="48.60688" lon="7.25693">
        <ele>779.5</ele>
        <time>2024-03-05T16:15:15Z</time>
      </trkpt>
      <trkpt lat="48.60692" lon="7.25693">
        <ele>779.3</ele>
        <time>2024-03-05T16:15:16Z</time>
      </trkpt>
      <trkpt lat="48.60696" lon="7.25693">
        <ele>779.1</ele>
        <time>2024-03-05T16:15:17Z</time>
      </trkpt>
      <trkpt lat="48.607" lon="7.25694">
        <ele>778.9</ele>
        <time>2024-03-05T16:15:18Z</time>
      </trkpt>
      <trkpt lat="48.60705" lon="7.25693">
        <ele>778.7</ele>
        <time>2024-03-05T16:15:19Z</time>
      </trkpt>
      <trkpt lat="48.60709" lon="7.25692">
        <ele>778.5</ele>
        <time>2024-03-05T16:15:20Z</time>
      </trkpt>
      <trkpt lat="48.60715" lon="7.25692">
        <ele>778.2</ele>
        <time>2024-03-05T16:15:22Z</time>
      </trkpt>
      <trkpt lat="48.60718" lon="7.25692">
        <ele>778</ele>
        <time>2024-03-05T16:15:23Z</time>
      </trkpt>
      <trkpt lat="48.60722" lon="7.25692">
        <ele>777.8</ele>
        <time>2024-03-05T16:15:24Z</time>
      </trkpt>
      <trkpt lat="48.60725" lon="7.25693">
        <ele>777.6</ele>
        <time>2024-03-05T16:15:25Z</time>
      </trkpt>
      <trkpt lat="48.60729" lon="7.25693">
        <ele>777.4</ele>
        <time>2024-03-05T16:15:26Z</time>
      </trkpt>
      <trkpt lat="48.60733" lon="7.25692">
        <ele>777.2</ele>
        <time>2024-03-05T16:15:27Z</time>
      </trkpt>
      <trkpt lat="48.60738" lon="7.25693">
        <ele>777</ele>
        <time>2024-03-05T16:15:28Z</time>
      </trkpt>
      <trkpt lat="48.60742" lon="7.25695">
        <ele>776.8</ele>
        <time>2024-03-05T16:15:29Z</time>
      </trkpt>
      <trkpt lat="48.60745" lon="7.25696">
        <ele>776.6</ele>
        <time>2024-03-05T16:15:30Z</time>
      </trkpt>
      <trkpt lat="48.60749" lon="7.25696">
        <ele>776.4</ele>
        <time>2024-03-05T16:15:31Z</time>
      </trkpt>
      <trkpt lat="48.60752" lon="7.25696">
        <ele>776.2</ele>
        <time>2024-03-05T16:15:32Z</time>
      </trkpt>
      <trkpt lat="48.60756" lon="7.25697">
        <ele>776</ele>
        <time>2024-03-05T16:15:33Z</time>
      </trkpt>
      <trkpt lat="48.60759" lon="7.25695">
        <ele>775.8</ele>
        <time>2024-03-05T16:15:34Z</time>
      </trkpt>
      <trkpt lat="48.60763" lon="7.25695">
        <ele>775.6</ele>
        <time>2024-03-05T16:15:35Z</time>
      </trkpt>
      <trkpt lat="48.60766" lon="7.25695">
        <ele>775.5</ele>
        <time>2024-03-05T16:15:36Z</time>
      </trkpt>
      <trkpt lat="48.6077" lon="7.25694">
        <ele>775.3</ele>
        <time>2024-03-05T16:15:37Z</time>
      </trkpt>
      <trkpt lat="48.60773" lon="7.25694">
        <ele>775.1</ele>
        <time>2024-03-05T16:15:38Z</time>
      </trkpt>
      <trkpt lat="48.60777" lon="7.25693">
        <ele>774.9</ele>
        <time>2024-03-05T16:15:39Z</time>
      </trkpt>
      <trkpt lat="48.60783" lon="7.25692">
        <ele>774.6</ele>
        <time>2024-03-05T16:15:41Z</time>
      </trkpt>
      <trkpt lat="48.60786" lon="7.25692">
        <ele>774.4</ele>
        <time>2024-03-05T16:15:42Z</time>
      </trkpt>
      <trkpt lat="48.60789" lon="7.25692">
        <ele>774.3</ele>
        <time>2024-03-05T16:15:43Z</time>
      </trkpt>
      <trkpt lat="48.60792" lon="7.25691">
        <ele>774.1</ele>
        <time>2024-03-05T16:15:44Z</time>
      </trkpt>
      <trkpt lat="48.60796" lon="7.25692">
        <ele>773.9</ele>
        <time>2024-03-05T16:15:45Z</time>
      </trkpt>
      <trkpt lat="48.60799" lon="7.25691">
        <ele>773.7</ele>
        <time>2024-03-05T16:15:46Z</time>
      </trkpt>
      <trkpt lat="48.60803" lon="7.25691">
        <ele>773.5</ele>
        <time>2024-03-05T16:15:47Z</time>
      </trkpt>
      <trkpt lat="48.60806" lon="7.25691">
        <ele>773.3</ele>
        <time>2024-03-05T16:15:48Z</time>
      </trkpt>
      <trkpt lat="48.60811" lon="7.25693">
        <ele>773.1</ele>
        <time>2024-03-05T16:15:49Z</time>
      </trkpt>
      <trkpt lat="48.60815" lon="7.25694">
        <ele>772.8</ele>
        <time>2024-03-05T16:15:50Z</time>
      </trkpt>
      <trkpt lat="48.60821" lon="7.25695">
        <ele>772.5</ele>
        <time>2024-03-05T16:15:52Z</time>
      </trkpt>
      <trkpt lat="48.60824" lon="7.25696">
        <ele>772.3</ele>
        <time>2024-03-05T16:15:53Z</time>
      </trkpt>
      <trkpt lat="48.60828" lon="7.25697">
        <ele>772.1</ele>
        <time>2024-03-05T16:15:54Z</time>
      </trkpt>
      <trkpt lat="48.60832" lon="7.25696">
        <ele>771.9</ele>
        <time>2024-03-05T16:15:55Z</time>
      </trkpt>
      <trkpt lat="48.60836" lon="7.25696">
        <ele>771.6</ele>
        <time>2024-03-05T16:15:56Z</time>
      </trkpt>
      <trkpt lat="48.6084" lon="7.25696">
        <ele>771.4</ele>
        <time>2024-03-05T16:15:57Z</time>
      </trkpt>
      <trkpt lat="48.60844" lon="7.25694">
        <ele>771.2</ele>
        <time>2024-03-05T16:15:58Z</time>
      </trkpt>
      <trkpt lat="48.60851" lon="7.25693">
        <ele>770.8</ele>
        <time>2024-03-05T16:15:59Z</time>
      </trkpt>
      <trkpt lat="48.60856" lon="7.25693">
        <ele>770.5</ele>
        <time>2024-03-05T16:16:00Z</time>
      </trkpt>
      <trkpt lat="48.6086" lon="7.25691">
        <ele>770.3</ele>
        <time>2024-03-05T16:16:01Z</time>
      </trkpt>
      <trkpt lat="48.60864" lon="7.25689">
        <ele>770.1</ele>
        <time>2024-03-05T16:16:03Z</time>
      </trkpt>
      <trkpt lat="48.60867" lon="7.25689">
        <ele>769.9</ele>
        <time>2024-03-05T16:16:04Z</time>
      </trkpt>
      <trkpt lat="48.60872" lon="7.25689">
        <ele>769.7</ele>
        <time>2024-03-05T16:16:05Z</time>
      </trkpt>
      <trkpt lat="48.60876" lon="7.25689">
        <ele>769.5</ele>
        <time>2024-03-05T16:16:06Z</time>
      </trkpt>
      <trkpt lat="48.6088" lon="7.25688">
        <ele>769.2</ele>
        <time>2024-03-05T16:16:07Z</time>
      </trkpt>
      <trkpt lat="48.60884" lon="7.25688">
        <ele>769.1</ele>
        <time>2024-03-05T16:16:08Z</time>
      </trkpt>
      <trkpt lat="48.60888" lon="7.25688">
        <ele>768.8</ele>
        <time>2024-03-05T16:16:09Z</time>
      </trkpt>
      <trkpt lat="48.60895" lon="7.25687">
        <ele>768.5</ele>
        <time>2024-03-05T16:16:11Z</time>
      </trkpt>
      <trkpt lat="48.60898" lon="7.25687">
        <ele>768.3</ele>
        <time>2024-03-05T16:16:12Z</time>
      </trkpt>
      <trkpt lat="48.60901" lon="7.25687">
        <ele>768.1</ele>
        <time>2024-03-05T16:16:13Z</time>
      </trkpt>
      <trkpt lat="48.60905" lon="7.25687">
        <ele>767.9</ele>
        <time>2024-03-05T16:16:14Z</time>
      </trkpt>
      <trkpt lat="48.6091" lon="7.25688">
        <ele>767.7</ele>
        <time>2024-03-05T16:16:15Z</time>
      </trkpt>
      <trkpt lat="48.60914" lon="7.25688">
        <ele>767.4</ele>
        <time>2024-03-05T16:16:16Z</time>
      </trkpt>
      <trkpt lat="48.60918" lon="7.25688">
        <ele>767.2</ele>
        <time>2024-03-05T16:16:17Z</time>
      </trkpt>
      <trkpt lat="48.60922" lon="7.25689">
        <ele>767</ele>
        <time>2024-03-05T16:16:18Z</time>
      </trkpt>
      <trkpt lat="48.60927" lon="7.2569">
        <ele>766.7</ele>
        <time>2024-03-05T16:16:19Z</time>
      </trkpt>
      <trkpt lat="48.6093" lon="7.25691">
        <ele>766.5</ele>
        <time>2024-03-05T16:16:20Z</time>
      </trkpt>
      <trkpt lat="48.60935" lon="7.25692">
        <ele>766.2</ele>
        <time>2024-03-05T16:16:21Z</time>
      </trkpt>
      <trkpt lat="48.60938" lon="7.25693">
        <ele>766</ele>
        <time>2024-03-05T16:16:22Z</time>
      </trkpt>
      <trkpt lat="48.60941" lon="7.25693">
        <ele>765.8</ele>
        <time>2024-03-05T16:16:23Z</time>
      </trkpt>
      <trkpt lat="48.60945" lon="7.25694">
        <ele>765.6</ele>
        <time>2024-03-05T16:16:24Z</time>
      </trkpt>
      <trkpt lat="48.60949" lon="7.25695">
        <ele>765.4</ele>
        <time>2024-03-05T16:16:25Z</time>
      </trkpt>
      <trkpt lat="48.60953" lon="7.25696">
        <ele>765.1</ele>
        <time>2024-03-05T16:16:26Z</time>
      </trkpt>
      <trkpt lat="48.60958" lon="7.25697">
        <ele>764.9</ele>
        <time>2024-03-05T16:16:27Z</time>
      </trkpt>
      <trkpt lat="48.60961" lon="7.25698">
        <ele>764.7</ele>
        <time>2024-03-05T16:16:28Z</time>
      </trkpt>
      <trkpt lat="48.60967" lon="7.25701">
        <ele>764.4</ele>
        <time>2024-03-05T16:16:29Z</time>
      </trkpt>
      <trkpt lat="48.60974" lon="7.25702">
        <ele>763.9</ele>
        <time>2024-03-05T16:16:31Z</time>
      </trkpt>
      <trkpt lat="48.60977" lon="7.25704">
        <ele>763.7</ele>
        <time>2024-03-05T16:16:32Z</time>
      </trkpt>
      <trkpt lat="48.60981" lon="7.25705">
        <ele>763.5</ele>
        <time>2024-03-05T16:16:33Z</time>
      </trkpt>
      <trkpt lat="48.60984" lon="7.25708">
        <ele>763.3</ele>
        <time>2024-03-05T16:16:34Z</time>
      </trkpt>
      <trkpt lat="48.6099" lon="7.25711">
        <ele>763</ele>
        <time>2024-03-05T16:16:35Z</time>
      </trkpt>
      <trkpt lat="48.60994" lon="7.25713">
        <ele>762.7</ele>
        <time>2024-03-05T16:16:36Z</time>
      </trkpt>
      <trkpt lat="48.61" lon="7.25716">
        <ele>762.4</ele>
        <time>2024-03-05T16:16:38Z</time>
      </trkpt>
      <trkpt lat="48.61006" lon="7.25718">
        <ele>762.1</ele>
        <time>2024-03-05T16:16:39Z</time>
      </trkpt>
      <trkpt lat="48.61012" lon="7.25721">
        <ele>761.8</ele>
        <time>2024-03-05T16:16:41Z</time>
      </trkpt>
      <trkpt lat="48.61015" lon="7.25723">
        <ele>761.6</ele>
        <time>2024-03-05T16:16:42Z</time>
      </trkpt>
      <trkpt lat="48.61018" lon="7.25725">
        <ele>761.5</ele>
        <time>2024-03-05T16:16:43Z</time>
      </trkpt>
      <trkpt lat="48.61022" lon="7.25727">
        <ele>761.3</ele>
        <time>2024-03-05T16:16:44Z</time>
      </trkpt>
      <trkpt lat="48.61026" lon="7.25729">
        <ele>761.1</ele>
        <time>2024-03-05T16:16:45Z</time>
      </trkpt>
      <trkpt lat="48.6103" lon="7.2573">
        <ele>760.9</ele>
        <time>2024-03-05T16:16:46Z</time>
      </trkpt>
      <trkpt lat="48.61034" lon="7.25731">
        <ele>760.7</ele>
        <time>2024-03-05T16:16:47Z</time>
      </trkpt>
      <trkpt lat="48.61039" lon="7.25734">
        <ele>760.5</ele>
        <time>2024-03-05T16:16:48Z</time>
      </trkpt>
      <trkpt lat="48.61043" lon="7.25736">
        <ele>760.3</ele>
        <time>2024-03-05T16:16:49Z</time>
      </trkpt>
      <trkpt lat="48.6105" lon="7.25741">
        <ele>759.9</ele>
        <time>2024-03-05T16:16:51Z</time>
      </trkpt>
      <trkpt lat="48.61053" lon="7.25742">
        <ele>759.7</ele>
        <time>2024-03-05T16:16:52Z</time>
      </trkpt>
      <trkpt lat="48.61057" lon="7.25744">
        <ele>759.5</ele>
        <time>2024-03-05T16:16:53Z</time>
      </trkpt>
      <trkpt lat="48.61061" lon="7.25745">
        <ele>759.3</ele>
        <time>2024-03-05T16:16:54Z</time>
      </trkpt>
      <trkpt lat="48.61065" lon="7.25746">
        <ele>759.1</ele>
        <time>2024-03-05T16:16:55Z</time>
      </trkpt>
      <trkpt lat="48.61069" lon="7.25748">
        <ele>758.9</ele>
        <time>2024-03-05T16:16:56Z</time>
      </trkpt>
      <trkpt lat="48.61074" lon="7.2575">
        <ele>758.6</ele>
        <time>2024-03-05T16:16:57Z</time>
      </trkpt>
      <trkpt lat="48.61077" lon="7.25752">
        <ele>758.4</ele>
        <time>2024-03-05T16:16:58Z</time>
      </trkpt>
      <trkpt lat="48.61081" lon="7.25755">
        <ele>758.2</ele>
        <time>2024-03-05T16:16:59Z</time>
      </trkpt>
      <trkpt lat="48.61085" lon="7.25758">
        <ele>757.9</ele>
        <time>2024-03-05T16:17:00Z</time>
      </trkpt>
      <trkpt lat="48.61089" lon="7.25759">
        <ele>757.6</ele>
        <time>2024-03-05T16:17:01Z</time>
      </trkpt>
      <trkpt lat="48.61094" lon="7.25759">
        <ele>757.3</ele>
        <time>2024-03-05T16:17:03Z</time>
      </trkpt>
      <trkpt lat="48.61098" lon="7.2576">
        <ele>757</ele>
        <time>2024-03-05T16:17:04Z</time>
      </trkpt>
      <trkpt lat="48.61104" lon="7.2576">
        <ele>756.6</ele>
        <time>2024-03-05T16:17:05Z</time>
      </trkpt>
      <trkpt lat="48.61109" lon="7.25761">
        <ele>756.3</ele>
        <time>2024-03-05T16:17:06Z</time>
      </trkpt>
      <trkpt lat="48.61113" lon="7.25762">
        <ele>756</ele>
        <time>2024-03-05T16:17:07Z</time>
      </trkpt>
      <trkpt lat="48.61117" lon="7.25763">
        <ele>755.7</ele>
        <time>2024-03-05T16:17:08Z</time>
      </trkpt>
      <trkpt lat="48.61121" lon="7.25764">
        <ele>755.4</ele>
        <time>2024-03-05T16:17:10Z</time>
      </trkpt>
      <trkpt lat="48.61125" lon="7.25765">
        <ele>755.2</ele>
        <time>2024-03-05T16:17:11Z</time>
      </trkpt>
      <trkpt lat="48.61128" lon="7.25766">
        <ele>754.9</ele>
        <time>2024-03-05T16:17:12Z</time>
      </trkpt>
      <trkpt lat="48.61131" lon="7.25766">
        <ele>754.7</ele>
        <time>2024-03-05T16:17:13Z</time>
      </trkpt>
      <trkpt lat="48.61136" lon="7.25767">
        <ele>754.4</ele>
        <time>2024-03-05T16:17:14Z</time>
      </trkpt>
      <trkpt lat="48.61139" lon="7.25768">
        <ele>754.1</ele>
        <time>2024-03-05T16:17:15Z</time>
      </trkpt>
      <trkpt lat="48.61144" lon="7.25767">
        <ele>753.8</ele>
        <time>2024-03-05T16:17:16Z</time>
      </trkpt>
      <trkpt lat="48.61148" lon="7.25767">
        <ele>753.5</ele>
        <time>2024-03-05T16:17:17Z</time>
      </trkpt>
      <trkpt lat="48.61151" lon="7.25767">
        <ele>753.3</ele>
        <time>2024-03-05T16:17:18Z</time>
      </trkpt>
      <trkpt lat="48.61156" lon="7.25767">
        <ele>753</ele>
        <time>2024-03-05T16:17:19Z</time>
      </trkpt>
      <trkpt lat="48.61161" lon="7.25768">
        <ele>752.7</ele>
        <time>2024-03-05T16:17:20Z</time>
      </trkpt>
      <trkpt lat="48.61166" lon="7.25768">
        <ele>752.3</ele>
        <time>2024-03-05T16:17:22Z</time>
      </trkpt>
      <trkpt lat="48.6117" lon="7.25767">
        <ele>752</ele>
        <time>2024-03-05T16:17:23Z</time>
      </trkpt>
      <trkpt lat="48.61174" lon="7.25767">
        <ele>751.7</ele>
        <time>2024-03-05T16:17:24Z</time>
      </trkpt>
      <trkpt lat="48.61178" lon="7.25767">
        <ele>751.5</ele>
        <time>2024-03-05T16:17:25Z</time>
      </trkpt>
      <trkpt lat="48.61182" lon="7.25767">
        <ele>751.2</ele>
        <time>2024-03-05T16:17:26Z</time>
      </trkpt>
      <trkpt lat="48.61186" lon="7.25767">
        <ele>750.9</ele>
        <time>2024-03-05T16:17:27Z</time>
      </trkpt>
      <trkpt lat="48.61191" lon="7.25767">
        <ele>750.6</ele>
        <time>2024-03-05T16:17:28Z</time>
      </trkpt>
      <trkpt lat="48.61195" lon="7.25767">
        <ele>750.4</ele>
        <time>2024-03-05T16:17:29Z</time>
      </trkpt>
      <trkpt lat="48.61201" lon="7.25767">
        <ele>750</ele>
        <time>2024-03-05T16:17:30Z</time>
      </trkpt>
      <trkpt lat="48.61205" lon="7.25768">
        <ele>749.8</ele>
        <time>2024-03-05T16:17:31Z</time>
      </trkpt>
      <trkpt lat="48.6121" lon="7.25769">
        <ele>749.5</ele>
        <time>2024-03-05T16:17:32Z</time>
      </trkpt>
      <trkpt lat="48.61215" lon="7.2577">
        <ele>749.1</ele>
        <time>2024-03-05T16:17:34Z</time>
      </trkpt>
      <trkpt lat="48.6122" lon="7.25771">
        <ele>748.9</ele>
        <time>2024-03-05T16:17:35Z</time>
      </trkpt>
      <trkpt lat="48.61224" lon="7.25771">
        <ele>748.6</ele>
        <time>2024-03-05T16:17:36Z</time>
      </trkpt>
      <trkpt lat="48.61228" lon="7.25771">
        <ele>748.3</ele>
        <time>2024-03-05T16:17:37Z</time>
      </trkpt>
      <trkpt lat="48.61233" lon="7.25771">
        <ele>748</ele>
        <time>2024-03-05T16:17:38Z</time>
      </trkpt>
      <trkpt lat="48.61237" lon="7.25772">
        <ele>747.7</ele>
        <time>2024-03-05T16:17:39Z</time>
      </trkpt>
      <trkpt lat="48.61241" lon="7.25771">
        <ele>747.4</ele>
        <time>2024-03-05T16:17:40Z</time>
      </trkpt>
      <trkpt lat="48.61245" lon="7.2577">
        <ele>747.1</ele>
        <time>2024-03-05T16:17:41Z</time>
      </trkpt>
      <trkpt lat="48.6125" lon="7.2577">
        <ele>746.8</ele>
        <time>2024-03-05T16:17:42Z</time>
      </trkpt>
      <trkpt lat="48.61254" lon="7.2577">
        <ele>746.4</ele>
        <time>2024-03-05T16:17:43Z</time>
      </trkpt>
      <trkpt lat="48.61259" lon="7.25772">
        <ele>746.1</ele>
        <time>2024-03-05T16:17:44Z</time>
      </trkpt>
      <trkpt lat="48.61262" lon="7.25773">
        <ele>745.8</ele>
        <time>2024-03-05T16:17:45Z</time>
      </trkpt>
      <trkpt lat="48.61268" lon="7.25775">
        <ele>745.5</ele>
        <time>2024-03-05T16:17:46Z</time>
      </trkpt>
      <trkpt lat="48.61272" lon="7.25777">
        <ele>745.1</ele>
        <time>2024-03-05T16:17:47Z</time>
      </trkpt>
      <trkpt lat="48.61276" lon="7.25778">
        <ele>744.8</ele>
        <time>2024-03-05T16:17:48Z</time>
      </trkpt>
      <trkpt lat="48.61281" lon="7.25779">
        <ele>744.5</ele>
        <time>2024-03-05T16:17:49Z</time>
      </trkpt>
      <trkpt lat="48.61286" lon="7.2578">
        <ele>744.1</ele>
        <time>2024-03-05T16:17:50Z</time>
      </trkpt>
      <trkpt lat="48.6129" lon="7.2578">
        <ele>743.8</ele>
        <time>2024-03-05T16:17:51Z</time>
      </trkpt>
      <trkpt lat="48.61294" lon="7.25779">
        <ele>743.5</ele>
        <time>2024-03-05T16:17:52Z</time>
      </trkpt>
      <trkpt lat="48.61298" lon="7.25779">
        <ele>743.2</ele>
        <time>2024-03-05T16:17:53Z</time>
      </trkpt>
      <trkpt lat="48.61303" lon="7.2578">
        <ele>742.8</ele>
        <time>2024-03-05T16:17:54Z</time>
      </trkpt>
      <trkpt lat="48.61307" lon="7.25782">
        <ele>742.5</ele>
        <time>2024-03-05T16:17:55Z</time>
      </trkpt>
      <trkpt lat="48.61311" lon="7.25783">
        <ele>742.2</ele>
        <time>2024-03-05T16:17:56Z</time>
      </trkpt>
      <trkpt lat="48.61315" lon="7.25785">
        <ele>741.9</ele>
        <time>2024-03-05T16:17:57Z</time>
      </trkpt>
      <trkpt lat="48.6132" lon="7.25786">
        <ele>741.6</ele>
        <time>2024-03-05T16:17:58Z</time>
      </trkpt>
      <trkpt lat="48.61324" lon="7.25788">
        <ele>741.3</ele>
        <time>2024-03-05T16:17:59Z</time>
      </trkpt>
      <trkpt lat="48.61328" lon="7.25789">
        <ele>741</ele>
        <time>2024-03-05T16:18:00Z</time>
      </trkpt>
      <trkpt lat="48.61332" lon="7.2579">
        <ele>740.7</ele>
        <time>2024-03-05T16:18:01Z</time>
      </trkpt>
      <trkpt lat="48.61337" lon="7.25791">
        <ele>740.4</ele>
        <time>2024-03-05T16:18:02Z</time>
      </trkpt>
      <trkpt lat="48.61341" lon="7.25793">
        <ele>740.1</ele>
        <time>2024-03-05T16:18:03Z</time>
      </trkpt>
      <trkpt lat="48.61345" lon="7.25794">
        <ele>739.8</ele>
        <time>2024-03-05T16:18:04Z</time>
      </trkpt>
      <trkpt lat="48.61349" lon="7.25796">
        <ele>739.4</ele>
        <time>2024-03-05T16:18:05Z</time>
      </trkpt>
      <trkpt lat="48.61353" lon="7.25797">
        <ele>739.1</ele>
        <time>2024-03-05T16:18:06Z</time>
      </trkpt>
      <trkpt lat="48.61358" lon="7.25797">
        <ele>738.8</ele>
        <time>2024-03-05T16:18:07Z</time>
      </trkpt>
      <trkpt lat="48.61361" lon="7.25799">
        <ele>738.5</ele>
        <time>2024-03-05T16:18:08Z</time>
      </trkpt>
      <trkpt lat="48.61365" lon="7.25801">
        <ele>738.2</ele>
        <time>2024-03-05T16:18:09Z</time>
      </trkpt>
      <trkpt lat="48.61369" lon="7.25803">
        <ele>738</ele>
        <time>2024-03-05T16:18:10Z</time>
      </trkpt>
      <trkpt lat="48.61374" lon="7.25805">
        <ele>737.6</ele>
        <time>2024-03-05T16:18:11Z</time>
      </trkpt>
      <trkpt lat="48.61378" lon="7.25806">
        <ele>737.3</ele>
        <time>2024-03-05T16:18:12Z</time>
      </trkpt>
      <trkpt lat="48.61382" lon="7.25808">
        <ele>737.1</ele>
        <time>2024-03-05T16:18:13Z</time>
      </trkpt>
      <trkpt lat="48.61386" lon="7.25809">
        <ele>736.8</ele>
        <time>2024-03-05T16:18:14Z</time>
      </trkpt>
      <trkpt lat="48.6139" lon="7.2581">
        <ele>736.6</ele>
        <time>2024-03-05T16:18:15Z</time>
      </trkpt>
      <trkpt lat="48.61395" lon="7.25812">
        <ele>736.3</ele>
        <time>2024-03-05T16:18:16Z</time>
      </trkpt>
      <trkpt lat="48.61398" lon="7.25813">
        <ele>736.1</ele>
        <time>2024-03-05T16:18:17Z</time>
      </trkpt>
      <trkpt lat="48.61403" lon="7.25814">
        <ele>735.8</ele>
        <time>2024-03-05T16:18:18Z</time>
      </trkpt>
      <trkpt lat="48.61407" lon="7.25814">
        <ele>735.6</ele>
        <time>2024-03-05T16:18:19Z</time>
      </trkpt>
      <trkpt lat="48.61412" lon="7.25815">
        <ele>735.4</ele>
        <time>2024-03-05T16:18:20Z</time>
      </trkpt>
      <trkpt lat="48.61415" lon="7.25816">
        <ele>735.2</ele>
        <time>2024-03-05T16:18:21Z</time>
      </trkpt>
      <trkpt lat="48.61419" lon="7.25815">
        <ele>735</ele>
        <time>2024-03-05T16:18:22Z</time>
      </trkpt>
      <trkpt lat="48.61423" lon="7.25815">
        <ele>734.9</ele>
        <time>2024-03-05T16:18:23Z</time>
      </trkpt>
      <trkpt lat="48.61427" lon="7.25814">
        <ele>734.8</ele>
        <time>2024-03-05T16:18:24Z</time>
      </trkpt>
      <trkpt lat="48.61431" lon="7.25814">
        <ele>734.7</ele>
        <time>2024-03-05T16:18:25Z</time>
      </trkpt>
      <trkpt lat="48.61435" lon="7.25814">
        <ele>734.6</ele>
        <time>2024-03-05T16:18:26Z</time>
      </trkpt>
      <trkpt lat="48.61438" lon="7.25814">
        <ele>734.5</ele>
        <time>2024-03-05T16:18:27Z</time>
      </trkpt>
      <trkpt lat="48.61442" lon="7.25813">
        <ele>734.4</ele>
        <time>2024-03-05T16:18:28Z</time>
      </trkpt>
      <trkpt lat="48.61446" lon="7.25812">
        <ele>734.4</ele>
        <time>2024-03-05T16:18:29Z</time>
      </trkpt>
      <trkpt lat="48.61449" lon="7.25811">
        <ele>734.3</ele>
        <time>2024-03-05T16:18:30Z</time>
      </trkpt>
      <trkpt lat="48.61453" lon="7.25809">
        <ele>734.3</ele>
        <time>2024-03-05T16:18:31Z</time>
      </trkpt>
      <trkpt lat="48.61457" lon="7.25807">
        <ele>734.3</ele>
        <time>2024-03-05T16:18:32Z</time>
      </trkpt>
      <trkpt lat="48.61461" lon="7.25805">
        <ele>734.2</ele>
        <time>2024-03-05T16:18:33Z</time>
      </trkpt>
      <trkpt lat="48.61464" lon="7.25804">
        <ele>734.2</ele>
        <time>2024-03-05T16:18:34Z</time>
      </trkpt>
      <trkpt lat="48.61468" lon="7.25802">
        <ele>734.2</ele>
        <time>2024-03-05T16:18:35Z</time>
      </trkpt>
      <trkpt lat="48.61472" lon="7.25801">
        <ele>734.2</ele>
        <time>2024-03-05T16:18:36Z</time>
      </trkpt>
      <trkpt lat="48.61475" lon="7.258">
        <ele>734.2</ele>
        <time>2024-03-05T16:18:37Z</time>
      </trkpt>
      <trkpt lat="48.61478" lon="7.25798">
        <ele>734.2</ele>
        <time>2024-03-05T16:18:38Z</time>
      </trkpt>
      <trkpt lat="48.61482" lon="7.25796">
        <ele>734.3</ele>
        <time>2024-03-05T16:18:39Z</time>
      </trkpt>
      <trkpt lat="48.61485" lon="7.25795">
        <ele>734.3</ele>
        <time>2024-03-05T16:18:40Z</time>
      </trkpt>
      <trkpt lat="48.61489" lon="7.25793">
        <ele>734.3</ele>
        <time>2024-03-05T16:18:41Z</time>
      </trkpt>
      <trkpt lat="48.61492" lon="7.25791">
        <ele>734.3</ele>
        <time>2024-03-05T16:18:42Z</time>
      </trkpt>
      <trkpt lat="48.61496" lon="7.2579">
        <ele>734.3</ele>
        <time>2024-03-05T16:18:43Z</time>
      </trkpt>
      <trkpt lat="48.615" lon="7.25787">
        <ele>734.3</ele>
        <time>2024-03-05T16:18:44Z</time>
      </trkpt>
      <trkpt lat="48.61503" lon="7.25784">
        <ele>734.3</ele>
        <time>2024-03-05T16:18:45Z</time>
      </trkpt>
      <trkpt lat="48.61506" lon="7.25781">
        <ele>734.3</ele>
        <time>2024-03-05T16:18:46Z</time>
      </trkpt>
      <trkpt lat="48.61509" lon="7.25775">
        <ele>734.3</ele>
        <time>2024-03-05T16:18:47Z</time>
      </trkpt>
      <trkpt lat="48.61513" lon="7.25772">
        <ele>734.3</ele>
        <time>2024-03-05T16:18:48Z</time>
      </trkpt>
      <trkpt lat="48.61518" lon="7.25768">
        <ele>734.3</ele>
        <time>2024-03-05T16:18:50Z</time>
      </trkpt>
      <trkpt lat="48.61521" lon="7.25764">
        <ele>734.2</ele>
        <time>2024-03-05T16:18:51Z</time>
      </trkpt>
      <trkpt lat="48.61525" lon="7.25763">
        <ele>734.2</ele>
        <time>2024-03-05T16:18:52Z</time>
      </trkpt>
      <trkpt lat="48.61528" lon="7.2576">
        <ele>734.2</ele>
        <time>2024-03-05T16:18:53Z</time>
      </trkpt>
      <trkpt lat="48.61531" lon="7.25757">
        <ele>734.2</ele>
        <time>2024-03-05T16:18:54Z</time>
      </trkpt>
      <trkpt lat="48.61535" lon="7.25755">
        <ele>734.2</ele>
        <time>2024-03-05T16:18:55Z</time>
      </trkpt>
      <trkpt lat="48.61539" lon="7.25755">
        <ele>734.1</ele>
        <time>2024-03-05T16:18:56Z</time>
      </trkpt>
      <trkpt lat="48.61542" lon="7.25753">
        <ele>734.1</ele>
        <time>2024-03-05T16:18:57Z</time>
      </trkpt>
      <trkpt lat="48.61546" lon="7.25751">
        <ele>734.1</ele>
        <time>2024-03-05T16:18:58Z</time>
      </trkpt>
      <trkpt lat="48.61549" lon="7.2575">
        <ele>734.1</ele>
        <time>2024-03-05T16:18:59Z</time>
      </trkpt>
      <trkpt lat="48.61553" lon="7.25749">
        <ele>734.1</ele>
        <time>2024-03-05T16:19:00Z</time>
      </trkpt>
      <trkpt lat="48.61556" lon="7.25746">
        <ele>734</ele>
        <time>2024-03-05T16:19:01Z</time>
      </trkpt>
      <trkpt lat="48.6156" lon="7.25744">
        <ele>734</ele>
        <time>2024-03-05T16:19:03Z</time>
      </trkpt>
      <trkpt lat="48.61564" lon="7.25743">
        <ele>734</ele>
        <time>2024-03-05T16:19:04Z</time>
      </trkpt>
      <trkpt lat="48.61567" lon="7.2574">
        <ele>734</ele>
        <time>2024-03-05T16:19:05Z</time>
      </trkpt>
      <trkpt lat="48.6157" lon="7.25738">
        <ele>734</ele>
        <time>2024-03-05T16:19:06Z</time>
      </trkpt>
      <trkpt lat="48.61573" lon="7.25737">
        <ele>734</ele>
        <time>2024-03-05T16:19:07Z</time>
      </trkpt>
      <trkpt lat="48.61576" lon="7.25736">
        <ele>734</ele>
        <time>2024-03-05T16:19:08Z</time>
      </trkpt>
      <trkpt lat="48.6158" lon="7.25734">
        <ele>734</ele>
        <time>2024-03-05T16:19:09Z</time>
      </trkpt>
      <trkpt lat="48.61583" lon="7.25732">
        <ele>734</ele>
        <time>2024-03-05T16:19:10Z</time>
      </trkpt>
      <trkpt lat="48.61586" lon="7.25732">
        <ele>734</ele>
        <time>2024-03-05T16:19:11Z</time>
      </trkpt>
      <trkpt lat="48.61589" lon="7.25731">
        <ele>734</ele>
        <time>2024-03-05T16:19:12Z</time>
      </trkpt>
      <trkpt lat="48.61592" lon="7.25731">
        <ele>734.1</ele>
        <time>2024-03-05T16:19:13Z</time>
      </trkpt>
      <trkpt lat="48.61596" lon="7.25729">
        <ele>734.1</ele>
        <time>2024-03-05T16:19:14Z</time>
      </trkpt>
      <trkpt lat="48.61599" lon="7.25729">
        <ele>734.1</ele>
        <time>2024-03-05T16:19:15Z</time>
      </trkpt>
      <trkpt lat="48.61602" lon="7.25727">
        <ele>734.1</ele>
        <time>2024-03-05T16:19:16Z</time>
      </trkpt>
      <trkpt lat="48.61606" lon="7.25724">
        <ele>734.1</ele>
        <time>2024-03-05T16:19:17Z</time>
      </trkpt>
      <trkpt lat="48.61607" lon="7.25723">
        <ele>734.1</ele>
        <time>2024-03-05T16:19:18Z</time>
      </trkpt>
      <trkpt lat="48.61611" lon="7.25722">
        <ele>734.1</ele>
        <time>2024-03-05T16:19:19Z</time>
      </trkpt>
      <trkpt lat="48.61615" lon="7.25722">
        <ele>734.1</ele>
        <time>2024-03-05T16:19:20Z</time>
      </trkpt>
      <trkpt lat="48.61619" lon="7.25722">
        <ele>734.1</ele>
        <time>2024-03-05T16:19:21Z</time>
      </trkpt>
      <trkpt lat="48.61622" lon="7.25723">
        <ele>734.1</ele>
        <time>2024-03-05T16:19:22Z</time>
      </trkpt>
      <trkpt lat="48.61626" lon="7.25723">
        <ele>734.1</ele>
        <time>2024-03-05T16:19:23Z</time>
      </trkpt>
      <trkpt lat="48.6163" lon="7.25724">
        <ele>734.1</ele>
        <time>2024-03-05T16:19:24Z</time>
      </trkpt>
      <trkpt lat="48.61634" lon="7.25728">
        <ele>734.2</ele>
        <time>2024-03-05T16:19:25Z</time>
      </trkpt>
      <trkpt lat="48.61637" lon="7.2573">
        <ele>734.2</ele>
        <time>2024-03-05T16:19:26Z</time>
      </trkpt>
      <trkpt lat="48.61641" lon="7.25731">
        <ele>734.2</ele>
        <time>2024-03-05T16:19:27Z</time>
      </trkpt>
      <trkpt lat="48.61647" lon="7.25734">
        <ele>734.2</ele>
        <time>2024-03-05T16:19:29Z</time>
      </trkpt>
      <trkpt lat="48.6165" lon="7.25736">
        <ele>734.2</ele>
        <time>2024-03-05T16:19:30Z</time>
      </trkpt>
      <trkpt lat="48.61653" lon="7.2574">
        <ele>734.2</ele>
        <time>2024-03-05T16:19:31Z</time>
      </trkpt>
      <trkpt lat="48.61656" lon="7.25742">
        <ele>734.2</ele>
        <time>2024-03-05T16:19:32Z</time>
      </trkpt>
      <trkpt lat="48.61659" lon="7.25746">
        <ele>734.2</ele>
        <time>2024-03-05T16:19:33Z</time>
      </trkpt>
      <trkpt lat="48.61661" lon="7.2575">
        <ele>734.2</ele>
        <time>2024-03-05T16:19:34Z</time>
      </trkpt>
      <trkpt lat="48.61664" lon="7.25754">
        <ele>734.2</ele>
        <time>2024-03-05T16:19:35Z</time>
      </trkpt>
      <trkpt lat="48.61666" lon="7.25758">
        <ele>734.2</ele>
        <time>2024-03-05T16:19:36Z</time>
      </trkpt>
      <trkpt lat="48.61669" lon="7.25762">
        <ele>734.2</ele>
        <time>2024-03-05T16:19:37Z</time>
      </trkpt>
      <trkpt lat="48.61672" lon="7.25766">
        <ele>734.2</ele>
        <time>2024-03-05T16:19:38Z</time>
      </trkpt>
      <trkpt lat="48.61676" lon="7.25772">
        <ele>734.1</ele>
        <time>2024-03-05T16:19:40Z</time>
      </trkpt>
      <trkpt lat="48.61678" lon="7.25776">
        <ele>734.1</ele>
        <time>2024-03-05T16:19:41Z</time>
      </trkpt>
      <trkpt lat="48.61681" lon="7.2578">
        <ele>734.1</ele>
        <time>2024-03-05T16:19:42Z</time>
      </trkpt>
      <trkpt lat="48.61683" lon="7.25784">
        <ele>734.1</ele>
        <time>2024-03-05T16:19:43Z</time>
      </trkpt>
      <trkpt lat="48.61685" lon="7.25787">
        <ele>734</ele>
        <time>2024-03-05T16:19:44Z</time>
      </trkpt>
      <trkpt lat="48.61688" lon="7.2579">
        <ele>734</ele>
        <time>2024-03-05T16:19:45Z</time>
      </trkpt>
      <trkpt lat="48.6169" lon="7.25794">
        <ele>734</ele>
        <time>2024-03-05T16:19:46Z</time>
      </trkpt>
      <trkpt lat="48.61693" lon="7.25798">
        <ele>734</ele>
        <time>2024-03-05T16:19:47Z</time>
      </trkpt>
      <trkpt lat="48.61697" lon="7.25806">
        <ele>734</ele>
        <time>2024-03-05T16:19:49Z</time>
      </trkpt>
      <trkpt lat="48.61699" lon="7.25811">
        <ele>734</ele>
        <time>2024-03-05T16:19:50Z</time>
      </trkpt>
      <trkpt lat="48.617" lon="7.25813">
        <ele>734</ele>
        <time>2024-03-05T16:19:51Z</time>
      </trkpt>
      <trkpt lat="48.61701" lon="7.25817">
        <ele>734</ele>
        <time>2024-03-05T16:19:52Z</time>
      </trkpt>
      <trkpt lat="48.61703" lon="7.25822">
        <ele>734</ele>
        <time>2024-03-05T16:19:53Z</time>
      </trkpt>
      <trkpt lat="48.61705" lon="7.25826">
        <ele>734</ele>
        <time>2024-03-05T16:19:54Z</time>
      </trkpt>
      <trkpt lat="48.61707" lon="7.25831">
        <ele>734</ele>
        <time>2024-03-05T16:19:55Z</time>
      </trkpt>
      <trkpt lat="48.61709" lon="7.25834">
        <ele>734</ele>
        <time>2024-03-05T16:19:56Z</time>
      </trkpt>
      <trkpt lat="48.61711" lon="7.2584">
        <ele>734</ele>
        <time>2024-03-05T16:19:57Z</time>
      </trkpt>
      <trkpt lat="48.61714" lon="7.25845">
        <ele>734</ele>
        <time>2024-03-05T16:19:58Z</time>
      </trkpt>
      <trkpt lat="48.61715" lon="7.2585">
        <ele>734</ele>
        <time>2024-03-05T16:19:59Z</time>
      </trkpt>
      <trkpt lat="48.61718" lon="7.25854">
        <ele>733.9</ele>
        <time>2024-03-05T16:20:00Z</time>
      </trkpt>
      <trkpt lat="48.61721" lon="7.25858">
        <ele>733.9</ele>
        <time>2024-03-05T16:20:02Z</time>
      </trkpt>
      <trkpt lat="48.61723" lon="7.25863">
        <ele>733.9</ele>
        <time>2024-03-05T16:20:03Z</time>
      </trkpt>
      <trkpt lat="48.61725" lon="7.25868">
        <ele>733.9</ele>
        <time>2024-03-05T16:20:04Z</time>
      </trkpt>
      <trkpt lat="48.61726" lon="7.25872">
        <ele>733.9</ele>
        <time>2024-03-05T16:20:05Z</time>
      </trkpt>
      <trkpt lat="48.61729" lon="7.25876">
        <ele>733.9</ele>
        <time>2024-03-05T16:20:06Z</time>
      </trkpt>
      <trkpt lat="48.61731" lon="7.2588">
        <ele>733.9</ele>
        <time>2024-03-05T16:20:07Z</time>
      </trkpt>
      <trkpt lat="48.61734" lon="7.25884">
        <ele>733.9</ele>
        <time>2024-03-05T16:20:08Z</time>
      </trkpt>
      <trkpt lat="48.61739" lon="7.25891">
        <ele>733.9</ele>
        <time>2024-03-05T16:20:10Z</time>
      </trkpt>
      <trkpt lat="48.61741" lon="7.25895">
        <ele>733.9</ele>
        <time>2024-03-05T16:20:11Z</time>
      </trkpt>
      <trkpt lat="48.61743" lon="7.25899">
        <ele>733.9</ele>
        <time>2024-03-05T16:20:12Z</time>
      </trkpt>
      <trkpt lat="48.61746" lon="7.25902">
        <ele>733.9</ele>
        <time>2024-03-05T16:20:13Z</time>
      </trkpt>
      <trkpt lat="48.61748" lon="7.25906">
        <ele>733.9</ele>
        <time>2024-03-05T16:20:14Z</time>
      </trkpt>
      <trkpt lat="48.6175" lon="7.2591">
        <ele>733.9</ele>
        <time>2024-03-05T16:20:15Z</time>
      </trkpt>
      <trkpt lat="48.61752" lon="7.25914">
        <ele>733.9</ele>
        <time>2024-03-05T16:20:16Z</time>
      </trkpt>
      <trkpt lat="48.61755" lon="7.25918">
        <ele>733.9</ele>
        <time>2024-03-05T16:20:17Z</time>
      </trkpt>
      <trkpt lat="48.61758" lon="7.25921">
        <ele>733.9</ele>
        <time>2024-03-05T16:20:18Z</time>
      </trkpt>
      <trkpt lat="48.61761" lon="7.25924">
        <ele>733.9</ele>
        <time>2024-03-05T16:20:19Z</time>
      </trkpt>
      <trkpt lat="48.61764" lon="7.25927">
        <ele>733.9</ele>
        <time>2024-03-05T16:20:20Z</time>
      </trkpt>
      <trkpt lat="48.6177" lon="7.25933">
        <ele>734</ele>
        <time>2024-03-05T16:20:22Z</time>
      </trkpt>
      <trkpt lat="48.61773" lon="7.25936">
        <ele>734</ele>
        <time>2024-03-05T16:20:24Z</time>
      </trkpt>
      <trkpt lat="48.61776" lon="7.2594">
        <ele>734</ele>
        <time>2024-03-05T16:20:25Z</time>
      </trkpt>
      <trkpt lat="48.61778" lon="7.25943">
        <ele>734</ele>
        <time>2024-03-05T16:20:26Z</time>
      </trkpt>
      <trkpt lat="48.61781" lon="7.25945">
        <ele>734.1</ele>
        <time>2024-03-05T16:20:27Z</time>
      </trkpt>
      <trkpt lat="48.61784" lon="7.25948">
        <ele>734.1</ele>
        <time>2024-03-05T16:20:28Z</time>
      </trkpt>
      <trkpt lat="48.61787" lon="7.25952">
        <ele>734.1</ele>
        <time>2024-03-05T16:20:29Z</time>
      </trkpt>
      <trkpt lat="48.6179" lon="7.25954">
        <ele>734.1</ele>
        <time>2024-03-05T16:20:30Z</time>
      </trkpt>
      <trkpt lat="48.61793" lon="7.25957">
        <ele>734.1</ele>
        <time>2024-03-05T16:20:31Z</time>
      </trkpt>
      <trkpt lat="48.61796" lon="7.25959">
        <ele>734.1</ele>
        <time>2024-03-05T16:20:32Z</time>
      </trkpt>
      <trkpt lat="48.618" lon="7.25961">
        <ele>734.1</ele>
        <time>2024-03-05T16:20:33Z</time>
      </trkpt>
      <trkpt lat="48.61803" lon="7.25963">
        <ele>734.1</ele>
        <time>2024-03-05T16:20:34Z</time>
      </trkpt>
      <trkpt lat="48.61804" lon="7.25962">
        <ele>734.1</ele>
        <time>2024-03-05T16:20:35Z</time>
      </trkpt>
      <trkpt lat="48.61805" lon="7.25962">
        <ele>734.1</ele>
        <time>2024-03-05T16:20:36Z</time>
      </trkpt>
      <trkpt lat="48.61808" lon="7.25961">
        <ele>734.1</ele>
        <time>2024-03-05T16:20:37Z</time>
      </trkpt>
      <trkpt lat="48.61811" lon="7.25962">
        <ele>734.1</ele>
        <time>2024-03-05T16:20:39Z</time>
      </trkpt>
      <trkpt lat="48.61813" lon="7.25962">
        <ele>734.1</ele>
        <time>2024-03-05T16:20:40Z</time>
      </trkpt>
      <trkpt lat="48.61814" lon="7.25962">
        <ele>734.1</ele>
        <time>2024-03-05T16:20:41Z</time>
      </trkpt>
      <trkpt lat="48.61818" lon="7.25964">
        <ele>734</ele>
        <time>2024-03-05T16:20:42Z</time>
      </trkpt>
      <trkpt lat="48.6182" lon="7.25966">
        <ele>734</ele>
        <time>2024-03-05T16:20:43Z</time>
      </trkpt>
      <trkpt lat="48.61824" lon="7.25967">
        <ele>734</ele>
        <time>2024-03-05T16:20:44Z</time>
      </trkpt>
      <trkpt lat="48.61827" lon="7.25968">
        <ele>734</ele>
        <time>2024-03-05T16:20:45Z</time>
      </trkpt>
      <trkpt lat="48.61831" lon="7.25969">
        <ele>733.9</ele>
        <time>2024-03-05T16:20:46Z</time>
      </trkpt>
      <trkpt lat="48.61834" lon="7.25971">
        <ele>733.9</ele>
        <time>2024-03-05T16:20:47Z</time>
      </trkpt>
      <trkpt lat="48.61837" lon="7.25972">
        <ele>733.8</ele>
        <time>2024-03-05T16:20:48Z</time>
      </trkpt>
      <trkpt lat="48.61841" lon="7.25973">
        <ele>733.8</ele>
        <time>2024-03-05T16:20:49Z</time>
      </trkpt>
      <trkpt lat="48.61844" lon="7.25974">
        <ele>733.7</ele>
        <time>2024-03-05T16:20:50Z</time>
      </trkpt>
      <trkpt lat="48.61849" lon="7.25975">
        <ele>733.7</ele>
        <time>2024-03-05T16:20:51Z</time>
      </trkpt>
      <trkpt lat="48.61852" lon="7.25976">
        <ele>733.6</ele>
        <time>2024-03-05T16:20:52Z</time>
      </trkpt>
      <trkpt lat="48.61855" lon="7.25978">
        <ele>733.6</ele>
        <time>2024-03-05T16:20:53Z</time>
      </trkpt>
      <trkpt lat="48.61859" lon="7.25979">
        <ele>733.6</ele>
        <time>2024-03-05T16:20:54Z</time>
      </trkpt>
      <trkpt lat="48.61866" lon="7.25979">
        <ele>733.5</ele>
        <time>2024-03-05T16:20:56Z</time>
      </trkpt>
      <trkpt lat="48.61871" lon="7.25982">
        <ele>733.4</ele>
        <time>2024-03-05T16:20:57Z</time>
      </trkpt>
      <trkpt lat="48.61875" lon="7.25985">
        <ele>733.3</ele>
        <time>2024-03-05T16:20:58Z</time>
      </trkpt>
      <trkpt lat="48.61879" lon="7.25986">
        <ele>733.3</ele>
        <time>2024-03-05T16:20:59Z</time>
      </trkpt>
      <trkpt lat="48.61883" lon="7.25986">
        <ele>733.2</ele>
        <time>2024-03-05T16:21:01Z</time>
      </trkpt>
      <trkpt lat="48.61888" lon="7.25986">
        <ele>733.2</ele>
        <time>2024-03-05T16:21:02Z</time>
      </trkpt>
      <trkpt lat="48.61891" lon="7.25986">
        <ele>733.1</ele>
        <time>2024-03-05T16:21:03Z</time>
      </trkpt>
      <trkpt lat="48.61895" lon="7.25988">
        <ele>733.1</ele>
        <time>2024-03-05T16:21:04Z</time>
      </trkpt>
      <trkpt lat="48.61898" lon="7.25988">
        <ele>733</ele>
        <time>2024-03-05T16:21:05Z</time>
      </trkpt>
      <trkpt lat="48.61901" lon="7.25989">
        <ele>733</ele>
        <time>2024-03-05T16:21:06Z</time>
      </trkpt>
      <trkpt lat="48.61904" lon="7.25991">
        <ele>732.9</ele>
        <time>2024-03-05T16:21:07Z</time>
      </trkpt>
      <trkpt lat="48.61908" lon="7.25992">
        <ele>732.9</ele>
        <time>2024-03-05T16:21:08Z</time>
      </trkpt>
      <trkpt lat="48.61911" lon="7.25993">
        <ele>732.8</ele>
        <time>2024-03-05T16:21:09Z</time>
      </trkpt>
      <trkpt lat="48.61914" lon="7.25993">
        <ele>732.7</ele>
        <time>2024-03-05T16:21:10Z</time>
      </trkpt>
      <trkpt lat="48.61917" lon="7.25995">
        <ele>732.7</ele>
        <time>2024-03-05T16:21:11Z</time>
      </trkpt>
      <trkpt lat="48.6192" lon="7.25995">
        <ele>732.6</ele>
        <time>2024-03-05T16:21:12Z</time>
      </trkpt>
      <trkpt lat="48.61924" lon="7.25996">
        <ele>732.6</ele>
        <time>2024-03-05T16:21:13Z</time>
      </trkpt>
      <trkpt lat="48.61927" lon="7.25998">
        <ele>732.5</ele>
        <time>2024-03-05T16:21:14Z</time>
      </trkpt>
      <trkpt lat="48.61931" lon="7.25999">
        <ele>732.4</ele>
        <time>2024-03-05T16:21:15Z</time>
      </trkpt>
      <trkpt lat="48.61934" lon="7.25999">
        <ele>732.4</ele>
        <time>2024-03-05T16:21:16Z</time>
      </trkpt>
      <trkpt lat="48.61938" lon="7.26">
        <ele>732.3</ele>
        <time>2024-03-05T16:21:17Z</time>
      </trkpt>
      <trkpt lat="48.61942" lon="7.26001">
        <ele>732.3</ele>
        <time>2024-03-05T16:21:18Z</time>
      </trkpt>
      <trkpt lat="48.61947" lon="7.26001">
        <ele>732.2</ele>
        <time>2024-03-05T16:21:19Z</time>
      </trkpt>
      <trkpt lat="48.61952" lon="7.26002">
        <ele>732.1</ele>
        <time>2024-03-05T16:21:21Z</time>
      </trkpt>
      <trkpt lat="48.61956" lon="7.26003">
        <ele>732.1</ele>
        <time>2024-03-05T16:21:22Z</time>
      </trkpt>
      <trkpt lat="48.61959" lon="7.26004">
        <ele>732</ele>
        <time>2024-03-05T16:21:23Z</time>
      </trkpt>
      <trkpt lat="48.61963" lon="7.26004">
        <ele>732</ele>
        <time>2024-03-05T16:21:24Z</time>
      </trkpt>
      <trkpt lat="48.61966" lon="7.26004">
        <ele>731.9</ele>
        <time>2024-03-05T16:21:25Z</time>
      </trkpt>
      <trkpt lat="48.61969" lon="7.26004">
        <ele>731.9</ele>
        <time>2024-03-05T16:21:26Z</time>
      </trkpt>
      <trkpt lat="48.61973" lon="7.26005">
        <ele>731.8</ele>
        <time>2024-03-05T16:21:27Z</time>
      </trkpt>
      <trkpt lat="48.6198" lon="7.26005">
        <ele>731.7</ele>
        <time>2024-03-05T16:21:29Z</time>
      </trkpt>
      <trkpt lat="48.61983" lon="7.26005">
        <ele>731.7</ele>
        <time>2024-03-05T16:21:30Z</time>
      </trkpt>
      <trkpt lat="48.61986" lon="7.26006">
        <ele>731.6</ele>
        <time>2024-03-05T16:21:31Z</time>
      </trkpt>
      <trkpt lat="48.6199" lon="7.26006">
        <ele>731.6</ele>
        <time>2024-03-05T16:21:32Z</time>
      </trkpt>
      <trkpt lat="48.61993" lon="7.26005">
        <ele>731.5</ele>
        <time>2024-03-05T16:21:33Z</time>
      </trkpt>
      <trkpt lat="48.61997" lon="7.26006">
        <ele>731.5</ele>
        <time>2024-03-05T16:21:34Z</time>
      </trkpt>
      <trkpt lat="48.62" lon="7.26006">
        <ele>731.4</ele>
        <time>2024-03-05T16:21:35Z</time>
      </trkpt>
      <trkpt lat="48.62004" lon="7.26005">
        <ele>731.4</ele>
        <time>2024-03-05T16:21:36Z</time>
      </trkpt>
      <trkpt lat="48.62008" lon="7.26004">
        <ele>731.3</ele>
        <time>2024-03-05T16:21:37Z</time>
      </trkpt>
      <trkpt lat="48.62012" lon="7.26003">
        <ele>731.2</ele>
        <time>2024-03-05T16:21:38Z</time>
      </trkpt>
      <trkpt lat="48.62017" lon="7.26003">
        <ele>731.2</ele>
        <time>2024-03-05T16:21:40Z</time>
      </trkpt>
      <trkpt lat="48.6202" lon="7.26002">
        <ele>731.1</ele>
        <time>2024-03-05T16:21:41Z</time>
      </trkpt>
      <trkpt lat="48.62024" lon="7.26002">
        <ele>731.1</ele>
        <time>2024-03-05T16:21:42Z</time>
      </trkpt>
      <trkpt lat="48.62027" lon="7.26002">
        <ele>731</ele>
        <time>2024-03-05T16:21:43Z</time>
      </trkpt>
      <trkpt lat="48.6203" lon="7.26001">
        <ele>731</ele>
        <time>2024-03-05T16:21:44Z</time>
      </trkpt>
      <trkpt lat="48.62034" lon="7.26001">
        <ele>730.9</ele>
        <time>2024-03-05T16:21:45Z</time>
      </trkpt>
      <trkpt lat="48.62037" lon="7.26001">
        <ele>730.9</ele>
        <time>2024-03-05T16:21:46Z</time>
      </trkpt>
      <trkpt lat="48.62041" lon="7.26">
        <ele>730.8</ele>
        <time>2024-03-05T16:21:47Z</time>
      </trkpt>
      <trkpt lat="48.62044" lon="7.25999">
        <ele>730.7</ele>
        <time>2024-03-05T16:21:48Z</time>
      </trkpt>
      <trkpt lat="48.62048" lon="7.25999">
        <ele>730.7</ele>
        <time>2024-03-05T16:21:49Z</time>
      </trkpt>
      <trkpt lat="48.62052" lon="7.25998">
        <ele>730.6</ele>
        <time>2024-03-05T16:21:51Z</time>
      </trkpt>
      <trkpt lat="48.62055" lon="7.25996">
        <ele>730.5</ele>
        <time>2024-03-05T16:21:52Z</time>
      </trkpt>
      <trkpt lat="48.62059" lon="7.25994">
        <ele>730.4</ele>
        <time>2024-03-05T16:21:53Z</time>
      </trkpt>
      <trkpt lat="48.62062" lon="7.25993">
        <ele>730.3</ele>
        <time>2024-03-05T16:21:54Z</time>
      </trkpt>
      <trkpt lat="48.62066" lon="7.2599">
        <ele>730.2</ele>
        <time>2024-03-05T16:21:55Z</time>
      </trkpt>
      <trkpt lat="48.6207" lon="7.25988">
        <ele>730.2</ele>
        <time>2024-03-05T16:21:56Z</time>
      </trkpt>
      <trkpt lat="48.62074" lon="7.25986">
        <ele>730.1</ele>
        <time>2024-03-05T16:21:57Z</time>
      </trkpt>
      <trkpt lat="48.62078" lon="7.25983">
        <ele>729.9</ele>
        <time>2024-03-05T16:21:58Z</time>
      </trkpt>
      <trkpt lat="48.62082" lon="7.25981">
        <ele>729.9</ele>
        <time>2024-03-05T16:22:00Z</time>
      </trkpt>
      <trkpt lat="48.62086" lon="7.25979">
        <ele>729.8</ele>
        <time>2024-03-05T16:22:01Z</time>
      </trkpt>
      <trkpt lat="48.62089" lon="7.25977">
        <ele>729.7</ele>
        <time>2024-03-05T16:22:02Z</time>
      </trkpt>
      <trkpt lat="48.62092" lon="7.25976">
        <ele>729.7</ele>
        <time>2024-03-05T16:22:03Z</time>
      </trkpt>
      <trkpt lat="48.62095" lon="7.25975">
        <ele>729.6</ele>
        <time>2024-03-05T16:22:04Z</time>
      </trkpt>
      <trkpt lat="48.62098" lon="7.25973">
        <ele>729.6</ele>
        <time>2024-03-05T16:22:05Z</time>
      </trkpt>
      <trkpt lat="48.62102" lon="7.25971">
        <ele>729.5</ele>
        <time>2024-03-05T16:22:06Z</time>
      </trkpt>
      <trkpt lat="48.62106" lon="7.25966">
        <ele>729.4</ele>
        <time>2024-03-05T16:22:07Z</time>
      </trkpt>
      <trkpt lat="48.62109" lon="7.25964">
        <ele>729.4</ele>
        <time>2024-03-05T16:22:08Z</time>
      </trkpt>
      <trkpt lat="48.62114" lon="7.2596">
        <ele>729.3</ele>
        <time>2024-03-05T16:22:10Z</time>
      </trkpt>
      <trkpt lat="48.62117" lon="7.25957">
        <ele>729.2</ele>
        <time>2024-03-05T16:22:11Z</time>
      </trkpt>
      <trkpt lat="48.6212" lon="7.25955">
        <ele>729.1</ele>
        <time>2024-03-05T16:22:12Z</time>
      </trkpt>
      <trkpt lat="48.62123" lon="7.25951">
        <ele>729.1</ele>
        <time>2024-03-05T16:22:13Z</time>
      </trkpt>
      <trkpt lat="48.62126" lon="7.25948">
        <ele>729</ele>
        <time>2024-03-05T16:22:14Z</time>
      </trkpt>
      <trkpt lat="48.62129" lon="7.25945">
        <ele>728.9</ele>
        <time>2024-03-05T16:22:15Z</time>
      </trkpt>
      <trkpt lat="48.62132" lon="7.25942">
        <ele>728.9</ele>
        <time>2024-03-05T16:22:16Z</time>
      </trkpt>
      <trkpt lat="48.62135" lon="7.25937">
        <ele>728.8</ele>
        <time>2024-03-05T16:22:17Z</time>
      </trkpt>
      <trkpt lat="48.62138" lon="7.25934">
        <ele>728.7</ele>
        <time>2024-03-05T16:22:18Z</time>
      </trkpt>
      <trkpt lat="48.62141" lon="7.25929">
        <ele>728.6</ele>
        <time>2024-03-05T16:22:19Z</time>
      </trkpt>
      <trkpt lat="48.62143" lon="7.25928">
        <ele>728.6</ele>
        <time>2024-03-05T16:22:20Z</time>
      </trkpt>
      <trkpt lat="48.62145" lon="7.25924">
        <ele>728.5</ele>
        <time>2024-03-05T16:22:21Z</time>
      </trkpt>
      <trkpt lat="48.62148" lon="7.2592">
        <ele>728.4</ele>
        <time>2024-03-05T16:22:22Z</time>
      </trkpt>
      <trkpt lat="48.6215" lon="7.25916">
        <ele>728.3</ele>
        <time>2024-03-05T16:22:23Z</time>
      </trkpt>
      <trkpt lat="48.62152" lon="7.25912">
        <ele>728.2</ele>
        <time>2024-03-05T16:22:24Z</time>
      </trkpt>
      <trkpt lat="48.62155" lon="7.25909">
        <ele>728.2</ele>
        <time>2024-03-05T16:22:25Z</time>
      </trkpt>
      <trkpt lat="48.62157" lon="7.25905">
        <ele>728.1</ele>
        <time>2024-03-05T16:22:26Z</time>
      </trkpt>
      <trkpt lat="48.6216" lon="7.259">
        <ele>728</ele>
        <time>2024-03-05T16:22:27Z</time>
      </trkpt>
      <trkpt lat="48.62163" lon="7.25897">
        <ele>727.9</ele>
        <time>2024-03-05T16:22:28Z</time>
      </trkpt>
      <trkpt lat="48.62165" lon="7.25892">
        <ele>727.8</ele>
        <time>2024-03-05T16:22:29Z</time>
      </trkpt>
      <trkpt lat="48.62167" lon="7.25888">
        <ele>727.7</ele>
        <time>2024-03-05T16:22:30Z</time>
      </trkpt>
      <trkpt lat="48.62169" lon="7.25885">
        <ele>727.7</ele>
        <time>2024-03-05T16:22:31Z</time>
      </trkpt>
      <trkpt lat="48.62171" lon="7.25882">
        <ele>727.6</ele>
        <time>2024-03-05T16:22:32Z</time>
      </trkpt>
      <trkpt lat="48.62173" lon="7.2588">
        <ele>727.5</ele>
        <time>2024-03-05T16:22:33Z</time>
      </trkpt>
      <trkpt lat="48.62176" lon="7.25875">
        <ele>727.4</ele>
        <time>2024-03-05T16:22:34Z</time>
      </trkpt>
      <trkpt lat="48.62179" lon="7.25871">
        <ele>727.4</ele>
        <time>2024-03-05T16:22:35Z</time>
      </trkpt>
      <trkpt lat="48.62181" lon="7.25866">
        <ele>727.3</ele>
        <time>2024-03-05T16:22:36Z</time>
      </trkpt>
      <trkpt lat="48.62184" lon="7.25862">
        <ele>727.2</ele>
        <time>2024-03-05T16:22:37Z</time>
      </trkpt>
      <trkpt lat="48.62189" lon="7.25856">
        <ele>727.1</ele>
        <time>2024-03-05T16:22:39Z</time>
      </trkpt>
      <trkpt lat="48.62191" lon="7.25853">
        <ele>727</ele>
        <time>2024-03-05T16:22:40Z</time>
      </trkpt>
      <trkpt lat="48.62194" lon="7.2585">
        <ele>727</ele>
        <time>2024-03-05T16:22:41Z</time>
      </trkpt>
      <trkpt lat="48.62197" lon="7.25847">
        <ele>726.9</ele>
        <time>2024-03-05T16:22:42Z</time>
      </trkpt>
      <trkpt lat="48.622" lon="7.25844">
        <ele>726.8</ele>
        <time>2024-03-05T16:22:43Z</time>
      </trkpt>
      <trkpt lat="48.62204" lon="7.25841">
        <ele>726.8</ele>
        <time>2024-03-05T16:22:44Z</time>
      </trkpt>
      <trkpt lat="48.62207" lon="7.25839">
        <ele>726.7</ele>
        <time>2024-03-05T16:22:45Z</time>
      </trkpt>
      <trkpt lat="48.6221" lon="7.25837">
        <ele>726.7</ele>
        <time>2024-03-05T16:22:46Z</time>
      </trkpt>
      <trkpt lat="48.62216" lon="7.25834">
        <ele>726.6</ele>
        <time>2024-03-05T16:22:47Z</time>
      </trkpt>
      <trkpt lat="48.6222" lon="7.25833">
        <ele>726.5</ele>
        <time>2024-03-05T16:22:48Z</time>
      </trkpt>
      <trkpt lat="48.62224" lon="7.25831">
        <ele>726.4</ele>
        <time>2024-03-05T16:22:49Z</time>
      </trkpt>
      <trkpt lat="48.6223" lon="7.2583">
        <ele>726.3</ele>
        <time>2024-03-05T16:22:51Z</time>
      </trkpt>
      <trkpt lat="48.62233" lon="7.25829">
        <ele>726.2</ele>
        <time>2024-03-05T16:22:52Z</time>
      </trkpt>
      <trkpt lat="48.62237" lon="7.25829">
        <ele>726.2</ele>
        <time>2024-03-05T16:22:53Z</time>
      </trkpt>
      <trkpt lat="48.6224" lon="7.25827">
        <ele>726.1</ele>
        <time>2024-03-05T16:22:54Z</time>
      </trkpt>
      <trkpt lat="48.62244" lon="7.25827">
        <ele>726.1</ele>
        <time>2024-03-05T16:22:55Z</time>
      </trkpt>
      <trkpt lat="48.62247" lon="7.25826">
        <ele>726</ele>
        <time>2024-03-05T16:22:56Z</time>
      </trkpt>
      <trkpt lat="48.62253" lon="7.25825">
        <ele>725.8</ele>
        <time>2024-03-05T16:22:57Z</time>
      </trkpt>
      <trkpt lat="48.62258" lon="7.25824">
        <ele>725.7</ele>
        <time>2024-03-05T16:22:58Z</time>
      </trkpt>
      <trkpt lat="48.62262" lon="7.25826">
        <ele>725.6</ele>
        <time>2024-03-05T16:22:59Z</time>
      </trkpt>
      <trkpt lat="48.62266" lon="7.25826">
        <ele>725.5</ele>
        <time>2024-03-05T16:23:00Z</time>
      </trkpt>
      <trkpt lat="48.6227" lon="7.25827">
        <ele>725.4</ele>
        <time>2024-03-05T16:23:01Z</time>
      </trkpt>
      <trkpt lat="48.62274" lon="7.25827">
        <ele>725.3</ele>
        <time>2024-03-05T16:23:03Z</time>
      </trkpt>
      <trkpt lat="48.62278" lon="7.25827">
        <ele>725.3</ele>
        <time>2024-03-05T16:23:04Z</time>
      </trkpt>
      <trkpt lat="48.62281" lon="7.25827">
        <ele>725.2</ele>
        <time>2024-03-05T16:23:05Z</time>
      </trkpt>
      <trkpt lat="48.62285" lon="7.25828">
        <ele>725.1</ele>
        <time>2024-03-05T16:23:06Z</time>
      </trkpt>
      <trkpt lat="48.62289" lon="7.25829">
        <ele>725.1</ele>
        <time>2024-03-05T16:23:07Z</time>
      </trkpt>
      <trkpt lat="48.62293" lon="7.2583">
        <ele>725</ele>
        <time>2024-03-05T16:23:08Z</time>
      </trkpt>
      <trkpt lat="48.62299" lon="7.25831">
        <ele>724.9</ele>
        <time>2024-03-05T16:23:10Z</time>
      </trkpt>
      <trkpt lat="48.62303" lon="7.25831">
        <ele>724.8</ele>
        <time>2024-03-05T16:23:11Z</time>
      </trkpt>
      <trkpt lat="48.62306" lon="7.25832">
        <ele>724.7</ele>
        <time>2024-03-05T16:23:12Z</time>
      </trkpt>
      <trkpt lat="48.6231" lon="7.25833">
        <ele>724.7</ele>
        <time>2024-03-05T16:23:13Z</time>
      </trkpt>
      <trkpt lat="48.62314" lon="7.25834">
        <ele>724.6</ele>
        <time>2024-03-05T16:23:14Z</time>
      </trkpt>
      <trkpt lat="48.62318" lon="7.25834">
        <ele>724.5</ele>
        <time>2024-03-05T16:23:15Z</time>
      </trkpt>
      <trkpt lat="48.62321" lon="7.25833">
        <ele>724.4</ele>
        <time>2024-03-05T16:23:16Z</time>
      </trkpt>
      <trkpt lat="48.62327" lon="7.25831">
        <ele>724.3</ele>
        <time>2024-03-05T16:23:17Z</time>
      </trkpt>
      <trkpt lat="48.62334" lon="7.25831">
        <ele>724.2</ele>
        <time>2024-03-05T16:23:19Z</time>
      </trkpt>
      <trkpt lat="48.62337" lon="7.2583">
        <ele>724.2</ele>
        <time>2024-03-05T16:23:20Z</time>
      </trkpt>
      <trkpt lat="48.62341" lon="7.2583">
        <ele>724.1</ele>
        <time>2024-03-05T16:23:21Z</time>
      </trkpt>
      <trkpt lat="48.62345" lon="7.25829">
        <ele>724</ele>
        <time>2024-03-05T16:23:22Z</time>
      </trkpt>
      <trkpt lat="48.62351" lon="7.25828">
        <ele>723.9</ele>
        <time>2024-03-05T16:23:24Z</time>
      </trkpt>
      <trkpt lat="48.62355" lon="7.25827">
        <ele>723.8</ele>
        <time>2024-03-05T16:23:25Z</time>
      </trkpt>
      <trkpt lat="48.62358" lon="7.25826">
        <ele>723.8</ele>
        <time>2024-03-05T16:23:26Z</time>
      </trkpt>
      <trkpt lat="48.62361" lon="7.25824">
        <ele>723.7</ele>
        <time>2024-03-05T16:23:27Z</time>
      </trkpt>
      <trkpt lat="48.62364" lon="7.25823">
        <ele>723.7</ele>
        <time>2024-03-05T16:23:28Z</time>
      </trkpt>
      <trkpt lat="48.62368" lon="7.25823">
        <ele>723.6</ele>
        <time>2024-03-05T16:23:29Z</time>
      </trkpt>
      <trkpt lat="48.62372" lon="7.25822">
        <ele>723.6</ele>
        <time>2024-03-05T16:23:30Z</time>
      </trkpt>
      <trkpt lat="48.62375" lon="7.25821">
        <ele>723.6</ele>
        <time>2024-03-05T16:23:31Z</time>
      </trkpt>
      <trkpt lat="48.62378" lon="7.2582">
        <ele>723.6</ele>
        <time>2024-03-05T16:23:32Z</time>
      </trkpt>
      <trkpt lat="48.62381" lon="7.2582">
        <ele>723.5</ele>
        <time>2024-03-05T16:23:33Z</time>
      </trkpt>
      <trkpt lat="48.62385" lon="7.25818">
        <ele>723.5</ele>
        <time>2024-03-05T16:23:34Z</time>
      </trkpt>
      <trkpt lat="48.62388" lon="7.25817">
        <ele>723.5</ele>
        <time>2024-03-05T16:23:35Z</time>
      </trkpt>
      <trkpt lat="48.62391" lon="7.25816">
        <ele>723.5</ele>
        <time>2024-03-05T16:23:36Z</time>
      </trkpt>
      <trkpt lat="48.62395" lon="7.25816">
        <ele>723.5</ele>
        <time>2024-03-05T16:23:37Z</time>
      </trkpt>
      <trkpt lat="48.62399" lon="7.25815">
        <ele>723.5</ele>
        <time>2024-03-05T16:23:38Z</time>
      </trkpt>
      <trkpt lat="48.62405" lon="7.25811">
        <ele>723.4</ele>
        <time>2024-03-05T16:23:40Z</time>
      </trkpt>
      <trkpt lat="48.62409" lon="7.25809">
        <ele>723.4</ele>
        <time>2024-03-05T16:23:41Z</time>
      </trkpt>
      <trkpt lat="48.62412" lon="7.25808">
        <ele>723.4</ele>
        <time>2024-03-05T16:23:42Z</time>
      </trkpt>
      <trkpt lat="48.62415" lon="7.25806">
        <ele>723.3</ele>
        <time>2024-03-05T16:23:43Z</time>
      </trkpt>
      <trkpt lat="48.62419" lon="7.25805">
        <ele>723.3</ele>
        <time>2024-03-05T16:23:44Z</time>
      </trkpt>
      <trkpt lat="48.6242" lon="7.25803">
        <ele>723.3</ele>
        <time>2024-03-05T16:23:45Z</time>
      </trkpt>
      <trkpt lat="48.62422" lon="7.25802">
        <ele>723.2</ele>
        <time>2024-03-05T16:23:46Z</time>
      </trkpt>
      <trkpt lat="48.62425" lon="7.25799">
        <ele>723.2</ele>
        <time>2024-03-05T16:23:47Z</time>
      </trkpt>
      <trkpt lat="48.62428" lon="7.25796">
        <ele>723.1</ele>
        <time>2024-03-05T16:23:48Z</time>
      </trkpt>
      <trkpt lat="48.62431" lon="7.25793">
        <ele>723.1</ele>
        <time>2024-03-05T16:23:49Z</time>
      </trkpt>
      <trkpt lat="48.62434" lon="7.25791">
        <ele>723</ele>
        <time>2024-03-05T16:23:50Z</time>
      </trkpt>
      <trkpt lat="48.62438" lon="7.25791">
        <ele>723</ele>
        <time>2024-03-05T16:23:51Z</time>
      </trkpt>
      <trkpt lat="48.62439" lon="7.2579">
        <ele>723</ele>
        <time>2024-03-05T16:23:52Z</time>
      </trkpt>
      <trkpt lat="48.62443" lon="7.25785">
        <ele>722.9</ele>
        <time>2024-03-05T16:23:54Z</time>
      </trkpt>
      <trkpt lat="48.62446" lon="7.25782">
        <ele>722.8</ele>
        <time>2024-03-05T16:23:55Z</time>
      </trkpt>
      <trkpt lat="48.62448" lon="7.25779">
        <ele>722.8</ele>
        <time>2024-03-05T16:23:56Z</time>
      </trkpt>
      <trkpt lat="48.62452" lon="7.25774">
        <ele>722.7</ele>
        <time>2024-03-05T16:23:57Z</time>
      </trkpt>
      <trkpt lat="48.62455" lon="7.25769">
        <ele>722.6</ele>
        <time>2024-03-05T16:23:58Z</time>
      </trkpt>
      <trkpt lat="48.62457" lon="7.25763">
        <ele>722.5</ele>
        <time>2024-03-05T16:24:00Z</time>
      </trkpt>
      <trkpt lat="48.6246" lon="7.25761">
        <ele>722.4</ele>
        <time>2024-03-05T16:24:01Z</time>
      </trkpt>
      <trkpt lat="48.62461" lon="7.2576">
        <ele>722.4</ele>
        <time>2024-03-05T16:24:02Z</time>
      </trkpt>
      <trkpt lat="48.62463" lon="7.25757">
        <ele>722.4</ele>
        <time>2024-03-05T16:24:03Z</time>
      </trkpt>
      <trkpt lat="48.62466" lon="7.25753">
        <ele>722.3</ele>
        <time>2024-03-05T16:24:04Z</time>
      </trkpt>
      <trkpt lat="48.62467" lon="7.25752">
        <ele>722.3</ele>
        <time>2024-03-05T16:24:05Z</time>
      </trkpt>
      <trkpt lat="48.6247" lon="7.25747">
        <ele>722.2</ele>
        <time>2024-03-05T16:24:06Z</time>
      </trkpt>
      <trkpt lat="48.62471" lon="7.25745">
        <ele>722.2</ele>
        <time>2024-03-05T16:24:07Z</time>
      </trkpt>
      <trkpt lat="48.62475" lon="7.2574">
        <ele>722.2</ele>
        <time>2024-03-05T16:24:09Z</time>
      </trkpt>
      <trkpt lat="48.6248" lon="7.25736">
        <ele>722.1</ele>
        <time>2024-03-05T16:24:10Z</time>
      </trkpt>
      <trkpt lat="48.62483" lon="7.25734">
        <ele>722</ele>
        <time>2024-03-05T16:24:11Z</time>
      </trkpt>
      <trkpt lat="48.62486" lon="7.25733">
        <ele>722</ele>
        <time>2024-03-05T16:24:12Z</time>
      </trkpt>
      <trkpt lat="48.6249" lon="7.25732">
        <ele>721.9</ele>
        <time>2024-03-05T16:24:13Z</time>
      </trkpt>
      <trkpt lat="48.62492" lon="7.2573">
        <ele>721.8</ele>
        <time>2024-03-05T16:24:14Z</time>
      </trkpt>
      <trkpt lat="48.62494" lon="7.25728">
        <ele>721.8</ele>
        <time>2024-03-05T16:24:15Z</time>
      </trkpt>
      <trkpt lat="48.62495" lon="7.25728">
        <ele>721.8</ele>
        <time>2024-03-05T16:24:16Z</time>
      </trkpt>
      <trkpt lat="48.62497" lon="7.25725">
        <ele>721.7</ele>
        <time>2024-03-05T16:24:17Z</time>
      </trkpt>
      <trkpt lat="48.62499" lon="7.25721">
        <ele>721.6</ele>
        <time>2024-03-05T16:24:19Z</time>
      </trkpt>
      <trkpt lat="48.62501" lon="7.25718">
        <ele>721.5</ele>
        <time>2024-03-05T16:24:20Z</time>
      </trkpt>
      <trkpt lat="48.62503" lon="7.25717">
        <ele>721.4</ele>
        <time>2024-03-05T16:24:21Z</time>
      </trkpt>
      <trkpt lat="48.62506" lon="7.25715">
        <ele>721.3</ele>
        <time>2024-03-05T16:24:22Z</time>
      </trkpt>
      <trkpt lat="48.62508" lon="7.25713">
        <ele>721.2</ele>
        <time>2024-03-05T16:24:23Z</time>
      </trkpt>
      <trkpt lat="48.62511" lon="7.2571">
        <ele>721.1</ele>
        <time>2024-03-05T16:24:24Z</time>
      </trkpt>
      <trkpt lat="48.62512" lon="7.2571">
        <ele>721</ele>
        <time>2024-03-05T16:24:25Z</time>
      </trkpt>
      <trkpt lat="48.62516" lon="7.25704">
        <ele>720.8</ele>
        <time>2024-03-05T16:24:26Z</time>
      </trkpt>
      <trkpt lat="48.62518" lon="7.25701">
        <ele>720.7</ele>
        <time>2024-03-05T16:24:27Z</time>
      </trkpt>
      <trkpt lat="48.62523" lon="7.25694">
        <ele>720.4</ele>
        <time>2024-03-05T16:24:29Z</time>
      </trkpt>
      <trkpt lat="48.62525" lon="7.2569">
        <ele>720.3</ele>
        <time>2024-03-05T16:24:30Z</time>
      </trkpt>
      <trkpt lat="48.62528" lon="7.25687">
        <ele>720.1</ele>
        <time>2024-03-05T16:24:31Z</time>
      </trkpt>
      <trkpt lat="48.62528" lon="7.25686">
        <ele>720.1</ele>
        <time>2024-03-05T16:24:32Z</time>
      </trkpt>
      <trkpt lat="48.6253" lon="7.25682">
        <ele>719.9</ele>
        <time>2024-03-05T16:24:33Z</time>
      </trkpt>
      <trkpt lat="48.62531" lon="7.25681">
        <ele>719.9</ele>
        <time>2024-03-05T16:24:34Z</time>
      </trkpt>
      <trkpt lat="48.62533" lon="7.25674">
        <ele>719.7</ele>
        <time>2024-03-05T16:24:35Z</time>
      </trkpt>
      <trkpt lat="48.62535" lon="7.25672">
        <ele>719.6</ele>
        <time>2024-03-05T16:24:36Z</time>
      </trkpt>
      <trkpt lat="48.62538" lon="7.25667">
        <ele>719.4</ele>
        <time>2024-03-05T16:24:37Z</time>
      </trkpt>
      <trkpt lat="48.62541" lon="7.25664">
        <ele>719.2</ele>
        <time>2024-03-05T16:24:38Z</time>
      </trkpt>
      <trkpt lat="48.62544" lon="7.25658">
        <ele>719</ele>
        <time>2024-03-05T16:24:39Z</time>
      </trkpt>
      <trkpt lat="48.62548" lon="7.25651">
        <ele>718.7</ele>
        <time>2024-03-05T16:24:41Z</time>
      </trkpt>
      <trkpt lat="48.6255" lon="7.25647">
        <ele>718.6</ele>
        <time>2024-03-05T16:24:42Z</time>
      </trkpt>
      <trkpt lat="48.6255" lon="7.25647">
        <ele>718.6</ele>
        <time>2024-03-05T16:24:43Z</time>
      </trkpt>
      <trkpt lat="48.62552" lon="7.25643">
        <ele>718.5</ele>
        <time>2024-03-05T16:24:44Z</time>
      </trkpt>
      <trkpt lat="48.62552" lon="7.25642">
        <ele>718.4</ele>
        <time>2024-03-05T16:24:45Z</time>
      </trkpt>
      <trkpt lat="48.62554" lon="7.25638">
        <ele>718.7</ele>
        <time>2024-03-05T16:24:46Z</time>
      </trkpt>
      <trkpt lat="48.62558" lon="7.25633">
        <ele>719.1</ele>
        <time>2024-03-05T16:24:47Z</time>
      </trkpt>
      <trkpt lat="48.62562" lon="7.25626">
        <ele>719.6</ele>
        <time>2024-03-05T16:24:49Z</time>
      </trkpt>
      <trkpt lat="48.62564" lon="7.25623">
        <ele>719.8</ele>
        <time>2024-03-05T16:24:50Z</time>
      </trkpt>
      <trkpt lat="48.62565" lon="7.25619">
        <ele>720.1</ele>
        <time>2024-03-05T16:24:51Z</time>
      </trkpt>
      <trkpt lat="48.62568" lon="7.25614">
        <ele>720.4</ele>
        <time>2024-03-05T16:24:52Z</time>
      </trkpt>
      <trkpt lat="48.62571" lon="7.25612">
        <ele>720.8</ele>
        <time>2024-03-05T16:24:54Z</time>
      </trkpt>
      <trkpt lat="48.62573" lon="7.25611">
        <ele>721</ele>
        <time>2024-03-05T16:24:55Z</time>
      </trkpt>
      <trkpt lat="48.62574" lon="7.25609">
        <ele>721.1</ele>
        <time>2024-03-05T16:24:56Z</time>
      </trkpt>
      <trkpt lat="48.62576" lon="7.25606">
        <ele>721.4</ele>
        <time>2024-03-05T16:24:57Z</time>
      </trkpt>
      <trkpt lat="48.62576" lon="7.25604">
        <ele>721.6</ele>
        <time>2024-03-05T16:24:58Z</time>
      </trkpt>
      <trkpt lat="48.62579" lon="7.256">
        <ele>722.2</ele>
        <time>2024-03-05T16:24:59Z</time>
      </trkpt>
      <trkpt lat="48.62581" lon="7.25595">
        <ele>722.7</ele>
        <time>2024-03-05T16:25:00Z</time>
      </trkpt>
      <trkpt lat="48.62584" lon="7.25588">
        <ele>723.5</ele>
        <time>2024-03-05T16:25:02Z</time>
      </trkpt>
      <trkpt lat="48.62586" lon="7.25585">
        <ele>724.1</ele>
        <time>2024-03-05T16:25:03Z</time>
      </trkpt>
      <trkpt lat="48.62587" lon="7.25585">
        <ele>724.2</ele>
        <time>2024-03-05T16:25:04Z</time>
      </trkpt>
      <trkpt lat="48.62589" lon="7.25586">
        <ele>724.5</ele>
        <time>2024-03-05T16:25:05Z</time>
      </trkpt>
      <trkpt lat="48.62589" lon="7.25586">
        <ele>724.6</ele>
        <time>2024-03-05T16:25:06Z</time>
      </trkpt>
      <trkpt lat="48.6259" lon="7.25586">
        <ele>724.7</ele>
        <time>2024-03-05T16:25:07Z</time>
      </trkpt>
      <trkpt lat="48.62591" lon="7.25585">
        <ele>724.9</ele>
        <time>2024-03-05T16:25:08Z</time>
      </trkpt>
      <trkpt lat="48.62594" lon="7.25587">
        <ele>725.5</ele>
        <time>2024-03-05T16:25:10Z</time>
      </trkpt>
      <trkpt lat="48.62598" lon="7.25586">
        <ele>726.4</ele>
        <time>2024-03-05T16:25:12Z</time>
      </trkpt>
      <trkpt lat="48.626" lon="7.25585">
        <ele>726.8</ele>
        <time>2024-03-05T16:25:13Z</time>
      </trkpt>
      <trkpt lat="48.62601" lon="7.25584">
        <ele>726.9</ele>
        <time>2024-03-05T16:25:14Z</time>
      </trkpt>
      <trkpt lat="48.62601" lon="7.25584">
        <ele>727</ele>
        <time>2024-03-05T16:25:15Z</time>
      </trkpt>
      <trkpt lat="48.62602" lon="7.25583">
        <ele>727.3</ele>
        <time>2024-03-05T16:25:16Z</time>
      </trkpt>
      <trkpt lat="48.62603" lon="7.25583">
        <ele>727.4</ele>
        <time>2024-03-05T16:25:17Z</time>
      </trkpt>
      <trkpt lat="48.62603" lon="7.25582">
        <ele>727.5</ele>
        <time>2024-03-05T16:25:18Z</time>
      </trkpt>
      <trkpt lat="48.62604" lon="7.25582">
        <ele>727.7</ele>
        <time>2024-03-05T16:25:19Z</time>
      </trkpt>
      <trkpt lat="48.62604" lon="7.25582">
        <ele>727.8</ele>
        <time>2024-03-05T16:25:20Z</time>
      </trkpt>
      <trkpt lat="48.62606" lon="7.25581">
        <ele>728.1</ele>
        <time>2024-03-05T16:25:21Z</time>
      </trkpt>
      <trkpt lat="48.62607" lon="7.25579">
        <ele>728.5</ele>
        <time>2024-03-05T16:25:22Z</time>
      </trkpt>
      <trkpt lat="48.62608" lon="7.25578">
        <ele>728.8</ele>
        <time>2024-03-05T16:25:23Z</time>
      </trkpt>
      <trkpt lat="48.62609" lon="7.25577">
        <ele>729</ele>
        <time>2024-03-05T16:25:24Z</time>
      </trkpt>
      <trkpt lat="48.62609" lon="7.25576">
        <ele>729.3</ele>
        <time>2024-03-05T16:25:25Z</time>
      </trkpt>
      <trkpt lat="48.62609" lon="7.25575">
        <ele>729.5</ele>
        <time>2024-03-05T16:25:26Z</time>
      </trkpt>
      <trkpt lat="48.62609" lon="7.25574">
        <ele>729.7</ele>
        <time>2024-03-05T16:25:27Z</time>
      </trkpt>
      <trkpt lat="48.62609" lon="7.25573">
        <ele>729.8</ele>
        <time>2024-03-05T16:25:29Z</time>
      </trkpt>
      <trkpt lat="48.62609" lon="7.25572">
        <ele>730</ele>
        <time>2024-03-05T16:25:30Z</time>
      </trkpt>
      <trkpt lat="48.6261" lon="7.25566">
        <ele>731</ele>
        <time>2024-03-05T16:25:31Z</time>
      </trkpt>
      <trkpt lat="48.62611" lon="7.25563">
        <ele>731.4</ele>
        <time>2024-03-05T16:25:32Z</time>
      </trkpt>
      <trkpt lat="48.62612" lon="7.25559">
        <ele>732.2</ele>
        <time>2024-03-05T16:25:33Z</time>
      </trkpt>
      <trkpt lat="48.62615" lon="7.25556">
        <ele>733</ele>
        <time>2024-03-05T16:25:34Z</time>
      </trkpt>
      <trkpt lat="48.62615" lon="7.25554">
        <ele>733.2</ele>
        <time>2024-03-05T16:25:35Z</time>
      </trkpt>
      <trkpt lat="48.62617" lon="7.25553">
        <ele>733.7</ele>
        <time>2024-03-05T16:25:36Z</time>
      </trkpt>
      <trkpt lat="48.6262" lon="7.25551">
        <ele>734.5</ele>
        <time>2024-03-05T16:25:37Z</time>
      </trkpt>
      <trkpt lat="48.62622" lon="7.25551">
        <ele>734.8</ele>
        <time>2024-03-05T16:25:38Z</time>
      </trkpt>
      <trkpt lat="48.62623" lon="7.2555">
        <ele>735.2</ele>
        <time>2024-03-05T16:25:39Z</time>
      </trkpt>
      <trkpt lat="48.62625" lon="7.25547">
        <ele>735.7</ele>
        <time>2024-03-05T16:25:41Z</time>
      </trkpt>
      <trkpt lat="48.62627" lon="7.25545">
        <ele>736.1</ele>
        <time>2024-03-05T16:25:42Z</time>
      </trkpt>
      <trkpt lat="48.62628" lon="7.25544">
        <ele>736.4</ele>
        <time>2024-03-05T16:25:43Z</time>
      </trkpt>
      <trkpt lat="48.62629" lon="7.25542">
        <ele>736.6</ele>
        <time>2024-03-05T16:25:44Z</time>
      </trkpt>
      <trkpt lat="48.62631" lon="7.2554">
        <ele>737.1</ele>
        <time>2024-03-05T16:25:45Z</time>
      </trkpt>
      <trkpt lat="48.62632" lon="7.25539">
        <ele>737.2</ele>
        <time>2024-03-05T16:25:46Z</time>
      </trkpt>
      <trkpt lat="48.62633" lon="7.25539">
        <ele>737.2</ele>
        <time>2024-03-05T16:25:47Z</time>
      </trkpt>
      <trkpt lat="48.62634" lon="7.25538">
        <ele>737.4</ele>
        <time>2024-03-05T16:25:48Z</time>
      </trkpt>
      <trkpt lat="48.62636" lon="7.25536">
        <ele>737.8</ele>
        <time>2024-03-05T16:25:50Z</time>
      </trkpt>
      <trkpt lat="48.62639" lon="7.25533">
        <ele>738.2</ele>
        <time>2024-03-05T16:25:51Z</time>
      </trkpt>
      <trkpt lat="48.62642" lon="7.25529">
        <ele>738.6</ele>
        <time>2024-03-05T16:25:52Z</time>
      </trkpt>
      <trkpt lat="48.62645" lon="7.25527">
        <ele>738.8</ele>
        <time>2024-03-05T16:25:53Z</time>
      </trkpt>
      <trkpt lat="48.62648" lon="7.25524">
        <ele>739</ele>
        <time>2024-03-05T16:25:54Z</time>
      </trkpt>
      <trkpt lat="48.62651" lon="7.25521">
        <ele>739.2</ele>
        <time>2024-03-05T16:25:55Z</time>
      </trkpt>
      <trkpt lat="48.62654" lon="7.2552">
        <ele>739.3</ele>
        <time>2024-03-05T16:25:56Z</time>
      </trkpt>
      <trkpt lat="48.62659" lon="7.25519">
        <ele>739.4</ele>
        <time>2024-03-05T16:25:57Z</time>
      </trkpt>
      <trkpt lat="48.62661" lon="7.25519">
        <ele>739.5</ele>
        <time>2024-03-05T16:25:58Z</time>
      </trkpt>
      <trkpt lat="48.62665" lon="7.25519">
        <ele>739.5</ele>
        <time>2024-03-05T16:25:59Z</time>
      </trkpt>
      <trkpt lat="48.62669" lon="7.2552">
        <ele>739.3</ele>
        <time>2024-03-05T16:26:00Z</time>
      </trkpt>
      <trkpt lat="48.62673" lon="7.2552">
        <ele>739</ele>
        <time>2024-03-05T16:26:01Z</time>
      </trkpt>
      <trkpt lat="48.62679" lon="7.25521">
        <ele>738.8</ele>
        <time>2024-03-05T16:26:03Z</time>
      </trkpt>
      <trkpt lat="48.62682" lon="7.25521">
        <ele>738.6</ele>
        <time>2024-03-05T16:26:04Z</time>
      </trkpt>
      <trkpt lat="48.62686" lon="7.25523">
        <ele>738.4</ele>
        <time>2024-03-05T16:26:05Z</time>
      </trkpt>
      <trkpt lat="48.6269" lon="7.25523">
        <ele>738.2</ele>
        <time>2024-03-05T16:26:06Z</time>
      </trkpt>
      <trkpt lat="48.62694" lon="7.25525">
        <ele>738</ele>
        <time>2024-03-05T16:26:07Z</time>
      </trkpt>
      <trkpt lat="48.62699" lon="7.25527">
        <ele>737.8</ele>
        <time>2024-03-05T16:26:08Z</time>
      </trkpt>
      <trkpt lat="48.62703" lon="7.25529">
        <ele>737.7</ele>
        <time>2024-03-05T16:26:09Z</time>
      </trkpt>
      <trkpt lat="48.62709" lon="7.25531">
        <ele>737.5</ele>
        <time>2024-03-05T16:26:11Z</time>
      </trkpt>
      <trkpt lat="48.62712" lon="7.25532">
        <ele>737.4</ele>
        <time>2024-03-05T16:26:12Z</time>
      </trkpt>
      <trkpt lat="48.62716" lon="7.25533">
        <ele>737.3</ele>
        <time>2024-03-05T16:26:13Z</time>
      </trkpt>
      <trkpt lat="48.6272" lon="7.25534">
        <ele>737.2</ele>
        <time>2024-03-05T16:26:14Z</time>
      </trkpt>
      <trkpt lat="48.62723" lon="7.25536">
        <ele>737.2</ele>
        <time>2024-03-05T16:26:15Z</time>
      </trkpt>
      <trkpt lat="48.62726" lon="7.25537">
        <ele>737.1</ele>
        <time>2024-03-05T16:26:16Z</time>
      </trkpt>
      <trkpt lat="48.62731" lon="7.25539">
        <ele>737</ele>
        <time>2024-03-05T16:26:17Z</time>
      </trkpt>
      <trkpt lat="48.62735" lon="7.25541">
        <ele>736.9</ele>
        <time>2024-03-05T16:26:18Z</time>
      </trkpt>
      <trkpt lat="48.6274" lon="7.25545">
        <ele>736.8</ele>
        <time>2024-03-05T16:26:20Z</time>
      </trkpt>
      <trkpt lat="48.62744" lon="7.25546">
        <ele>736.7</ele>
        <time>2024-03-05T16:26:21Z</time>
      </trkpt>
      <trkpt lat="48.62747" lon="7.25547">
        <ele>736.7</ele>
        <time>2024-03-05T16:26:22Z</time>
      </trkpt>
      <trkpt lat="48.6275" lon="7.25549">
        <ele>736.6</ele>
        <time>2024-03-05T16:26:23Z</time>
      </trkpt>
      <trkpt lat="48.62753" lon="7.25551">
        <ele>736.5</ele>
        <time>2024-03-05T16:26:24Z</time>
      </trkpt>
      <trkpt lat="48.62755" lon="7.25553">
        <ele>736.5</ele>
        <time>2024-03-05T16:26:25Z</time>
      </trkpt>
      <trkpt lat="48.62757" lon="7.25556">
        <ele>736.4</ele>
        <time>2024-03-05T16:26:26Z</time>
      </trkpt>
      <trkpt lat="48.6276" lon="7.25558">
        <ele>736.4</ele>
        <time>2024-03-05T16:26:27Z</time>
      </trkpt>
      <trkpt lat="48.62763" lon="7.2556">
        <ele>736.3</ele>
        <time>2024-03-05T16:26:28Z</time>
      </trkpt>
      <trkpt lat="48.62766" lon="7.25561">
        <ele>736.2</ele>
        <time>2024-03-05T16:26:29Z</time>
      </trkpt>
      <trkpt lat="48.62769" lon="7.25563">
        <ele>736.2</ele>
        <time>2024-03-05T16:26:30Z</time>
      </trkpt>
      <trkpt lat="48.62772" lon="7.25565">
        <ele>736.1</ele>
        <time>2024-03-05T16:26:31Z</time>
      </trkpt>
      <trkpt lat="48.62774" lon="7.25567">
        <ele>736</ele>
        <time>2024-03-05T16:26:32Z</time>
      </trkpt>
      <trkpt lat="48.62778" lon="7.25569">
        <ele>736</ele>
        <time>2024-03-05T16:26:33Z</time>
      </trkpt>
      <trkpt lat="48.62781" lon="7.25571">
        <ele>735.9</ele>
        <time>2024-03-05T16:26:34Z</time>
      </trkpt>
      <trkpt lat="48.62785" lon="7.25573">
        <ele>735.8</ele>
        <time>2024-03-05T16:26:35Z</time>
      </trkpt>
      <trkpt lat="48.62788" lon="7.25575">
        <ele>735.7</ele>
        <time>2024-03-05T16:26:36Z</time>
      </trkpt>
      <trkpt lat="48.62791" lon="7.25578">
        <ele>735.6</ele>
        <time>2024-03-05T16:26:37Z</time>
      </trkpt>
      <trkpt lat="48.62796" lon="7.2558">
        <ele>735.5</ele>
        <time>2024-03-05T16:26:38Z</time>
      </trkpt>
      <trkpt lat="48.628" lon="7.25582">
        <ele>735.4</ele>
        <time>2024-03-05T16:26:40Z</time>
      </trkpt>
      <trkpt lat="48.62802" lon="7.25583">
        <ele>735.3</ele>
        <time>2024-03-05T16:26:41Z</time>
      </trkpt>
      <trkpt lat="48.62803" lon="7.25584">
        <ele>735.3</ele>
        <time>2024-03-05T16:26:42Z</time>
      </trkpt>
      <trkpt lat="48.62806" lon="7.25586">
        <ele>735.2</ele>
        <time>2024-03-05T16:26:43Z</time>
      </trkpt>
      <trkpt lat="48.6281" lon="7.25588">
        <ele>735.1</ele>
        <time>2024-03-05T16:26:44Z</time>
      </trkpt>
      <trkpt lat="48.62815" lon="7.2559">
        <ele>735</ele>
        <time>2024-03-05T16:26:45Z</time>
      </trkpt>
      <trkpt lat="48.62818" lon="7.2559">
        <ele>734.9</ele>
        <time>2024-03-05T16:26:46Z</time>
      </trkpt>
      <trkpt lat="48.62821" lon="7.25591">
        <ele>734.9</ele>
        <time>2024-03-05T16:26:47Z</time>
      </trkpt>
      <trkpt lat="48.62824" lon="7.25591">
        <ele>734.5</ele>
        <time>2024-03-05T16:26:48Z</time>
      </trkpt>
      <trkpt lat="48.6283" lon="7.25589">
        <ele>733.9</ele>
        <time>2024-03-05T16:26:50Z</time>
      </trkpt>
      <trkpt lat="48.62834" lon="7.25588">
        <ele>733.5</ele>
        <time>2024-03-05T16:26:51Z</time>
      </trkpt>
      <trkpt lat="48.62835" lon="7.25586">
        <ele>733.4</ele>
        <time>2024-03-05T16:26:52Z</time>
      </trkpt>
      <trkpt lat="48.62836" lon="7.25584">
        <ele>733.1</ele>
        <time>2024-03-05T16:26:53Z</time>
      </trkpt>
      <trkpt lat="48.62837" lon="7.25583">
        <ele>733</ele>
        <time>2024-03-05T16:26:54Z</time>
      </trkpt>
      <trkpt lat="48.62838" lon="7.25584">
        <ele>732.9</ele>
        <time>2024-03-05T16:26:55Z</time>
      </trkpt>
      <trkpt lat="48.6284" lon="7.25582">
        <ele>732.7</ele>
        <time>2024-03-05T16:26:56Z</time>
      </trkpt>
      <trkpt lat="48.62843" lon="7.2558">
        <ele>732.3</ele>
        <time>2024-03-05T16:26:57Z</time>
      </trkpt>
      <trkpt lat="48.62848" lon="7.25578">
        <ele>731.8</ele>
        <time>2024-03-05T16:26:58Z</time>
      </trkpt>
      <trkpt lat="48.62852" lon="7.25574">
        <ele>731.3</ele>
        <time>2024-03-05T16:26:59Z</time>
      </trkpt>
      <trkpt lat="48.62854" lon="7.25569">
        <ele>731</ele>
        <time>2024-03-05T16:27:00Z</time>
      </trkpt>
      <trkpt lat="48.62857" lon="7.25567">
        <ele>730.6</ele>
        <time>2024-03-05T16:27:02Z</time>
      </trkpt>
      <trkpt lat="48.62861" lon="7.25564">
        <ele>730.4</ele>
        <time>2024-03-05T16:27:03Z</time>
      </trkpt>
      <trkpt lat="48.62862" lon="7.25563">
        <ele>730.3</ele>
        <time>2024-03-05T16:27:04Z</time>
      </trkpt>
      <trkpt lat="48.62866" lon="7.2556">
        <ele>729.9</ele>
        <time>2024-03-05T16:27:05Z</time>
      </trkpt>
      <trkpt lat="48.62867" lon="7.25558">
        <ele>729.8</ele>
        <time>2024-03-05T16:27:06Z</time>
      </trkpt>
      <trkpt lat="48.62871" lon="7.25554">
        <ele>729.5</ele>
        <time>2024-03-05T16:27:07Z</time>
      </trkpt>
      <trkpt lat="48.62875" lon="7.25551">
        <ele>729.3</ele>
        <time>2024-03-05T16:27:08Z</time>
      </trkpt>
      <trkpt lat="48.6288" lon="7.2555">
        <ele>729.2</ele>
        <time>2024-03-05T16:27:10Z</time>
      </trkpt>
      <trkpt lat="48.62883" lon="7.25551">
        <ele>729.1</ele>
        <time>2024-03-05T16:27:11Z</time>
      </trkpt>
      <trkpt lat="48.62884" lon="7.25551">
        <ele>729.1</ele>
        <time>2024-03-05T16:27:12Z</time>
      </trkpt>
      <trkpt lat="48.62885" lon="7.25552">
        <ele>729.1</ele>
        <time>2024-03-05T16:27:13Z</time>
      </trkpt>
      <trkpt lat="48.62886" lon="7.25552">
        <ele>729.1</ele>
        <time>2024-03-05T16:27:14Z</time>
      </trkpt>
      <trkpt lat="48.62887" lon="7.25553">
        <ele>729.1</ele>
        <time>2024-03-05T16:27:15Z</time>
      </trkpt>
      <trkpt lat="48.62888" lon="7.25553">
        <ele>729.1</ele>
        <time>2024-03-05T16:27:16Z</time>
      </trkpt>
      <trkpt lat="48.62889" lon="7.25553">
        <ele>729.1</ele>
        <time>2024-03-05T16:27:17Z</time>
      </trkpt>
      <trkpt lat="48.6289" lon="7.25554">
        <ele>729.1</ele>
        <time>2024-03-05T16:27:18Z</time>
      </trkpt>
      <trkpt lat="48.62891" lon="7.25555">
        <ele>729.1</ele>
        <time>2024-03-05T16:27:19Z</time>
      </trkpt>
      <trkpt lat="48.62892" lon="7.25556">
        <ele>729.1</ele>
        <time>2024-03-05T16:27:20Z</time>
      </trkpt>
      <trkpt lat="48.62892" lon="7.25557">
        <ele>729.1</ele>
        <time>2024-03-05T16:27:21Z</time>
      </trkpt>
      <trkpt lat="48.62893" lon="7.25559">
        <ele>729.1</ele>
        <time>2024-03-05T16:27:22Z</time>
      </trkpt>
      <trkpt lat="48.62892" lon="7.25562">
        <ele>729.2</ele>
        <time>2024-03-05T16:27:23Z</time>
      </trkpt>
      <trkpt lat="48.62892" lon="7.25564">
        <ele>729.3</ele>
        <time>2024-03-05T16:27:24Z</time>
      </trkpt>
      <trkpt lat="48.62892" lon="7.25566">
        <ele>729.3</ele>
        <time>2024-03-05T16:32:09Z</time>
      </trkpt>
      <trkpt lat="48.62892" lon="7.25568">
        <ele>729.4</ele>
        <time>2024-03-05T16:32:10Z</time>
      </trkpt>
      <trkpt lat="48.62892" lon="7.25571">
        <ele>729.4</ele>
        <time>2024-03-05T16:32:11Z</time>
      </trkpt>
      <trkpt lat="48.62889" lon="7.25574">
        <ele>729.6</ele>
        <time>2024-03-05T16:32:12Z</time>
      </trkpt>
      <trkpt lat="48.62888" lon="7.25575">
        <ele>729.6</ele>
        <time>2024-03-05T16:32:13Z</time>
      </trkpt>
      <trkpt lat="48.62885" lon="7.25577">
        <ele>729.7</ele>
        <time>2024-03-05T16:32:14Z</time>
      </trkpt>
      <trkpt lat="48.62883" lon="7.25579">
        <ele>729.9</ele>
        <time>2024-03-05T16:32:15Z</time>
      </trkpt>
      <trkpt lat="48.6288" lon="7.25581">
        <ele>730</ele>
        <time>2024-03-05T16:32:16Z</time>
      </trkpt>
      <trkpt lat="48.62878" lon="7.25582">
        <ele>730</ele>
        <time>2024-03-05T16:32:17Z</time>
      </trkpt>
      <trkpt lat="48.62876" lon="7.25584">
        <ele>730</ele>
        <time>2024-03-05T16:32:18Z</time>
      </trkpt>
      <trkpt lat="48.62873" lon="7.25589">
        <ele>730</ele>
        <time>2024-03-05T16:32:19Z</time>
      </trkpt>
      <trkpt lat="48.6287" lon="7.25591">
        <ele>729.9</ele>
        <time>2024-03-05T16:32:20Z</time>
      </trkpt>
      <trkpt lat="48.62866" lon="7.25595">
        <ele>729.7</ele>
        <time>2024-03-05T16:32:21Z</time>
      </trkpt>
      <trkpt lat="48.62865" lon="7.25599">
        <ele>729.5</ele>
        <time>2024-03-05T16:32:22Z</time>
      </trkpt>
      <trkpt lat="48.62864" lon="7.25601">
        <ele>729.4</ele>
        <time>2024-03-05T16:32:23Z</time>
      </trkpt>
      <trkpt lat="48.62863" lon="7.25606">
        <ele>729.1</ele>
        <time>2024-03-05T16:32:24Z</time>
      </trkpt>
      <trkpt lat="48.62861" lon="7.25612">
        <ele>728.6</ele>
        <time>2024-03-05T16:32:25Z</time>
      </trkpt>
      <trkpt lat="48.62859" lon="7.25618">
        <ele>728.2</ele>
        <time>2024-03-05T16:32:27Z</time>
      </trkpt>
      <trkpt lat="48.62859" lon="7.25624">
        <ele>727.3</ele>
        <time>2024-03-05T16:32:28Z</time>
      </trkpt>
      <trkpt lat="48.62861" lon="7.2563">
        <ele>726.6</ele>
        <time>2024-03-05T16:32:29Z</time>
      </trkpt>
      <trkpt lat="48.62863" lon="7.25636">
        <ele>725.9</ele>
        <time>2024-03-05T16:32:30Z</time>
      </trkpt>
      <trkpt lat="48.62866" lon="7.2564">
        <ele>725.2</ele>
        <time>2024-03-05T16:32:31Z</time>
      </trkpt>
      <trkpt lat="48.62869" lon="7.25644">
        <ele>724.5</ele>
        <time>2024-03-05T16:32:32Z</time>
      </trkpt>
      <trkpt lat="48.62871" lon="7.2565">
        <ele>723.9</ele>
        <time>2024-03-05T16:32:33Z</time>
      </trkpt>
      <trkpt lat="48.62873" lon="7.25656">
        <ele>723.2</ele>
        <time>2024-03-05T16:32:34Z</time>
      </trkpt>
      <trkpt lat="48.62874" lon="7.25663">
        <ele>722.6</ele>
        <time>2024-03-05T16:32:35Z</time>
      </trkpt>
      <trkpt lat="48.62876" lon="7.25669">
        <ele>721.9</ele>
        <time>2024-03-05T16:32:36Z</time>
      </trkpt>
      <trkpt lat="48.62878" lon="7.25676">
        <ele>721.2</ele>
        <time>2024-03-05T16:32:37Z</time>
      </trkpt>
      <trkpt lat="48.6288" lon="7.25683">
        <ele>720.6</ele>
        <time>2024-03-05T16:32:38Z</time>
      </trkpt>
      <trkpt lat="48.62882" lon="7.2569">
        <ele>720</ele>
        <time>2024-03-05T16:32:39Z</time>
      </trkpt>
      <trkpt lat="48.62883" lon="7.25698">
        <ele>719.4</ele>
        <time>2024-03-05T16:32:40Z</time>
      </trkpt>
      <trkpt lat="48.62885" lon="7.25704">
        <ele>718.8</ele>
        <time>2024-03-05T16:32:41Z</time>
      </trkpt>
      <trkpt lat="48.62887" lon="7.25711">
        <ele>718.3</ele>
        <time>2024-03-05T16:32:42Z</time>
      </trkpt>
      <trkpt lat="48.62889" lon="7.25719">
        <ele>717.7</ele>
        <time>2024-03-05T16:32:43Z</time>
      </trkpt>
      <trkpt lat="48.6289" lon="7.25727">
        <ele>717.1</ele>
        <time>2024-03-05T16:32:44Z</time>
      </trkpt>
      <trkpt lat="48.62892" lon="7.25735">
        <ele>716.5</ele>
        <time>2024-03-05T16:32:45Z</time>
      </trkpt>
      <trkpt lat="48.62894" lon="7.25742">
        <ele>716</ele>
        <time>2024-03-05T16:32:46Z</time>
      </trkpt>
      <trkpt lat="48.62896" lon="7.25751">
        <ele>715.4</ele>
        <time>2024-03-05T16:32:47Z</time>
      </trkpt>
      <trkpt lat="48.62898" lon="7.2576">
        <ele>714.8</ele>
        <time>2024-03-05T16:32:48Z</time>
      </trkpt>
      <trkpt lat="48.629" lon="7.25769">
        <ele>714.2</ele>
        <time>2024-03-05T16:32:49Z</time>
      </trkpt>
      <trkpt lat="48.62901" lon="7.25778">
        <ele>713.6</ele>
        <time>2024-03-05T16:32:50Z</time>
      </trkpt>
      <trkpt lat="48.62902" lon="7.25787">
        <ele>713</ele>
        <time>2024-03-05T16:32:51Z</time>
      </trkpt>
      <trkpt lat="48.62903" lon="7.25795">
        <ele>712.3</ele>
        <time>2024-03-05T16:32:52Z</time>
      </trkpt>
      <trkpt lat="48.62905" lon="7.25803">
        <ele>711.5</ele>
        <time>2024-03-05T16:32:53Z</time>
      </trkpt>
      <trkpt lat="48.62908" lon="7.25812">
        <ele>710.8</ele>
        <time>2024-03-05T16:32:54Z</time>
      </trkpt>
      <trkpt lat="48.6291" lon="7.25821">
        <ele>710</ele>
        <time>2024-03-05T16:32:55Z</time>
      </trkpt>
      <trkpt lat="48.62913" lon="7.2583">
        <ele>709.3</ele>
        <time>2024-03-05T16:32:56Z</time>
      </trkpt>
      <trkpt lat="48.62917" lon="7.25838">
        <ele>708.6</ele>
        <time>2024-03-05T16:32:57Z</time>
      </trkpt>
      <trkpt lat="48.62921" lon="7.25846">
        <ele>707.9</ele>
        <time>2024-03-05T16:32:58Z</time>
      </trkpt>
      <trkpt lat="48.62928" lon="7.25853">
        <ele>707.1</ele>
        <time>2024-03-05T16:32:59Z</time>
      </trkpt>
      <trkpt lat="48.6293" lon="7.2586">
        <ele>706.5</ele>
        <time>2024-03-05T16:33:00Z</time>
      </trkpt>
      <trkpt lat="48.62932" lon="7.25868">
        <ele>705.9</ele>
        <time>2024-03-05T16:33:01Z</time>
      </trkpt>
      <trkpt lat="48.62934" lon="7.25876">
        <ele>705.3</ele>
        <time>2024-03-05T16:33:02Z</time>
      </trkpt>
      <trkpt lat="48.62937" lon="7.25883">
        <ele>704.6</ele>
        <time>2024-03-05T16:33:03Z</time>
      </trkpt>
      <trkpt lat="48.6294" lon="7.25891">
        <ele>703.9</ele>
        <time>2024-03-05T16:33:04Z</time>
      </trkpt>
      <trkpt lat="48.62944" lon="7.25898">
        <ele>703.1</ele>
        <time>2024-03-05T16:33:05Z</time>
      </trkpt>
      <trkpt lat="48.62948" lon="7.25905">
        <ele>702.5</ele>
        <time>2024-03-05T16:33:06Z</time>
      </trkpt>
      <trkpt lat="48.62952" lon="7.25912">
        <ele>701.9</ele>
        <time>2024-03-05T16:33:07Z</time>
      </trkpt>
      <trkpt lat="48.62956" lon="7.25918">
        <ele>701.4</ele>
        <time>2024-03-05T16:33:08Z</time>
      </trkpt>
      <trkpt lat="48.6296" lon="7.25924">
        <ele>700.9</ele>
        <time>2024-03-05T16:33:09Z</time>
      </trkpt>
      <trkpt lat="48.62963" lon="7.25931">
        <ele>700.5</ele>
        <time>2024-03-05T16:33:10Z</time>
      </trkpt>
      <trkpt lat="48.62966" lon="7.25938">
        <ele>700</ele>
        <time>2024-03-05T16:33:11Z</time>
      </trkpt>
      <trkpt lat="48.6297" lon="7.25944">
        <ele>699.5</ele>
        <time>2024-03-05T16:33:12Z</time>
      </trkpt>
      <trkpt lat="48.62973" lon="7.25951">
        <ele>699</ele>
        <time>2024-03-05T16:33:13Z</time>
      </trkpt>
      <trkpt lat="48.62977" lon="7.25958">
        <ele>698.5</ele>
        <time>2024-03-05T16:33:14Z</time>
      </trkpt>
      <trkpt lat="48.62981" lon="7.25965">
        <ele>697.9</ele>
        <time>2024-03-05T16:33:15Z</time>
      </trkpt>
      <trkpt lat="48.62985" lon="7.25973">
        <ele>697.3</ele>
        <time>2024-03-05T16:33:16Z</time>
      </trkpt>
      <trkpt lat="48.62989" lon="7.25979">
        <ele>696.8</ele>
        <time>2024-03-05T16:33:17Z</time>
      </trkpt>
      <trkpt lat="48.62993" lon="7.25985">
        <ele>696.3</ele>
        <time>2024-03-05T16:33:18Z</time>
      </trkpt>
      <trkpt lat="48.62996" lon="7.2599">
        <ele>695.8</ele>
        <time>2024-03-05T16:33:19Z</time>
      </trkpt>
      <trkpt lat="48.62999" lon="7.25995">
        <ele>695.4</ele>
        <time>2024-03-05T16:33:20Z</time>
      </trkpt>
      <trkpt lat="48.63003" lon="7.25998">
        <ele>694.9</ele>
        <time>2024-03-05T16:33:21Z</time>
      </trkpt>
      <trkpt lat="48.63008" lon="7.26003">
        <ele>694.4</ele>
        <time>2024-03-05T16:33:22Z</time>
      </trkpt>
      <trkpt lat="48.63013" lon="7.26007">
        <ele>693.8</ele>
        <time>2024-03-05T16:33:23Z</time>
      </trkpt>
      <trkpt lat="48.63018" lon="7.26011">
        <ele>693.4</ele>
        <time>2024-03-05T16:33:24Z</time>
      </trkpt>
      <trkpt lat="48.63023" lon="7.26014">
        <ele>693</ele>
        <time>2024-03-05T16:33:25Z</time>
      </trkpt>
      <trkpt lat="48.63029" lon="7.26017">
        <ele>692.7</ele>
        <time>2024-03-05T16:33:26Z</time>
      </trkpt>
      <trkpt lat="48.63034" lon="7.26019">
        <ele>692.4</ele>
        <time>2024-03-05T16:33:27Z</time>
      </trkpt>
      <trkpt lat="48.6304" lon="7.26022">
        <ele>692.2</ele>
        <time>2024-03-05T16:33:28Z</time>
      </trkpt>
      <trkpt lat="48.63044" lon="7.26025">
        <ele>692</ele>
        <time>2024-03-05T16:33:29Z</time>
      </trkpt>
      <trkpt lat="48.63049" lon="7.26028">
        <ele>691.9</ele>
        <time>2024-03-05T16:33:30Z</time>
      </trkpt>
      <trkpt lat="48.63053" lon="7.2603">
        <ele>691.7</ele>
        <time>2024-03-05T16:33:31Z</time>
      </trkpt>
      <trkpt lat="48.63056" lon="7.26031">
        <ele>691.6</ele>
        <time>2024-03-05T16:33:32Z</time>
      </trkpt>
      <trkpt lat="48.6306" lon="7.26032">
        <ele>691.4</ele>
        <time>2024-03-05T16:33:33Z</time>
      </trkpt>
      <trkpt lat="48.63064" lon="7.26033">
        <ele>691.3</ele>
        <time>2024-03-05T16:33:34Z</time>
      </trkpt>
      <trkpt lat="48.63066" lon="7.26034">
        <ele>691.2</ele>
        <time>2024-03-05T16:33:35Z</time>
      </trkpt>
      <trkpt lat="48.63071" lon="7.26035">
        <ele>691</ele>
        <time>2024-03-05T16:33:36Z</time>
      </trkpt>
      <trkpt lat="48.63073" lon="7.26036">
        <ele>690.9</ele>
        <time>2024-03-05T16:33:37Z</time>
      </trkpt>
    </trkseg>
  </trk>
</gpx>